<?xml version="1.0" encoding="UTF-8" standalone="no" ?>
<gpx xmlns="http://www.topografix.com/GPX/1/1" xmlns:xsi="http://www.w3.org/2001/XMLSchema-instance" xsi:schemaLocation="http://www.topografix.com/GPX/1/1 http://www.topografix.com/GPX/1/1/gpx.xsd" version="1.1" creator="VisuGPX - https://www.visugpx.com">
  <metadata>
    <name>Sun Trip 2019</name>
    <desc><![CDATA[Le parcours du Sun Trip 2019]]></desc>
  </metadata>
  <trk>
    <name><![CDATA[J8bis]]></name>
    <trkseg>
      <trkpt lat="45.91817" lon="6.86911">
        <ele>1037</ele>
        <time>2019-04-17T10:42:16Z</time>
      </trkpt>
      <trkpt lat="45.91876" lon="6.86964">
        <ele>1036</ele>
        <time>2019-04-17T10:43:16Z</time>
      </trkpt>
      <trkpt lat="45.91885" lon="6.86974">
        <ele>1036</ele>
        <time>2019-04-17T10:44:16Z</time>
      </trkpt>
      <trkpt lat="45.91932" lon="6.87041">
        <ele>1037</ele>
        <time>2019-04-17T10:45:16Z</time>
      </trkpt>
      <trkpt lat="45.91946" lon="6.87054">
        <ele>1037</ele>
        <time>2019-04-17T10:46:16Z</time>
      </trkpt>
      <trkpt lat="45.91964" lon="6.87059">
        <ele>1037</ele>
        <time>2019-04-17T10:47:16Z</time>
      </trkpt>
      <trkpt lat="45.91984" lon="6.87047">
        <ele>1037</ele>
        <time>2019-04-17T10:48:16Z</time>
      </trkpt>
      <trkpt lat="45.92018" lon="6.87022">
        <ele>1037</ele>
        <time>2019-04-17T10:49:16Z</time>
      </trkpt>
      <trkpt lat="45.92044" lon="6.87006">
        <ele>1037</ele>
        <time>2019-04-17T10:50:16Z</time>
      </trkpt>
      <trkpt lat="45.9206" lon="6.87001">
        <ele>1038</ele>
        <time>2019-04-17T10:51:16Z</time>
      </trkpt>
      <trkpt lat="45.92072" lon="6.87003">
        <ele>1038</ele>
        <time>2019-04-17T10:52:16Z</time>
      </trkpt>
      <trkpt lat="45.92075" lon="6.87">
        <ele>1038</ele>
        <time>2019-04-17T10:53:16Z</time>
      </trkpt>
      <trkpt lat="45.92076" lon="6.86991">
        <ele>1038</ele>
        <time>2019-04-17T10:54:16Z</time>
      </trkpt>
      <trkpt lat="45.92178" lon="6.86959">
        <ele>1039</ele>
        <time>2019-04-17T10:55:16Z</time>
      </trkpt>
      <trkpt lat="45.92195" lon="6.86958">
        <ele>1039</ele>
        <time>2019-04-17T10:56:16Z</time>
      </trkpt>
      <trkpt lat="45.92221" lon="6.86967">
        <ele>1040</ele>
        <time>2019-04-17T10:57:16Z</time>
      </trkpt>
      <trkpt lat="45.92294" lon="6.87026">
        <ele>1041</ele>
        <time>2019-04-17T10:58:16Z</time>
      </trkpt>
      <trkpt lat="45.92301" lon="6.87034">
        <ele>1041</ele>
        <time>2019-04-17T10:59:16Z</time>
      </trkpt>
      <trkpt lat="45.92303" lon="6.87039">
        <ele>1041</ele>
        <time>2019-04-17T11:00:16Z</time>
      </trkpt>
      <trkpt lat="45.92303" lon="6.8705">
        <ele>1041</ele>
        <time>2019-04-17T11:01:16Z</time>
      </trkpt>
      <trkpt lat="45.92294" lon="6.87086">
        <ele>1042</ele>
        <time>2019-04-17T11:02:16Z</time>
      </trkpt>
      <trkpt lat="45.92295" lon="6.87102">
        <ele>1042</ele>
        <time>2019-04-17T11:03:16Z</time>
      </trkpt>
      <trkpt lat="45.92299" lon="6.87116">
        <ele>1041</ele>
        <time>2019-04-17T11:04:16Z</time>
      </trkpt>
      <trkpt lat="45.92303" lon="6.87123">
        <ele>1041</ele>
        <time>2019-04-17T11:05:16Z</time>
      </trkpt>
      <trkpt lat="45.92324" lon="6.87141">
        <ele>1040</ele>
        <time>2019-04-17T11:06:16Z</time>
      </trkpt>
      <trkpt lat="45.92329" lon="6.87157">
        <ele>1039</ele>
        <time>2019-04-17T11:07:16Z</time>
      </trkpt>
      <trkpt lat="45.9233" lon="6.87166">
        <ele>1039</ele>
        <time>2019-04-17T11:08:16Z</time>
      </trkpt>
      <trkpt lat="45.92342" lon="6.87164">
        <ele>1039</ele>
        <time>2019-04-17T11:09:16Z</time>
      </trkpt>
      <trkpt lat="45.92347" lon="6.87167">
        <ele>1039</ele>
        <time>2019-04-17T11:10:16Z</time>
      </trkpt>
      <trkpt lat="45.9239" lon="6.87214">
        <ele>1037</ele>
        <time>2019-04-17T11:11:16Z</time>
      </trkpt>
      <trkpt lat="45.9241" lon="6.87234">
        <ele>1036</ele>
        <time>2019-04-17T11:12:16Z</time>
      </trkpt>
      <trkpt lat="45.92442" lon="6.8725">
        <ele>1036</ele>
        <time>2019-04-17T11:13:16Z</time>
      </trkpt>
      <trkpt lat="45.92454" lon="6.87258">
        <ele>1037</ele>
        <time>2019-04-17T11:14:16Z</time>
      </trkpt>
      <trkpt lat="45.92459" lon="6.87265">
        <ele>1037</ele>
        <time>2019-04-17T11:15:16Z</time>
      </trkpt>
      <trkpt lat="45.92458" lon="6.87277">
        <ele>1037</ele>
        <time>2019-04-17T11:16:16Z</time>
      </trkpt>
      <trkpt lat="45.92461" lon="6.87284">
        <ele>1038</ele>
        <time>2019-04-17T11:17:16Z</time>
      </trkpt>
      <trkpt lat="45.9247" lon="6.87288">
        <ele>1038</ele>
        <time>2019-04-17T11:18:16Z</time>
      </trkpt>
      <trkpt lat="45.92473" lon="6.87287">
        <ele>1038</ele>
        <time>2019-04-17T11:19:16Z</time>
      </trkpt>
      <trkpt lat="45.92481" lon="6.87304">
        <ele>1039</ele>
        <time>2019-04-17T11:20:16Z</time>
      </trkpt>
      <trkpt lat="45.92499" lon="6.87329">
        <ele>1040</ele>
        <time>2019-04-17T11:21:16Z</time>
      </trkpt>
      <trkpt lat="45.9255" lon="6.87389">
        <ele>1039</ele>
        <time>2019-04-17T11:22:16Z</time>
      </trkpt>
      <trkpt lat="45.92603" lon="6.87448">
        <ele>1039</ele>
        <time>2019-04-17T11:23:16Z</time>
      </trkpt>
      <trkpt lat="45.92622" lon="6.87466">
        <ele>1040</ele>
        <time>2019-04-17T11:24:16Z</time>
      </trkpt>
      <trkpt lat="45.92724" lon="6.8754">
        <ele>1042</ele>
        <time>2019-04-17T11:25:16Z</time>
      </trkpt>
      <trkpt lat="45.92723" lon="6.87552">
        <ele>1042</ele>
        <time>2019-04-17T11:26:16Z</time>
      </trkpt>
      <trkpt lat="45.92728" lon="6.87558">
        <ele>1042</ele>
        <time>2019-04-17T11:27:16Z</time>
      </trkpt>
      <trkpt lat="45.92731" lon="6.87559">
        <ele>1042</ele>
        <time>2019-04-17T11:28:16Z</time>
      </trkpt>
      <trkpt lat="45.92736" lon="6.87555">
        <ele>1042</ele>
        <time>2019-04-17T11:29:16Z</time>
      </trkpt>
      <trkpt lat="45.92742" lon="6.87566">
        <ele>1042</ele>
        <time>2019-04-17T11:30:16Z</time>
      </trkpt>
      <trkpt lat="45.92778" lon="6.87603">
        <ele>1042</ele>
        <time>2019-04-17T11:31:16Z</time>
      </trkpt>
      <trkpt lat="45.92809" lon="6.87642">
        <ele>1042</ele>
        <time>2019-04-17T11:32:16Z</time>
      </trkpt>
      <trkpt lat="45.92828" lon="6.87674">
        <ele>1043</ele>
        <time>2019-04-17T11:33:16Z</time>
      </trkpt>
      <trkpt lat="45.92908" lon="6.87844">
        <ele>1046</ele>
        <time>2019-04-17T11:34:16Z</time>
      </trkpt>
      <trkpt lat="45.92926" lon="6.87876">
        <ele>1047</ele>
        <time>2019-04-17T11:35:16Z</time>
      </trkpt>
      <trkpt lat="45.92941" lon="6.87895">
        <ele>1048</ele>
        <time>2019-04-17T11:36:16Z</time>
      </trkpt>
      <trkpt lat="45.92979" lon="6.87939">
        <ele>1048</ele>
        <time>2019-04-17T11:37:16Z</time>
      </trkpt>
      <trkpt lat="45.92995" lon="6.87963">
        <ele>1048</ele>
        <time>2019-04-17T11:38:16Z</time>
      </trkpt>
      <trkpt lat="45.93012" lon="6.87997">
        <ele>1048</ele>
        <time>2019-04-17T11:39:16Z</time>
      </trkpt>
      <trkpt lat="45.93082" lon="6.88194">
        <ele>1053</ele>
        <time>2019-04-17T11:40:16Z</time>
      </trkpt>
      <trkpt lat="45.9312" lon="6.88296">
        <ele>1053</ele>
        <time>2019-04-17T11:41:16Z</time>
      </trkpt>
      <trkpt lat="45.9318" lon="6.88431">
        <ele>1055</ele>
        <time>2019-04-17T11:42:16Z</time>
      </trkpt>
      <trkpt lat="45.93202" lon="6.88469">
        <ele>1056</ele>
        <time>2019-04-17T11:43:16Z</time>
      </trkpt>
      <trkpt lat="45.93226" lon="6.88497">
        <ele>1057</ele>
        <time>2019-04-17T11:44:16Z</time>
      </trkpt>
      <trkpt lat="45.93255" lon="6.88524">
        <ele>1058</ele>
        <time>2019-04-17T11:45:16Z</time>
      </trkpt>
      <trkpt lat="45.93274" lon="6.88555">
        <ele>1060</ele>
        <time>2019-04-17T11:46:16Z</time>
      </trkpt>
      <trkpt lat="45.93289" lon="6.88587">
        <ele>1061</ele>
        <time>2019-04-17T11:47:16Z</time>
      </trkpt>
      <trkpt lat="45.93377" lon="6.88803">
        <ele>1068</ele>
        <time>2019-04-17T11:48:16Z</time>
      </trkpt>
      <trkpt lat="45.93396" lon="6.88843">
        <ele>1068</ele>
        <time>2019-04-17T11:49:16Z</time>
      </trkpt>
      <trkpt lat="45.93406" lon="6.88859">
        <ele>1068</ele>
        <time>2019-04-17T11:50:16Z</time>
      </trkpt>
      <trkpt lat="45.93421" lon="6.88876">
        <ele>1067</ele>
        <time>2019-04-17T11:51:16Z</time>
      </trkpt>
      <trkpt lat="45.93461" lon="6.88906">
        <ele>1066</ele>
        <time>2019-04-17T11:52:16Z</time>
      </trkpt>
      <trkpt lat="45.93481" lon="6.88914">
        <ele>1065</ele>
        <time>2019-04-17T11:53:16Z</time>
      </trkpt>
      <trkpt lat="45.93503" lon="6.88917">
        <ele>1065</ele>
        <time>2019-04-17T11:54:16Z</time>
      </trkpt>
      <trkpt lat="45.93665" lon="6.88898">
        <ele>1067</ele>
        <time>2019-04-17T11:55:16Z</time>
      </trkpt>
      <trkpt lat="45.93704" lon="6.88891">
        <ele>1068</ele>
        <time>2019-04-17T11:56:16Z</time>
      </trkpt>
      <trkpt lat="45.93732" lon="6.8888">
        <ele>1068</ele>
        <time>2019-04-17T11:57:16Z</time>
      </trkpt>
      <trkpt lat="45.93747" lon="6.8887">
        <ele>1067</ele>
        <time>2019-04-17T11:58:16Z</time>
      </trkpt>
      <trkpt lat="45.9382" lon="6.88801">
        <ele>1064</ele>
        <time>2019-04-17T11:59:16Z</time>
      </trkpt>
      <trkpt lat="45.93834" lon="6.88793">
        <ele>1064</ele>
        <time>2019-04-17T12:00:16Z</time>
      </trkpt>
      <trkpt lat="45.93851" lon="6.88788">
        <ele>1064</ele>
        <time>2019-04-17T12:01:16Z</time>
      </trkpt>
      <trkpt lat="45.93871" lon="6.88787">
        <ele>1064</ele>
        <time>2019-04-17T12:02:16Z</time>
      </trkpt>
      <trkpt lat="45.9397" lon="6.8879">
        <ele>1066</ele>
        <time>2019-04-17T12:03:16Z</time>
      </trkpt>
      <trkpt lat="45.94028" lon="6.88788">
        <ele>1067</ele>
        <time>2019-04-17T12:04:16Z</time>
      </trkpt>
      <trkpt lat="45.94029" lon="6.88792">
        <ele>1067</ele>
        <time>2019-04-17T12:05:16Z</time>
      </trkpt>
      <trkpt lat="45.94033" lon="6.88795">
        <ele>1067</ele>
        <time>2019-04-17T12:06:16Z</time>
      </trkpt>
      <trkpt lat="45.94038" lon="6.88795">
        <ele>1067</ele>
        <time>2019-04-17T12:07:16Z</time>
      </trkpt>
      <trkpt lat="45.94049" lon="6.88778">
        <ele>1066</ele>
        <time>2019-04-17T12:08:16Z</time>
      </trkpt>
      <trkpt lat="45.94052" lon="6.88768">
        <ele>1066</ele>
        <time>2019-04-17T12:09:16Z</time>
      </trkpt>
      <trkpt lat="45.94052" lon="6.88764">
        <ele>1066</ele>
        <time>2019-04-17T12:10:16Z</time>
      </trkpt>
      <trkpt lat="45.94065" lon="6.88751">
        <ele>1065</ele>
        <time>2019-04-17T12:11:16Z</time>
      </trkpt>
      <trkpt lat="45.94084" lon="6.88742">
        <ele>1065</ele>
        <time>2019-04-17T12:12:16Z</time>
      </trkpt>
      <trkpt lat="45.94105" lon="6.8874">
        <ele>1065</ele>
        <time>2019-04-17T12:13:16Z</time>
      </trkpt>
      <trkpt lat="45.94122" lon="6.88742">
        <ele>1065</ele>
        <time>2019-04-17T12:14:16Z</time>
      </trkpt>
      <trkpt lat="45.94132" lon="6.88747">
        <ele>1066</ele>
        <time>2019-04-17T12:15:16Z</time>
      </trkpt>
      <trkpt lat="45.94148" lon="6.88758">
        <ele>1066</ele>
        <time>2019-04-17T12:16:16Z</time>
      </trkpt>
      <trkpt lat="45.94183" lon="6.88801">
        <ele>1066</ele>
        <time>2019-04-17T12:17:16Z</time>
      </trkpt>
      <trkpt lat="45.94667" lon="6.8944">
        <ele>1075</ele>
        <time>2019-04-17T12:18:16Z</time>
      </trkpt>
      <trkpt lat="45.94926" lon="6.89777">
        <ele>1082</ele>
        <time>2019-04-17T12:19:16Z</time>
      </trkpt>
      <trkpt lat="45.94945" lon="6.898">
        <ele>1083</ele>
        <time>2019-04-17T12:20:16Z</time>
      </trkpt>
      <trkpt lat="45.94968" lon="6.89822">
        <ele>1084</ele>
        <time>2019-04-17T12:21:16Z</time>
      </trkpt>
      <trkpt lat="45.94982" lon="6.89828">
        <ele>1085</ele>
        <time>2019-04-17T12:22:16Z</time>
      </trkpt>
      <trkpt lat="45.94994" lon="6.8983">
        <ele>1085</ele>
        <time>2019-04-17T12:23:16Z</time>
      </trkpt>
      <trkpt lat="45.95012" lon="6.89837">
        <ele>1085</ele>
        <time>2019-04-17T12:24:16Z</time>
      </trkpt>
      <trkpt lat="45.95018" lon="6.89842">
        <ele>1086</ele>
        <time>2019-04-17T12:25:16Z</time>
      </trkpt>
      <trkpt lat="45.95024" lon="6.89853">
        <ele>1086</ele>
        <time>2019-04-17T12:26:16Z</time>
      </trkpt>
      <trkpt lat="45.95035" lon="6.89914">
        <ele>1089</ele>
        <time>2019-04-17T12:27:16Z</time>
      </trkpt>
      <trkpt lat="45.95038" lon="6.89923">
        <ele>1089</ele>
        <time>2019-04-17T12:28:16Z</time>
      </trkpt>
      <trkpt lat="45.95048" lon="6.89939">
        <ele>1090</ele>
        <time>2019-04-17T12:29:16Z</time>
      </trkpt>
      <trkpt lat="45.95095" lon="6.89995">
        <ele>1090</ele>
        <time>2019-04-17T12:30:16Z</time>
      </trkpt>
      <trkpt lat="45.95206" lon="6.90143">
        <ele>1097</ele>
        <time>2019-04-17T12:31:16Z</time>
      </trkpt>
      <trkpt lat="45.95264" lon="6.90214">
        <ele>1113</ele>
        <time>2019-04-17T12:32:16Z</time>
      </trkpt>
      <trkpt lat="45.95274" lon="6.90224">
        <ele>1117</ele>
        <time>2019-04-17T12:33:16Z</time>
      </trkpt>
      <trkpt lat="45.95285" lon="6.90232">
        <ele>1119</ele>
        <time>2019-04-17T12:34:16Z</time>
      </trkpt>
      <trkpt lat="45.95296" lon="6.90237">
        <ele>1121</ele>
        <time>2019-04-17T12:35:16Z</time>
      </trkpt>
      <trkpt lat="45.95338" lon="6.90248">
        <ele>1122</ele>
        <time>2019-04-17T12:36:16Z</time>
      </trkpt>
      <trkpt lat="45.95416" lon="6.90252">
        <ele>1121</ele>
        <time>2019-04-17T12:37:16Z</time>
      </trkpt>
      <trkpt lat="45.9543" lon="6.90255">
        <ele>1122</ele>
        <time>2019-04-17T12:38:16Z</time>
      </trkpt>
      <trkpt lat="45.95442" lon="6.9026">
        <ele>1124</ele>
        <time>2019-04-17T12:39:16Z</time>
      </trkpt>
      <trkpt lat="45.95486" lon="6.90286">
        <ele>1136</ele>
        <time>2019-04-17T12:40:16Z</time>
      </trkpt>
      <trkpt lat="45.95522" lon="6.903">
        <ele>1140</ele>
        <time>2019-04-17T12:41:16Z</time>
      </trkpt>
      <trkpt lat="45.95542" lon="6.90303">
        <ele>1141</ele>
        <time>2019-04-17T12:42:16Z</time>
      </trkpt>
      <trkpt lat="45.95579" lon="6.90299">
        <ele>1137</ele>
        <time>2019-04-17T12:43:16Z</time>
      </trkpt>
      <trkpt lat="45.95632" lon="6.90279">
        <ele>1136</ele>
        <time>2019-04-17T12:44:16Z</time>
      </trkpt>
      <trkpt lat="45.95645" lon="6.90278">
        <ele>1137</ele>
        <time>2019-04-17T12:45:16Z</time>
      </trkpt>
      <trkpt lat="45.95658" lon="6.90283">
        <ele>1141</ele>
        <time>2019-04-17T12:46:16Z</time>
      </trkpt>
      <trkpt lat="45.95683" lon="6.90297">
        <ele>1148</ele>
        <time>2019-04-17T12:47:16Z</time>
      </trkpt>
      <trkpt lat="45.95696" lon="6.90299">
        <ele>1149</ele>
        <time>2019-04-17T12:48:16Z</time>
      </trkpt>
      <trkpt lat="45.95737" lon="6.9029">
        <ele>1150</ele>
        <time>2019-04-17T12:49:16Z</time>
      </trkpt>
      <trkpt lat="45.9575" lon="6.90289">
        <ele>1150</ele>
        <time>2019-04-17T12:50:16Z</time>
      </trkpt>
      <trkpt lat="45.95763" lon="6.90293">
        <ele>1152</ele>
        <time>2019-04-17T12:51:16Z</time>
      </trkpt>
      <trkpt lat="45.95792" lon="6.90318">
        <ele>1156</ele>
        <time>2019-04-17T12:52:16Z</time>
      </trkpt>
      <trkpt lat="45.95805" lon="6.90324">
        <ele>1156</ele>
        <time>2019-04-17T12:53:16Z</time>
      </trkpt>
      <trkpt lat="45.95833" lon="6.90323">
        <ele>1153</ele>
        <time>2019-04-17T12:54:16Z</time>
      </trkpt>
      <trkpt lat="45.95848" lon="6.90328">
        <ele>1154</ele>
        <time>2019-04-17T12:55:16Z</time>
      </trkpt>
      <trkpt lat="45.95865" lon="6.90342">
        <ele>1156</ele>
        <time>2019-04-17T12:56:16Z</time>
      </trkpt>
      <trkpt lat="45.95877" lon="6.90357">
        <ele>1159</ele>
        <time>2019-04-17T12:57:16Z</time>
      </trkpt>
      <trkpt lat="45.95884" lon="6.9037">
        <ele>1160</ele>
        <time>2019-04-17T12:58:16Z</time>
      </trkpt>
      <trkpt lat="45.95897" lon="6.90401">
        <ele>1160</ele>
        <time>2019-04-17T12:59:16Z</time>
      </trkpt>
      <trkpt lat="45.9591" lon="6.90443">
        <ele>1159</ele>
        <time>2019-04-17T13:00:16Z</time>
      </trkpt>
      <trkpt lat="45.95925" lon="6.90531">
        <ele>1161</ele>
        <time>2019-04-17T13:01:16Z</time>
      </trkpt>
      <trkpt lat="45.95932" lon="6.9056">
        <ele>1162</ele>
        <time>2019-04-17T13:02:16Z</time>
      </trkpt>
      <trkpt lat="45.95939" lon="6.90582">
        <ele>1162</ele>
        <time>2019-04-17T13:03:16Z</time>
      </trkpt>
      <trkpt lat="45.95954" lon="6.90624">
        <ele>1166</ele>
        <time>2019-04-17T13:04:16Z</time>
      </trkpt>
      <trkpt lat="45.95979" lon="6.9068">
        <ele>1167</ele>
        <time>2019-04-17T13:05:16Z</time>
      </trkpt>
      <trkpt lat="45.96019" lon="6.90749">
        <ele>1173</ele>
        <time>2019-04-17T13:06:16Z</time>
      </trkpt>
      <trkpt lat="45.96048" lon="6.90787">
        <ele>1175</ele>
        <time>2019-04-17T13:07:16Z</time>
      </trkpt>
      <trkpt lat="45.9617" lon="6.90919">
        <ele>1180</ele>
        <time>2019-04-17T13:08:16Z</time>
      </trkpt>
      <trkpt lat="45.96183" lon="6.9093">
        <ele>1185</ele>
        <time>2019-04-17T13:09:16Z</time>
      </trkpt>
      <trkpt lat="45.96219" lon="6.90953">
        <ele>1190</ele>
        <time>2019-04-17T13:10:16Z</time>
      </trkpt>
      <trkpt lat="45.96236" lon="6.90966">
        <ele>1189</ele>
        <time>2019-04-17T13:11:16Z</time>
      </trkpt>
      <trkpt lat="45.96249" lon="6.90979">
        <ele>1187</ele>
        <time>2019-04-17T13:12:16Z</time>
      </trkpt>
      <trkpt lat="45.96271" lon="6.91009">
        <ele>1189</ele>
        <time>2019-04-17T13:13:16Z</time>
      </trkpt>
      <trkpt lat="45.96287" lon="6.91038">
        <ele>1191</ele>
        <time>2019-04-17T13:14:16Z</time>
      </trkpt>
      <trkpt lat="45.9631" lon="6.91093">
        <ele>1191</ele>
        <time>2019-04-17T13:15:16Z</time>
      </trkpt>
      <trkpt lat="45.96325" lon="6.91118">
        <ele>1191</ele>
        <time>2019-04-17T13:16:16Z</time>
      </trkpt>
      <trkpt lat="45.96351" lon="6.91149">
        <ele>1191</ele>
        <time>2019-04-17T13:17:16Z</time>
      </trkpt>
      <trkpt lat="45.96404" lon="6.91202">
        <ele>1189</ele>
        <time>2019-04-17T13:18:16Z</time>
      </trkpt>
      <trkpt lat="45.96453" lon="6.91241">
        <ele>1185</ele>
        <time>2019-04-17T13:19:16Z</time>
      </trkpt>
      <trkpt lat="45.96494" lon="6.91261">
        <ele>1181</ele>
        <time>2019-04-17T13:20:16Z</time>
      </trkpt>
      <trkpt lat="45.96742" lon="6.91344">
        <ele>1185</ele>
        <time>2019-04-17T13:21:16Z</time>
      </trkpt>
      <trkpt lat="45.96773" lon="6.9136">
        <ele>1188</ele>
        <time>2019-04-17T13:22:16Z</time>
      </trkpt>
      <trkpt lat="45.96794" lon="6.91378">
        <ele>1189</ele>
        <time>2019-04-17T13:23:16Z</time>
      </trkpt>
      <trkpt lat="45.96818" lon="6.91406">
        <ele>1190</ele>
        <time>2019-04-17T13:24:16Z</time>
      </trkpt>
      <trkpt lat="45.96961" lon="6.91583">
        <ele>1201</ele>
        <time>2019-04-17T13:25:16Z</time>
      </trkpt>
      <trkpt lat="45.97006" lon="6.91626">
        <ele>1200</ele>
        <time>2019-04-17T13:26:16Z</time>
      </trkpt>
      <trkpt lat="45.97054" lon="6.91666">
        <ele>1200</ele>
        <time>2019-04-17T13:27:16Z</time>
      </trkpt>
      <trkpt lat="45.97101" lon="6.91703">
        <ele>1203</ele>
        <time>2019-04-17T13:28:16Z</time>
      </trkpt>
      <trkpt lat="45.97125" lon="6.91719">
        <ele>1204</ele>
        <time>2019-04-17T13:29:16Z</time>
      </trkpt>
      <trkpt lat="45.97227" lon="6.91797">
        <ele>1205</ele>
        <time>2019-04-17T13:30:16Z</time>
      </trkpt>
      <trkpt lat="45.97246" lon="6.91817">
        <ele>1205</ele>
        <time>2019-04-17T13:31:16Z</time>
      </trkpt>
      <trkpt lat="45.97264" lon="6.91841">
        <ele>1207</ele>
        <time>2019-04-17T13:32:16Z</time>
      </trkpt>
      <trkpt lat="45.97325" lon="6.91935">
        <ele>1213</ele>
        <time>2019-04-17T13:33:16Z</time>
      </trkpt>
      <trkpt lat="45.97356" lon="6.9197">
        <ele>1214</ele>
        <time>2019-04-17T13:34:16Z</time>
      </trkpt>
      <trkpt lat="45.97398" lon="6.92007">
        <ele>1214</ele>
        <time>2019-04-17T13:35:16Z</time>
      </trkpt>
      <trkpt lat="45.97413" lon="6.92016">
        <ele>1214</ele>
        <time>2019-04-17T13:36:16Z</time>
      </trkpt>
      <trkpt lat="45.97542" lon="6.92116">
        <ele>1216</ele>
        <time>2019-04-17T13:37:16Z</time>
      </trkpt>
      <trkpt lat="45.97546" lon="6.9212">
        <ele>1216</ele>
        <time>2019-04-17T13:38:16Z</time>
      </trkpt>
      <trkpt lat="45.97544" lon="6.92128">
        <ele>1216</ele>
        <time>2019-04-17T13:39:16Z</time>
      </trkpt>
      <trkpt lat="45.97546" lon="6.92135">
        <ele>1216</ele>
        <time>2019-04-17T13:40:16Z</time>
      </trkpt>
      <trkpt lat="45.9755" lon="6.92139">
        <ele>1216</ele>
        <time>2019-04-17T13:41:16Z</time>
      </trkpt>
      <trkpt lat="45.97556" lon="6.92139">
        <ele>1215</ele>
        <time>2019-04-17T13:42:16Z</time>
      </trkpt>
      <trkpt lat="45.97571" lon="6.92128">
        <ele>1215</ele>
        <time>2019-04-17T13:43:16Z</time>
      </trkpt>
      <trkpt lat="45.97574" lon="6.92119">
        <ele>1215</ele>
        <time>2019-04-17T13:44:16Z</time>
      </trkpt>
      <trkpt lat="45.97572" lon="6.92113">
        <ele>1215</ele>
        <time>2019-04-17T13:45:16Z</time>
      </trkpt>
      <trkpt lat="45.97599" lon="6.92082">
        <ele>1215</ele>
        <time>2019-04-17T13:46:16Z</time>
      </trkpt>
      <trkpt lat="45.97613" lon="6.92074">
        <ele>1216</ele>
        <time>2019-04-17T13:47:16Z</time>
      </trkpt>
      <trkpt lat="45.97621" lon="6.92072">
        <ele>1217</ele>
        <time>2019-04-17T13:48:16Z</time>
      </trkpt>
      <trkpt lat="45.97632" lon="6.92072">
        <ele>1217</ele>
        <time>2019-04-17T13:49:16Z</time>
      </trkpt>
      <trkpt lat="45.97639" lon="6.92076">
        <ele>1218</ele>
        <time>2019-04-17T13:50:16Z</time>
      </trkpt>
      <trkpt lat="45.97657" lon="6.92092">
        <ele>1218</ele>
        <time>2019-04-17T13:51:16Z</time>
      </trkpt>
      <trkpt lat="45.97707" lon="6.92145">
        <ele>1221</ele>
        <time>2019-04-17T13:52:16Z</time>
      </trkpt>
      <trkpt lat="45.97773" lon="6.92203">
        <ele>1222</ele>
        <time>2019-04-17T13:53:16Z</time>
      </trkpt>
      <trkpt lat="45.97852" lon="6.92262">
        <ele>1224</ele>
        <time>2019-04-17T13:54:16Z</time>
      </trkpt>
      <trkpt lat="45.97913" lon="6.92299">
        <ele>1229</ele>
        <time>2019-04-17T13:55:16Z</time>
      </trkpt>
      <trkpt lat="45.97978" lon="6.92343">
        <ele>1238</ele>
        <time>2019-04-17T13:56:16Z</time>
      </trkpt>
      <trkpt lat="45.9812" lon="6.9251">
        <ele>1242</ele>
        <time>2019-04-17T13:57:16Z</time>
      </trkpt>
      <trkpt lat="45.98141" lon="6.92532">
        <ele>1244</ele>
        <time>2019-04-17T13:58:16Z</time>
      </trkpt>
      <trkpt lat="45.98172" lon="6.92559">
        <ele>1246</ele>
        <time>2019-04-17T13:59:16Z</time>
      </trkpt>
      <trkpt lat="45.98222" lon="6.92597">
        <ele>1248</ele>
        <time>2019-04-17T14:00:16Z</time>
      </trkpt>
      <trkpt lat="45.98352" lon="6.92659">
        <ele>1256</ele>
        <time>2019-04-17T14:01:16Z</time>
      </trkpt>
      <trkpt lat="45.985" lon="6.92725">
        <ele>1269</ele>
        <time>2019-04-17T14:02:16Z</time>
      </trkpt>
      <trkpt lat="45.98562" lon="6.92758">
        <ele>1271</ele>
        <time>2019-04-17T14:03:16Z</time>
      </trkpt>
      <trkpt lat="45.98609" lon="6.9278">
        <ele>1275</ele>
        <time>2019-04-17T14:04:16Z</time>
      </trkpt>
      <trkpt lat="45.98637" lon="6.92797">
        <ele>1276</ele>
        <time>2019-04-17T14:05:16Z</time>
      </trkpt>
      <trkpt lat="45.98707" lon="6.92818">
        <ele>1288</ele>
        <time>2019-04-17T14:06:16Z</time>
      </trkpt>
      <trkpt lat="45.98798" lon="6.92861">
        <ele>1303</ele>
        <time>2019-04-17T14:07:16Z</time>
      </trkpt>
      <trkpt lat="45.98834" lon="6.92868">
        <ele>1308</ele>
        <time>2019-04-17T14:08:16Z</time>
      </trkpt>
      <trkpt lat="45.989" lon="6.92874">
        <ele>1314</ele>
        <time>2019-04-17T14:09:16Z</time>
      </trkpt>
      <trkpt lat="45.98979" lon="6.92873">
        <ele>1313</ele>
        <time>2019-04-17T14:10:16Z</time>
      </trkpt>
      <trkpt lat="45.98994" lon="6.92876">
        <ele>1312</ele>
        <time>2019-04-17T14:11:16Z</time>
      </trkpt>
      <trkpt lat="45.9902" lon="6.92901">
        <ele>1311</ele>
        <time>2019-04-17T14:12:16Z</time>
      </trkpt>
      <trkpt lat="45.99031" lon="6.92905">
        <ele>1313</ele>
        <time>2019-04-17T14:13:16Z</time>
      </trkpt>
      <trkpt lat="45.9904" lon="6.92904">
        <ele>1314</ele>
        <time>2019-04-17T14:14:16Z</time>
      </trkpt>
      <trkpt lat="45.99047" lon="6.92897">
        <ele>1316</ele>
        <time>2019-04-17T14:15:16Z</time>
      </trkpt>
      <trkpt lat="45.99051" lon="6.92886">
        <ele>1318</ele>
        <time>2019-04-17T14:16:16Z</time>
      </trkpt>
      <trkpt lat="45.99052" lon="6.92869">
        <ele>1320</ele>
        <time>2019-04-17T14:17:16Z</time>
      </trkpt>
      <trkpt lat="45.99049" lon="6.92857">
        <ele>1321</ele>
        <time>2019-04-17T14:18:16Z</time>
      </trkpt>
      <trkpt lat="45.99044" lon="6.9285">
        <ele>1321</ele>
        <time>2019-04-17T14:19:16Z</time>
      </trkpt>
      <trkpt lat="45.99037" lon="6.92846">
        <ele>1321</ele>
        <time>2019-04-17T14:20:16Z</time>
      </trkpt>
      <trkpt lat="45.9899" lon="6.92835">
        <ele>1318</ele>
        <time>2019-04-17T14:21:16Z</time>
      </trkpt>
      <trkpt lat="45.98975" lon="6.92827">
        <ele>1321</ele>
        <time>2019-04-17T14:22:16Z</time>
      </trkpt>
      <trkpt lat="45.98967" lon="6.92818">
        <ele>1324</ele>
        <time>2019-04-17T14:23:16Z</time>
      </trkpt>
      <trkpt lat="45.98965" lon="6.92809">
        <ele>1327</ele>
        <time>2019-04-17T14:24:16Z</time>
      </trkpt>
      <trkpt lat="45.98965" lon="6.92797">
        <ele>1330</ele>
        <time>2019-04-17T14:25:16Z</time>
      </trkpt>
      <trkpt lat="45.98974" lon="6.92776">
        <ele>1335</ele>
        <time>2019-04-17T14:26:16Z</time>
      </trkpt>
      <trkpt lat="45.9898" lon="6.92771">
        <ele>1336</ele>
        <time>2019-04-17T14:27:16Z</time>
      </trkpt>
      <trkpt lat="45.98986" lon="6.92769">
        <ele>1335</ele>
        <time>2019-04-17T14:28:16Z</time>
      </trkpt>
      <trkpt lat="45.98994" lon="6.9277">
        <ele>1334</ele>
        <time>2019-04-17T14:29:16Z</time>
      </trkpt>
      <trkpt lat="45.99021" lon="6.9279">
        <ele>1330</ele>
        <time>2019-04-17T14:30:16Z</time>
      </trkpt>
      <trkpt lat="45.9904" lon="6.92799">
        <ele>1330</ele>
        <time>2019-04-17T14:31:16Z</time>
      </trkpt>
      <trkpt lat="45.9909" lon="6.92813">
        <ele>1333</ele>
        <time>2019-04-17T14:32:16Z</time>
      </trkpt>
      <trkpt lat="45.99099" lon="6.92813">
        <ele>1337</ele>
        <time>2019-04-17T14:33:16Z</time>
      </trkpt>
      <trkpt lat="45.99109" lon="6.92808">
        <ele>1341</ele>
        <time>2019-04-17T14:34:16Z</time>
      </trkpt>
      <trkpt lat="45.99115" lon="6.92793">
        <ele>1345</ele>
        <time>2019-04-17T14:35:16Z</time>
      </trkpt>
      <trkpt lat="45.99113" lon="6.92777">
        <ele>1346</ele>
        <time>2019-04-17T14:36:16Z</time>
      </trkpt>
      <trkpt lat="45.9911" lon="6.92769">
        <ele>1346</ele>
        <time>2019-04-17T14:37:16Z</time>
      </trkpt>
      <trkpt lat="45.99105" lon="6.92764">
        <ele>1345</ele>
        <time>2019-04-17T14:38:16Z</time>
      </trkpt>
      <trkpt lat="45.99069" lon="6.92761">
        <ele>1339</ele>
        <time>2019-04-17T14:39:16Z</time>
      </trkpt>
      <trkpt lat="45.99058" lon="6.92752">
        <ele>1340</ele>
        <time>2019-04-17T14:40:16Z</time>
      </trkpt>
      <trkpt lat="45.99042" lon="6.92731">
        <ele>1347</ele>
        <time>2019-04-17T14:41:16Z</time>
      </trkpt>
      <trkpt lat="45.99031" lon="6.92719">
        <ele>1351</ele>
        <time>2019-04-17T14:42:16Z</time>
      </trkpt>
      <trkpt lat="45.99023" lon="6.92716">
        <ele>1352</ele>
        <time>2019-04-17T14:43:16Z</time>
      </trkpt>
      <trkpt lat="45.98986" lon="6.92709">
        <ele>1355</ele>
        <time>2019-04-17T14:44:16Z</time>
      </trkpt>
      <trkpt lat="45.98967" lon="6.92712">
        <ele>1355</ele>
        <time>2019-04-17T14:45:16Z</time>
      </trkpt>
      <trkpt lat="45.98959" lon="6.92717">
        <ele>1355</ele>
        <time>2019-04-17T14:46:16Z</time>
      </trkpt>
      <trkpt lat="45.98949" lon="6.92724">
        <ele>1354</ele>
        <time>2019-04-17T14:47:16Z</time>
      </trkpt>
      <trkpt lat="45.98923" lon="6.92751">
        <ele>1350</ele>
        <time>2019-04-17T14:48:16Z</time>
      </trkpt>
      <trkpt lat="45.98915" lon="6.92756">
        <ele>1349</ele>
        <time>2019-04-17T14:49:16Z</time>
      </trkpt>
      <trkpt lat="45.98906" lon="6.92758">
        <ele>1348</ele>
        <time>2019-04-17T14:50:16Z</time>
      </trkpt>
      <trkpt lat="45.98885" lon="6.92753">
        <ele>1348</ele>
        <time>2019-04-17T14:51:16Z</time>
      </trkpt>
      <trkpt lat="45.98877" lon="6.92748">
        <ele>1349</ele>
        <time>2019-04-17T14:52:16Z</time>
      </trkpt>
      <trkpt lat="45.98871" lon="6.9274">
        <ele>1351</ele>
        <time>2019-04-17T14:53:16Z</time>
      </trkpt>
      <trkpt lat="45.98867" lon="6.92729">
        <ele>1354</ele>
        <time>2019-04-17T14:54:16Z</time>
      </trkpt>
      <trkpt lat="45.98867" lon="6.92707">
        <ele>1361</ele>
        <time>2019-04-17T14:55:16Z</time>
      </trkpt>
      <trkpt lat="45.9887" lon="6.92695">
        <ele>1365</ele>
        <time>2019-04-17T14:56:16Z</time>
      </trkpt>
      <trkpt lat="45.98875" lon="6.92686">
        <ele>1368</ele>
        <time>2019-04-17T14:57:16Z</time>
      </trkpt>
      <trkpt lat="45.98883" lon="6.92677">
        <ele>1370</ele>
        <time>2019-04-17T14:58:16Z</time>
      </trkpt>
      <trkpt lat="45.98893" lon="6.92671">
        <ele>1371</ele>
        <time>2019-04-17T14:59:16Z</time>
      </trkpt>
      <trkpt lat="45.98966" lon="6.92657">
        <ele>1373</ele>
        <time>2019-04-17T15:00:16Z</time>
      </trkpt>
      <trkpt lat="45.99032" lon="6.92657">
        <ele>1374</ele>
        <time>2019-04-17T15:01:16Z</time>
      </trkpt>
      <trkpt lat="45.99066" lon="6.92662">
        <ele>1375</ele>
        <time>2019-04-17T15:02:16Z</time>
      </trkpt>
      <trkpt lat="45.99083" lon="6.92661">
        <ele>1376</ele>
        <time>2019-04-17T15:03:16Z</time>
      </trkpt>
      <trkpt lat="45.99093" lon="6.92663">
        <ele>1377</ele>
        <time>2019-04-17T15:04:16Z</time>
      </trkpt>
      <trkpt lat="45.99123" lon="6.92684">
        <ele>1374</ele>
        <time>2019-04-17T15:05:16Z</time>
      </trkpt>
      <trkpt lat="45.99131" lon="6.92687">
        <ele>1374</ele>
        <time>2019-04-17T15:06:16Z</time>
      </trkpt>
      <trkpt lat="45.9915" lon="6.92687">
        <ele>1378</ele>
        <time>2019-04-17T15:07:16Z</time>
      </trkpt>
      <trkpt lat="45.99167" lon="6.92677">
        <ele>1384</ele>
        <time>2019-04-17T15:08:16Z</time>
      </trkpt>
      <trkpt lat="45.9918" lon="6.92674">
        <ele>1387</ele>
        <time>2019-04-17T15:09:16Z</time>
      </trkpt>
      <trkpt lat="45.99186" lon="6.92676">
        <ele>1387</ele>
        <time>2019-04-17T15:10:16Z</time>
      </trkpt>
      <trkpt lat="45.99203" lon="6.9269">
        <ele>1386</ele>
        <time>2019-04-17T15:11:16Z</time>
      </trkpt>
      <trkpt lat="45.99211" lon="6.92694">
        <ele>1386</ele>
        <time>2019-04-17T15:12:16Z</time>
      </trkpt>
      <trkpt lat="45.99226" lon="6.92694">
        <ele>1389</ele>
        <time>2019-04-17T15:13:16Z</time>
      </trkpt>
      <trkpt lat="45.99258" lon="6.92685">
        <ele>1397</ele>
        <time>2019-04-17T15:14:16Z</time>
      </trkpt>
      <trkpt lat="45.99275" lon="6.92682">
        <ele>1399</ele>
        <time>2019-04-17T15:15:16Z</time>
      </trkpt>
      <trkpt lat="45.99318" lon="6.92688">
        <ele>1403</ele>
        <time>2019-04-17T15:16:16Z</time>
      </trkpt>
      <trkpt lat="45.99391" lon="6.92685">
        <ele>1409</ele>
        <time>2019-04-17T15:17:16Z</time>
      </trkpt>
      <trkpt lat="45.99411" lon="6.92692">
        <ele>1409</ele>
        <time>2019-04-17T15:18:16Z</time>
      </trkpt>
      <trkpt lat="45.9944" lon="6.92708">
        <ele>1409</ele>
        <time>2019-04-17T15:19:16Z</time>
      </trkpt>
      <trkpt lat="45.99454" lon="6.92708">
        <ele>1410</ele>
        <time>2019-04-17T15:20:16Z</time>
      </trkpt>
      <trkpt lat="45.99498" lon="6.92687">
        <ele>1419</ele>
        <time>2019-04-17T15:21:16Z</time>
      </trkpt>
      <trkpt lat="45.99547" lon="6.9268">
        <ele>1419</ele>
        <time>2019-04-17T15:22:16Z</time>
      </trkpt>
      <trkpt lat="45.99566" lon="6.92681">
        <ele>1418</ele>
        <time>2019-04-17T15:23:16Z</time>
      </trkpt>
      <trkpt lat="45.99597" lon="6.92688">
        <ele>1416</ele>
        <time>2019-04-17T15:24:16Z</time>
      </trkpt>
      <trkpt lat="45.9961" lon="6.92687">
        <ele>1417</ele>
        <time>2019-04-17T15:25:16Z</time>
      </trkpt>
      <trkpt lat="45.99614" lon="6.92685">
        <ele>1417</ele>
        <time>2019-04-17T15:26:16Z</time>
      </trkpt>
      <trkpt lat="45.99636" lon="6.92661">
        <ele>1420</ele>
        <time>2019-04-17T15:27:16Z</time>
      </trkpt>
      <trkpt lat="45.99712" lon="6.92634">
        <ele>1426</ele>
        <time>2019-04-17T15:28:16Z</time>
      </trkpt>
      <trkpt lat="45.99744" lon="6.92608">
        <ele>1429</ele>
        <time>2019-04-17T15:29:16Z</time>
      </trkpt>
      <trkpt lat="45.9977" lon="6.92577">
        <ele>1436</ele>
        <time>2019-04-17T15:30:16Z</time>
      </trkpt>
      <trkpt lat="45.99793" lon="6.92543">
        <ele>1442</ele>
        <time>2019-04-17T15:31:16Z</time>
      </trkpt>
      <trkpt lat="45.99805" lon="6.9252">
        <ele>1443</ele>
        <time>2019-04-17T15:32:16Z</time>
      </trkpt>
      <trkpt lat="45.99827" lon="6.92469">
        <ele>1443</ele>
        <time>2019-04-17T15:33:16Z</time>
      </trkpt>
      <trkpt lat="45.99843" lon="6.92441">
        <ele>1443</ele>
        <time>2019-04-17T15:34:16Z</time>
      </trkpt>
      <trkpt lat="45.99911" lon="6.9237">
        <ele>1443</ele>
        <time>2019-04-17T15:35:16Z</time>
      </trkpt>
      <trkpt lat="45.99927" lon="6.92356">
        <ele>1443</ele>
        <time>2019-04-17T15:36:16Z</time>
      </trkpt>
      <trkpt lat="45.99937" lon="6.92348">
        <ele>1443</ele>
        <time>2019-04-17T15:37:16Z</time>
      </trkpt>
      <trkpt lat="45.99975" lon="6.92329">
        <ele>1443</ele>
        <time>2019-04-17T15:38:16Z</time>
      </trkpt>
      <trkpt lat="46.00028" lon="6.92311">
        <ele>1448</ele>
        <time>2019-04-17T15:39:16Z</time>
      </trkpt>
      <trkpt lat="46.00049" lon="6.92306">
        <ele>1450</ele>
        <time>2019-04-17T15:40:16Z</time>
      </trkpt>
      <trkpt lat="46.00138" lon="6.92298">
        <ele>1457</ele>
        <time>2019-04-17T15:41:16Z</time>
      </trkpt>
      <trkpt lat="46.00172" lon="6.92298">
        <ele>1458</ele>
        <time>2019-04-17T15:42:16Z</time>
      </trkpt>
      <trkpt lat="46.00202" lon="6.92302">
        <ele>1458</ele>
        <time>2019-04-17T15:43:16Z</time>
      </trkpt>
      <trkpt lat="46.00333" lon="6.9234">
        <ele>1462</ele>
        <time>2019-04-17T15:44:16Z</time>
      </trkpt>
      <trkpt lat="46.00378" lon="6.92356">
        <ele>1465</ele>
        <time>2019-04-17T15:45:16Z</time>
      </trkpt>
      <trkpt lat="46.00396" lon="6.92365">
        <ele>1467</ele>
        <time>2019-04-17T15:46:16Z</time>
      </trkpt>
      <trkpt lat="46.00404" lon="6.92366">
        <ele>1467</ele>
        <time>2019-04-17T15:47:16Z</time>
      </trkpt>
      <trkpt lat="46.00526" lon="6.92339">
        <ele>1455</ele>
        <time>2019-04-17T15:48:16Z</time>
      </trkpt>
      <trkpt lat="46.00622" lon="6.92322">
        <ele>1444</ele>
        <time>2019-04-17T15:49:16Z</time>
      </trkpt>
      <trkpt lat="46.00683" lon="6.92308">
        <ele>1440</ele>
        <time>2019-04-17T15:50:16Z</time>
      </trkpt>
      <trkpt lat="46.00772" lon="6.92288">
        <ele>1434</ele>
        <time>2019-04-17T15:51:16Z</time>
      </trkpt>
      <trkpt lat="46.0078" lon="6.92289">
        <ele>1434</ele>
        <time>2019-04-17T15:52:16Z</time>
      </trkpt>
      <trkpt lat="46.00798" lon="6.923">
        <ele>1433</ele>
        <time>2019-04-17T15:53:16Z</time>
      </trkpt>
      <trkpt lat="46.00833" lon="6.92331">
        <ele>1427</ele>
        <time>2019-04-17T15:54:16Z</time>
      </trkpt>
      <trkpt lat="46.00845" lon="6.92337">
        <ele>1427</ele>
        <time>2019-04-17T15:55:16Z</time>
      </trkpt>
      <trkpt lat="46.00898" lon="6.92344">
        <ele>1425</ele>
        <time>2019-04-17T15:56:16Z</time>
      </trkpt>
      <trkpt lat="46.00918" lon="6.92354">
        <ele>1423</ele>
        <time>2019-04-17T15:57:16Z</time>
      </trkpt>
      <trkpt lat="46.00949" lon="6.92376">
        <ele>1419</ele>
        <time>2019-04-17T15:58:16Z</time>
      </trkpt>
      <trkpt lat="46.00974" lon="6.92384">
        <ele>1416</ele>
        <time>2019-04-17T15:59:16Z</time>
      </trkpt>
      <trkpt lat="46.00998" lon="6.92389">
        <ele>1414</ele>
        <time>2019-04-17T16:00:16Z</time>
      </trkpt>
      <trkpt lat="46.01007" lon="6.92385">
        <ele>1414</ele>
        <time>2019-04-17T16:01:16Z</time>
      </trkpt>
      <trkpt lat="46.01016" lon="6.92378">
        <ele>1413</ele>
        <time>2019-04-17T16:02:16Z</time>
      </trkpt>
      <trkpt lat="46.01037" lon="6.92351">
        <ele>1411</ele>
        <time>2019-04-17T16:03:16Z</time>
      </trkpt>
      <trkpt lat="46.01055" lon="6.92337">
        <ele>1409</ele>
        <time>2019-04-17T16:04:16Z</time>
      </trkpt>
      <trkpt lat="46.01074" lon="6.92334">
        <ele>1408</ele>
        <time>2019-04-17T16:05:16Z</time>
      </trkpt>
      <trkpt lat="46.01117" lon="6.92332">
        <ele>1403</ele>
        <time>2019-04-17T16:06:16Z</time>
      </trkpt>
      <trkpt lat="46.01129" lon="6.92328">
        <ele>1402</ele>
        <time>2019-04-17T16:07:16Z</time>
      </trkpt>
      <trkpt lat="46.01138" lon="6.92317">
        <ele>1402</ele>
        <time>2019-04-17T16:08:16Z</time>
      </trkpt>
      <trkpt lat="46.01145" lon="6.92301">
        <ele>1401</ele>
        <time>2019-04-17T16:09:16Z</time>
      </trkpt>
      <trkpt lat="46.01156" lon="6.92257">
        <ele>1400</ele>
        <time>2019-04-17T16:10:16Z</time>
      </trkpt>
      <trkpt lat="46.01162" lon="6.92242">
        <ele>1401</ele>
        <time>2019-04-17T16:11:16Z</time>
      </trkpt>
      <trkpt lat="46.01178" lon="6.92216">
        <ele>1404</ele>
        <time>2019-04-17T16:12:16Z</time>
      </trkpt>
      <trkpt lat="46.01189" lon="6.92205">
        <ele>1405</ele>
        <time>2019-04-17T16:13:16Z</time>
      </trkpt>
      <trkpt lat="46.01202" lon="6.92197">
        <ele>1405</ele>
        <time>2019-04-17T16:14:16Z</time>
      </trkpt>
      <trkpt lat="46.01231" lon="6.92186">
        <ele>1402</ele>
        <time>2019-04-17T16:15:16Z</time>
      </trkpt>
      <trkpt lat="46.01246" lon="6.92178">
        <ele>1401</ele>
        <time>2019-04-17T16:16:16Z</time>
      </trkpt>
      <trkpt lat="46.01293" lon="6.92133">
        <ele>1398</ele>
        <time>2019-04-17T16:17:16Z</time>
      </trkpt>
      <trkpt lat="46.01332" lon="6.92105">
        <ele>1395</ele>
        <time>2019-04-17T16:18:16Z</time>
      </trkpt>
      <trkpt lat="46.01397" lon="6.92038">
        <ele>1386</ele>
        <time>2019-04-17T16:19:16Z</time>
      </trkpt>
      <trkpt lat="46.01474" lon="6.91945">
        <ele>1379</ele>
        <time>2019-04-17T16:20:16Z</time>
      </trkpt>
      <trkpt lat="46.01487" lon="6.91932">
        <ele>1377</ele>
        <time>2019-04-17T16:21:16Z</time>
      </trkpt>
      <trkpt lat="46.01499" lon="6.91924">
        <ele>1376</ele>
        <time>2019-04-17T16:22:16Z</time>
      </trkpt>
      <trkpt lat="46.0151" lon="6.91919">
        <ele>1375</ele>
        <time>2019-04-17T16:23:16Z</time>
      </trkpt>
      <trkpt lat="46.01595" lon="6.91895">
        <ele>1369</ele>
        <time>2019-04-17T16:24:16Z</time>
      </trkpt>
      <trkpt lat="46.01629" lon="6.91895">
        <ele>1368</ele>
        <time>2019-04-17T16:25:16Z</time>
      </trkpt>
      <trkpt lat="46.01676" lon="6.919">
        <ele>1367</ele>
        <time>2019-04-17T16:26:16Z</time>
      </trkpt>
      <trkpt lat="46.01688" lon="6.91904">
        <ele>1368</ele>
        <time>2019-04-17T16:27:16Z</time>
      </trkpt>
      <trkpt lat="46.01694" lon="6.9191">
        <ele>1368</ele>
        <time>2019-04-17T16:28:16Z</time>
      </trkpt>
      <trkpt lat="46.01698" lon="6.91919">
        <ele>1367</ele>
        <time>2019-04-17T16:29:16Z</time>
      </trkpt>
      <trkpt lat="46.01711" lon="6.91953">
        <ele>1364</ele>
        <time>2019-04-17T16:30:16Z</time>
      </trkpt>
      <trkpt lat="46.01718" lon="6.91965">
        <ele>1363</ele>
        <time>2019-04-17T16:31:16Z</time>
      </trkpt>
      <trkpt lat="46.01725" lon="6.91971">
        <ele>1362</ele>
        <time>2019-04-17T16:32:16Z</time>
      </trkpt>
      <trkpt lat="46.01866" lon="6.91969">
        <ele>1351</ele>
        <time>2019-04-17T16:33:16Z</time>
      </trkpt>
      <trkpt lat="46.01921" lon="6.91965">
        <ele>1344</ele>
        <time>2019-04-17T16:34:16Z</time>
      </trkpt>
      <trkpt lat="46.01985" lon="6.91934">
        <ele>1340</ele>
        <time>2019-04-17T16:35:16Z</time>
      </trkpt>
      <trkpt lat="46.01997" lon="6.91926">
        <ele>1339</ele>
        <time>2019-04-17T16:36:16Z</time>
      </trkpt>
      <trkpt lat="46.02004" lon="6.91918">
        <ele>1339</ele>
        <time>2019-04-17T16:37:16Z</time>
      </trkpt>
      <trkpt lat="46.02017" lon="6.91891">
        <ele>1338</ele>
        <time>2019-04-17T16:38:16Z</time>
      </trkpt>
      <trkpt lat="46.0204" lon="6.91831">
        <ele>1338</ele>
        <time>2019-04-17T16:39:16Z</time>
      </trkpt>
      <trkpt lat="46.02045" lon="6.91825">
        <ele>1339</ele>
        <time>2019-04-17T16:40:16Z</time>
      </trkpt>
      <trkpt lat="46.02058" lon="6.91821">
        <ele>1338</ele>
        <time>2019-04-17T16:41:16Z</time>
      </trkpt>
      <trkpt lat="46.02084" lon="6.91822">
        <ele>1337</ele>
        <time>2019-04-17T16:42:16Z</time>
      </trkpt>
      <trkpt lat="46.02094" lon="6.91826">
        <ele>1337</ele>
        <time>2019-04-17T16:43:16Z</time>
      </trkpt>
      <trkpt lat="46.02152" lon="6.91869">
        <ele>1332</ele>
        <time>2019-04-17T16:44:16Z</time>
      </trkpt>
      <trkpt lat="46.02169" lon="6.91879">
        <ele>1330</ele>
        <time>2019-04-17T16:45:16Z</time>
      </trkpt>
      <trkpt lat="46.02211" lon="6.91897">
        <ele>1328</ele>
        <time>2019-04-17T16:46:16Z</time>
      </trkpt>
      <trkpt lat="46.0226" lon="6.91921">
        <ele>1325</ele>
        <time>2019-04-17T16:47:16Z</time>
      </trkpt>
      <trkpt lat="46.02332" lon="6.91972">
        <ele>1320</ele>
        <time>2019-04-17T16:48:16Z</time>
      </trkpt>
      <trkpt lat="46.0235" lon="6.91988">
        <ele>1318</ele>
        <time>2019-04-17T16:49:16Z</time>
      </trkpt>
      <trkpt lat="46.02527" lon="6.92178">
        <ele>1309</ele>
        <time>2019-04-17T16:50:16Z</time>
      </trkpt>
      <trkpt lat="46.02551" lon="6.92223">
        <ele>1306</ele>
        <time>2019-04-17T16:51:16Z</time>
      </trkpt>
      <trkpt lat="46.02628" lon="6.92413">
        <ele>1303</ele>
        <time>2019-04-17T16:52:16Z</time>
      </trkpt>
      <trkpt lat="46.02636" lon="6.92429">
        <ele>1303</ele>
        <time>2019-04-17T16:53:16Z</time>
      </trkpt>
      <trkpt lat="46.02647" lon="6.92445">
        <ele>1303</ele>
        <time>2019-04-17T16:54:16Z</time>
      </trkpt>
      <trkpt lat="46.02684" lon="6.92494">
        <ele>1303</ele>
        <time>2019-04-17T16:55:16Z</time>
      </trkpt>
      <trkpt lat="46.02697" lon="6.92515">
        <ele>1303</ele>
        <time>2019-04-17T16:56:16Z</time>
      </trkpt>
      <trkpt lat="46.027" lon="6.92523">
        <ele>1303</ele>
        <time>2019-04-17T16:57:16Z</time>
      </trkpt>
      <trkpt lat="46.02717" lon="6.92534">
        <ele>1304</ele>
        <time>2019-04-17T16:58:16Z</time>
      </trkpt>
      <trkpt lat="46.02753" lon="6.92576">
        <ele>1304</ele>
        <time>2019-04-17T16:59:16Z</time>
      </trkpt>
      <trkpt lat="46.02778" lon="6.9261">
        <ele>1304</ele>
        <time>2019-04-17T17:00:16Z</time>
      </trkpt>
      <trkpt lat="46.02784" lon="6.92615">
        <ele>1304</ele>
        <time>2019-04-17T17:01:16Z</time>
      </trkpt>
      <trkpt lat="46.02805" lon="6.92619">
        <ele>1305</ele>
        <time>2019-04-17T17:02:16Z</time>
      </trkpt>
      <trkpt lat="46.0282" lon="6.92626">
        <ele>1305</ele>
        <time>2019-04-17T17:03:16Z</time>
      </trkpt>
      <trkpt lat="46.0284" lon="6.92624">
        <ele>1306</ele>
        <time>2019-04-17T17:04:16Z</time>
      </trkpt>
      <trkpt lat="46.02848" lon="6.92627">
        <ele>1306</ele>
        <time>2019-04-17T17:05:16Z</time>
      </trkpt>
      <trkpt lat="46.02857" lon="6.92634">
        <ele>1305</ele>
        <time>2019-04-17T17:06:16Z</time>
      </trkpt>
      <trkpt lat="46.02886" lon="6.92666">
        <ele>1300</ele>
        <time>2019-04-17T17:07:16Z</time>
      </trkpt>
      <trkpt lat="46.02901" lon="6.92679">
        <ele>1298</ele>
        <time>2019-04-17T17:08:16Z</time>
      </trkpt>
      <trkpt lat="46.02914" lon="6.92695">
        <ele>1296</ele>
        <time>2019-04-17T17:09:16Z</time>
      </trkpt>
      <trkpt lat="46.02941" lon="6.92738">
        <ele>1292</ele>
        <time>2019-04-17T17:10:16Z</time>
      </trkpt>
      <trkpt lat="46.02973" lon="6.9278">
        <ele>1289</ele>
        <time>2019-04-17T17:11:16Z</time>
      </trkpt>
      <trkpt lat="46.03035" lon="6.92821">
        <ele>1287</ele>
        <time>2019-04-17T17:12:16Z</time>
      </trkpt>
      <trkpt lat="46.03038" lon="6.92825">
        <ele>1287</ele>
        <time>2019-04-17T17:13:16Z</time>
      </trkpt>
      <trkpt lat="46.03055" lon="6.92829">
        <ele>1288</ele>
        <time>2019-04-17T17:14:16Z</time>
      </trkpt>
      <trkpt lat="46.03062" lon="6.92835">
        <ele>1288</ele>
        <time>2019-04-17T17:15:16Z</time>
      </trkpt>
      <trkpt lat="46.03069" lon="6.92843">
        <ele>1287</ele>
        <time>2019-04-17T17:16:16Z</time>
      </trkpt>
      <trkpt lat="46.0311" lon="6.92908">
        <ele>1283</ele>
        <time>2019-04-17T17:17:16Z</time>
      </trkpt>
      <trkpt lat="46.03147" lon="6.92946">
        <ele>1281</ele>
        <time>2019-04-17T17:18:16Z</time>
      </trkpt>
      <trkpt lat="46.03174" lon="6.9297">
        <ele>1279</ele>
        <time>2019-04-17T17:19:16Z</time>
      </trkpt>
      <trkpt lat="46.0319" lon="6.92977">
        <ele>1280</ele>
        <time>2019-04-17T17:20:16Z</time>
      </trkpt>
      <trkpt lat="46.03213" lon="6.9298">
        <ele>1283</ele>
        <time>2019-04-17T17:21:16Z</time>
      </trkpt>
      <trkpt lat="46.03223" lon="6.92984">
        <ele>1283</ele>
        <time>2019-04-17T17:22:16Z</time>
      </trkpt>
      <trkpt lat="46.03285" lon="6.93023">
        <ele>1283</ele>
        <time>2019-04-17T17:23:16Z</time>
      </trkpt>
      <trkpt lat="46.03299" lon="6.93034">
        <ele>1282</ele>
        <time>2019-04-17T17:24:16Z</time>
      </trkpt>
      <trkpt lat="46.03307" lon="6.93044">
        <ele>1281</ele>
        <time>2019-04-17T17:25:16Z</time>
      </trkpt>
      <trkpt lat="46.03312" lon="6.93056">
        <ele>1279</ele>
        <time>2019-04-17T17:26:16Z</time>
      </trkpt>
      <trkpt lat="46.03341" lon="6.93146">
        <ele>1268</ele>
        <time>2019-04-17T17:27:16Z</time>
      </trkpt>
      <trkpt lat="46.0335" lon="6.93167">
        <ele>1266</ele>
        <time>2019-04-17T17:28:16Z</time>
      </trkpt>
      <trkpt lat="46.03361" lon="6.93183">
        <ele>1266</ele>
        <time>2019-04-17T17:29:16Z</time>
      </trkpt>
      <trkpt lat="46.03466" lon="6.933">
        <ele>1261</ele>
        <time>2019-04-17T17:30:16Z</time>
      </trkpt>
      <trkpt lat="46.03472" lon="6.93308">
        <ele>1261</ele>
        <time>2019-04-17T17:31:16Z</time>
      </trkpt>
      <trkpt lat="46.03482" lon="6.93336">
        <ele>1259</ele>
        <time>2019-04-17T17:32:16Z</time>
      </trkpt>
      <trkpt lat="46.0351" lon="6.93429">
        <ele>1255</ele>
        <time>2019-04-17T17:33:16Z</time>
      </trkpt>
      <trkpt lat="46.03527" lon="6.93474">
        <ele>1256</ele>
        <time>2019-04-17T17:34:16Z</time>
      </trkpt>
      <trkpt lat="46.0358" lon="6.93589">
        <ele>1257</ele>
        <time>2019-04-17T17:35:16Z</time>
      </trkpt>
      <trkpt lat="46.03593" lon="6.93607">
        <ele>1259</ele>
        <time>2019-04-17T17:36:16Z</time>
      </trkpt>
      <trkpt lat="46.03669" lon="6.93648">
        <ele>1255</ele>
        <time>2019-04-17T17:37:16Z</time>
      </trkpt>
      <trkpt lat="46.03695" lon="6.93659">
        <ele>1254</ele>
        <time>2019-04-17T17:38:16Z</time>
      </trkpt>
      <trkpt lat="46.03724" lon="6.9367">
        <ele>1253</ele>
        <time>2019-04-17T17:39:16Z</time>
      </trkpt>
      <trkpt lat="46.03797" lon="6.93688">
        <ele>1251</ele>
        <time>2019-04-17T17:40:16Z</time>
      </trkpt>
      <trkpt lat="46.03816" lon="6.9369">
        <ele>1250</ele>
        <time>2019-04-17T17:41:16Z</time>
      </trkpt>
      <trkpt lat="46.03865" lon="6.93717">
        <ele>1248</ele>
        <time>2019-04-17T17:42:16Z</time>
      </trkpt>
      <trkpt lat="46.03917" lon="6.93735">
        <ele>1243</ele>
        <time>2019-04-17T17:43:16Z</time>
      </trkpt>
      <trkpt lat="46.03927" lon="6.93749">
        <ele>1242</ele>
        <time>2019-04-17T17:44:16Z</time>
      </trkpt>
      <trkpt lat="46.03939" lon="6.93778">
        <ele>1246</ele>
        <time>2019-04-17T17:45:16Z</time>
      </trkpt>
      <trkpt lat="46.03952" lon="6.93793">
        <ele>1247</ele>
        <time>2019-04-17T17:46:16Z</time>
      </trkpt>
      <trkpt lat="46.03987" lon="6.93804">
        <ele>1246</ele>
        <time>2019-04-17T17:47:16Z</time>
      </trkpt>
      <trkpt lat="46.04018" lon="6.93826">
        <ele>1245</ele>
        <time>2019-04-17T17:48:16Z</time>
      </trkpt>
      <trkpt lat="46.04055" lon="6.93839">
        <ele>1246</ele>
        <time>2019-04-17T17:49:16Z</time>
      </trkpt>
      <trkpt lat="46.04065" lon="6.93847">
        <ele>1247</ele>
        <time>2019-04-17T17:50:16Z</time>
      </trkpt>
      <trkpt lat="46.04095" lon="6.93888">
        <ele>1248</ele>
        <time>2019-04-17T17:51:16Z</time>
      </trkpt>
      <trkpt lat="46.04124" lon="6.93909">
        <ele>1245</ele>
        <time>2019-04-17T17:52:16Z</time>
      </trkpt>
      <trkpt lat="46.04169" lon="6.9393">
        <ele>1242</ele>
        <time>2019-04-17T17:53:16Z</time>
      </trkpt>
      <trkpt lat="46.04197" lon="6.93937">
        <ele>1240</ele>
        <time>2019-04-17T17:54:16Z</time>
      </trkpt>
      <trkpt lat="46.04218" lon="6.93938">
        <ele>1239</ele>
        <time>2019-04-17T17:55:16Z</time>
      </trkpt>
      <trkpt lat="46.04226" lon="6.93941">
        <ele>1238</ele>
        <time>2019-04-17T17:56:16Z</time>
      </trkpt>
      <trkpt lat="46.04235" lon="6.93953">
        <ele>1238</ele>
        <time>2019-04-17T17:57:16Z</time>
      </trkpt>
      <trkpt lat="46.0425" lon="6.93981">
        <ele>1235</ele>
        <time>2019-04-17T17:58:16Z</time>
      </trkpt>
      <trkpt lat="46.0426" lon="6.93988">
        <ele>1234</ele>
        <time>2019-04-17T17:59:16Z</time>
      </trkpt>
      <trkpt lat="46.04276" lon="6.93992">
        <ele>1233</ele>
        <time>2019-04-17T18:00:16Z</time>
      </trkpt>
      <trkpt lat="46.04318" lon="6.94005">
        <ele>1229</ele>
        <time>2019-04-17T18:01:16Z</time>
      </trkpt>
      <trkpt lat="46.04443" lon="6.94059">
        <ele>1214</ele>
        <time>2019-04-17T18:02:16Z</time>
      </trkpt>
      <trkpt lat="46.04522" lon="6.94118">
        <ele>1198</ele>
        <time>2019-04-17T18:03:16Z</time>
      </trkpt>
      <trkpt lat="46.04607" lon="6.94149">
        <ele>1194</ele>
        <time>2019-04-17T18:04:16Z</time>
      </trkpt>
      <trkpt lat="46.04664" lon="6.94182">
        <ele>1190</ele>
        <time>2019-04-17T18:05:16Z</time>
      </trkpt>
      <trkpt lat="46.04724" lon="6.94221">
        <ele>1185</ele>
        <time>2019-04-17T18:06:16Z</time>
      </trkpt>
      <trkpt lat="46.04742" lon="6.94237">
        <ele>1183</ele>
        <time>2019-04-17T18:07:16Z</time>
      </trkpt>
      <trkpt lat="46.04763" lon="6.94259">
        <ele>1183</ele>
        <time>2019-04-17T18:08:16Z</time>
      </trkpt>
      <trkpt lat="46.0478" lon="6.94271">
        <ele>1184</ele>
        <time>2019-04-17T18:09:16Z</time>
      </trkpt>
      <trkpt lat="46.04818" lon="6.94293">
        <ele>1181</ele>
        <time>2019-04-17T18:10:16Z</time>
      </trkpt>
      <trkpt lat="46.04837" lon="6.94312">
        <ele>1180</ele>
        <time>2019-04-17T18:11:16Z</time>
      </trkpt>
      <trkpt lat="46.04946" lon="6.94431">
        <ele>1164</ele>
        <time>2019-04-17T18:12:16Z</time>
      </trkpt>
      <trkpt lat="46.04957" lon="6.94445">
        <ele>1163</ele>
        <time>2019-04-17T18:13:16Z</time>
      </trkpt>
      <trkpt lat="46.05002" lon="6.94518">
        <ele>1159</ele>
        <time>2019-04-17T18:14:16Z</time>
      </trkpt>
      <trkpt lat="46.05013" lon="6.94532">
        <ele>1160</ele>
        <time>2019-04-17T18:15:16Z</time>
      </trkpt>
      <trkpt lat="46.05027" lon="6.94547">
        <ele>1159</ele>
        <time>2019-04-17T18:16:16Z</time>
      </trkpt>
      <trkpt lat="46.05069" lon="6.94581">
        <ele>1149</ele>
        <time>2019-04-17T18:17:16Z</time>
      </trkpt>
      <trkpt lat="46.05079" lon="6.94596">
        <ele>1145</ele>
        <time>2019-04-17T18:18:16Z</time>
      </trkpt>
      <trkpt lat="46.0509" lon="6.94645">
        <ele>1144</ele>
        <time>2019-04-17T18:19:16Z</time>
      </trkpt>
      <trkpt lat="46.05112" lon="6.94701">
        <ele>1143</ele>
        <time>2019-04-17T18:20:16Z</time>
      </trkpt>
      <trkpt lat="46.05115" lon="6.94712">
        <ele>1142</ele>
        <time>2019-04-17T18:21:16Z</time>
      </trkpt>
      <trkpt lat="46.05115" lon="6.94723">
        <ele>1141</ele>
        <time>2019-04-17T18:22:16Z</time>
      </trkpt>
      <trkpt lat="46.05105" lon="6.94765">
        <ele>1137</ele>
        <time>2019-04-17T18:23:16Z</time>
      </trkpt>
      <trkpt lat="46.05105" lon="6.94789">
        <ele>1137</ele>
        <time>2019-04-17T18:24:16Z</time>
      </trkpt>
      <trkpt lat="46.05109" lon="6.94802">
        <ele>1136</ele>
        <time>2019-04-17T18:25:16Z</time>
      </trkpt>
      <trkpt lat="46.05134" lon="6.94829">
        <ele>1132</ele>
        <time>2019-04-17T18:26:16Z</time>
      </trkpt>
      <trkpt lat="46.05153" lon="6.94863">
        <ele>1127</ele>
        <time>2019-04-17T18:27:16Z</time>
      </trkpt>
      <trkpt lat="46.05167" lon="6.94878">
        <ele>1124</ele>
        <time>2019-04-17T18:28:16Z</time>
      </trkpt>
      <trkpt lat="46.05203" lon="6.94904">
        <ele>1123</ele>
        <time>2019-04-17T18:29:16Z</time>
      </trkpt>
      <trkpt lat="46.05257" lon="6.94969">
        <ele>1120</ele>
        <time>2019-04-17T18:30:16Z</time>
      </trkpt>
      <trkpt lat="46.05307" lon="6.95045">
        <ele>1123</ele>
        <time>2019-04-17T18:31:16Z</time>
      </trkpt>
      <trkpt lat="46.05513" lon="6.95361">
        <ele>1128</ele>
        <time>2019-04-17T18:32:16Z</time>
      </trkpt>
      <trkpt lat="46.05541" lon="6.95408">
        <ele>1130</ele>
        <time>2019-04-17T18:33:16Z</time>
      </trkpt>
      <trkpt lat="46.0557" lon="6.95469">
        <ele>1132</ele>
        <time>2019-04-17T18:34:16Z</time>
      </trkpt>
      <trkpt lat="46.05619" lon="6.95581">
        <ele>1134</ele>
        <time>2019-04-17T18:35:16Z</time>
      </trkpt>
      <trkpt lat="46.05666" lon="6.95641">
        <ele>1124</ele>
        <time>2019-04-17T18:36:16Z</time>
      </trkpt>
      <trkpt lat="46.05724" lon="6.95693">
        <ele>1123</ele>
        <time>2019-04-17T18:37:16Z</time>
      </trkpt>
      <trkpt lat="46.05771" lon="6.95755">
        <ele>1119</ele>
        <time>2019-04-17T18:38:16Z</time>
      </trkpt>
      <trkpt lat="46.05829" lon="6.95856">
        <ele>1115</ele>
        <time>2019-04-17T18:39:16Z</time>
      </trkpt>
      <trkpt lat="46.05864" lon="6.95927">
        <ele>1112</ele>
        <time>2019-04-17T18:40:16Z</time>
      </trkpt>
      <trkpt lat="46.05936" lon="6.96126">
        <ele>1117</ele>
        <time>2019-04-17T18:41:16Z</time>
      </trkpt>
      <trkpt lat="46.05972" lon="6.96179">
        <ele>1112</ele>
        <time>2019-04-17T18:42:16Z</time>
      </trkpt>
      <trkpt lat="46.06036" lon="6.96262">
        <ele>1104</ele>
        <time>2019-04-17T18:43:16Z</time>
      </trkpt>
      <trkpt lat="46.0611" lon="6.96387">
        <ele>1108</ele>
        <time>2019-04-17T18:44:16Z</time>
      </trkpt>
      <trkpt lat="46.06161" lon="6.96449">
        <ele>1111</ele>
        <time>2019-04-17T18:45:16Z</time>
      </trkpt>
      <trkpt lat="46.06177" lon="6.96461">
        <ele>1114</ele>
        <time>2019-04-17T18:46:16Z</time>
      </trkpt>
      <trkpt lat="46.06241" lon="6.96518">
        <ele>1127</ele>
        <time>2019-04-17T18:47:16Z</time>
      </trkpt>
      <trkpt lat="46.06386" lon="6.96579">
        <ele>1130</ele>
        <time>2019-04-17T18:48:16Z</time>
      </trkpt>
      <trkpt lat="46.06463" lon="6.96633">
        <ele>1135</ele>
        <time>2019-04-17T18:49:16Z</time>
      </trkpt>
      <trkpt lat="46.06534" lon="6.96699">
        <ele>1148</ele>
        <time>2019-04-17T18:50:16Z</time>
      </trkpt>
      <trkpt lat="46.067" lon="6.96828">
        <ele>1160</ele>
        <time>2019-04-17T18:51:16Z</time>
      </trkpt>
      <trkpt lat="46.06738" lon="6.96861">
        <ele>1159</ele>
        <time>2019-04-17T18:52:16Z</time>
      </trkpt>
      <trkpt lat="46.06764" lon="6.96897">
        <ele>1163</ele>
        <time>2019-04-17T18:53:16Z</time>
      </trkpt>
      <trkpt lat="46.06771" lon="6.96911">
        <ele>1165</ele>
        <time>2019-04-17T18:54:16Z</time>
      </trkpt>
      <trkpt lat="46.06814" lon="6.97006">
        <ele>1191</ele>
        <time>2019-04-17T18:55:16Z</time>
      </trkpt>
      <trkpt lat="46.06922" lon="6.97261">
        <ele>1266</ele>
        <time>2019-04-17T18:56:16Z</time>
      </trkpt>
      <trkpt lat="46.0697" lon="6.97342">
        <ele>1229</ele>
        <time>2019-04-17T18:57:16Z</time>
      </trkpt>
      <trkpt lat="46.07009" lon="6.9738">
        <ele>1203</ele>
        <time>2019-04-17T18:58:16Z</time>
      </trkpt>
      <trkpt lat="46.07065" lon="6.97416">
        <ele>1185</ele>
        <time>2019-04-17T18:59:16Z</time>
      </trkpt>
      <trkpt lat="46.07086" lon="6.97434">
        <ele>1183</ele>
        <time>2019-04-17T19:00:16Z</time>
      </trkpt>
      <trkpt lat="46.07103" lon="6.97452">
        <ele>1184</ele>
        <time>2019-04-17T19:01:16Z</time>
      </trkpt>
      <trkpt lat="46.07117" lon="6.97471">
        <ele>1187</ele>
        <time>2019-04-17T19:02:16Z</time>
      </trkpt>
      <trkpt lat="46.07126" lon="6.97489">
        <ele>1192</ele>
        <time>2019-04-17T19:03:16Z</time>
      </trkpt>
      <trkpt lat="46.07143" lon="6.97543">
        <ele>1201</ele>
        <time>2019-04-17T19:04:16Z</time>
      </trkpt>
      <trkpt lat="46.07145" lon="6.97561">
        <ele>1204</ele>
        <time>2019-04-17T19:05:16Z</time>
      </trkpt>
      <trkpt lat="46.07145" lon="6.976">
        <ele>1204</ele>
        <time>2019-04-17T19:06:16Z</time>
      </trkpt>
      <trkpt lat="46.07138" lon="6.97644">
        <ele>1198</ele>
        <time>2019-04-17T19:07:16Z</time>
      </trkpt>
      <trkpt lat="46.07123" lon="6.97688">
        <ele>1199</ele>
        <time>2019-04-17T19:08:16Z</time>
      </trkpt>
      <trkpt lat="46.07104" lon="6.97718">
        <ele>1206</ele>
        <time>2019-04-17T19:09:16Z</time>
      </trkpt>
      <trkpt lat="46.0708" lon="6.97749">
        <ele>1218</ele>
        <time>2019-04-17T19:10:16Z</time>
      </trkpt>
      <trkpt lat="46.07023" lon="6.97814">
        <ele>1237</ele>
        <time>2019-04-17T19:11:16Z</time>
      </trkpt>
      <trkpt lat="46.06992" lon="6.97869">
        <ele>1229</ele>
        <time>2019-04-17T19:12:16Z</time>
      </trkpt>
      <trkpt lat="46.06959" lon="6.97951">
        <ele>1218</ele>
        <time>2019-04-17T19:13:16Z</time>
      </trkpt>
      <trkpt lat="46.06921" lon="6.98028">
        <ele>1220</ele>
        <time>2019-04-17T19:14:16Z</time>
      </trkpt>
      <trkpt lat="46.06825" lon="6.98201">
        <ele>1230</ele>
        <time>2019-04-17T19:15:16Z</time>
      </trkpt>
      <trkpt lat="46.06787" lon="6.98291">
        <ele>1237</ele>
        <time>2019-04-17T19:16:16Z</time>
      </trkpt>
      <trkpt lat="46.06747" lon="6.98399">
        <ele>1232</ele>
        <time>2019-04-17T19:17:16Z</time>
      </trkpt>
      <trkpt lat="46.06711" lon="6.98464">
        <ele>1249</ele>
        <time>2019-04-17T19:18:16Z</time>
      </trkpt>
      <trkpt lat="46.06671" lon="6.98515">
        <ele>1247</ele>
        <time>2019-04-17T19:19:16Z</time>
      </trkpt>
      <trkpt lat="46.06647" lon="6.9855">
        <ele>1258</ele>
        <time>2019-04-17T19:20:16Z</time>
      </trkpt>
      <trkpt lat="46.06629" lon="6.98582">
        <ele>1263</ele>
        <time>2019-04-17T19:21:16Z</time>
      </trkpt>
      <trkpt lat="46.06525" lon="6.98805">
        <ele>1266</ele>
        <time>2019-04-17T19:22:16Z</time>
      </trkpt>
      <trkpt lat="46.06501" lon="6.98841">
        <ele>1257</ele>
        <time>2019-04-17T19:23:16Z</time>
      </trkpt>
      <trkpt lat="46.06452" lon="6.98893">
        <ele>1268</ele>
        <time>2019-04-17T19:24:16Z</time>
      </trkpt>
      <trkpt lat="46.06311" lon="6.98986">
        <ele>1274</ele>
        <time>2019-04-17T19:25:16Z</time>
      </trkpt>
      <trkpt lat="46.06271" lon="6.99017">
        <ele>1276</ele>
        <time>2019-04-17T19:26:16Z</time>
      </trkpt>
      <trkpt lat="46.06215" lon="6.99066">
        <ele>1282</ele>
        <time>2019-04-17T19:27:16Z</time>
      </trkpt>
      <trkpt lat="46.06193" lon="6.99089">
        <ele>1285</ele>
        <time>2019-04-17T19:28:16Z</time>
      </trkpt>
      <trkpt lat="46.06044" lon="6.99277">
        <ele>1280</ele>
        <time>2019-04-17T19:29:16Z</time>
      </trkpt>
      <trkpt lat="46.0602" lon="6.99298">
        <ele>1281</ele>
        <time>2019-04-17T19:30:16Z</time>
      </trkpt>
      <trkpt lat="46.05926" lon="6.99338">
        <ele>1282</ele>
        <time>2019-04-17T19:31:16Z</time>
      </trkpt>
      <trkpt lat="46.05674" lon="6.99599">
        <ele>1298</ele>
        <time>2019-04-17T19:32:16Z</time>
      </trkpt>
      <trkpt lat="46.05662" lon="6.99605">
        <ele>1299</ele>
        <time>2019-04-17T19:33:16Z</time>
      </trkpt>
      <trkpt lat="46.05641" lon="6.99608">
        <ele>1302</ele>
        <time>2019-04-17T19:34:16Z</time>
      </trkpt>
      <trkpt lat="46.05606" lon="6.99603">
        <ele>1306</ele>
        <time>2019-04-17T19:35:16Z</time>
      </trkpt>
      <trkpt lat="46.05586" lon="6.99604">
        <ele>1309</ele>
        <time>2019-04-17T19:36:16Z</time>
      </trkpt>
      <trkpt lat="46.05501" lon="6.99629">
        <ele>1317</ele>
        <time>2019-04-17T19:37:16Z</time>
      </trkpt>
      <trkpt lat="46.05471" lon="6.99632">
        <ele>1320</ele>
        <time>2019-04-17T19:38:16Z</time>
      </trkpt>
      <trkpt lat="46.05313" lon="6.99602">
        <ele>1329</ele>
        <time>2019-04-17T19:39:16Z</time>
      </trkpt>
      <trkpt lat="46.05276" lon="6.99602">
        <ele>1329</ele>
        <time>2019-04-17T19:40:16Z</time>
      </trkpt>
      <trkpt lat="46.05259" lon="6.99606">
        <ele>1330</ele>
        <time>2019-04-17T19:41:16Z</time>
      </trkpt>
      <trkpt lat="46.05231" lon="6.9962">
        <ele>1334</ele>
        <time>2019-04-17T19:42:16Z</time>
      </trkpt>
      <trkpt lat="46.05143" lon="6.99679">
        <ele>1353</ele>
        <time>2019-04-17T19:43:16Z</time>
      </trkpt>
      <trkpt lat="46.05114" lon="6.99688">
        <ele>1358</ele>
        <time>2019-04-17T19:44:16Z</time>
      </trkpt>
      <trkpt lat="46.05062" lon="6.99685">
        <ele>1361</ele>
        <time>2019-04-17T19:45:16Z</time>
      </trkpt>
      <trkpt lat="46.05029" lon="6.99676">
        <ele>1361</ele>
        <time>2019-04-17T19:46:16Z</time>
      </trkpt>
      <trkpt lat="46.05006" lon="6.99679">
        <ele>1366</ele>
        <time>2019-04-17T19:47:16Z</time>
      </trkpt>
      <trkpt lat="46.04972" lon="6.99699">
        <ele>1378</ele>
        <time>2019-04-17T19:48:16Z</time>
      </trkpt>
      <trkpt lat="46.04951" lon="6.99708">
        <ele>1383</ele>
        <time>2019-04-17T19:49:16Z</time>
      </trkpt>
      <trkpt lat="46.04926" lon="6.99711">
        <ele>1385</ele>
        <time>2019-04-17T19:50:16Z</time>
      </trkpt>
      <trkpt lat="46.04861" lon="6.99707">
        <ele>1382</ele>
        <time>2019-04-17T19:51:16Z</time>
      </trkpt>
      <trkpt lat="46.0477" lon="6.99723">
        <ele>1394</ele>
        <time>2019-04-17T19:52:16Z</time>
      </trkpt>
      <trkpt lat="46.04709" lon="6.9972">
        <ele>1393</ele>
        <time>2019-04-17T19:53:16Z</time>
      </trkpt>
      <trkpt lat="46.0467" lon="6.99724">
        <ele>1395</ele>
        <time>2019-04-17T19:54:16Z</time>
      </trkpt>
      <trkpt lat="46.04558" lon="6.99752">
        <ele>1402</ele>
        <time>2019-04-17T19:55:16Z</time>
      </trkpt>
      <trkpt lat="46.04537" lon="6.99753">
        <ele>1402</ele>
        <time>2019-04-17T19:56:16Z</time>
      </trkpt>
      <trkpt lat="46.04513" lon="6.99749">
        <ele>1401</ele>
        <time>2019-04-17T19:57:16Z</time>
      </trkpt>
      <trkpt lat="46.04508" lon="6.9975">
        <ele>1401</ele>
        <time>2019-04-17T19:58:16Z</time>
      </trkpt>
      <trkpt lat="46.04503" lon="6.99755">
        <ele>1403</ele>
        <time>2019-04-17T19:59:16Z</time>
      </trkpt>
      <trkpt lat="46.045" lon="6.99762">
        <ele>1406</ele>
        <time>2019-04-17T20:00:16Z</time>
      </trkpt>
      <trkpt lat="46.045" lon="6.99767">
        <ele>1409</ele>
        <time>2019-04-17T20:01:16Z</time>
      </trkpt>
      <trkpt lat="46.04503" lon="6.99776">
        <ele>1413</ele>
        <time>2019-04-17T20:02:16Z</time>
      </trkpt>
      <trkpt lat="46.04511" lon="6.99781">
        <ele>1415</ele>
        <time>2019-04-17T20:03:16Z</time>
      </trkpt>
      <trkpt lat="46.04568" lon="6.99771">
        <ele>1411</ele>
        <time>2019-04-17T20:04:16Z</time>
      </trkpt>
      <trkpt lat="46.04626" lon="6.99772">
        <ele>1416</ele>
        <time>2019-04-17T20:05:16Z</time>
      </trkpt>
      <trkpt lat="46.04675" lon="6.9978">
        <ele>1425</ele>
        <time>2019-04-17T20:06:16Z</time>
      </trkpt>
      <trkpt lat="46.0471" lon="6.99789">
        <ele>1431</ele>
        <time>2019-04-17T20:07:16Z</time>
      </trkpt>
      <trkpt lat="46.04826" lon="6.99829">
        <ele>1448</ele>
        <time>2019-04-17T20:08:16Z</time>
      </trkpt>
      <trkpt lat="46.04901" lon="6.99861">
        <ele>1459</ele>
        <time>2019-04-17T20:09:16Z</time>
      </trkpt>
      <trkpt lat="46.04915" lon="6.99864">
        <ele>1459</ele>
        <time>2019-04-17T20:10:16Z</time>
      </trkpt>
      <trkpt lat="46.04955" lon="6.99851">
        <ele>1449</ele>
        <time>2019-04-17T20:11:16Z</time>
      </trkpt>
      <trkpt lat="46.0496" lon="6.99852">
        <ele>1449</ele>
        <time>2019-04-17T20:12:16Z</time>
      </trkpt>
      <trkpt lat="46.04973" lon="6.99857">
        <ele>1451</ele>
        <time>2019-04-17T20:13:16Z</time>
      </trkpt>
      <trkpt lat="46.0498" lon="6.99863">
        <ele>1453</ele>
        <time>2019-04-17T20:14:16Z</time>
      </trkpt>
      <trkpt lat="46.04995" lon="6.99881">
        <ele>1461</ele>
        <time>2019-04-17T20:15:16Z</time>
      </trkpt>
      <trkpt lat="46.05011" lon="6.99894">
        <ele>1466</ele>
        <time>2019-04-17T20:16:16Z</time>
      </trkpt>
      <trkpt lat="46.05025" lon="6.99897">
        <ele>1467</ele>
        <time>2019-04-17T20:17:16Z</time>
      </trkpt>
      <trkpt lat="46.05072" lon="6.99888">
        <ele>1463</ele>
        <time>2019-04-17T20:18:16Z</time>
      </trkpt>
      <trkpt lat="46.05089" lon="6.99891">
        <ele>1463</ele>
        <time>2019-04-17T20:19:16Z</time>
      </trkpt>
      <trkpt lat="46.05102" lon="6.99899">
        <ele>1465</ele>
        <time>2019-04-17T20:20:16Z</time>
      </trkpt>
      <trkpt lat="46.05157" lon="6.99942">
        <ele>1480</ele>
        <time>2019-04-17T20:21:16Z</time>
      </trkpt>
      <trkpt lat="46.05177" lon="6.99954">
        <ele>1484</ele>
        <time>2019-04-17T20:22:16Z</time>
      </trkpt>
      <trkpt lat="46.05202" lon="6.99964">
        <ele>1488</ele>
        <time>2019-04-17T20:23:16Z</time>
      </trkpt>
      <trkpt lat="46.05224" lon="6.9997">
        <ele>1488</ele>
        <time>2019-04-17T20:24:16Z</time>
      </trkpt>
      <trkpt lat="46.05328" lon="6.99969">
        <ele>1486</ele>
        <time>2019-04-17T20:25:16Z</time>
      </trkpt>
      <trkpt lat="46.05364" lon="6.99983">
        <ele>1488</ele>
        <time>2019-04-17T20:26:16Z</time>
      </trkpt>
      <trkpt lat="46.05397" lon="6.9999">
        <ele>1488</ele>
        <time>2019-04-17T20:27:16Z</time>
      </trkpt>
      <trkpt lat="46.0545" lon="6.99999">
        <ele>1492</ele>
        <time>2019-04-17T20:28:16Z</time>
      </trkpt>
      <trkpt lat="46.05472" lon="6.99998">
        <ele>1493</ele>
        <time>2019-04-17T20:29:16Z</time>
      </trkpt>
      <trkpt lat="46.05538" lon="6.99988">
        <ele>1494</ele>
        <time>2019-04-17T20:30:16Z</time>
      </trkpt>
      <trkpt lat="46.05641" lon="6.99988">
        <ele>1505</ele>
        <time>2019-04-17T20:31:16Z</time>
      </trkpt>
      <trkpt lat="46.05773" lon="6.99983">
        <ele>1516</ele>
        <time>2019-04-17T20:32:16Z</time>
      </trkpt>
      <trkpt lat="46.05789" lon="6.99975">
        <ele>1517</ele>
        <time>2019-04-17T20:33:16Z</time>
      </trkpt>
      <trkpt lat="46.05812" lon="6.99952">
        <ele>1513</ele>
        <time>2019-04-17T20:34:16Z</time>
      </trkpt>
      <trkpt lat="46.05818" lon="6.99951">
        <ele>1514</ele>
        <time>2019-04-17T20:35:16Z</time>
      </trkpt>
      <trkpt lat="46.05825" lon="6.99958">
        <ele>1518</ele>
        <time>2019-04-17T20:36:16Z</time>
      </trkpt>
      <trkpt lat="46.05827" lon="6.9997">
        <ele>1523</ele>
        <time>2019-04-17T20:37:16Z</time>
      </trkpt>
      <trkpt lat="46.05773" lon="7.00109">
        <ele>1533</ele>
        <time>2019-04-17T20:38:16Z</time>
      </trkpt>
      <trkpt lat="46.05772" lon="7.00121">
        <ele>1533</ele>
        <time>2019-04-17T20:39:16Z</time>
      </trkpt>
      <trkpt lat="46.05772" lon="7.00134">
        <ele>1534</ele>
        <time>2019-04-17T20:40:16Z</time>
      </trkpt>
      <trkpt lat="46.05776" lon="7.0015">
        <ele>1535</ele>
        <time>2019-04-17T20:41:16Z</time>
      </trkpt>
      <trkpt lat="46.05785" lon="7.00164">
        <ele>1535</ele>
        <time>2019-04-17T20:42:16Z</time>
      </trkpt>
      <trkpt lat="46.05846" lon="7.00209">
        <ele>1529</ele>
        <time>2019-04-17T20:43:16Z</time>
      </trkpt>
      <trkpt lat="46.05878" lon="7.00241">
        <ele>1537</ele>
        <time>2019-04-17T20:44:16Z</time>
      </trkpt>
      <trkpt lat="46.05903" lon="7.00281">
        <ele>1534</ele>
        <time>2019-04-17T20:45:16Z</time>
      </trkpt>
      <trkpt lat="46.05956" lon="7.00378">
        <ele>1524</ele>
        <time>2019-04-17T20:46:16Z</time>
      </trkpt>
      <trkpt lat="46.05981" lon="7.00426">
        <ele>1521</ele>
        <time>2019-04-17T20:47:16Z</time>
      </trkpt>
      <trkpt lat="46.0603" lon="7.00557">
        <ele>1507</ele>
        <time>2019-04-17T20:48:16Z</time>
      </trkpt>
      <trkpt lat="46.06047" lon="7.00618">
        <ele>1504</ele>
        <time>2019-04-17T20:49:16Z</time>
      </trkpt>
      <trkpt lat="46.06065" lon="7.00685">
        <ele>1500</ele>
        <time>2019-04-17T20:50:16Z</time>
      </trkpt>
      <trkpt lat="46.06079" lon="7.00733">
        <ele>1496</ele>
        <time>2019-04-17T20:51:16Z</time>
      </trkpt>
      <trkpt lat="46.06111" lon="7.00815">
        <ele>1490</ele>
        <time>2019-04-17T20:52:16Z</time>
      </trkpt>
      <trkpt lat="46.06159" lon="7.00918">
        <ele>1484</ele>
        <time>2019-04-17T20:53:16Z</time>
      </trkpt>
      <trkpt lat="46.0621" lon="7.01017">
        <ele>1478</ele>
        <time>2019-04-17T20:54:16Z</time>
      </trkpt>
      <trkpt lat="46.06267" lon="7.01107">
        <ele>1469</ele>
        <time>2019-04-17T20:55:16Z</time>
      </trkpt>
      <trkpt lat="46.06372" lon="7.01243">
        <ele>1458</ele>
        <time>2019-04-17T20:56:16Z</time>
      </trkpt>
      <trkpt lat="46.06449" lon="7.01358">
        <ele>1450</ele>
        <time>2019-04-17T20:57:16Z</time>
      </trkpt>
      <trkpt lat="46.06593" lon="7.01538">
        <ele>1430</ele>
        <time>2019-04-17T20:58:16Z</time>
      </trkpt>
      <trkpt lat="46.06648" lon="7.01595">
        <ele>1421</ele>
        <time>2019-04-17T20:59:16Z</time>
      </trkpt>
      <trkpt lat="46.06726" lon="7.01666">
        <ele>1413</ele>
        <time>2019-04-17T21:00:16Z</time>
      </trkpt>
      <trkpt lat="46.06767" lon="7.01689">
        <ele>1412</ele>
        <time>2019-04-17T21:01:16Z</time>
      </trkpt>
      <trkpt lat="46.06833" lon="7.01712">
        <ele>1409</ele>
        <time>2019-04-17T21:02:16Z</time>
      </trkpt>
      <trkpt lat="46.06859" lon="7.01727">
        <ele>1410</ele>
        <time>2019-04-17T21:03:16Z</time>
      </trkpt>
      <trkpt lat="46.06896" lon="7.01763">
        <ele>1406</ele>
        <time>2019-04-17T21:04:16Z</time>
      </trkpt>
      <trkpt lat="46.06938" lon="7.01811">
        <ele>1395</ele>
        <time>2019-04-17T21:05:16Z</time>
      </trkpt>
      <trkpt lat="46.06955" lon="7.01826">
        <ele>1391</ele>
        <time>2019-04-17T21:06:16Z</time>
      </trkpt>
      <trkpt lat="46.07028" lon="7.01868">
        <ele>1392</ele>
        <time>2019-04-17T21:07:16Z</time>
      </trkpt>
      <trkpt lat="46.07051" lon="7.01886">
        <ele>1391</ele>
        <time>2019-04-17T21:08:16Z</time>
      </trkpt>
      <trkpt lat="46.0707" lon="7.01906">
        <ele>1389</ele>
        <time>2019-04-17T21:09:16Z</time>
      </trkpt>
      <trkpt lat="46.07107" lon="7.01968">
        <ele>1378</ele>
        <time>2019-04-17T21:10:16Z</time>
      </trkpt>
      <trkpt lat="46.07121" lon="7.01984">
        <ele>1377</ele>
        <time>2019-04-17T21:11:16Z</time>
      </trkpt>
      <trkpt lat="46.07176" lon="7.02028">
        <ele>1374</ele>
        <time>2019-04-17T21:12:16Z</time>
      </trkpt>
      <trkpt lat="46.07234" lon="7.0208">
        <ele>1363</ele>
        <time>2019-04-17T21:13:16Z</time>
      </trkpt>
      <trkpt lat="46.07271" lon="7.02097">
        <ele>1360</ele>
        <time>2019-04-17T21:14:16Z</time>
      </trkpt>
      <trkpt lat="46.07312" lon="7.02109">
        <ele>1358</ele>
        <time>2019-04-17T21:15:16Z</time>
      </trkpt>
      <trkpt lat="46.07361" lon="7.02106">
        <ele>1362</ele>
        <time>2019-04-17T21:16:16Z</time>
      </trkpt>
      <trkpt lat="46.07378" lon="7.02109">
        <ele>1360</ele>
        <time>2019-04-17T21:17:16Z</time>
      </trkpt>
      <trkpt lat="46.07409" lon="7.02126">
        <ele>1348</ele>
        <time>2019-04-17T21:18:16Z</time>
      </trkpt>
      <trkpt lat="46.07424" lon="7.0213">
        <ele>1344</ele>
        <time>2019-04-17T21:19:16Z</time>
      </trkpt>
      <trkpt lat="46.07432" lon="7.0213">
        <ele>1342</ele>
        <time>2019-04-17T21:20:16Z</time>
      </trkpt>
      <trkpt lat="46.07447" lon="7.02124">
        <ele>1343</ele>
        <time>2019-04-17T21:21:16Z</time>
      </trkpt>
      <trkpt lat="46.07466" lon="7.02112">
        <ele>1345</ele>
        <time>2019-04-17T21:22:16Z</time>
      </trkpt>
      <trkpt lat="46.07507" lon="7.02082">
        <ele>1350</ele>
        <time>2019-04-17T21:23:16Z</time>
      </trkpt>
      <trkpt lat="46.07538" lon="7.0204">
        <ele>1358</ele>
        <time>2019-04-17T21:24:16Z</time>
      </trkpt>
      <trkpt lat="46.07546" lon="7.02036">
        <ele>1357</ele>
        <time>2019-04-17T21:25:16Z</time>
      </trkpt>
      <trkpt lat="46.07551" lon="7.02036">
        <ele>1355</ele>
        <time>2019-04-17T21:26:16Z</time>
      </trkpt>
      <trkpt lat="46.07557" lon="7.0204">
        <ele>1351</ele>
        <time>2019-04-17T21:27:16Z</time>
      </trkpt>
      <trkpt lat="46.0756" lon="7.02047">
        <ele>1347</ele>
        <time>2019-04-17T21:28:16Z</time>
      </trkpt>
      <trkpt lat="46.07561" lon="7.02057">
        <ele>1342</ele>
        <time>2019-04-17T21:29:16Z</time>
      </trkpt>
      <trkpt lat="46.07556" lon="7.02069">
        <ele>1339</ele>
        <time>2019-04-17T21:30:16Z</time>
      </trkpt>
      <trkpt lat="46.07548" lon="7.02077">
        <ele>1338</ele>
        <time>2019-04-17T21:31:16Z</time>
      </trkpt>
      <trkpt lat="46.07505" lon="7.02111">
        <ele>1336</ele>
        <time>2019-04-17T21:32:16Z</time>
      </trkpt>
      <trkpt lat="46.07472" lon="7.02147">
        <ele>1324</ele>
        <time>2019-04-17T21:33:16Z</time>
      </trkpt>
      <trkpt lat="46.07453" lon="7.02157">
        <ele>1322</ele>
        <time>2019-04-17T21:34:16Z</time>
      </trkpt>
      <trkpt lat="46.07397" lon="7.0216">
        <ele>1325</ele>
        <time>2019-04-17T21:35:16Z</time>
      </trkpt>
      <trkpt lat="46.07319" lon="7.0218">
        <ele>1313</ele>
        <time>2019-04-17T21:36:16Z</time>
      </trkpt>
      <trkpt lat="46.07299" lon="7.02181">
        <ele>1311</ele>
        <time>2019-04-17T21:37:16Z</time>
      </trkpt>
      <trkpt lat="46.07254" lon="7.02173">
        <ele>1313</ele>
        <time>2019-04-17T21:38:16Z</time>
      </trkpt>
      <trkpt lat="46.07213" lon="7.02176">
        <ele>1303</ele>
        <time>2019-04-17T21:39:16Z</time>
      </trkpt>
      <trkpt lat="46.07196" lon="7.02174">
        <ele>1300</ele>
        <time>2019-04-17T21:40:16Z</time>
      </trkpt>
      <trkpt lat="46.07078" lon="7.02124">
        <ele>1296</ele>
        <time>2019-04-17T21:41:16Z</time>
      </trkpt>
      <trkpt lat="46.06938" lon="7.02054">
        <ele>1287</ele>
        <time>2019-04-17T21:42:16Z</time>
      </trkpt>
      <trkpt lat="46.06875" lon="7.02026">
        <ele>1284</ele>
        <time>2019-04-17T21:43:16Z</time>
      </trkpt>
      <trkpt lat="46.06837" lon="7.02016">
        <ele>1278</ele>
        <time>2019-04-17T21:44:16Z</time>
      </trkpt>
      <trkpt lat="46.06795" lon="7.02015">
        <ele>1272</ele>
        <time>2019-04-17T21:45:16Z</time>
      </trkpt>
      <trkpt lat="46.06722" lon="7.02028">
        <ele>1256</ele>
        <time>2019-04-17T21:46:16Z</time>
      </trkpt>
      <trkpt lat="46.06698" lon="7.02031">
        <ele>1251</ele>
        <time>2019-04-17T21:47:16Z</time>
      </trkpt>
      <trkpt lat="46.0668" lon="7.02029">
        <ele>1248</ele>
        <time>2019-04-17T21:48:16Z</time>
      </trkpt>
      <trkpt lat="46.0666" lon="7.02021">
        <ele>1249</ele>
        <time>2019-04-17T21:49:16Z</time>
      </trkpt>
      <trkpt lat="46.06562" lon="7.01959">
        <ele>1258</ele>
        <time>2019-04-17T21:50:16Z</time>
      </trkpt>
      <trkpt lat="46.06548" lon="7.01962">
        <ele>1258</ele>
        <time>2019-04-17T21:51:16Z</time>
      </trkpt>
      <trkpt lat="46.06543" lon="7.01973">
        <ele>1257</ele>
        <time>2019-04-17T21:52:16Z</time>
      </trkpt>
      <trkpt lat="46.06544" lon="7.01983">
        <ele>1255</ele>
        <time>2019-04-17T21:53:16Z</time>
      </trkpt>
      <trkpt lat="46.06552" lon="7.01996">
        <ele>1251</ele>
        <time>2019-04-17T21:54:16Z</time>
      </trkpt>
      <trkpt lat="46.06575" lon="7.02002">
        <ele>1245</ele>
        <time>2019-04-17T21:55:16Z</time>
      </trkpt>
      <trkpt lat="46.06611" lon="7.02016">
        <ele>1245</ele>
        <time>2019-04-17T21:56:16Z</time>
      </trkpt>
      <trkpt lat="46.06623" lon="7.02026">
        <ele>1244</ele>
        <time>2019-04-17T21:57:16Z</time>
      </trkpt>
      <trkpt lat="46.06653" lon="7.02065">
        <ele>1232</ele>
        <time>2019-04-17T21:58:16Z</time>
      </trkpt>
      <trkpt lat="46.06665" lon="7.02077">
        <ele>1227</ele>
        <time>2019-04-17T21:59:16Z</time>
      </trkpt>
      <trkpt lat="46.06839" lon="7.02148">
        <ele>1225</ele>
        <time>2019-04-17T22:00:16Z</time>
      </trkpt>
      <trkpt lat="46.06868" lon="7.02169">
        <ele>1224</ele>
        <time>2019-04-17T22:01:16Z</time>
      </trkpt>
      <trkpt lat="46.06926" lon="7.02226">
        <ele>1215</ele>
        <time>2019-04-17T22:02:16Z</time>
      </trkpt>
      <trkpt lat="46.06948" lon="7.02246">
        <ele>1210</ele>
        <time>2019-04-17T22:03:16Z</time>
      </trkpt>
      <trkpt lat="46.07077" lon="7.02317">
        <ele>1202</ele>
        <time>2019-04-17T22:04:16Z</time>
      </trkpt>
      <trkpt lat="46.07099" lon="7.02334">
        <ele>1197</ele>
        <time>2019-04-17T22:05:16Z</time>
      </trkpt>
      <trkpt lat="46.07131" lon="7.02365">
        <ele>1190</ele>
        <time>2019-04-17T22:06:16Z</time>
      </trkpt>
      <trkpt lat="46.07143" lon="7.02373">
        <ele>1189</ele>
        <time>2019-04-17T22:07:16Z</time>
      </trkpt>
      <trkpt lat="46.0717" lon="7.02384">
        <ele>1187</ele>
        <time>2019-04-17T22:08:16Z</time>
      </trkpt>
      <trkpt lat="46.07234" lon="7.02395">
        <ele>1184</ele>
        <time>2019-04-17T22:09:16Z</time>
      </trkpt>
      <trkpt lat="46.07304" lon="7.02412">
        <ele>1186</ele>
        <time>2019-04-17T22:10:16Z</time>
      </trkpt>
      <trkpt lat="46.0733" lon="7.02443">
        <ele>1177</ele>
        <time>2019-04-17T22:11:16Z</time>
      </trkpt>
      <trkpt lat="46.07358" lon="7.02495">
        <ele>1161</ele>
        <time>2019-04-17T22:12:16Z</time>
      </trkpt>
      <trkpt lat="46.07375" lon="7.02514">
        <ele>1158</ele>
        <time>2019-04-17T22:13:16Z</time>
      </trkpt>
      <trkpt lat="46.07392" lon="7.02522">
        <ele>1160</ele>
        <time>2019-04-17T22:14:16Z</time>
      </trkpt>
      <trkpt lat="46.07408" lon="7.02524">
        <ele>1163</ele>
        <time>2019-04-17T22:15:16Z</time>
      </trkpt>
      <trkpt lat="46.07452" lon="7.02516">
        <ele>1157</ele>
        <time>2019-04-17T22:16:16Z</time>
      </trkpt>
      <trkpt lat="46.07457" lon="7.02519">
        <ele>1154</ele>
        <time>2019-04-17T22:17:16Z</time>
      </trkpt>
      <trkpt lat="46.07461" lon="7.02526">
        <ele>1150</ele>
        <time>2019-04-17T22:18:16Z</time>
      </trkpt>
      <trkpt lat="46.07464" lon="7.02534">
        <ele>1146</ele>
        <time>2019-04-17T22:19:16Z</time>
      </trkpt>
      <trkpt lat="46.07463" lon="7.02542">
        <ele>1144</ele>
        <time>2019-04-17T22:20:16Z</time>
      </trkpt>
      <trkpt lat="46.07461" lon="7.0255">
        <ele>1142</ele>
        <time>2019-04-17T22:21:16Z</time>
      </trkpt>
      <trkpt lat="46.07453" lon="7.02557">
        <ele>1142</ele>
        <time>2019-04-17T22:22:16Z</time>
      </trkpt>
      <trkpt lat="46.07384" lon="7.02569">
        <ele>1142</ele>
        <time>2019-04-17T22:23:16Z</time>
      </trkpt>
      <trkpt lat="46.07356" lon="7.02563">
        <ele>1138</ele>
        <time>2019-04-17T22:24:16Z</time>
      </trkpt>
      <trkpt lat="46.07344" lon="7.02549">
        <ele>1139</ele>
        <time>2019-04-17T22:25:16Z</time>
      </trkpt>
      <trkpt lat="46.07305" lon="7.02485">
        <ele>1152</ele>
        <time>2019-04-17T22:26:16Z</time>
      </trkpt>
      <trkpt lat="46.07288" lon="7.02476">
        <ele>1151</ele>
        <time>2019-04-17T22:27:16Z</time>
      </trkpt>
      <trkpt lat="46.07271" lon="7.02474">
        <ele>1148</ele>
        <time>2019-04-17T22:28:16Z</time>
      </trkpt>
      <trkpt lat="46.07213" lon="7.02489">
        <ele>1136</ele>
        <time>2019-04-17T22:29:16Z</time>
      </trkpt>
      <trkpt lat="46.07199" lon="7.02487">
        <ele>1137</ele>
        <time>2019-04-17T22:30:16Z</time>
      </trkpt>
      <trkpt lat="46.07173" lon="7.02477">
        <ele>1142</ele>
        <time>2019-04-17T22:31:16Z</time>
      </trkpt>
      <trkpt lat="46.07158" lon="7.02476">
        <ele>1141</ele>
        <time>2019-04-17T22:32:16Z</time>
      </trkpt>
      <trkpt lat="46.0714" lon="7.0248">
        <ele>1137</ele>
        <time>2019-04-17T22:33:16Z</time>
      </trkpt>
      <trkpt lat="46.0712" lon="7.02489">
        <ele>1130</ele>
        <time>2019-04-17T22:34:16Z</time>
      </trkpt>
      <trkpt lat="46.07094" lon="7.02494">
        <ele>1123</ele>
        <time>2019-04-17T22:35:16Z</time>
      </trkpt>
      <trkpt lat="46.07069" lon="7.02491">
        <ele>1121</ele>
        <time>2019-04-17T22:36:16Z</time>
      </trkpt>
      <trkpt lat="46.07025" lon="7.02472">
        <ele>1123</ele>
        <time>2019-04-17T22:37:16Z</time>
      </trkpt>
      <trkpt lat="46.07004" lon="7.02471">
        <ele>1120</ele>
        <time>2019-04-17T22:38:16Z</time>
      </trkpt>
      <trkpt lat="46.06987" lon="7.02474">
        <ele>1117</ele>
        <time>2019-04-17T22:39:16Z</time>
      </trkpt>
      <trkpt lat="46.06886" lon="7.02505">
        <ele>1110</ele>
        <time>2019-04-17T22:40:16Z</time>
      </trkpt>
      <trkpt lat="46.06879" lon="7.0251">
        <ele>1111</ele>
        <time>2019-04-17T22:41:16Z</time>
      </trkpt>
      <trkpt lat="46.06872" lon="7.02517">
        <ele>1112</ele>
        <time>2019-04-17T22:42:16Z</time>
      </trkpt>
      <trkpt lat="46.0687" lon="7.02526">
        <ele>1113</ele>
        <time>2019-04-17T22:43:16Z</time>
      </trkpt>
      <trkpt lat="46.06872" lon="7.02537">
        <ele>1112</ele>
        <time>2019-04-17T22:44:16Z</time>
      </trkpt>
      <trkpt lat="46.06877" lon="7.02544">
        <ele>1110</ele>
        <time>2019-04-17T22:45:16Z</time>
      </trkpt>
      <trkpt lat="46.06889" lon="7.02547">
        <ele>1106</ele>
        <time>2019-04-17T22:46:16Z</time>
      </trkpt>
      <trkpt lat="46.06906" lon="7.02537">
        <ele>1101</ele>
        <time>2019-04-17T22:47:16Z</time>
      </trkpt>
      <trkpt lat="46.06933" lon="7.02528">
        <ele>1099</ele>
        <time>2019-04-17T22:48:16Z</time>
      </trkpt>
      <trkpt lat="46.0698" lon="7.02527">
        <ele>1097</ele>
        <time>2019-04-17T22:49:16Z</time>
      </trkpt>
      <trkpt lat="46.06999" lon="7.02531">
        <ele>1094</ele>
        <time>2019-04-17T22:50:16Z</time>
      </trkpt>
      <trkpt lat="46.07016" lon="7.02544">
        <ele>1091</ele>
        <time>2019-04-17T22:51:16Z</time>
      </trkpt>
      <trkpt lat="46.07062" lon="7.02584">
        <ele>1080</ele>
        <time>2019-04-17T22:52:16Z</time>
      </trkpt>
      <trkpt lat="46.07087" lon="7.02597">
        <ele>1076</ele>
        <time>2019-04-17T22:53:16Z</time>
      </trkpt>
      <trkpt lat="46.07109" lon="7.02599">
        <ele>1076</ele>
        <time>2019-04-17T22:54:16Z</time>
      </trkpt>
      <trkpt lat="46.07175" lon="7.02595">
        <ele>1081</ele>
        <time>2019-04-17T22:55:16Z</time>
      </trkpt>
      <trkpt lat="46.07204" lon="7.02602">
        <ele>1082</ele>
        <time>2019-04-17T22:56:16Z</time>
      </trkpt>
      <trkpt lat="46.07225" lon="7.02616">
        <ele>1079</ele>
        <time>2019-04-17T22:57:16Z</time>
      </trkpt>
      <trkpt lat="46.07239" lon="7.02629">
        <ele>1075</ele>
        <time>2019-04-17T22:58:16Z</time>
      </trkpt>
      <trkpt lat="46.07262" lon="7.02655">
        <ele>1071</ele>
        <time>2019-04-17T22:59:16Z</time>
      </trkpt>
      <trkpt lat="46.07316" lon="7.02745">
        <ele>1059</ele>
        <time>2019-04-17T23:00:16Z</time>
      </trkpt>
      <trkpt lat="46.07346" lon="7.02783">
        <ele>1051</ele>
        <time>2019-04-17T23:01:16Z</time>
      </trkpt>
      <trkpt lat="46.07378" lon="7.02815">
        <ele>1045</ele>
        <time>2019-04-17T23:02:16Z</time>
      </trkpt>
      <trkpt lat="46.07441" lon="7.02862">
        <ele>1040</ele>
        <time>2019-04-17T23:03:16Z</time>
      </trkpt>
      <trkpt lat="46.07464" lon="7.02871">
        <ele>1039</ele>
        <time>2019-04-17T23:04:16Z</time>
      </trkpt>
      <trkpt lat="46.07494" lon="7.02871">
        <ele>1040</ele>
        <time>2019-04-17T23:05:16Z</time>
      </trkpt>
      <trkpt lat="46.07538" lon="7.02855">
        <ele>1036</ele>
        <time>2019-04-17T23:06:16Z</time>
      </trkpt>
      <trkpt lat="46.07553" lon="7.02851">
        <ele>1034</ele>
        <time>2019-04-17T23:07:16Z</time>
      </trkpt>
      <trkpt lat="46.07568" lon="7.02851">
        <ele>1030</ele>
        <time>2019-04-17T23:08:16Z</time>
      </trkpt>
      <trkpt lat="46.07589" lon="7.02855">
        <ele>1027</ele>
        <time>2019-04-17T23:09:16Z</time>
      </trkpt>
      <trkpt lat="46.07604" lon="7.02862">
        <ele>1027</ele>
        <time>2019-04-17T23:10:16Z</time>
      </trkpt>
      <trkpt lat="46.0766" lon="7.02899">
        <ele>1024</ele>
        <time>2019-04-17T23:11:16Z</time>
      </trkpt>
      <trkpt lat="46.07678" lon="7.0292">
        <ele>1024</ele>
        <time>2019-04-17T23:12:16Z</time>
      </trkpt>
      <trkpt lat="46.07694" lon="7.02943">
        <ele>1024</ele>
        <time>2019-04-17T23:13:16Z</time>
      </trkpt>
      <trkpt lat="46.07736" lon="7.03022">
        <ele>1022</ele>
        <time>2019-04-17T23:14:16Z</time>
      </trkpt>
      <trkpt lat="46.07766" lon="7.03102">
        <ele>1012</ele>
        <time>2019-04-17T23:15:16Z</time>
      </trkpt>
      <trkpt lat="46.07774" lon="7.03131">
        <ele>1006</ele>
        <time>2019-04-17T23:16:16Z</time>
      </trkpt>
      <trkpt lat="46.07784" lon="7.03197">
        <ele>987</ele>
        <time>2019-04-17T23:17:16Z</time>
      </trkpt>
      <trkpt lat="46.07795" lon="7.03221">
        <ele>983</ele>
        <time>2019-04-17T23:18:16Z</time>
      </trkpt>
      <trkpt lat="46.07822" lon="7.03247">
        <ele>982</ele>
        <time>2019-04-17T23:19:16Z</time>
      </trkpt>
      <trkpt lat="46.07869" lon="7.03286">
        <ele>975</ele>
        <time>2019-04-17T23:20:16Z</time>
      </trkpt>
      <trkpt lat="46.07879" lon="7.03292">
        <ele>974</ele>
        <time>2019-04-17T23:21:16Z</time>
      </trkpt>
      <trkpt lat="46.07893" lon="7.03291">
        <ele>977</ele>
        <time>2019-04-17T23:22:16Z</time>
      </trkpt>
      <trkpt lat="46.07906" lon="7.03285">
        <ele>980</ele>
        <time>2019-04-17T23:23:16Z</time>
      </trkpt>
      <trkpt lat="46.07962" lon="7.03231">
        <ele>988</ele>
        <time>2019-04-17T23:24:16Z</time>
      </trkpt>
      <trkpt lat="46.07978" lon="7.03221">
        <ele>988</ele>
        <time>2019-04-17T23:25:16Z</time>
      </trkpt>
      <trkpt lat="46.07987" lon="7.03219">
        <ele>987</ele>
        <time>2019-04-17T23:26:16Z</time>
      </trkpt>
      <trkpt lat="46.07998" lon="7.03222">
        <ele>983</ele>
        <time>2019-04-17T23:27:16Z</time>
      </trkpt>
      <trkpt lat="46.08013" lon="7.03232">
        <ele>982</ele>
        <time>2019-04-17T23:28:16Z</time>
      </trkpt>
      <trkpt lat="46.08031" lon="7.0326">
        <ele>978</ele>
        <time>2019-04-17T23:29:16Z</time>
      </trkpt>
      <trkpt lat="46.08072" lon="7.03345">
        <ele>967</ele>
        <time>2019-04-17T23:30:16Z</time>
      </trkpt>
      <trkpt lat="46.08107" lon="7.03442">
        <ele>962</ele>
        <time>2019-04-17T23:31:16Z</time>
      </trkpt>
      <trkpt lat="46.08111" lon="7.03458">
        <ele>962</ele>
        <time>2019-04-17T23:32:16Z</time>
      </trkpt>
      <trkpt lat="46.08113" lon="7.03481">
        <ele>960</ele>
        <time>2019-04-17T23:33:16Z</time>
      </trkpt>
      <trkpt lat="46.08108" lon="7.03502">
        <ele>954</ele>
        <time>2019-04-17T23:34:16Z</time>
      </trkpt>
      <trkpt lat="46.08101" lon="7.03522">
        <ele>948</ele>
        <time>2019-04-17T23:35:16Z</time>
      </trkpt>
      <trkpt lat="46.08091" lon="7.03544">
        <ele>941</ele>
        <time>2019-04-17T23:36:16Z</time>
      </trkpt>
      <trkpt lat="46.08084" lon="7.03567">
        <ele>936</ele>
        <time>2019-04-17T23:37:16Z</time>
      </trkpt>
      <trkpt lat="46.08083" lon="7.03585">
        <ele>934</ele>
        <time>2019-04-17T23:38:16Z</time>
      </trkpt>
      <trkpt lat="46.08085" lon="7.03608">
        <ele>930</ele>
        <time>2019-04-17T23:39:16Z</time>
      </trkpt>
      <trkpt lat="46.0809" lon="7.03623">
        <ele>929</ele>
        <time>2019-04-17T23:40:16Z</time>
      </trkpt>
      <trkpt lat="46.0813" lon="7.03682">
        <ele>932</ele>
        <time>2019-04-17T23:41:16Z</time>
      </trkpt>
      <trkpt lat="46.0815" lon="7.03704">
        <ele>931</ele>
        <time>2019-04-17T23:42:16Z</time>
      </trkpt>
      <trkpt lat="46.08171" lon="7.03715">
        <ele>935</ele>
        <time>2019-04-17T23:43:16Z</time>
      </trkpt>
      <trkpt lat="46.08187" lon="7.03735">
        <ele>933</ele>
        <time>2019-04-17T23:44:16Z</time>
      </trkpt>
      <trkpt lat="46.08204" lon="7.03763">
        <ele>929</ele>
        <time>2019-04-17T23:45:16Z</time>
      </trkpt>
      <trkpt lat="46.08216" lon="7.03789">
        <ele>923</ele>
        <time>2019-04-17T23:46:16Z</time>
      </trkpt>
      <trkpt lat="46.08287" lon="7.03876">
        <ele>917</ele>
        <time>2019-04-17T23:47:16Z</time>
      </trkpt>
      <trkpt lat="46.08351" lon="7.03961">
        <ele>901</ele>
        <time>2019-04-17T23:48:16Z</time>
      </trkpt>
      <trkpt lat="46.08391" lon="7.04">
        <ele>892</ele>
        <time>2019-04-17T23:49:16Z</time>
      </trkpt>
      <trkpt lat="46.084" lon="7.04005">
        <ele>892</ele>
        <time>2019-04-17T23:50:16Z</time>
      </trkpt>
      <trkpt lat="46.08422" lon="7.04008">
        <ele>896</ele>
        <time>2019-04-17T23:51:16Z</time>
      </trkpt>
      <trkpt lat="46.0846" lon="7.04006">
        <ele>907</ele>
        <time>2019-04-17T23:52:16Z</time>
      </trkpt>
      <trkpt lat="46.08468" lon="7.04008">
        <ele>908</ele>
        <time>2019-04-17T23:53:16Z</time>
      </trkpt>
      <trkpt lat="46.08477" lon="7.04013">
        <ele>908</ele>
        <time>2019-04-17T23:54:16Z</time>
      </trkpt>
      <trkpt lat="46.08484" lon="7.04021">
        <ele>907</ele>
        <time>2019-04-17T23:55:16Z</time>
      </trkpt>
      <trkpt lat="46.0849" lon="7.0403">
        <ele>905</ele>
        <time>2019-04-17T23:56:16Z</time>
      </trkpt>
      <trkpt lat="46.08535" lon="7.04115">
        <ele>892</ele>
        <time>2019-04-17T23:57:16Z</time>
      </trkpt>
      <trkpt lat="46.08575" lon="7.04182">
        <ele>885</ele>
        <time>2019-04-17T23:58:16Z</time>
      </trkpt>
      <trkpt lat="46.08608" lon="7.04228">
        <ele>881</ele>
        <time>2019-04-17T23:59:16Z</time>
      </trkpt>
      <trkpt lat="46.08634" lon="7.04256">
        <ele>880</ele>
        <time>2019-04-18T00:00:16Z</time>
      </trkpt>
      <trkpt lat="46.08709" lon="7.04352">
        <ele>868</ele>
        <time>2019-04-18T00:01:16Z</time>
      </trkpt>
      <trkpt lat="46.0873" lon="7.04374">
        <ele>866</ele>
        <time>2019-04-18T00:02:16Z</time>
      </trkpt>
      <trkpt lat="46.08877" lon="7.04514">
        <ele>848</ele>
        <time>2019-04-18T00:03:16Z</time>
      </trkpt>
      <trkpt lat="46.08897" lon="7.04531">
        <ele>846</ele>
        <time>2019-04-18T00:04:16Z</time>
      </trkpt>
      <trkpt lat="46.08907" lon="7.04537">
        <ele>845</ele>
        <time>2019-04-18T00:05:16Z</time>
      </trkpt>
      <trkpt lat="46.08937" lon="7.04547">
        <ele>848</ele>
        <time>2019-04-18T00:06:16Z</time>
      </trkpt>
      <trkpt lat="46.08959" lon="7.04558">
        <ele>847</ele>
        <time>2019-04-18T00:07:16Z</time>
      </trkpt>
      <trkpt lat="46.09017" lon="7.04604">
        <ele>839</ele>
        <time>2019-04-18T00:08:16Z</time>
      </trkpt>
      <trkpt lat="46.0905" lon="7.04639">
        <ele>834</ele>
        <time>2019-04-18T00:09:16Z</time>
      </trkpt>
      <trkpt lat="46.09091" lon="7.04692">
        <ele>825</ele>
        <time>2019-04-18T00:10:16Z</time>
      </trkpt>
      <trkpt lat="46.09128" lon="7.04752">
        <ele>821</ele>
        <time>2019-04-18T00:11:16Z</time>
      </trkpt>
      <trkpt lat="46.09141" lon="7.04783">
        <ele>818</ele>
        <time>2019-04-18T00:12:16Z</time>
      </trkpt>
      <trkpt lat="46.0917" lon="7.04872">
        <ele>805</ele>
        <time>2019-04-18T00:13:16Z</time>
      </trkpt>
      <trkpt lat="46.09181" lon="7.04896">
        <ele>803</ele>
        <time>2019-04-18T00:14:16Z</time>
      </trkpt>
      <trkpt lat="46.09188" lon="7.04907">
        <ele>804</ele>
        <time>2019-04-18T00:15:16Z</time>
      </trkpt>
      <trkpt lat="46.09216" lon="7.04944">
        <ele>805</ele>
        <time>2019-04-18T00:16:16Z</time>
      </trkpt>
      <trkpt lat="46.09248" lon="7.04989">
        <ele>805</ele>
        <time>2019-04-18T00:17:16Z</time>
      </trkpt>
      <trkpt lat="46.09312" lon="7.05095">
        <ele>790</ele>
        <time>2019-04-18T00:18:16Z</time>
      </trkpt>
      <trkpt lat="46.09336" lon="7.05129">
        <ele>785</ele>
        <time>2019-04-18T00:19:16Z</time>
      </trkpt>
      <trkpt lat="46.09366" lon="7.05167">
        <ele>780</ele>
        <time>2019-04-18T00:20:16Z</time>
      </trkpt>
      <trkpt lat="46.09396" lon="7.05201">
        <ele>775</ele>
        <time>2019-04-18T00:21:16Z</time>
      </trkpt>
      <trkpt lat="46.09423" lon="7.05223">
        <ele>774</ele>
        <time>2019-04-18T00:22:16Z</time>
      </trkpt>
      <trkpt lat="46.09483" lon="7.05262">
        <ele>777</ele>
        <time>2019-04-18T00:23:16Z</time>
      </trkpt>
      <trkpt lat="46.09514" lon="7.05287">
        <ele>776</ele>
        <time>2019-04-18T00:24:16Z</time>
      </trkpt>
      <trkpt lat="46.09668" lon="7.05426">
        <ele>744</ele>
        <time>2019-04-18T00:25:16Z</time>
      </trkpt>
      <trkpt lat="46.09724" lon="7.0546">
        <ele>743</ele>
        <time>2019-04-18T00:26:16Z</time>
      </trkpt>
      <trkpt lat="46.09737" lon="7.05471">
        <ele>742</ele>
        <time>2019-04-18T00:27:16Z</time>
      </trkpt>
      <trkpt lat="46.0975" lon="7.05486">
        <ele>740</ele>
        <time>2019-04-18T00:28:16Z</time>
      </trkpt>
      <trkpt lat="46.09901" lon="7.05683">
        <ele>720</ele>
        <time>2019-04-18T00:29:16Z</time>
      </trkpt>
      <trkpt lat="46.0993" lon="7.05726">
        <ele>715</ele>
        <time>2019-04-18T00:30:16Z</time>
      </trkpt>
      <trkpt lat="46.09954" lon="7.05769">
        <ele>712</ele>
        <time>2019-04-18T00:31:16Z</time>
      </trkpt>
      <trkpt lat="46.09977" lon="7.05831">
        <ele>708</ele>
        <time>2019-04-18T00:32:16Z</time>
      </trkpt>
      <trkpt lat="46.09988" lon="7.0588">
        <ele>703</ele>
        <time>2019-04-18T00:33:16Z</time>
      </trkpt>
      <trkpt lat="46.10004" lon="7.05937">
        <ele>698</ele>
        <time>2019-04-18T00:34:16Z</time>
      </trkpt>
      <trkpt lat="46.1004" lon="7.06031">
        <ele>693</ele>
        <time>2019-04-18T00:35:16Z</time>
      </trkpt>
      <trkpt lat="46.1006" lon="7.06065">
        <ele>689</ele>
        <time>2019-04-18T00:36:16Z</time>
      </trkpt>
      <trkpt lat="46.10184" lon="7.06208">
        <ele>677</ele>
        <time>2019-04-18T00:37:16Z</time>
      </trkpt>
      <trkpt lat="46.10326" lon="7.06399">
        <ele>664</ele>
        <time>2019-04-18T00:38:16Z</time>
      </trkpt>
      <trkpt lat="46.10338" lon="7.06408">
        <ele>665</ele>
        <time>2019-04-18T00:39:16Z</time>
      </trkpt>
      <trkpt lat="46.1036" lon="7.06419">
        <ele>669</ele>
        <time>2019-04-18T00:40:16Z</time>
      </trkpt>
      <trkpt lat="46.10366" lon="7.0643">
        <ele>667</ele>
        <time>2019-04-18T00:41:16Z</time>
      </trkpt>
      <trkpt lat="46.10365" lon="7.06441">
        <ele>661</ele>
        <time>2019-04-18T00:42:16Z</time>
      </trkpt>
      <trkpt lat="46.10359" lon="7.06449">
        <ele>654</ele>
        <time>2019-04-18T00:43:16Z</time>
      </trkpt>
      <trkpt lat="46.10352" lon="7.0645">
        <ele>651</ele>
        <time>2019-04-18T00:44:16Z</time>
      </trkpt>
      <trkpt lat="46.10347" lon="7.06446">
        <ele>651</ele>
        <time>2019-04-18T00:45:16Z</time>
      </trkpt>
      <trkpt lat="46.10318" lon="7.06411">
        <ele>653</ele>
        <time>2019-04-18T00:46:16Z</time>
      </trkpt>
      <trkpt lat="46.10289" lon="7.06387">
        <ele>650</ele>
        <time>2019-04-18T00:47:16Z</time>
      </trkpt>
      <trkpt lat="46.10199" lon="7.06309">
        <ele>643</ele>
        <time>2019-04-18T00:48:16Z</time>
      </trkpt>
      <trkpt lat="46.10107" lon="7.06237">
        <ele>630</ele>
        <time>2019-04-18T00:49:16Z</time>
      </trkpt>
      <trkpt lat="46.10076" lon="7.06218">
        <ele>624</ele>
        <time>2019-04-18T00:50:16Z</time>
      </trkpt>
      <trkpt lat="46.10005" lon="7.06194">
        <ele>608</ele>
        <time>2019-04-18T00:51:16Z</time>
      </trkpt>
      <trkpt lat="46.09993" lon="7.06184">
        <ele>609</ele>
        <time>2019-04-18T00:52:16Z</time>
      </trkpt>
      <trkpt lat="46.09982" lon="7.06166">
        <ele>614</ele>
        <time>2019-04-18T00:53:16Z</time>
      </trkpt>
      <trkpt lat="46.09968" lon="7.06136">
        <ele>619</ele>
        <time>2019-04-18T00:54:16Z</time>
      </trkpt>
      <trkpt lat="46.09955" lon="7.06116">
        <ele>621</ele>
        <time>2019-04-18T00:55:16Z</time>
      </trkpt>
      <trkpt lat="46.09876" lon="7.0604">
        <ele>609</ele>
        <time>2019-04-18T00:56:16Z</time>
      </trkpt>
      <trkpt lat="46.09797" lon="7.05956">
        <ele>602</ele>
        <time>2019-04-18T00:57:16Z</time>
      </trkpt>
      <trkpt lat="46.09778" lon="7.0594">
        <ele>603</ele>
        <time>2019-04-18T00:58:16Z</time>
      </trkpt>
      <trkpt lat="46.09762" lon="7.05936">
        <ele>600</ele>
        <time>2019-04-18T00:59:16Z</time>
      </trkpt>
      <trkpt lat="46.09754" lon="7.05938">
        <ele>597</ele>
        <time>2019-04-18T01:00:16Z</time>
      </trkpt>
      <trkpt lat="46.09721" lon="7.0595">
        <ele>586</ele>
        <time>2019-04-18T01:01:16Z</time>
      </trkpt>
      <trkpt lat="46.09706" lon="7.05951">
        <ele>583</ele>
        <time>2019-04-18T01:02:16Z</time>
      </trkpt>
      <trkpt lat="46.09698" lon="7.05949">
        <ele>582</ele>
        <time>2019-04-18T01:03:16Z</time>
      </trkpt>
      <trkpt lat="46.09604" lon="7.0589">
        <ele>574</ele>
        <time>2019-04-18T01:04:16Z</time>
      </trkpt>
      <trkpt lat="46.09579" lon="7.05873">
        <ele>569</ele>
        <time>2019-04-18T01:05:16Z</time>
      </trkpt>
      <trkpt lat="46.09566" lon="7.05858">
        <ele>569</ele>
        <time>2019-04-18T01:06:16Z</time>
      </trkpt>
      <trkpt lat="46.09548" lon="7.05833">
        <ele>572</ele>
        <time>2019-04-18T01:07:16Z</time>
      </trkpt>
      <trkpt lat="46.0953" lon="7.05816">
        <ele>570</ele>
        <time>2019-04-18T01:08:16Z</time>
      </trkpt>
      <trkpt lat="46.09477" lon="7.05776">
        <ele>564</ele>
        <time>2019-04-18T01:09:16Z</time>
      </trkpt>
      <trkpt lat="46.09388" lon="7.05721">
        <ele>549</ele>
        <time>2019-04-18T01:10:16Z</time>
      </trkpt>
      <trkpt lat="46.0937" lon="7.05705">
        <ele>547</ele>
        <time>2019-04-18T01:11:16Z</time>
      </trkpt>
      <trkpt lat="46.09284" lon="7.05605">
        <ele>545</ele>
        <time>2019-04-18T01:12:16Z</time>
      </trkpt>
      <trkpt lat="46.09272" lon="7.05593">
        <ele>543</ele>
        <time>2019-04-18T01:13:16Z</time>
      </trkpt>
      <trkpt lat="46.09255" lon="7.05582">
        <ele>540</ele>
        <time>2019-04-18T01:14:16Z</time>
      </trkpt>
      <trkpt lat="46.0924" lon="7.05576">
        <ele>536</ele>
        <time>2019-04-18T01:15:16Z</time>
      </trkpt>
      <trkpt lat="46.09215" lon="7.05555">
        <ele>535</ele>
        <time>2019-04-18T01:16:16Z</time>
      </trkpt>
      <trkpt lat="46.09174" lon="7.05512">
        <ele>533</ele>
        <time>2019-04-18T01:17:16Z</time>
      </trkpt>
      <trkpt lat="46.09145" lon="7.0549">
        <ele>530</ele>
        <time>2019-04-18T01:18:16Z</time>
      </trkpt>
      <trkpt lat="46.0905" lon="7.05448">
        <ele>521</ele>
        <time>2019-04-18T01:19:16Z</time>
      </trkpt>
      <trkpt lat="46.09016" lon="7.05435">
        <ele>523</ele>
        <time>2019-04-18T01:20:16Z</time>
      </trkpt>
      <trkpt lat="46.08991" lon="7.05432">
        <ele>522</ele>
        <time>2019-04-18T01:21:16Z</time>
      </trkpt>
      <trkpt lat="46.08962" lon="7.05445">
        <ele>516</ele>
        <time>2019-04-18T01:22:16Z</time>
      </trkpt>
      <trkpt lat="46.08938" lon="7.05468">
        <ele>507</ele>
        <time>2019-04-18T01:23:16Z</time>
      </trkpt>
      <trkpt lat="46.08914" lon="7.05485">
        <ele>501</ele>
        <time>2019-04-18T01:24:16Z</time>
      </trkpt>
      <trkpt lat="46.08852" lon="7.05491">
        <ele>505</ele>
        <time>2019-04-18T01:25:16Z</time>
      </trkpt>
      <trkpt lat="46.08825" lon="7.05497">
        <ele>505</ele>
        <time>2019-04-18T01:26:16Z</time>
      </trkpt>
      <trkpt lat="46.08815" lon="7.05506">
        <ele>504</ele>
        <time>2019-04-18T01:27:16Z</time>
      </trkpt>
      <trkpt lat="46.08807" lon="7.05516">
        <ele>504</ele>
        <time>2019-04-18T01:28:16Z</time>
      </trkpt>
      <trkpt lat="46.08798" lon="7.05516">
        <ele>504</ele>
        <time>2019-04-18T01:29:16Z</time>
      </trkpt>
      <trkpt lat="46.08794" lon="7.05519">
        <ele>504</ele>
        <time>2019-04-18T01:30:16Z</time>
      </trkpt>
      <trkpt lat="46.08741" lon="7.05496">
        <ele>505</ele>
        <time>2019-04-18T01:31:16Z</time>
      </trkpt>
      <trkpt lat="46.08719" lon="7.05484">
        <ele>507</ele>
        <time>2019-04-18T01:32:16Z</time>
      </trkpt>
      <trkpt lat="46.08639" lon="7.05447">
        <ele>512</ele>
        <time>2019-04-18T01:33:16Z</time>
      </trkpt>
      <trkpt lat="46.086" lon="7.05437">
        <ele>515</ele>
        <time>2019-04-18T01:34:16Z</time>
      </trkpt>
      <trkpt lat="46.08472" lon="7.05435">
        <ele>516</ele>
        <time>2019-04-18T01:35:16Z</time>
      </trkpt>
      <trkpt lat="46.0843" lon="7.05416">
        <ele>517</ele>
        <time>2019-04-18T01:36:16Z</time>
      </trkpt>
      <trkpt lat="46.08398" lon="7.05381">
        <ele>521</ele>
        <time>2019-04-18T01:37:16Z</time>
      </trkpt>
      <trkpt lat="46.08356" lon="7.05324">
        <ele>526</ele>
        <time>2019-04-18T01:38:16Z</time>
      </trkpt>
      <trkpt lat="46.08341" lon="7.0531">
        <ele>528</ele>
        <time>2019-04-18T01:39:16Z</time>
      </trkpt>
      <trkpt lat="46.0832" lon="7.05297">
        <ele>532</ele>
        <time>2019-04-18T01:40:16Z</time>
      </trkpt>
      <trkpt lat="46.08291" lon="7.05288">
        <ele>536</ele>
        <time>2019-04-18T01:41:16Z</time>
      </trkpt>
      <trkpt lat="46.08264" lon="7.05287">
        <ele>537</ele>
        <time>2019-04-18T01:42:16Z</time>
      </trkpt>
      <trkpt lat="46.08247" lon="7.05292">
        <ele>536</ele>
        <time>2019-04-18T01:43:16Z</time>
      </trkpt>
      <trkpt lat="46.08205" lon="7.05312">
        <ele>536</ele>
        <time>2019-04-18T01:44:16Z</time>
      </trkpt>
      <trkpt lat="46.0815" lon="7.05344">
        <ele>536</ele>
        <time>2019-04-18T01:45:16Z</time>
      </trkpt>
      <trkpt lat="46.08108" lon="7.05359">
        <ele>536</ele>
        <time>2019-04-18T01:46:16Z</time>
      </trkpt>
      <trkpt lat="46.08062" lon="7.05356">
        <ele>539</ele>
        <time>2019-04-18T01:47:16Z</time>
      </trkpt>
      <trkpt lat="46.08029" lon="7.05357">
        <ele>540</ele>
        <time>2019-04-18T01:48:16Z</time>
      </trkpt>
      <trkpt lat="46.07972" lon="7.05364">
        <ele>540</ele>
        <time>2019-04-18T01:49:16Z</time>
      </trkpt>
      <trkpt lat="46.07939" lon="7.0536">
        <ele>540</ele>
        <time>2019-04-18T01:50:16Z</time>
      </trkpt>
      <trkpt lat="46.079" lon="7.05342">
        <ele>541</ele>
        <time>2019-04-18T01:51:16Z</time>
      </trkpt>
      <trkpt lat="46.07885" lon="7.05331">
        <ele>541</ele>
        <time>2019-04-18T01:52:16Z</time>
      </trkpt>
      <trkpt lat="46.07748" lon="7.05225">
        <ele>548</ele>
        <time>2019-04-18T01:53:16Z</time>
      </trkpt>
      <trkpt lat="46.077" lon="7.05193">
        <ele>552</ele>
        <time>2019-04-18T01:54:16Z</time>
      </trkpt>
      <trkpt lat="46.0766" lon="7.05173">
        <ele>556</ele>
        <time>2019-04-18T01:55:16Z</time>
      </trkpt>
      <trkpt lat="46.0761" lon="7.05162">
        <ele>566</ele>
        <time>2019-04-18T01:56:16Z</time>
      </trkpt>
      <trkpt lat="46.07582" lon="7.05162">
        <ele>570</ele>
        <time>2019-04-18T01:57:16Z</time>
      </trkpt>
      <trkpt lat="46.0752" lon="7.05177">
        <ele>580</ele>
        <time>2019-04-18T01:58:16Z</time>
      </trkpt>
      <trkpt lat="46.07468" lon="7.05213">
        <ele>586</ele>
        <time>2019-04-18T01:59:16Z</time>
      </trkpt>
      <trkpt lat="46.07431" lon="7.05247">
        <ele>590</ele>
        <time>2019-04-18T02:00:16Z</time>
      </trkpt>
      <trkpt lat="46.07413" lon="7.0527">
        <ele>590</ele>
        <time>2019-04-18T02:01:16Z</time>
      </trkpt>
      <trkpt lat="46.07394" lon="7.05301">
        <ele>591</ele>
        <time>2019-04-18T02:02:16Z</time>
      </trkpt>
      <trkpt lat="46.07374" lon="7.05339">
        <ele>593</ele>
        <time>2019-04-18T02:03:16Z</time>
      </trkpt>
      <trkpt lat="46.07365" lon="7.05369">
        <ele>593</ele>
        <time>2019-04-18T02:04:16Z</time>
      </trkpt>
      <trkpt lat="46.07347" lon="7.05441">
        <ele>588</ele>
        <time>2019-04-18T02:05:16Z</time>
      </trkpt>
      <trkpt lat="46.07334" lon="7.05536">
        <ele>582</ele>
        <time>2019-04-18T02:06:16Z</time>
      </trkpt>
      <trkpt lat="46.07323" lon="7.05653">
        <ele>590</ele>
        <time>2019-04-18T02:07:16Z</time>
      </trkpt>
      <trkpt lat="46.07305" lon="7.05721">
        <ele>594</ele>
        <time>2019-04-18T02:08:16Z</time>
      </trkpt>
      <trkpt lat="46.07271" lon="7.05827">
        <ele>606</ele>
        <time>2019-04-18T02:09:16Z</time>
      </trkpt>
      <trkpt lat="46.0726" lon="7.05909">
        <ele>610</ele>
        <time>2019-04-18T02:10:16Z</time>
      </trkpt>
      <trkpt lat="46.07261" lon="7.05944">
        <ele>610</ele>
        <time>2019-04-18T02:11:16Z</time>
      </trkpt>
      <trkpt lat="46.07266" lon="7.06004">
        <ele>607</ele>
        <time>2019-04-18T02:12:16Z</time>
      </trkpt>
      <trkpt lat="46.07295" lon="7.0621">
        <ele>595</ele>
        <time>2019-04-18T02:13:16Z</time>
      </trkpt>
      <trkpt lat="46.07314" lon="7.0646">
        <ele>605</ele>
        <time>2019-04-18T02:14:16Z</time>
      </trkpt>
      <trkpt lat="46.07317" lon="7.06476">
        <ele>605</ele>
        <time>2019-04-18T02:15:16Z</time>
      </trkpt>
      <trkpt lat="46.07332" lon="7.06524">
        <ele>604</ele>
        <time>2019-04-18T02:16:16Z</time>
      </trkpt>
      <trkpt lat="46.07366" lon="7.0658">
        <ele>605</ele>
        <time>2019-04-18T02:17:16Z</time>
      </trkpt>
      <trkpt lat="46.07403" lon="7.06634">
        <ele>607</ele>
        <time>2019-04-18T02:18:16Z</time>
      </trkpt>
      <trkpt lat="46.07438" lon="7.06691">
        <ele>608</ele>
        <time>2019-04-18T02:19:16Z</time>
      </trkpt>
      <trkpt lat="46.07455" lon="7.06725">
        <ele>608</ele>
        <time>2019-04-18T02:20:16Z</time>
      </trkpt>
      <trkpt lat="46.07472" lon="7.06763">
        <ele>609</ele>
        <time>2019-04-18T02:21:16Z</time>
      </trkpt>
      <trkpt lat="46.07484" lon="7.06799">
        <ele>611</ele>
        <time>2019-04-18T02:22:16Z</time>
      </trkpt>
      <trkpt lat="46.07491" lon="7.06831">
        <ele>613</ele>
        <time>2019-04-18T02:23:16Z</time>
      </trkpt>
      <trkpt lat="46.07503" lon="7.0691">
        <ele>615</ele>
        <time>2019-04-18T02:24:16Z</time>
      </trkpt>
      <trkpt lat="46.07516" lon="7.07063">
        <ele>617</ele>
        <time>2019-04-18T02:25:16Z</time>
      </trkpt>
      <trkpt lat="46.0753" lon="7.07143">
        <ele>619</ele>
        <time>2019-04-18T02:26:16Z</time>
      </trkpt>
      <trkpt lat="46.07539" lon="7.07174">
        <ele>618</ele>
        <time>2019-04-18T02:27:16Z</time>
      </trkpt>
      <trkpt lat="46.0755" lon="7.07204">
        <ele>616</ele>
        <time>2019-04-18T02:28:16Z</time>
      </trkpt>
      <trkpt lat="46.07566" lon="7.07238">
        <ele>613</ele>
        <time>2019-04-18T02:29:16Z</time>
      </trkpt>
      <trkpt lat="46.07583" lon="7.07272">
        <ele>613</ele>
        <time>2019-04-18T02:30:16Z</time>
      </trkpt>
      <trkpt lat="46.07647" lon="7.07358">
        <ele>613</ele>
        <time>2019-04-18T02:31:16Z</time>
      </trkpt>
      <trkpt lat="46.07679" lon="7.07399">
        <ele>617</ele>
        <time>2019-04-18T02:32:16Z</time>
      </trkpt>
      <trkpt lat="46.07708" lon="7.07446">
        <ele>619</ele>
        <time>2019-04-18T02:33:16Z</time>
      </trkpt>
      <trkpt lat="46.07727" lon="7.07482">
        <ele>618</ele>
        <time>2019-04-18T02:34:16Z</time>
      </trkpt>
      <trkpt lat="46.07741" lon="7.0752">
        <ele>618</ele>
        <time>2019-04-18T02:35:16Z</time>
      </trkpt>
      <trkpt lat="46.07755" lon="7.07566">
        <ele>620</ele>
        <time>2019-04-18T02:36:16Z</time>
      </trkpt>
      <trkpt lat="46.07764" lon="7.07615">
        <ele>624</ele>
        <time>2019-04-18T02:37:16Z</time>
      </trkpt>
      <trkpt lat="46.07767" lon="7.07653">
        <ele>629</ele>
        <time>2019-04-18T02:38:16Z</time>
      </trkpt>
      <trkpt lat="46.07774" lon="7.07773">
        <ele>629</ele>
        <time>2019-04-18T02:39:16Z</time>
      </trkpt>
      <trkpt lat="46.0778" lon="7.07814">
        <ele>627</ele>
        <time>2019-04-18T02:40:16Z</time>
      </trkpt>
      <trkpt lat="46.07789" lon="7.07852">
        <ele>624</ele>
        <time>2019-04-18T02:41:16Z</time>
      </trkpt>
      <trkpt lat="46.07814" lon="7.07922">
        <ele>618</ele>
        <time>2019-04-18T02:42:16Z</time>
      </trkpt>
      <trkpt lat="46.07824" lon="7.07959">
        <ele>617</ele>
        <time>2019-04-18T02:43:16Z</time>
      </trkpt>
      <trkpt lat="46.07839" lon="7.08035">
        <ele>619</ele>
        <time>2019-04-18T02:44:16Z</time>
      </trkpt>
      <trkpt lat="46.07843" lon="7.08079">
        <ele>621</ele>
        <time>2019-04-18T02:45:16Z</time>
      </trkpt>
      <trkpt lat="46.07844" lon="7.08151">
        <ele>625</ele>
        <time>2019-04-18T02:46:16Z</time>
      </trkpt>
      <trkpt lat="46.07839" lon="7.08251">
        <ele>624</ele>
        <time>2019-04-18T02:47:16Z</time>
      </trkpt>
      <trkpt lat="46.07842" lon="7.08344">
        <ele>624</ele>
        <time>2019-04-18T02:48:16Z</time>
      </trkpt>
      <trkpt lat="46.0785" lon="7.08394">
        <ele>622</ele>
        <time>2019-04-18T02:49:16Z</time>
      </trkpt>
      <trkpt lat="46.07863" lon="7.0844">
        <ele>622</ele>
        <time>2019-04-18T02:50:16Z</time>
      </trkpt>
      <trkpt lat="46.07877" lon="7.08468">
        <ele>622</ele>
        <time>2019-04-18T02:51:16Z</time>
      </trkpt>
      <trkpt lat="46.07898" lon="7.085">
        <ele>619</ele>
        <time>2019-04-18T02:52:16Z</time>
      </trkpt>
      <trkpt lat="46.0792" lon="7.08525">
        <ele>616</ele>
        <time>2019-04-18T02:53:16Z</time>
      </trkpt>
      <trkpt lat="46.07945" lon="7.08546">
        <ele>617</ele>
        <time>2019-04-18T02:54:16Z</time>
      </trkpt>
      <trkpt lat="46.07998" lon="7.08584">
        <ele>614</ele>
        <time>2019-04-18T02:55:16Z</time>
      </trkpt>
      <trkpt lat="46.08023" lon="7.08609">
        <ele>615</ele>
        <time>2019-04-18T02:56:16Z</time>
      </trkpt>
      <trkpt lat="46.08035" lon="7.08624">
        <ele>615</ele>
        <time>2019-04-18T02:57:16Z</time>
      </trkpt>
      <trkpt lat="46.08055" lon="7.08657">
        <ele>617</ele>
        <time>2019-04-18T02:58:16Z</time>
      </trkpt>
      <trkpt lat="46.08065" lon="7.08678">
        <ele>617</ele>
        <time>2019-04-18T02:59:16Z</time>
      </trkpt>
      <trkpt lat="46.08074" lon="7.08701">
        <ele>618</ele>
        <time>2019-04-18T03:00:16Z</time>
      </trkpt>
      <trkpt lat="46.08086" lon="7.08759">
        <ele>620</ele>
        <time>2019-04-18T03:01:16Z</time>
      </trkpt>
      <trkpt lat="46.08089" lon="7.08794">
        <ele>619</ele>
        <time>2019-04-18T03:02:16Z</time>
      </trkpt>
      <trkpt lat="46.08079" lon="7.09012">
        <ele>624</ele>
        <time>2019-04-18T03:03:16Z</time>
      </trkpt>
      <trkpt lat="46.0808" lon="7.09061">
        <ele>626</ele>
        <time>2019-04-18T03:04:16Z</time>
      </trkpt>
      <trkpt lat="46.08084" lon="7.09099">
        <ele>624</ele>
        <time>2019-04-18T03:05:16Z</time>
      </trkpt>
      <trkpt lat="46.08091" lon="7.09136">
        <ele>622</ele>
        <time>2019-04-18T03:06:16Z</time>
      </trkpt>
      <trkpt lat="46.081" lon="7.09171">
        <ele>621</ele>
        <time>2019-04-18T03:07:16Z</time>
      </trkpt>
      <trkpt lat="46.0811" lon="7.09204">
        <ele>620</ele>
        <time>2019-04-18T03:08:16Z</time>
      </trkpt>
      <trkpt lat="46.0813" lon="7.09254">
        <ele>619</ele>
        <time>2019-04-18T03:09:16Z</time>
      </trkpt>
      <trkpt lat="46.08173" lon="7.09352">
        <ele>623</ele>
        <time>2019-04-18T03:10:16Z</time>
      </trkpt>
      <trkpt lat="46.08197" lon="7.09414">
        <ele>635</ele>
        <time>2019-04-18T03:11:16Z</time>
      </trkpt>
      <trkpt lat="46.0821" lon="7.09455">
        <ele>639</ele>
        <time>2019-04-18T03:12:16Z</time>
      </trkpt>
      <trkpt lat="46.0822" lon="7.095">
        <ele>639</ele>
        <time>2019-04-18T03:13:16Z</time>
      </trkpt>
      <trkpt lat="46.08227" lon="7.09552">
        <ele>641</ele>
        <time>2019-04-18T03:14:16Z</time>
      </trkpt>
      <trkpt lat="46.0823" lon="7.09605">
        <ele>641</ele>
        <time>2019-04-18T03:15:16Z</time>
      </trkpt>
      <trkpt lat="46.08202" lon="7.10119">
        <ele>654</ele>
        <time>2019-04-18T03:16:16Z</time>
      </trkpt>
      <trkpt lat="46.08196" lon="7.10309">
        <ele>668</ele>
        <time>2019-04-18T03:17:16Z</time>
      </trkpt>
      <trkpt lat="46.08187" lon="7.10478">
        <ele>655</ele>
        <time>2019-04-18T03:18:16Z</time>
      </trkpt>
      <trkpt lat="46.08182" lon="7.10535">
        <ele>653</ele>
        <time>2019-04-18T03:19:16Z</time>
      </trkpt>
      <trkpt lat="46.08175" lon="7.10579">
        <ele>650</ele>
        <time>2019-04-18T03:20:16Z</time>
      </trkpt>
      <trkpt lat="46.08134" lon="7.10765">
        <ele>667</ele>
        <time>2019-04-18T03:21:16Z</time>
      </trkpt>
      <trkpt lat="46.0813" lon="7.10804">
        <ele>670</ele>
        <time>2019-04-18T03:22:16Z</time>
      </trkpt>
      <trkpt lat="46.08128" lon="7.10848">
        <ele>672</ele>
        <time>2019-04-18T03:23:16Z</time>
      </trkpt>
      <trkpt lat="46.08125" lon="7.10982">
        <ele>675</ele>
        <time>2019-04-18T03:24:16Z</time>
      </trkpt>
      <trkpt lat="46.08119" lon="7.11051">
        <ele>674</ele>
        <time>2019-04-18T03:25:16Z</time>
      </trkpt>
      <trkpt lat="46.08107" lon="7.11122">
        <ele>672</ele>
        <time>2019-04-18T03:26:16Z</time>
      </trkpt>
      <trkpt lat="46.08091" lon="7.11194">
        <ele>669</ele>
        <time>2019-04-18T03:27:16Z</time>
      </trkpt>
      <trkpt lat="46.08067" lon="7.11274">
        <ele>677</ele>
        <time>2019-04-18T03:28:16Z</time>
      </trkpt>
      <trkpt lat="46.08053" lon="7.11366">
        <ele>686</ele>
        <time>2019-04-18T03:29:16Z</time>
      </trkpt>
      <trkpt lat="46.0804" lon="7.11542">
        <ele>683</ele>
        <time>2019-04-18T03:30:16Z</time>
      </trkpt>
      <trkpt lat="46.08026" lon="7.1161">
        <ele>682</ele>
        <time>2019-04-18T03:31:16Z</time>
      </trkpt>
      <trkpt lat="46.07993" lon="7.11725">
        <ele>679</ele>
        <time>2019-04-18T03:32:16Z</time>
      </trkpt>
      <trkpt lat="46.07957" lon="7.1195">
        <ele>684</ele>
        <time>2019-04-18T03:33:16Z</time>
      </trkpt>
      <trkpt lat="46.07944" lon="7.12007">
        <ele>683</ele>
        <time>2019-04-18T03:34:16Z</time>
      </trkpt>
      <trkpt lat="46.07935" lon="7.12028">
        <ele>683</ele>
        <time>2019-04-18T03:35:16Z</time>
      </trkpt>
      <trkpt lat="46.07916" lon="7.1209">
        <ele>684</ele>
        <time>2019-04-18T03:36:16Z</time>
      </trkpt>
      <trkpt lat="46.07836" lon="7.12362">
        <ele>698</ele>
        <time>2019-04-18T03:37:16Z</time>
      </trkpt>
      <trkpt lat="46.07827" lon="7.12399">
        <ele>699</ele>
        <time>2019-04-18T03:38:16Z</time>
      </trkpt>
      <trkpt lat="46.07821" lon="7.12433">
        <ele>701</ele>
        <time>2019-04-18T03:39:16Z</time>
      </trkpt>
      <trkpt lat="46.0782" lon="7.12473">
        <ele>701</ele>
        <time>2019-04-18T03:40:16Z</time>
      </trkpt>
      <trkpt lat="46.0782" lon="7.12512">
        <ele>700</ele>
        <time>2019-04-18T03:41:16Z</time>
      </trkpt>
      <trkpt lat="46.07825" lon="7.12552">
        <ele>697</ele>
        <time>2019-04-18T03:42:16Z</time>
      </trkpt>
      <trkpt lat="46.07832" lon="7.12587">
        <ele>693</ele>
        <time>2019-04-18T03:43:16Z</time>
      </trkpt>
      <trkpt lat="46.07844" lon="7.12623">
        <ele>696</ele>
        <time>2019-04-18T03:44:16Z</time>
      </trkpt>
      <trkpt lat="46.0786" lon="7.12657">
        <ele>697</ele>
        <time>2019-04-18T03:45:16Z</time>
      </trkpt>
      <trkpt lat="46.07879" lon="7.12688">
        <ele>699</ele>
        <time>2019-04-18T03:46:16Z</time>
      </trkpt>
      <trkpt lat="46.0789" lon="7.12708">
        <ele>699</ele>
        <time>2019-04-18T03:47:16Z</time>
      </trkpt>
      <trkpt lat="46.07902" lon="7.12726">
        <ele>699</ele>
        <time>2019-04-18T03:48:16Z</time>
      </trkpt>
      <trkpt lat="46.07911" lon="7.12745">
        <ele>697</ele>
        <time>2019-04-18T03:49:16Z</time>
      </trkpt>
      <trkpt lat="46.07924" lon="7.12787">
        <ele>696</ele>
        <time>2019-04-18T03:50:16Z</time>
      </trkpt>
      <trkpt lat="46.07933" lon="7.12838">
        <ele>695</ele>
        <time>2019-04-18T03:51:16Z</time>
      </trkpt>
      <trkpt lat="46.07941" lon="7.12895">
        <ele>695</ele>
        <time>2019-04-18T03:52:16Z</time>
      </trkpt>
      <trkpt lat="46.07941" lon="7.1292">
        <ele>695</ele>
        <time>2019-04-18T03:53:16Z</time>
      </trkpt>
      <trkpt lat="46.07937" lon="7.12983">
        <ele>698</ele>
        <time>2019-04-18T03:54:16Z</time>
      </trkpt>
      <trkpt lat="46.07928" lon="7.13035">
        <ele>699</ele>
        <time>2019-04-18T03:55:16Z</time>
      </trkpt>
      <trkpt lat="46.07915" lon="7.13082">
        <ele>699</ele>
        <time>2019-04-18T03:56:16Z</time>
      </trkpt>
      <trkpt lat="46.07908" lon="7.13118">
        <ele>698</ele>
        <time>2019-04-18T03:57:16Z</time>
      </trkpt>
      <trkpt lat="46.07893" lon="7.13165">
        <ele>696</ele>
        <time>2019-04-18T03:58:16Z</time>
      </trkpt>
      <trkpt lat="46.07842" lon="7.13304">
        <ele>695</ele>
        <time>2019-04-18T03:59:16Z</time>
      </trkpt>
      <trkpt lat="46.07831" lon="7.1334">
        <ele>695</ele>
        <time>2019-04-18T04:00:16Z</time>
      </trkpt>
      <trkpt lat="46.07821" lon="7.13383">
        <ele>697</ele>
        <time>2019-04-18T04:01:16Z</time>
      </trkpt>
      <trkpt lat="46.07807" lon="7.135">
        <ele>699</ele>
        <time>2019-04-18T04:02:16Z</time>
      </trkpt>
      <trkpt lat="46.07798" lon="7.13716">
        <ele>698</ele>
        <time>2019-04-18T04:03:16Z</time>
      </trkpt>
      <trkpt lat="46.07795" lon="7.13716">
        <ele>698</ele>
        <time>2019-04-18T04:04:16Z</time>
      </trkpt>
      <trkpt lat="46.07789" lon="7.1372">
        <ele>698</ele>
        <time>2019-04-18T04:05:16Z</time>
      </trkpt>
      <trkpt lat="46.07785" lon="7.13729">
        <ele>698</ele>
        <time>2019-04-18T04:06:16Z</time>
      </trkpt>
      <trkpt lat="46.07785" lon="7.13734">
        <ele>698</ele>
        <time>2019-04-18T04:07:16Z</time>
      </trkpt>
      <trkpt lat="46.07788" lon="7.13743">
        <ele>698</ele>
        <time>2019-04-18T04:08:16Z</time>
      </trkpt>
      <trkpt lat="46.07794" lon="7.13748">
        <ele>697</ele>
        <time>2019-04-18T04:09:16Z</time>
      </trkpt>
      <trkpt lat="46.07797" lon="7.13749">
        <ele>697</ele>
        <time>2019-04-18T04:10:16Z</time>
      </trkpt>
      <trkpt lat="46.07796" lon="7.13959">
        <ele>700</ele>
        <time>2019-04-18T04:11:16Z</time>
      </trkpt>
      <trkpt lat="46.07804" lon="7.14099">
        <ele>702</ele>
        <time>2019-04-18T04:12:16Z</time>
      </trkpt>
      <trkpt lat="46.0782" lon="7.14229">
        <ele>700</ele>
        <time>2019-04-18T04:13:16Z</time>
      </trkpt>
      <trkpt lat="46.07838" lon="7.14332">
        <ele>702</ele>
        <time>2019-04-18T04:14:16Z</time>
      </trkpt>
      <trkpt lat="46.0784" lon="7.14339">
        <ele>703</ele>
        <time>2019-04-18T04:15:16Z</time>
      </trkpt>
      <trkpt lat="46.07887" lon="7.14433">
        <ele>705</ele>
        <time>2019-04-18T04:16:16Z</time>
      </trkpt>
      <trkpt lat="46.07896" lon="7.14465">
        <ele>703</ele>
        <time>2019-04-18T04:17:16Z</time>
      </trkpt>
      <trkpt lat="46.07901" lon="7.14497">
        <ele>702</ele>
        <time>2019-04-18T04:18:16Z</time>
      </trkpt>
      <trkpt lat="46.07903" lon="7.14531">
        <ele>702</ele>
        <time>2019-04-18T04:19:16Z</time>
      </trkpt>
      <trkpt lat="46.079" lon="7.14534">
        <ele>703</ele>
        <time>2019-04-18T04:20:16Z</time>
      </trkpt>
      <trkpt lat="46.07896" lon="7.14542">
        <ele>704</ele>
        <time>2019-04-18T04:21:16Z</time>
      </trkpt>
      <trkpt lat="46.07896" lon="7.14552">
        <ele>704</ele>
        <time>2019-04-18T04:22:16Z</time>
      </trkpt>
      <trkpt lat="46.079" lon="7.14561">
        <ele>703</ele>
        <time>2019-04-18T04:23:16Z</time>
      </trkpt>
      <trkpt lat="46.07907" lon="7.14564">
        <ele>703</ele>
        <time>2019-04-18T04:24:16Z</time>
      </trkpt>
      <trkpt lat="46.07916" lon="7.1471">
        <ele>706</ele>
        <time>2019-04-18T04:25:16Z</time>
      </trkpt>
      <trkpt lat="46.07921" lon="7.14807">
        <ele>710</ele>
        <time>2019-04-18T04:26:16Z</time>
      </trkpt>
      <trkpt lat="46.07924" lon="7.14924">
        <ele>712</ele>
        <time>2019-04-18T04:27:16Z</time>
      </trkpt>
      <trkpt lat="46.0793" lon="7.15014">
        <ele>717</ele>
        <time>2019-04-18T04:28:16Z</time>
      </trkpt>
      <trkpt lat="46.0792" lon="7.15165">
        <ele>716</ele>
        <time>2019-04-18T04:29:16Z</time>
      </trkpt>
      <trkpt lat="46.07911" lon="7.15245">
        <ele>712</ele>
        <time>2019-04-18T04:30:16Z</time>
      </trkpt>
      <trkpt lat="46.07907" lon="7.15273">
        <ele>713</ele>
        <time>2019-04-18T04:31:16Z</time>
      </trkpt>
      <trkpt lat="46.07886" lon="7.1531">
        <ele>716</ele>
        <time>2019-04-18T04:32:16Z</time>
      </trkpt>
      <trkpt lat="46.07874" lon="7.15327">
        <ele>717</ele>
        <time>2019-04-18T04:33:16Z</time>
      </trkpt>
      <trkpt lat="46.07699" lon="7.15477">
        <ele>730</ele>
        <time>2019-04-18T04:34:16Z</time>
      </trkpt>
      <trkpt lat="46.07684" lon="7.15488">
        <ele>731</ele>
        <time>2019-04-18T04:35:16Z</time>
      </trkpt>
      <trkpt lat="46.07663" lon="7.155">
        <ele>733</ele>
        <time>2019-04-18T04:36:16Z</time>
      </trkpt>
      <trkpt lat="46.07637" lon="7.15504">
        <ele>736</ele>
        <time>2019-04-18T04:37:16Z</time>
      </trkpt>
      <trkpt lat="46.0761" lon="7.15502">
        <ele>739</ele>
        <time>2019-04-18T04:38:16Z</time>
      </trkpt>
      <trkpt lat="46.0759" lon="7.15496">
        <ele>742</ele>
        <time>2019-04-18T04:39:16Z</time>
      </trkpt>
      <trkpt lat="46.0757" lon="7.15484">
        <ele>745</ele>
        <time>2019-04-18T04:40:16Z</time>
      </trkpt>
      <trkpt lat="46.07502" lon="7.15405">
        <ele>751</ele>
        <time>2019-04-18T04:41:16Z</time>
      </trkpt>
      <trkpt lat="46.07492" lon="7.15399">
        <ele>752</ele>
        <time>2019-04-18T04:42:16Z</time>
      </trkpt>
      <trkpt lat="46.07481" lon="7.15395">
        <ele>753</ele>
        <time>2019-04-18T04:43:16Z</time>
      </trkpt>
      <trkpt lat="46.0734" lon="7.15398">
        <ele>757</ele>
        <time>2019-04-18T04:44:16Z</time>
      </trkpt>
      <trkpt lat="46.07331" lon="7.15401">
        <ele>757</ele>
        <time>2019-04-18T04:45:16Z</time>
      </trkpt>
      <trkpt lat="46.07321" lon="7.15406">
        <ele>756</ele>
        <time>2019-04-18T04:46:16Z</time>
      </trkpt>
      <trkpt lat="46.0724" lon="7.15476">
        <ele>763</ele>
        <time>2019-04-18T04:47:16Z</time>
      </trkpt>
      <trkpt lat="46.07217" lon="7.15487">
        <ele>764</ele>
        <time>2019-04-18T04:48:16Z</time>
      </trkpt>
      <trkpt lat="46.07196" lon="7.15484">
        <ele>763</ele>
        <time>2019-04-18T04:49:16Z</time>
      </trkpt>
      <trkpt lat="46.07169" lon="7.15469">
        <ele>761</ele>
        <time>2019-04-18T04:50:16Z</time>
      </trkpt>
      <trkpt lat="46.07115" lon="7.15433">
        <ele>763</ele>
        <time>2019-04-18T04:51:16Z</time>
      </trkpt>
      <trkpt lat="46.0706" lon="7.15407">
        <ele>764</ele>
        <time>2019-04-18T04:52:16Z</time>
      </trkpt>
      <trkpt lat="46.07002" lon="7.15388">
        <ele>762</ele>
        <time>2019-04-18T04:53:16Z</time>
      </trkpt>
      <trkpt lat="46.06965" lon="7.15384">
        <ele>760</ele>
        <time>2019-04-18T04:54:16Z</time>
      </trkpt>
      <trkpt lat="46.06928" lon="7.15392">
        <ele>757</ele>
        <time>2019-04-18T04:55:16Z</time>
      </trkpt>
      <trkpt lat="46.06872" lon="7.15418">
        <ele>759</ele>
        <time>2019-04-18T04:56:16Z</time>
      </trkpt>
      <trkpt lat="46.06853" lon="7.15417">
        <ele>759</ele>
        <time>2019-04-18T04:57:16Z</time>
      </trkpt>
      <trkpt lat="46.0684" lon="7.15412">
        <ele>759</ele>
        <time>2019-04-18T04:58:16Z</time>
      </trkpt>
      <trkpt lat="46.06821" lon="7.154">
        <ele>760</ele>
        <time>2019-04-18T04:59:16Z</time>
      </trkpt>
      <trkpt lat="46.06794" lon="7.15366">
        <ele>760</ele>
        <time>2019-04-18T05:00:16Z</time>
      </trkpt>
      <trkpt lat="46.06754" lon="7.15326">
        <ele>760</ele>
        <time>2019-04-18T05:01:16Z</time>
      </trkpt>
      <trkpt lat="46.06703" lon="7.15296">
        <ele>764</ele>
        <time>2019-04-18T05:02:16Z</time>
      </trkpt>
      <trkpt lat="46.06594" lon="7.15275">
        <ele>769</ele>
        <time>2019-04-18T05:03:16Z</time>
      </trkpt>
      <trkpt lat="46.06572" lon="7.15267">
        <ele>770</ele>
        <time>2019-04-18T05:04:16Z</time>
      </trkpt>
      <trkpt lat="46.06538" lon="7.15245">
        <ele>772</ele>
        <time>2019-04-18T05:05:16Z</time>
      </trkpt>
      <trkpt lat="46.06493" lon="7.152">
        <ele>775</ele>
        <time>2019-04-18T05:06:16Z</time>
      </trkpt>
      <trkpt lat="46.06452" lon="7.15145">
        <ele>779</ele>
        <time>2019-04-18T05:07:16Z</time>
      </trkpt>
      <trkpt lat="46.06377" lon="7.15014">
        <ele>788</ele>
        <time>2019-04-18T05:08:16Z</time>
      </trkpt>
      <trkpt lat="46.06346" lon="7.14966">
        <ele>784</ele>
        <time>2019-04-18T05:09:16Z</time>
      </trkpt>
      <trkpt lat="46.06303" lon="7.14918">
        <ele>776</ele>
        <time>2019-04-18T05:10:16Z</time>
      </trkpt>
      <trkpt lat="46.06254" lon="7.1488">
        <ele>779</ele>
        <time>2019-04-18T05:11:16Z</time>
      </trkpt>
      <trkpt lat="46.062" lon="7.14848">
        <ele>776</ele>
        <time>2019-04-18T05:12:16Z</time>
      </trkpt>
      <trkpt lat="46.06144" lon="7.1483">
        <ele>778</ele>
        <time>2019-04-18T05:13:16Z</time>
      </trkpt>
      <trkpt lat="46.06087" lon="7.14823">
        <ele>783</ele>
        <time>2019-04-18T05:14:16Z</time>
      </trkpt>
      <trkpt lat="46.06041" lon="7.14823">
        <ele>788</ele>
        <time>2019-04-18T05:15:16Z</time>
      </trkpt>
      <trkpt lat="46.05981" lon="7.1483">
        <ele>791</ele>
        <time>2019-04-18T05:16:16Z</time>
      </trkpt>
      <trkpt lat="46.05919" lon="7.14847">
        <ele>792</ele>
        <time>2019-04-18T05:17:16Z</time>
      </trkpt>
      <trkpt lat="46.05876" lon="7.14865">
        <ele>796</ele>
        <time>2019-04-18T05:18:16Z</time>
      </trkpt>
      <trkpt lat="46.05723" lon="7.14945">
        <ele>800</ele>
        <time>2019-04-18T05:19:16Z</time>
      </trkpt>
      <trkpt lat="46.05661" lon="7.14968">
        <ele>798</ele>
        <time>2019-04-18T05:20:16Z</time>
      </trkpt>
      <trkpt lat="46.05631" lon="7.14976">
        <ele>798</ele>
        <time>2019-04-18T05:21:16Z</time>
      </trkpt>
      <trkpt lat="46.05597" lon="7.1498">
        <ele>799</ele>
        <time>2019-04-18T05:22:16Z</time>
      </trkpt>
      <trkpt lat="46.05542" lon="7.14982">
        <ele>802</ele>
        <time>2019-04-18T05:23:16Z</time>
      </trkpt>
      <trkpt lat="46.05377" lon="7.1496">
        <ele>807</ele>
        <time>2019-04-18T05:24:16Z</time>
      </trkpt>
      <trkpt lat="46.05264" lon="7.14967">
        <ele>807</ele>
        <time>2019-04-18T05:25:16Z</time>
      </trkpt>
      <trkpt lat="46.05209" lon="7.14964">
        <ele>809</ele>
        <time>2019-04-18T05:26:16Z</time>
      </trkpt>
      <trkpt lat="46.05153" lon="7.14951">
        <ele>810</ele>
        <time>2019-04-18T05:27:16Z</time>
      </trkpt>
      <trkpt lat="46.05099" lon="7.14927">
        <ele>808</ele>
        <time>2019-04-18T05:28:16Z</time>
      </trkpt>
      <trkpt lat="46.05034" lon="7.14886">
        <ele>815</ele>
        <time>2019-04-18T05:29:16Z</time>
      </trkpt>
      <trkpt lat="46.04947" lon="7.14824">
        <ele>822</ele>
        <time>2019-04-18T05:30:16Z</time>
      </trkpt>
      <trkpt lat="46.04919" lon="7.14809">
        <ele>826</ele>
        <time>2019-04-18T05:31:16Z</time>
      </trkpt>
      <trkpt lat="46.04859" lon="7.14788">
        <ele>832</ele>
        <time>2019-04-18T05:32:16Z</time>
      </trkpt>
      <trkpt lat="46.04807" lon="7.14782">
        <ele>832</ele>
        <time>2019-04-18T05:33:16Z</time>
      </trkpt>
      <trkpt lat="46.04766" lon="7.14784">
        <ele>830</ele>
        <time>2019-04-18T05:34:16Z</time>
      </trkpt>
      <trkpt lat="46.04733" lon="7.14789">
        <ele>828</ele>
        <time>2019-04-18T05:35:16Z</time>
      </trkpt>
      <trkpt lat="46.04679" lon="7.14807">
        <ele>826</ele>
        <time>2019-04-18T05:36:16Z</time>
      </trkpt>
      <trkpt lat="46.04573" lon="7.14854">
        <ele>831</ele>
        <time>2019-04-18T05:37:16Z</time>
      </trkpt>
      <trkpt lat="46.04526" lon="7.1487">
        <ele>836</ele>
        <time>2019-04-18T05:38:16Z</time>
      </trkpt>
      <trkpt lat="46.04505" lon="7.14874">
        <ele>837</ele>
        <time>2019-04-18T05:39:16Z</time>
      </trkpt>
      <trkpt lat="46.04438" lon="7.14879">
        <ele>839</ele>
        <time>2019-04-18T05:40:16Z</time>
      </trkpt>
      <trkpt lat="46.04408" lon="7.14878">
        <ele>840</ele>
        <time>2019-04-18T05:41:16Z</time>
      </trkpt>
      <trkpt lat="46.04351" lon="7.14869">
        <ele>840</ele>
        <time>2019-04-18T05:42:16Z</time>
      </trkpt>
      <trkpt lat="46.04298" lon="7.14849">
        <ele>844</ele>
        <time>2019-04-18T05:43:16Z</time>
      </trkpt>
      <trkpt lat="46.04255" lon="7.14827">
        <ele>840</ele>
        <time>2019-04-18T05:44:16Z</time>
      </trkpt>
      <trkpt lat="46.04148" lon="7.14759">
        <ele>845</ele>
        <time>2019-04-18T05:45:16Z</time>
      </trkpt>
      <trkpt lat="46.04097" lon="7.14733">
        <ele>844</ele>
        <time>2019-04-18T05:46:16Z</time>
      </trkpt>
      <trkpt lat="46.04045" lon="7.14714">
        <ele>847</ele>
        <time>2019-04-18T05:47:16Z</time>
      </trkpt>
      <trkpt lat="46.03993" lon="7.14699">
        <ele>850</ele>
        <time>2019-04-18T05:48:16Z</time>
      </trkpt>
      <trkpt lat="46.03936" lon="7.14691">
        <ele>854</ele>
        <time>2019-04-18T05:49:16Z</time>
      </trkpt>
      <trkpt lat="46.0387" lon="7.1469">
        <ele>858</ele>
        <time>2019-04-18T05:50:16Z</time>
      </trkpt>
      <trkpt lat="46.03868" lon="7.14683">
        <ele>858</ele>
        <time>2019-04-18T05:51:16Z</time>
      </trkpt>
      <trkpt lat="46.03862" lon="7.1468">
        <ele>858</ele>
        <time>2019-04-18T05:52:16Z</time>
      </trkpt>
      <trkpt lat="46.03857" lon="7.14683">
        <ele>859</ele>
        <time>2019-04-18T05:53:16Z</time>
      </trkpt>
      <trkpt lat="46.03855" lon="7.1469">
        <ele>859</ele>
        <time>2019-04-18T05:54:16Z</time>
      </trkpt>
      <trkpt lat="46.03787" lon="7.14695">
        <ele>864</ele>
        <time>2019-04-18T05:55:16Z</time>
      </trkpt>
      <trkpt lat="46.03737" lon="7.1471">
        <ele>869</ele>
        <time>2019-04-18T05:56:16Z</time>
      </trkpt>
      <trkpt lat="46.03699" lon="7.14717">
        <ele>870</ele>
        <time>2019-04-18T05:57:16Z</time>
      </trkpt>
      <trkpt lat="46.03666" lon="7.14719">
        <ele>870</ele>
        <time>2019-04-18T05:58:16Z</time>
      </trkpt>
      <trkpt lat="46.03638" lon="7.14718">
        <ele>874</ele>
        <time>2019-04-18T05:59:16Z</time>
      </trkpt>
      <trkpt lat="46.03545" lon="7.14698">
        <ele>877</ele>
        <time>2019-04-18T06:00:16Z</time>
      </trkpt>
      <trkpt lat="46.03478" lon="7.14695">
        <ele>881</ele>
        <time>2019-04-18T06:01:16Z</time>
      </trkpt>
      <trkpt lat="46.03442" lon="7.147">
        <ele>884</ele>
        <time>2019-04-18T06:02:16Z</time>
      </trkpt>
      <trkpt lat="46.03402" lon="7.14711">
        <ele>888</ele>
        <time>2019-04-18T06:03:16Z</time>
      </trkpt>
      <trkpt lat="46.03334" lon="7.14734">
        <ele>890</ele>
        <time>2019-04-18T06:04:16Z</time>
      </trkpt>
      <trkpt lat="46.03299" lon="7.14743">
        <ele>892</ele>
        <time>2019-04-18T06:05:16Z</time>
      </trkpt>
      <trkpt lat="46.03263" lon="7.14747">
        <ele>892</ele>
        <time>2019-04-18T06:06:16Z</time>
      </trkpt>
      <trkpt lat="46.03227" lon="7.14748">
        <ele>895</ele>
        <time>2019-04-18T06:07:16Z</time>
      </trkpt>
      <trkpt lat="46.03114" lon="7.14735">
        <ele>903</ele>
        <time>2019-04-18T06:08:16Z</time>
      </trkpt>
      <trkpt lat="46.03037" lon="7.14735">
        <ele>908</ele>
        <time>2019-04-18T06:09:16Z</time>
      </trkpt>
      <trkpt lat="46.02946" lon="7.14747">
        <ele>917</ele>
        <time>2019-04-18T06:10:16Z</time>
      </trkpt>
      <trkpt lat="46.02851" lon="7.14752">
        <ele>924</ele>
        <time>2019-04-18T06:11:16Z</time>
      </trkpt>
      <trkpt lat="46.02714" lon="7.14737">
        <ele>929</ele>
        <time>2019-04-18T06:12:16Z</time>
      </trkpt>
      <trkpt lat="46.02657" lon="7.14738">
        <ele>930</ele>
        <time>2019-04-18T06:13:16Z</time>
      </trkpt>
      <trkpt lat="46.02602" lon="7.14747">
        <ele>935</ele>
        <time>2019-04-18T06:14:16Z</time>
      </trkpt>
      <trkpt lat="46.02566" lon="7.14748">
        <ele>937</ele>
        <time>2019-04-18T06:15:16Z</time>
      </trkpt>
      <trkpt lat="46.02542" lon="7.14744">
        <ele>937</ele>
        <time>2019-04-18T06:16:16Z</time>
      </trkpt>
      <trkpt lat="46.02495" lon="7.14726">
        <ele>936</ele>
        <time>2019-04-18T06:17:16Z</time>
      </trkpt>
      <trkpt lat="46.02458" lon="7.14699">
        <ele>936</ele>
        <time>2019-04-18T06:18:16Z</time>
      </trkpt>
      <trkpt lat="46.02423" lon="7.14669">
        <ele>938</ele>
        <time>2019-04-18T06:19:16Z</time>
      </trkpt>
      <trkpt lat="46.02408" lon="7.1466">
        <ele>938</ele>
        <time>2019-04-18T06:20:16Z</time>
      </trkpt>
      <trkpt lat="46.02377" lon="7.14649">
        <ele>937</ele>
        <time>2019-04-18T06:21:16Z</time>
      </trkpt>
      <trkpt lat="46.02357" lon="7.14649">
        <ele>938</ele>
        <time>2019-04-18T06:22:16Z</time>
      </trkpt>
      <trkpt lat="46.02327" lon="7.14667">
        <ele>941</ele>
        <time>2019-04-18T06:23:16Z</time>
      </trkpt>
      <trkpt lat="46.0232" lon="7.14676">
        <ele>942</ele>
        <time>2019-04-18T06:24:16Z</time>
      </trkpt>
      <trkpt lat="46.02303" lon="7.14704">
        <ele>945</ele>
        <time>2019-04-18T06:25:16Z</time>
      </trkpt>
      <trkpt lat="46.02297" lon="7.14723">
        <ele>946</ele>
        <time>2019-04-18T06:26:16Z</time>
      </trkpt>
      <trkpt lat="46.02292" lon="7.14758">
        <ele>948</ele>
        <time>2019-04-18T06:27:16Z</time>
      </trkpt>
      <trkpt lat="46.02296" lon="7.14785">
        <ele>950</ele>
        <time>2019-04-18T06:28:16Z</time>
      </trkpt>
      <trkpt lat="46.02305" lon="7.14819">
        <ele>952</ele>
        <time>2019-04-18T06:29:16Z</time>
      </trkpt>
      <trkpt lat="46.02319" lon="7.14841">
        <ele>953</ele>
        <time>2019-04-18T06:30:16Z</time>
      </trkpt>
      <trkpt lat="46.02341" lon="7.14862">
        <ele>955</ele>
        <time>2019-04-18T06:31:16Z</time>
      </trkpt>
      <trkpt lat="46.02356" lon="7.14872">
        <ele>957</ele>
        <time>2019-04-18T06:32:16Z</time>
      </trkpt>
      <trkpt lat="46.02389" lon="7.14884">
        <ele>960</ele>
        <time>2019-04-18T06:33:16Z</time>
      </trkpt>
      <trkpt lat="46.02455" lon="7.14892">
        <ele>968</ele>
        <time>2019-04-18T06:34:16Z</time>
      </trkpt>
      <trkpt lat="46.02497" lon="7.14892">
        <ele>974</ele>
        <time>2019-04-18T06:35:16Z</time>
      </trkpt>
      <trkpt lat="46.0255" lon="7.14883">
        <ele>972</ele>
        <time>2019-04-18T06:36:16Z</time>
      </trkpt>
      <trkpt lat="46.02618" lon="7.1486">
        <ele>968</ele>
        <time>2019-04-18T06:37:16Z</time>
      </trkpt>
      <trkpt lat="46.02673" lon="7.14852">
        <ele>968</ele>
        <time>2019-04-18T06:38:16Z</time>
      </trkpt>
      <trkpt lat="46.02718" lon="7.14854">
        <ele>972</ele>
        <time>2019-04-18T06:39:16Z</time>
      </trkpt>
      <trkpt lat="46.02738" lon="7.1486">
        <ele>975</ele>
        <time>2019-04-18T06:40:16Z</time>
      </trkpt>
      <trkpt lat="46.02759" lon="7.14878">
        <ele>978</ele>
        <time>2019-04-18T06:41:16Z</time>
      </trkpt>
      <trkpt lat="46.02772" lon="7.14897">
        <ele>979</ele>
        <time>2019-04-18T06:42:16Z</time>
      </trkpt>
      <trkpt lat="46.02778" lon="7.1491">
        <ele>981</ele>
        <time>2019-04-18T06:43:16Z</time>
      </trkpt>
      <trkpt lat="46.02784" lon="7.14939">
        <ele>982</ele>
        <time>2019-04-18T06:44:16Z</time>
      </trkpt>
      <trkpt lat="46.02785" lon="7.14957">
        <ele>983</ele>
        <time>2019-04-18T06:45:16Z</time>
      </trkpt>
      <trkpt lat="46.0278" lon="7.14984">
        <ele>986</ele>
        <time>2019-04-18T06:46:16Z</time>
      </trkpt>
      <trkpt lat="46.02769" lon="7.15009">
        <ele>989</ele>
        <time>2019-04-18T06:47:16Z</time>
      </trkpt>
      <trkpt lat="46.02753" lon="7.1503">
        <ele>993</ele>
        <time>2019-04-18T06:48:16Z</time>
      </trkpt>
      <trkpt lat="46.02743" lon="7.15036">
        <ele>995</ele>
        <time>2019-04-18T06:49:16Z</time>
      </trkpt>
      <trkpt lat="46.02733" lon="7.15039">
        <ele>995</ele>
        <time>2019-04-18T06:50:16Z</time>
      </trkpt>
      <trkpt lat="46.02692" lon="7.15037">
        <ele>997</ele>
        <time>2019-04-18T06:51:16Z</time>
      </trkpt>
      <trkpt lat="46.02629" lon="7.15028">
        <ele>999</ele>
        <time>2019-04-18T06:52:16Z</time>
      </trkpt>
      <trkpt lat="46.02594" lon="7.15034">
        <ele>1002</ele>
        <time>2019-04-18T06:53:16Z</time>
      </trkpt>
      <trkpt lat="46.02532" lon="7.15057">
        <ele>1006</ele>
        <time>2019-04-18T06:54:16Z</time>
      </trkpt>
      <trkpt lat="46.02492" lon="7.15066">
        <ele>1008</ele>
        <time>2019-04-18T06:55:16Z</time>
      </trkpt>
      <trkpt lat="46.02457" lon="7.15068">
        <ele>1010</ele>
        <time>2019-04-18T06:56:16Z</time>
      </trkpt>
      <trkpt lat="46.02401" lon="7.15068">
        <ele>1011</ele>
        <time>2019-04-18T06:57:16Z</time>
      </trkpt>
      <trkpt lat="46.02378" lon="7.15072">
        <ele>1012</ele>
        <time>2019-04-18T06:58:16Z</time>
      </trkpt>
      <trkpt lat="46.02339" lon="7.15087">
        <ele>1016</ele>
        <time>2019-04-18T06:59:16Z</time>
      </trkpt>
      <trkpt lat="46.0231" lon="7.15106">
        <ele>1018</ele>
        <time>2019-04-18T07:00:16Z</time>
      </trkpt>
      <trkpt lat="46.02247" lon="7.15168">
        <ele>1031</ele>
        <time>2019-04-18T07:01:16Z</time>
      </trkpt>
      <trkpt lat="46.02218" lon="7.1519">
        <ele>1035</ele>
        <time>2019-04-18T07:02:16Z</time>
      </trkpt>
      <trkpt lat="46.02164" lon="7.15221">
        <ele>1039</ele>
        <time>2019-04-18T07:03:16Z</time>
      </trkpt>
      <trkpt lat="46.02145" lon="7.15235">
        <ele>1039</ele>
        <time>2019-04-18T07:04:16Z</time>
      </trkpt>
      <trkpt lat="46.02118" lon="7.1526">
        <ele>1040</ele>
        <time>2019-04-18T07:05:16Z</time>
      </trkpt>
      <trkpt lat="46.02097" lon="7.15284">
        <ele>1042</ele>
        <time>2019-04-18T07:06:16Z</time>
      </trkpt>
      <trkpt lat="46.02064" lon="7.15334">
        <ele>1045</ele>
        <time>2019-04-18T07:07:16Z</time>
      </trkpt>
      <trkpt lat="46.02042" lon="7.15376">
        <ele>1048</ele>
        <time>2019-04-18T07:08:16Z</time>
      </trkpt>
      <trkpt lat="46.01978" lon="7.15519">
        <ele>1064</ele>
        <time>2019-04-18T07:09:16Z</time>
      </trkpt>
      <trkpt lat="46.01959" lon="7.15557">
        <ele>1070</ele>
        <time>2019-04-18T07:10:16Z</time>
      </trkpt>
      <trkpt lat="46.01945" lon="7.15579">
        <ele>1072</ele>
        <time>2019-04-18T07:11:16Z</time>
      </trkpt>
      <trkpt lat="46.01896" lon="7.15641">
        <ele>1074</ele>
        <time>2019-04-18T07:12:16Z</time>
      </trkpt>
      <trkpt lat="46.01874" lon="7.15684">
        <ele>1077</ele>
        <time>2019-04-18T07:13:16Z</time>
      </trkpt>
      <trkpt lat="46.0186" lon="7.15724">
        <ele>1077</ele>
        <time>2019-04-18T07:14:16Z</time>
      </trkpt>
      <trkpt lat="46.01823" lon="7.15871">
        <ele>1093</ele>
        <time>2019-04-18T07:15:16Z</time>
      </trkpt>
      <trkpt lat="46.01812" lon="7.15921">
        <ele>1103</ele>
        <time>2019-04-18T07:16:16Z</time>
      </trkpt>
      <trkpt lat="46.01805" lon="7.15934">
        <ele>1103</ele>
        <time>2019-04-18T07:17:16Z</time>
      </trkpt>
      <trkpt lat="46.01778" lon="7.15971">
        <ele>1101</ele>
        <time>2019-04-18T07:18:16Z</time>
      </trkpt>
      <trkpt lat="46.01771" lon="7.15989">
        <ele>1102</ele>
        <time>2019-04-18T07:19:16Z</time>
      </trkpt>
      <trkpt lat="46.01764" lon="7.16021">
        <ele>1106</ele>
        <time>2019-04-18T07:20:16Z</time>
      </trkpt>
      <trkpt lat="46.01758" lon="7.16042">
        <ele>1108</ele>
        <time>2019-04-18T07:21:16Z</time>
      </trkpt>
      <trkpt lat="46.01734" lon="7.16088">
        <ele>1114</ele>
        <time>2019-04-18T07:22:16Z</time>
      </trkpt>
      <trkpt lat="46.01732" lon="7.16098">
        <ele>1115</ele>
        <time>2019-04-18T07:23:16Z</time>
      </trkpt>
      <trkpt lat="46.01731" lon="7.16113">
        <ele>1117</ele>
        <time>2019-04-18T07:24:16Z</time>
      </trkpt>
      <trkpt lat="46.01733" lon="7.16153">
        <ele>1121</ele>
        <time>2019-04-18T07:25:16Z</time>
      </trkpt>
      <trkpt lat="46.01731" lon="7.16162">
        <ele>1122</ele>
        <time>2019-04-18T07:26:16Z</time>
      </trkpt>
      <trkpt lat="46.01721" lon="7.16174">
        <ele>1123</ele>
        <time>2019-04-18T07:27:16Z</time>
      </trkpt>
      <trkpt lat="46.01712" lon="7.16176">
        <ele>1123</ele>
        <time>2019-04-18T07:28:16Z</time>
      </trkpt>
      <trkpt lat="46.01702" lon="7.16169">
        <ele>1121</ele>
        <time>2019-04-18T07:29:16Z</time>
      </trkpt>
      <trkpt lat="46.01671" lon="7.16117">
        <ele>1113</ele>
        <time>2019-04-18T07:30:16Z</time>
      </trkpt>
      <trkpt lat="46.01661" lon="7.16105">
        <ele>1111</ele>
        <time>2019-04-18T07:31:16Z</time>
      </trkpt>
      <trkpt lat="46.01648" lon="7.16099">
        <ele>1108</ele>
        <time>2019-04-18T07:32:16Z</time>
      </trkpt>
      <trkpt lat="46.01635" lon="7.16102">
        <ele>1107</ele>
        <time>2019-04-18T07:33:16Z</time>
      </trkpt>
      <trkpt lat="46.01624" lon="7.16115">
        <ele>1107</ele>
        <time>2019-04-18T07:34:16Z</time>
      </trkpt>
      <trkpt lat="46.01618" lon="7.16142">
        <ele>1110</ele>
        <time>2019-04-18T07:35:16Z</time>
      </trkpt>
      <trkpt lat="46.01612" lon="7.16205">
        <ele>1116</ele>
        <time>2019-04-18T07:36:16Z</time>
      </trkpt>
      <trkpt lat="46.01608" lon="7.16234">
        <ele>1118</ele>
        <time>2019-04-18T07:37:16Z</time>
      </trkpt>
      <trkpt lat="46.01602" lon="7.16261">
        <ele>1121</ele>
        <time>2019-04-18T07:38:16Z</time>
      </trkpt>
      <trkpt lat="46.01592" lon="7.16287">
        <ele>1124</ele>
        <time>2019-04-18T07:39:16Z</time>
      </trkpt>
      <trkpt lat="46.01581" lon="7.1631">
        <ele>1125</ele>
        <time>2019-04-18T07:40:16Z</time>
      </trkpt>
      <trkpt lat="46.01559" lon="7.16349">
        <ele>1125</ele>
        <time>2019-04-18T07:41:16Z</time>
      </trkpt>
      <trkpt lat="46.01519" lon="7.16403">
        <ele>1122</ele>
        <time>2019-04-18T07:42:16Z</time>
      </trkpt>
      <trkpt lat="46.01496" lon="7.16444">
        <ele>1126</ele>
        <time>2019-04-18T07:43:16Z</time>
      </trkpt>
      <trkpt lat="46.01482" lon="7.16463">
        <ele>1129</ele>
        <time>2019-04-18T07:44:16Z</time>
      </trkpt>
      <trkpt lat="46.01437" lon="7.16504">
        <ele>1131</ele>
        <time>2019-04-18T07:45:16Z</time>
      </trkpt>
      <trkpt lat="46.01388" lon="7.16536">
        <ele>1133</ele>
        <time>2019-04-18T07:46:16Z</time>
      </trkpt>
      <trkpt lat="46.0131" lon="7.16575">
        <ele>1132</ele>
        <time>2019-04-18T07:47:16Z</time>
      </trkpt>
      <trkpt lat="46.01287" lon="7.16598">
        <ele>1132</ele>
        <time>2019-04-18T07:48:16Z</time>
      </trkpt>
      <trkpt lat="46.01274" lon="7.16633">
        <ele>1138</ele>
        <time>2019-04-18T07:49:16Z</time>
      </trkpt>
      <trkpt lat="46.01252" lon="7.16703">
        <ele>1149</ele>
        <time>2019-04-18T07:50:16Z</time>
      </trkpt>
      <trkpt lat="46.01213" lon="7.16763">
        <ele>1154</ele>
        <time>2019-04-18T07:51:16Z</time>
      </trkpt>
      <trkpt lat="46.01179" lon="7.16798">
        <ele>1157</ele>
        <time>2019-04-18T07:52:16Z</time>
      </trkpt>
      <trkpt lat="46.01073" lon="7.16851">
        <ele>1160</ele>
        <time>2019-04-18T07:53:16Z</time>
      </trkpt>
      <trkpt lat="46.01023" lon="7.1687">
        <ele>1163</ele>
        <time>2019-04-18T07:54:16Z</time>
      </trkpt>
      <trkpt lat="46.00994" lon="7.16878">
        <ele>1163</ele>
        <time>2019-04-18T07:55:16Z</time>
      </trkpt>
      <trkpt lat="46.00974" lon="7.16887">
        <ele>1164</ele>
        <time>2019-04-18T07:56:16Z</time>
      </trkpt>
      <trkpt lat="46.00956" lon="7.16899">
        <ele>1166</ele>
        <time>2019-04-18T07:57:16Z</time>
      </trkpt>
      <trkpt lat="46.00929" lon="7.16923">
        <ele>1168</ele>
        <time>2019-04-18T07:58:16Z</time>
      </trkpt>
      <trkpt lat="46.00907" lon="7.16936">
        <ele>1169</ele>
        <time>2019-04-18T07:59:16Z</time>
      </trkpt>
      <trkpt lat="46.00863" lon="7.16945">
        <ele>1171</ele>
        <time>2019-04-18T08:00:16Z</time>
      </trkpt>
      <trkpt lat="46.00834" lon="7.16942">
        <ele>1171</ele>
        <time>2019-04-18T08:01:16Z</time>
      </trkpt>
      <trkpt lat="46.00815" lon="7.16937">
        <ele>1176</ele>
        <time>2019-04-18T08:02:16Z</time>
      </trkpt>
      <trkpt lat="46.00803" lon="7.1694">
        <ele>1181</ele>
        <time>2019-04-18T08:03:16Z</time>
      </trkpt>
      <trkpt lat="46.00794" lon="7.16952">
        <ele>1185</ele>
        <time>2019-04-18T08:04:16Z</time>
      </trkpt>
      <trkpt lat="46.00793" lon="7.16963">
        <ele>1188</ele>
        <time>2019-04-18T08:05:16Z</time>
      </trkpt>
      <trkpt lat="46.00793" lon="7.16974">
        <ele>1189</ele>
        <time>2019-04-18T08:06:16Z</time>
      </trkpt>
      <trkpt lat="46.00797" lon="7.16985">
        <ele>1190</ele>
        <time>2019-04-18T08:07:16Z</time>
      </trkpt>
      <trkpt lat="46.00807" lon="7.16991">
        <ele>1187</ele>
        <time>2019-04-18T08:08:16Z</time>
      </trkpt>
      <trkpt lat="46.00836" lon="7.16991">
        <ele>1178</ele>
        <time>2019-04-18T08:09:16Z</time>
      </trkpt>
      <trkpt lat="46.0086" lon="7.16996">
        <ele>1178</ele>
        <time>2019-04-18T08:10:16Z</time>
      </trkpt>
      <trkpt lat="46.00919" lon="7.17024">
        <ele>1185</ele>
        <time>2019-04-18T08:11:16Z</time>
      </trkpt>
      <trkpt lat="46.00951" lon="7.17022">
        <ele>1189</ele>
        <time>2019-04-18T08:12:16Z</time>
      </trkpt>
      <trkpt lat="46.00973" lon="7.17012">
        <ele>1190</ele>
        <time>2019-04-18T08:13:16Z</time>
      </trkpt>
      <trkpt lat="46.00996" lon="7.16992">
        <ele>1189</ele>
        <time>2019-04-18T08:14:16Z</time>
      </trkpt>
      <trkpt lat="46.0103" lon="7.16934">
        <ele>1179</ele>
        <time>2019-04-18T08:15:16Z</time>
      </trkpt>
      <trkpt lat="46.01038" lon="7.16932">
        <ele>1179</ele>
        <time>2019-04-18T08:16:16Z</time>
      </trkpt>
      <trkpt lat="46.01046" lon="7.16937">
        <ele>1181</ele>
        <time>2019-04-18T08:17:16Z</time>
      </trkpt>
      <trkpt lat="46.01052" lon="7.16947">
        <ele>1185</ele>
        <time>2019-04-18T08:18:16Z</time>
      </trkpt>
      <trkpt lat="46.01054" lon="7.16956">
        <ele>1188</ele>
        <time>2019-04-18T08:19:16Z</time>
      </trkpt>
      <trkpt lat="46.01054" lon="7.16971">
        <ele>1192</ele>
        <time>2019-04-18T08:20:16Z</time>
      </trkpt>
      <trkpt lat="46.01047" lon="7.16985">
        <ele>1195</ele>
        <time>2019-04-18T08:21:16Z</time>
      </trkpt>
      <trkpt lat="46.01033" lon="7.17">
        <ele>1198</ele>
        <time>2019-04-18T08:22:16Z</time>
      </trkpt>
      <trkpt lat="46.00963" lon="7.17054">
        <ele>1198</ele>
        <time>2019-04-18T08:23:16Z</time>
      </trkpt>
      <trkpt lat="46.00872" lon="7.17143">
        <ele>1212</ele>
        <time>2019-04-18T08:24:16Z</time>
      </trkpt>
      <trkpt lat="46.00856" lon="7.17148">
        <ele>1212</ele>
        <time>2019-04-18T08:25:16Z</time>
      </trkpt>
      <trkpt lat="46.0084" lon="7.1715">
        <ele>1212</ele>
        <time>2019-04-18T08:26:16Z</time>
      </trkpt>
      <trkpt lat="46.00818" lon="7.17143">
        <ele>1212</ele>
        <time>2019-04-18T08:27:16Z</time>
      </trkpt>
      <trkpt lat="46.00793" lon="7.17122">
        <ele>1212</ele>
        <time>2019-04-18T08:28:16Z</time>
      </trkpt>
      <trkpt lat="46.00769" lon="7.17093">
        <ele>1215</ele>
        <time>2019-04-18T08:29:16Z</time>
      </trkpt>
      <trkpt lat="46.00743" lon="7.1703">
        <ele>1214</ele>
        <time>2019-04-18T08:30:16Z</time>
      </trkpt>
      <trkpt lat="46.00734" lon="7.17016">
        <ele>1214</ele>
        <time>2019-04-18T08:31:16Z</time>
      </trkpt>
      <trkpt lat="46.00717" lon="7.16996">
        <ele>1214</ele>
        <time>2019-04-18T08:32:16Z</time>
      </trkpt>
      <trkpt lat="46.00695" lon="7.16981">
        <ele>1215</ele>
        <time>2019-04-18T08:33:16Z</time>
      </trkpt>
      <trkpt lat="46.0068" lon="7.16976">
        <ele>1216</ele>
        <time>2019-04-18T08:34:16Z</time>
      </trkpt>
      <trkpt lat="46.00651" lon="7.16975">
        <ele>1217</ele>
        <time>2019-04-18T08:35:16Z</time>
      </trkpt>
      <trkpt lat="46.00636" lon="7.1698">
        <ele>1217</ele>
        <time>2019-04-18T08:36:16Z</time>
      </trkpt>
      <trkpt lat="46.00611" lon="7.16991">
        <ele>1219</ele>
        <time>2019-04-18T08:37:16Z</time>
      </trkpt>
      <trkpt lat="46.00598" lon="7.17">
        <ele>1221</ele>
        <time>2019-04-18T08:38:16Z</time>
      </trkpt>
      <trkpt lat="46.00574" lon="7.17027">
        <ele>1223</ele>
        <time>2019-04-18T08:39:16Z</time>
      </trkpt>
      <trkpt lat="46.00534" lon="7.17092">
        <ele>1229</ele>
        <time>2019-04-18T08:40:16Z</time>
      </trkpt>
      <trkpt lat="46.00519" lon="7.17113">
        <ele>1232</ele>
        <time>2019-04-18T08:41:16Z</time>
      </trkpt>
      <trkpt lat="46.00439" lon="7.17182">
        <ele>1236</ele>
        <time>2019-04-18T08:42:16Z</time>
      </trkpt>
      <trkpt lat="46.00418" lon="7.17207">
        <ele>1237</ele>
        <time>2019-04-18T08:43:16Z</time>
      </trkpt>
      <trkpt lat="46.00398" lon="7.17241">
        <ele>1240</ele>
        <time>2019-04-18T08:44:16Z</time>
      </trkpt>
      <trkpt lat="46.00377" lon="7.17281">
        <ele>1244</ele>
        <time>2019-04-18T08:45:16Z</time>
      </trkpt>
      <trkpt lat="46.00359" lon="7.17312">
        <ele>1247</ele>
        <time>2019-04-18T08:46:16Z</time>
      </trkpt>
      <trkpt lat="46.00335" lon="7.17345">
        <ele>1251</ele>
        <time>2019-04-18T08:47:16Z</time>
      </trkpt>
      <trkpt lat="46.00314" lon="7.17368">
        <ele>1252</ele>
        <time>2019-04-18T08:48:16Z</time>
      </trkpt>
      <trkpt lat="46.00212" lon="7.17445">
        <ele>1258</ele>
        <time>2019-04-18T08:49:16Z</time>
      </trkpt>
      <trkpt lat="46.0017" lon="7.17482">
        <ele>1264</ele>
        <time>2019-04-18T08:50:16Z</time>
      </trkpt>
      <trkpt lat="46.00119" lon="7.17519">
        <ele>1267</ele>
        <time>2019-04-18T08:51:16Z</time>
      </trkpt>
      <trkpt lat="45.99997" lon="7.17582">
        <ele>1273</ele>
        <time>2019-04-18T08:52:16Z</time>
      </trkpt>
      <trkpt lat="45.99971" lon="7.17599">
        <ele>1275</ele>
        <time>2019-04-18T08:53:16Z</time>
      </trkpt>
      <trkpt lat="45.99923" lon="7.17642">
        <ele>1282</ele>
        <time>2019-04-18T08:54:16Z</time>
      </trkpt>
      <trkpt lat="45.99864" lon="7.17669">
        <ele>1282</ele>
        <time>2019-04-18T08:55:16Z</time>
      </trkpt>
      <trkpt lat="45.99832" lon="7.17687">
        <ele>1283</ele>
        <time>2019-04-18T08:56:16Z</time>
      </trkpt>
      <trkpt lat="45.99817" lon="7.17705">
        <ele>1285</ele>
        <time>2019-04-18T08:57:16Z</time>
      </trkpt>
      <trkpt lat="45.99786" lon="7.17781">
        <ele>1297</ele>
        <time>2019-04-18T08:58:16Z</time>
      </trkpt>
      <trkpt lat="45.99773" lon="7.17806">
        <ele>1299</ele>
        <time>2019-04-18T08:59:16Z</time>
      </trkpt>
      <trkpt lat="45.99763" lon="7.17819">
        <ele>1301</ele>
        <time>2019-04-18T09:00:16Z</time>
      </trkpt>
      <trkpt lat="45.99731" lon="7.17846">
        <ele>1303</ele>
        <time>2019-04-18T09:01:16Z</time>
      </trkpt>
      <trkpt lat="45.99699" lon="7.1785">
        <ele>1304</ele>
        <time>2019-04-18T09:02:16Z</time>
      </trkpt>
      <trkpt lat="45.99665" lon="7.17829">
        <ele>1300</ele>
        <time>2019-04-18T09:03:16Z</time>
      </trkpt>
      <trkpt lat="45.99629" lon="7.17787">
        <ele>1294</ele>
        <time>2019-04-18T09:04:16Z</time>
      </trkpt>
      <trkpt lat="45.99621" lon="7.17775">
        <ele>1292</ele>
        <time>2019-04-18T09:05:16Z</time>
      </trkpt>
      <trkpt lat="45.99607" lon="7.17767">
        <ele>1291</ele>
        <time>2019-04-18T09:06:16Z</time>
      </trkpt>
      <trkpt lat="45.99594" lon="7.17779">
        <ele>1292</ele>
        <time>2019-04-18T09:07:16Z</time>
      </trkpt>
      <trkpt lat="45.99521" lon="7.17987">
        <ele>1307</ele>
        <time>2019-04-18T09:08:16Z</time>
      </trkpt>
      <trkpt lat="45.99371" lon="7.18313">
        <ele>1318</ele>
        <time>2019-04-18T09:09:16Z</time>
      </trkpt>
      <trkpt lat="45.99347" lon="7.18361">
        <ele>1320</ele>
        <time>2019-04-18T09:10:16Z</time>
      </trkpt>
      <trkpt lat="45.9934" lon="7.1837">
        <ele>1321</ele>
        <time>2019-04-18T09:11:16Z</time>
      </trkpt>
      <trkpt lat="45.99328" lon="7.1838">
        <ele>1321</ele>
        <time>2019-04-18T09:12:16Z</time>
      </trkpt>
      <trkpt lat="45.9925" lon="7.18422">
        <ele>1324</ele>
        <time>2019-04-18T09:13:16Z</time>
      </trkpt>
      <trkpt lat="45.9923" lon="7.18431">
        <ele>1326</ele>
        <time>2019-04-18T09:14:16Z</time>
      </trkpt>
      <trkpt lat="45.99217" lon="7.18431">
        <ele>1326</ele>
        <time>2019-04-18T09:15:16Z</time>
      </trkpt>
      <trkpt lat="45.99201" lon="7.18428">
        <ele>1327</ele>
        <time>2019-04-18T09:16:16Z</time>
      </trkpt>
      <trkpt lat="45.99133" lon="7.18399">
        <ele>1325</ele>
        <time>2019-04-18T09:17:16Z</time>
      </trkpt>
      <trkpt lat="45.9912" lon="7.18396">
        <ele>1324</ele>
        <time>2019-04-18T09:18:16Z</time>
      </trkpt>
      <trkpt lat="45.991" lon="7.18398">
        <ele>1323</ele>
        <time>2019-04-18T09:19:16Z</time>
      </trkpt>
      <trkpt lat="45.99092" lon="7.18402">
        <ele>1324</ele>
        <time>2019-04-18T09:20:16Z</time>
      </trkpt>
      <trkpt lat="45.99085" lon="7.18409">
        <ele>1326</ele>
        <time>2019-04-18T09:21:16Z</time>
      </trkpt>
      <trkpt lat="45.99074" lon="7.18426">
        <ele>1328</ele>
        <time>2019-04-18T09:22:16Z</time>
      </trkpt>
      <trkpt lat="45.9903" lon="7.18555">
        <ele>1340</ele>
        <time>2019-04-18T09:23:16Z</time>
      </trkpt>
      <trkpt lat="45.99022" lon="7.18569">
        <ele>1341</ele>
        <time>2019-04-18T09:24:16Z</time>
      </trkpt>
      <trkpt lat="45.99007" lon="7.1859">
        <ele>1342</ele>
        <time>2019-04-18T09:25:16Z</time>
      </trkpt>
      <trkpt lat="45.98871" lon="7.18706">
        <ele>1354</ele>
        <time>2019-04-18T09:26:16Z</time>
      </trkpt>
      <trkpt lat="45.98854" lon="7.1873">
        <ele>1357</ele>
        <time>2019-04-18T09:27:16Z</time>
      </trkpt>
      <trkpt lat="45.98824" lon="7.18783">
        <ele>1364</ele>
        <time>2019-04-18T09:28:16Z</time>
      </trkpt>
      <trkpt lat="45.98808" lon="7.18799">
        <ele>1366</ele>
        <time>2019-04-18T09:29:16Z</time>
      </trkpt>
      <trkpt lat="45.98733" lon="7.18862">
        <ele>1368</ele>
        <time>2019-04-18T09:30:16Z</time>
      </trkpt>
      <trkpt lat="45.98713" lon="7.18883">
        <ele>1368</ele>
        <time>2019-04-18T09:31:16Z</time>
      </trkpt>
      <trkpt lat="45.98654" lon="7.18971">
        <ele>1377</ele>
        <time>2019-04-18T09:32:16Z</time>
      </trkpt>
      <trkpt lat="45.98635" lon="7.18992">
        <ele>1380</ele>
        <time>2019-04-18T09:33:16Z</time>
      </trkpt>
      <trkpt lat="45.98489" lon="7.19092">
        <ele>1390</ele>
        <time>2019-04-18T09:34:16Z</time>
      </trkpt>
      <trkpt lat="45.98468" lon="7.1911">
        <ele>1392</ele>
        <time>2019-04-18T09:35:16Z</time>
      </trkpt>
      <trkpt lat="45.98457" lon="7.19124">
        <ele>1394</ele>
        <time>2019-04-18T09:36:16Z</time>
      </trkpt>
      <trkpt lat="45.98435" lon="7.19154">
        <ele>1397</ele>
        <time>2019-04-18T09:37:16Z</time>
      </trkpt>
      <trkpt lat="45.9841" lon="7.19202">
        <ele>1400</ele>
        <time>2019-04-18T09:38:16Z</time>
      </trkpt>
      <trkpt lat="45.98321" lon="7.194">
        <ele>1422</ele>
        <time>2019-04-18T09:39:16Z</time>
      </trkpt>
      <trkpt lat="45.98303" lon="7.19431">
        <ele>1424</ele>
        <time>2019-04-18T09:40:16Z</time>
      </trkpt>
      <trkpt lat="45.98244" lon="7.19513">
        <ele>1420</ele>
        <time>2019-04-18T09:41:16Z</time>
      </trkpt>
      <trkpt lat="45.98221" lon="7.19548">
        <ele>1422</ele>
        <time>2019-04-18T09:42:16Z</time>
      </trkpt>
      <trkpt lat="45.98193" lon="7.19613">
        <ele>1428</ele>
        <time>2019-04-18T09:43:16Z</time>
      </trkpt>
      <trkpt lat="45.98176" lon="7.19646">
        <ele>1430</ele>
        <time>2019-04-18T09:44:16Z</time>
      </trkpt>
      <trkpt lat="45.98155" lon="7.19673">
        <ele>1431</ele>
        <time>2019-04-18T09:45:16Z</time>
      </trkpt>
      <trkpt lat="45.98138" lon="7.19688">
        <ele>1434</ele>
        <time>2019-04-18T09:46:16Z</time>
      </trkpt>
      <trkpt lat="45.98117" lon="7.19702">
        <ele>1436</ele>
        <time>2019-04-18T09:47:16Z</time>
      </trkpt>
      <trkpt lat="45.98082" lon="7.19711">
        <ele>1435</ele>
        <time>2019-04-18T09:48:16Z</time>
      </trkpt>
      <trkpt lat="45.98051" lon="7.19713">
        <ele>1432</ele>
        <time>2019-04-18T09:49:16Z</time>
      </trkpt>
      <trkpt lat="45.98027" lon="7.19718">
        <ele>1432</ele>
        <time>2019-04-18T09:50:16Z</time>
      </trkpt>
      <trkpt lat="45.98" lon="7.19731">
        <ele>1435</ele>
        <time>2019-04-18T09:51:16Z</time>
      </trkpt>
      <trkpt lat="45.97979" lon="7.19748">
        <ele>1434</ele>
        <time>2019-04-18T09:52:16Z</time>
      </trkpt>
      <trkpt lat="45.97955" lon="7.19774">
        <ele>1433</ele>
        <time>2019-04-18T09:53:16Z</time>
      </trkpt>
      <trkpt lat="45.9789" lon="7.19905">
        <ele>1449</ele>
        <time>2019-04-18T09:54:16Z</time>
      </trkpt>
      <trkpt lat="45.97856" lon="7.1996">
        <ele>1457</ele>
        <time>2019-04-18T09:55:16Z</time>
      </trkpt>
      <trkpt lat="45.97814" lon="7.20017">
        <ele>1465</ele>
        <time>2019-04-18T09:56:16Z</time>
      </trkpt>
      <trkpt lat="45.97794" lon="7.20041">
        <ele>1470</ele>
        <time>2019-04-18T09:57:16Z</time>
      </trkpt>
      <trkpt lat="45.97772" lon="7.20063">
        <ele>1471</ele>
        <time>2019-04-18T09:58:16Z</time>
      </trkpt>
      <trkpt lat="45.97724" lon="7.20103">
        <ele>1467</ele>
        <time>2019-04-18T09:59:16Z</time>
      </trkpt>
      <trkpt lat="45.97699" lon="7.20127">
        <ele>1467</ele>
        <time>2019-04-18T10:00:16Z</time>
      </trkpt>
      <trkpt lat="45.97672" lon="7.20162">
        <ele>1472</ele>
        <time>2019-04-18T10:01:16Z</time>
      </trkpt>
      <trkpt lat="45.97649" lon="7.20187">
        <ele>1472</ele>
        <time>2019-04-18T10:02:16Z</time>
      </trkpt>
      <trkpt lat="45.9759" lon="7.20241">
        <ele>1470</ele>
        <time>2019-04-18T10:03:16Z</time>
      </trkpt>
      <trkpt lat="45.97563" lon="7.20276">
        <ele>1473</ele>
        <time>2019-04-18T10:04:16Z</time>
      </trkpt>
      <trkpt lat="45.97529" lon="7.20326">
        <ele>1478</ele>
        <time>2019-04-18T10:05:16Z</time>
      </trkpt>
      <trkpt lat="45.97506" lon="7.20355">
        <ele>1479</ele>
        <time>2019-04-18T10:06:16Z</time>
      </trkpt>
      <trkpt lat="45.97461" lon="7.20395">
        <ele>1482</ele>
        <time>2019-04-18T10:07:16Z</time>
      </trkpt>
      <trkpt lat="45.9744" lon="7.20418">
        <ele>1484</ele>
        <time>2019-04-18T10:08:16Z</time>
      </trkpt>
      <trkpt lat="45.9742" lon="7.20448">
        <ele>1485</ele>
        <time>2019-04-18T10:09:16Z</time>
      </trkpt>
      <trkpt lat="45.97405" lon="7.20478">
        <ele>1488</ele>
        <time>2019-04-18T10:10:16Z</time>
      </trkpt>
      <trkpt lat="45.97393" lon="7.20517">
        <ele>1492</ele>
        <time>2019-04-18T10:11:16Z</time>
      </trkpt>
      <trkpt lat="45.97377" lon="7.20588">
        <ele>1500</ele>
        <time>2019-04-18T10:12:16Z</time>
      </trkpt>
      <trkpt lat="45.97369" lon="7.20619">
        <ele>1503</ele>
        <time>2019-04-18T10:13:16Z</time>
      </trkpt>
      <trkpt lat="45.97358" lon="7.2065">
        <ele>1505</ele>
        <time>2019-04-18T10:14:16Z</time>
      </trkpt>
      <trkpt lat="45.97344" lon="7.20682">
        <ele>1506</ele>
        <time>2019-04-18T10:15:16Z</time>
      </trkpt>
      <trkpt lat="45.97328" lon="7.20706">
        <ele>1505</ele>
        <time>2019-04-18T10:16:16Z</time>
      </trkpt>
      <trkpt lat="45.9729" lon="7.20749">
        <ele>1507</ele>
        <time>2019-04-18T10:17:16Z</time>
      </trkpt>
      <trkpt lat="45.97266" lon="7.20765">
        <ele>1510</ele>
        <time>2019-04-18T10:18:16Z</time>
      </trkpt>
      <trkpt lat="45.97215" lon="7.20786">
        <ele>1511</ele>
        <time>2019-04-18T10:19:16Z</time>
      </trkpt>
      <trkpt lat="45.97189" lon="7.20799">
        <ele>1512</ele>
        <time>2019-04-18T10:20:16Z</time>
      </trkpt>
      <trkpt lat="45.97113" lon="7.20852">
        <ele>1520</ele>
        <time>2019-04-18T10:21:16Z</time>
      </trkpt>
      <trkpt lat="45.97087" lon="7.20865">
        <ele>1521</ele>
        <time>2019-04-18T10:22:16Z</time>
      </trkpt>
      <trkpt lat="45.97062" lon="7.20875">
        <ele>1526</ele>
        <time>2019-04-18T10:23:16Z</time>
      </trkpt>
      <trkpt lat="45.97029" lon="7.20882">
        <ele>1529</ele>
        <time>2019-04-18T10:24:16Z</time>
      </trkpt>
      <trkpt lat="45.96984" lon="7.20885">
        <ele>1531</ele>
        <time>2019-04-18T10:25:16Z</time>
      </trkpt>
      <trkpt lat="45.96889" lon="7.20853">
        <ele>1532</ele>
        <time>2019-04-18T10:26:16Z</time>
      </trkpt>
      <trkpt lat="45.96833" lon="7.20839">
        <ele>1536</ele>
        <time>2019-04-18T10:27:16Z</time>
      </trkpt>
      <trkpt lat="45.96815" lon="7.20837">
        <ele>1536</ele>
        <time>2019-04-18T10:28:16Z</time>
      </trkpt>
      <trkpt lat="45.96771" lon="7.20839">
        <ele>1538</ele>
        <time>2019-04-18T10:29:16Z</time>
      </trkpt>
      <trkpt lat="45.9675" lon="7.20845">
        <ele>1539</ele>
        <time>2019-04-18T10:30:16Z</time>
      </trkpt>
      <trkpt lat="45.96726" lon="7.20857">
        <ele>1540</ele>
        <time>2019-04-18T10:31:16Z</time>
      </trkpt>
      <trkpt lat="45.96613" lon="7.2093">
        <ele>1551</ele>
        <time>2019-04-18T10:32:16Z</time>
      </trkpt>
      <trkpt lat="45.96594" lon="7.2094">
        <ele>1553</ele>
        <time>2019-04-18T10:33:16Z</time>
      </trkpt>
      <trkpt lat="45.9656" lon="7.20946">
        <ele>1555</ele>
        <time>2019-04-18T10:34:16Z</time>
      </trkpt>
      <trkpt lat="45.96513" lon="7.20941">
        <ele>1557</ele>
        <time>2019-04-18T10:35:16Z</time>
      </trkpt>
      <trkpt lat="45.96486" lon="7.2094">
        <ele>1559</ele>
        <time>2019-04-18T10:36:16Z</time>
      </trkpt>
      <trkpt lat="45.96479" lon="7.20946">
        <ele>1562</ele>
        <time>2019-04-18T10:37:16Z</time>
      </trkpt>
      <trkpt lat="45.96476" lon="7.20952">
        <ele>1564</ele>
        <time>2019-04-18T10:38:16Z</time>
      </trkpt>
      <trkpt lat="45.96432" lon="7.20948">
        <ele>1567</ele>
        <time>2019-04-18T10:39:16Z</time>
      </trkpt>
      <trkpt lat="45.96363" lon="7.20945">
        <ele>1574</ele>
        <time>2019-04-18T10:40:16Z</time>
      </trkpt>
      <trkpt lat="45.96307" lon="7.20956">
        <ele>1581</ele>
        <time>2019-04-18T10:41:16Z</time>
      </trkpt>
      <trkpt lat="45.9625" lon="7.20959">
        <ele>1586</ele>
        <time>2019-04-18T10:42:16Z</time>
      </trkpt>
      <trkpt lat="45.96197" lon="7.20952">
        <ele>1589</ele>
        <time>2019-04-18T10:43:16Z</time>
      </trkpt>
      <trkpt lat="45.96037" lon="7.20885">
        <ele>1593</ele>
        <time>2019-04-18T10:44:16Z</time>
      </trkpt>
      <trkpt lat="45.95992" lon="7.20874">
        <ele>1595</ele>
        <time>2019-04-18T10:45:16Z</time>
      </trkpt>
      <trkpt lat="45.95929" lon="7.20866">
        <ele>1594</ele>
        <time>2019-04-18T10:46:16Z</time>
      </trkpt>
      <trkpt lat="45.95872" lon="7.20868">
        <ele>1596</ele>
        <time>2019-04-18T10:47:16Z</time>
      </trkpt>
      <trkpt lat="45.9582" lon="7.20876">
        <ele>1599</ele>
        <time>2019-04-18T10:48:16Z</time>
      </trkpt>
      <trkpt lat="45.95761" lon="7.20892">
        <ele>1603</ele>
        <time>2019-04-18T10:49:16Z</time>
      </trkpt>
      <trkpt lat="45.95673" lon="7.20934">
        <ele>1611</ele>
        <time>2019-04-18T10:50:16Z</time>
      </trkpt>
      <trkpt lat="45.95582" lon="7.20971">
        <ele>1615</ele>
        <time>2019-04-18T10:51:16Z</time>
      </trkpt>
      <trkpt lat="45.95533" lon="7.20978">
        <ele>1617</ele>
        <time>2019-04-18T10:52:16Z</time>
      </trkpt>
      <trkpt lat="45.95479" lon="7.20982">
        <ele>1621</ele>
        <time>2019-04-18T10:53:16Z</time>
      </trkpt>
      <trkpt lat="45.95424" lon="7.20977">
        <ele>1627</ele>
        <time>2019-04-18T10:54:16Z</time>
      </trkpt>
      <trkpt lat="45.95375" lon="7.20966">
        <ele>1632</ele>
        <time>2019-04-18T10:55:16Z</time>
      </trkpt>
      <trkpt lat="45.95263" lon="7.20933">
        <ele>1638</ele>
        <time>2019-04-18T10:56:16Z</time>
      </trkpt>
      <trkpt lat="45.95211" lon="7.20926">
        <ele>1639</ele>
        <time>2019-04-18T10:57:16Z</time>
      </trkpt>
      <trkpt lat="45.95152" lon="7.20924">
        <ele>1641</ele>
        <time>2019-04-18T10:58:16Z</time>
      </trkpt>
      <trkpt lat="45.95073" lon="7.20934">
        <ele>1650</ele>
        <time>2019-04-18T10:59:16Z</time>
      </trkpt>
      <trkpt lat="45.95045" lon="7.20939">
        <ele>1651</ele>
        <time>2019-04-18T11:00:16Z</time>
      </trkpt>
      <trkpt lat="45.94947" lon="7.20969">
        <ele>1655</ele>
        <time>2019-04-18T11:01:16Z</time>
      </trkpt>
      <trkpt lat="45.94913" lon="7.20974">
        <ele>1656</ele>
        <time>2019-04-18T11:02:16Z</time>
      </trkpt>
      <trkpt lat="45.94886" lon="7.20976">
        <ele>1661</ele>
        <time>2019-04-18T11:03:16Z</time>
      </trkpt>
      <trkpt lat="45.94821" lon="7.20964">
        <ele>1668</ele>
        <time>2019-04-18T11:04:16Z</time>
      </trkpt>
      <trkpt lat="45.94776" lon="7.20958">
        <ele>1670</ele>
        <time>2019-04-18T11:05:16Z</time>
      </trkpt>
      <trkpt lat="45.9465" lon="7.2096">
        <ele>1679</ele>
        <time>2019-04-18T11:06:16Z</time>
      </trkpt>
      <trkpt lat="45.94632" lon="7.20955">
        <ele>1683</ele>
        <time>2019-04-18T11:07:16Z</time>
      </trkpt>
      <trkpt lat="45.94605" lon="7.20944">
        <ele>1688</ele>
        <time>2019-04-18T11:08:16Z</time>
      </trkpt>
      <trkpt lat="45.94509" lon="7.209">
        <ele>1709</ele>
        <time>2019-04-18T11:09:16Z</time>
      </trkpt>
      <trkpt lat="45.9443" lon="7.20881">
        <ele>1708</ele>
        <time>2019-04-18T11:10:16Z</time>
      </trkpt>
      <trkpt lat="45.9435" lon="7.20881">
        <ele>1710</ele>
        <time>2019-04-18T11:11:16Z</time>
      </trkpt>
      <trkpt lat="45.94297" lon="7.20892">
        <ele>1719</ele>
        <time>2019-04-18T11:12:16Z</time>
      </trkpt>
      <trkpt lat="45.94189" lon="7.2092">
        <ele>1733</ele>
        <time>2019-04-18T11:13:16Z</time>
      </trkpt>
      <trkpt lat="45.94143" lon="7.20916">
        <ele>1733</ele>
        <time>2019-04-18T11:14:16Z</time>
      </trkpt>
      <trkpt lat="45.94108" lon="7.209">
        <ele>1734</ele>
        <time>2019-04-18T11:15:16Z</time>
      </trkpt>
      <trkpt lat="45.94039" lon="7.20861">
        <ele>1734</ele>
        <time>2019-04-18T11:16:16Z</time>
      </trkpt>
      <trkpt lat="45.93991" lon="7.20844">
        <ele>1735</ele>
        <time>2019-04-18T11:17:16Z</time>
      </trkpt>
      <trkpt lat="45.93938" lon="7.20844">
        <ele>1739</ele>
        <time>2019-04-18T11:18:16Z</time>
      </trkpt>
      <trkpt lat="45.93813" lon="7.20859">
        <ele>1765</ele>
        <time>2019-04-18T11:19:16Z</time>
      </trkpt>
      <trkpt lat="45.93752" lon="7.20859">
        <ele>1774</ele>
        <time>2019-04-18T11:20:16Z</time>
      </trkpt>
      <trkpt lat="45.93714" lon="7.20856">
        <ele>1772</ele>
        <time>2019-04-18T11:21:16Z</time>
      </trkpt>
      <trkpt lat="45.93666" lon="7.20844">
        <ele>1765</ele>
        <time>2019-04-18T11:22:16Z</time>
      </trkpt>
      <trkpt lat="45.93568" lon="7.20801">
        <ele>1771</ele>
        <time>2019-04-18T11:23:16Z</time>
      </trkpt>
      <trkpt lat="45.93521" lon="7.20784">
        <ele>1769</ele>
        <time>2019-04-18T11:24:16Z</time>
      </trkpt>
      <trkpt lat="45.93435" lon="7.20768">
        <ele>1782</ele>
        <time>2019-04-18T11:25:16Z</time>
      </trkpt>
      <trkpt lat="45.93395" lon="7.20755">
        <ele>1785</ele>
        <time>2019-04-18T11:26:16Z</time>
      </trkpt>
      <trkpt lat="45.93335" lon="7.20722">
        <ele>1782</ele>
        <time>2019-04-18T11:27:16Z</time>
      </trkpt>
      <trkpt lat="45.93199" lon="7.20657">
        <ele>1797</ele>
        <time>2019-04-18T11:28:16Z</time>
      </trkpt>
      <trkpt lat="45.93121" lon="7.20602">
        <ele>1797</ele>
        <time>2019-04-18T11:29:16Z</time>
      </trkpt>
      <trkpt lat="45.93084" lon="7.20585">
        <ele>1800</ele>
        <time>2019-04-18T11:30:16Z</time>
      </trkpt>
      <trkpt lat="45.93018" lon="7.20565">
        <ele>1807</ele>
        <time>2019-04-18T11:31:16Z</time>
      </trkpt>
      <trkpt lat="45.92984" lon="7.20551">
        <ele>1811</ele>
        <time>2019-04-18T11:32:16Z</time>
      </trkpt>
      <trkpt lat="45.92953" lon="7.20524">
        <ele>1812</ele>
        <time>2019-04-18T11:33:16Z</time>
      </trkpt>
      <trkpt lat="45.92906" lon="7.20472">
        <ele>1809</ele>
        <time>2019-04-18T11:34:16Z</time>
      </trkpt>
      <trkpt lat="45.92876" lon="7.20442">
        <ele>1807</ele>
        <time>2019-04-18T11:35:16Z</time>
      </trkpt>
      <trkpt lat="45.92844" lon="7.20423">
        <ele>1811</ele>
        <time>2019-04-18T11:36:16Z</time>
      </trkpt>
      <trkpt lat="45.92723" lon="7.20392">
        <ele>1829</ele>
        <time>2019-04-18T11:37:16Z</time>
      </trkpt>
      <trkpt lat="45.9267" lon="7.20374">
        <ele>1833</ele>
        <time>2019-04-18T11:38:16Z</time>
      </trkpt>
      <trkpt lat="45.92633" lon="7.20353">
        <ele>1837</ele>
        <time>2019-04-18T11:39:16Z</time>
      </trkpt>
      <trkpt lat="45.92588" lon="7.20315">
        <ele>1841</ele>
        <time>2019-04-18T11:40:16Z</time>
      </trkpt>
      <trkpt lat="45.92432" lon="7.20162">
        <ele>1866</ele>
        <time>2019-04-18T11:41:16Z</time>
      </trkpt>
      <trkpt lat="45.92406" lon="7.20145">
        <ele>1862</ele>
        <time>2019-04-18T11:42:16Z</time>
      </trkpt>
      <trkpt lat="45.92379" lon="7.20135">
        <ele>1858</ele>
        <time>2019-04-18T11:43:16Z</time>
      </trkpt>
      <trkpt lat="45.92349" lon="7.2013">
        <ele>1858</ele>
        <time>2019-04-18T11:44:16Z</time>
      </trkpt>
      <trkpt lat="45.92265" lon="7.20126">
        <ele>1857</ele>
        <time>2019-04-18T11:45:16Z</time>
      </trkpt>
      <trkpt lat="45.92195" lon="7.20117">
        <ele>1852</ele>
        <time>2019-04-18T11:46:16Z</time>
      </trkpt>
      <trkpt lat="45.92135" lon="7.2012">
        <ele>1855</ele>
        <time>2019-04-18T11:47:16Z</time>
      </trkpt>
      <trkpt lat="45.92064" lon="7.2014">
        <ele>1866</ele>
        <time>2019-04-18T11:48:16Z</time>
      </trkpt>
      <trkpt lat="45.92009" lon="7.20149">
        <ele>1866</ele>
        <time>2019-04-18T11:49:16Z</time>
      </trkpt>
      <trkpt lat="45.91927" lon="7.20145">
        <ele>1861</ele>
        <time>2019-04-18T11:50:16Z</time>
      </trkpt>
      <trkpt lat="45.91872" lon="7.20152">
        <ele>1858</ele>
        <time>2019-04-18T11:51:16Z</time>
      </trkpt>
      <trkpt lat="45.91766" lon="7.2019">
        <ele>1870</ele>
        <time>2019-04-18T11:52:16Z</time>
      </trkpt>
      <trkpt lat="45.91728" lon="7.20193">
        <ele>1873</ele>
        <time>2019-04-18T11:53:16Z</time>
      </trkpt>
      <trkpt lat="45.91691" lon="7.20187">
        <ele>1874</ele>
        <time>2019-04-18T11:54:16Z</time>
      </trkpt>
      <trkpt lat="45.91625" lon="7.2016">
        <ele>1865</ele>
        <time>2019-04-18T11:55:16Z</time>
      </trkpt>
      <trkpt lat="45.9159" lon="7.20154">
        <ele>1861</ele>
        <time>2019-04-18T11:56:16Z</time>
      </trkpt>
      <trkpt lat="45.91477" lon="7.20165">
        <ele>1872</ele>
        <time>2019-04-18T11:57:16Z</time>
      </trkpt>
      <trkpt lat="45.91409" lon="7.2016">
        <ele>1875</ele>
        <time>2019-04-18T11:58:16Z</time>
      </trkpt>
      <trkpt lat="45.91357" lon="7.20159">
        <ele>1879</ele>
        <time>2019-04-18T11:59:16Z</time>
      </trkpt>
      <trkpt lat="45.91295" lon="7.20169">
        <ele>1885</ele>
        <time>2019-04-18T12:00:16Z</time>
      </trkpt>
      <trkpt lat="45.91246" lon="7.20171">
        <ele>1887</ele>
        <time>2019-04-18T12:01:16Z</time>
      </trkpt>
      <trkpt lat="45.91199" lon="7.20165">
        <ele>1893</ele>
        <time>2019-04-18T12:02:16Z</time>
      </trkpt>
      <trkpt lat="45.91074" lon="7.2012">
        <ele>1892</ele>
        <time>2019-04-18T12:03:16Z</time>
      </trkpt>
      <trkpt lat="45.91018" lon="7.20108">
        <ele>1894</ele>
        <time>2019-04-18T12:04:16Z</time>
      </trkpt>
      <trkpt lat="45.90919" lon="7.20106">
        <ele>1897</ele>
        <time>2019-04-18T12:05:16Z</time>
      </trkpt>
      <trkpt lat="45.90856" lon="7.20093">
        <ele>1894</ele>
        <time>2019-04-18T12:06:16Z</time>
      </trkpt>
      <trkpt lat="45.9081" lon="7.20091">
        <ele>1896</ele>
        <time>2019-04-18T12:07:16Z</time>
      </trkpt>
      <trkpt lat="45.9067" lon="7.20104">
        <ele>1908</ele>
        <time>2019-04-18T12:08:16Z</time>
      </trkpt>
      <trkpt lat="45.90563" lon="7.20095">
        <ele>1920</ele>
        <time>2019-04-18T12:09:16Z</time>
      </trkpt>
      <trkpt lat="45.90468" lon="7.20072">
        <ele>1923</ele>
        <time>2019-04-18T12:10:16Z</time>
      </trkpt>
      <trkpt lat="45.90438" lon="7.20061">
        <ele>1924</ele>
        <time>2019-04-18T12:11:16Z</time>
      </trkpt>
      <trkpt lat="45.90404" lon="7.2004">
        <ele>1923</ele>
        <time>2019-04-18T12:12:16Z</time>
      </trkpt>
      <trkpt lat="45.90371" lon="7.20002">
        <ele>1916</ele>
        <time>2019-04-18T12:13:16Z</time>
      </trkpt>
      <trkpt lat="45.90342" lon="7.19957">
        <ele>1916</ele>
        <time>2019-04-18T12:14:16Z</time>
      </trkpt>
      <trkpt lat="45.90318" lon="7.19885">
        <ele>1915</ele>
        <time>2019-04-18T12:15:16Z</time>
      </trkpt>
      <trkpt lat="45.90301" lon="7.19824">
        <ele>1915</ele>
        <time>2019-04-18T12:16:16Z</time>
      </trkpt>
      <trkpt lat="45.9029" lon="7.19787">
        <ele>1916</ele>
        <time>2019-04-18T12:17:16Z</time>
      </trkpt>
      <trkpt lat="45.90281" lon="7.19753">
        <ele>1916</ele>
        <time>2019-04-18T12:18:16Z</time>
      </trkpt>
      <trkpt lat="45.90275" lon="7.19715">
        <ele>1916</ele>
        <time>2019-04-18T12:19:16Z</time>
      </trkpt>
      <trkpt lat="45.90259" lon="7.19662">
        <ele>1915</ele>
        <time>2019-04-18T12:20:16Z</time>
      </trkpt>
      <trkpt lat="45.90248" lon="7.19639">
        <ele>1915</ele>
        <time>2019-04-18T12:21:16Z</time>
      </trkpt>
      <trkpt lat="45.90236" lon="7.19619">
        <ele>1915</ele>
        <time>2019-04-18T12:22:16Z</time>
      </trkpt>
      <trkpt lat="45.90219" lon="7.196">
        <ele>1915</ele>
        <time>2019-04-18T12:23:16Z</time>
      </trkpt>
      <trkpt lat="45.90196" lon="7.19581">
        <ele>1916</ele>
        <time>2019-04-18T12:24:16Z</time>
      </trkpt>
      <trkpt lat="45.90177" lon="7.19571">
        <ele>1918</ele>
        <time>2019-04-18T12:25:16Z</time>
      </trkpt>
      <trkpt lat="45.90162" lon="7.19569">
        <ele>1919</ele>
        <time>2019-04-18T12:26:16Z</time>
      </trkpt>
      <trkpt lat="45.90124" lon="7.19567">
        <ele>1921</ele>
        <time>2019-04-18T12:27:16Z</time>
      </trkpt>
      <trkpt lat="45.89923" lon="7.1957">
        <ele>1932</ele>
        <time>2019-04-18T12:28:16Z</time>
      </trkpt>
      <trkpt lat="45.89899" lon="7.19563">
        <ele>1936</ele>
        <time>2019-04-18T12:29:16Z</time>
      </trkpt>
      <trkpt lat="45.89877" lon="7.19548">
        <ele>1939</ele>
        <time>2019-04-18T12:30:16Z</time>
      </trkpt>
      <trkpt lat="45.89854" lon="7.1952">
        <ele>1940</ele>
        <time>2019-04-18T12:31:16Z</time>
      </trkpt>
      <trkpt lat="45.89826" lon="7.19471">
        <ele>1942</ele>
        <time>2019-04-18T12:32:16Z</time>
      </trkpt>
      <trkpt lat="45.89814" lon="7.19438">
        <ele>1945</ele>
        <time>2019-04-18T12:33:16Z</time>
      </trkpt>
      <trkpt lat="45.89797" lon="7.19368">
        <ele>1952</ele>
        <time>2019-04-18T12:34:16Z</time>
      </trkpt>
      <trkpt lat="45.89798" lon="7.19344">
        <ele>1952</ele>
        <time>2019-04-18T12:35:16Z</time>
      </trkpt>
      <trkpt lat="45.89812" lon="7.19284">
        <ele>1950</ele>
        <time>2019-04-18T12:36:16Z</time>
      </trkpt>
      <trkpt lat="45.8982" lon="7.19241">
        <ele>1951</ele>
        <time>2019-04-18T12:37:16Z</time>
      </trkpt>
      <trkpt lat="45.89842" lon="7.19198">
        <ele>1949</ele>
        <time>2019-04-18T12:38:16Z</time>
      </trkpt>
      <trkpt lat="45.89848" lon="7.19156">
        <ele>1955</ele>
        <time>2019-04-18T12:39:16Z</time>
      </trkpt>
      <trkpt lat="45.89856" lon="7.19141">
        <ele>1955</ele>
        <time>2019-04-18T12:40:16Z</time>
      </trkpt>
      <trkpt lat="45.89878" lon="7.19118">
        <ele>1952</ele>
        <time>2019-04-18T12:41:16Z</time>
      </trkpt>
      <trkpt lat="45.89884" lon="7.19098">
        <ele>1953</ele>
        <time>2019-04-18T12:42:16Z</time>
      </trkpt>
      <trkpt lat="45.89889" lon="7.19055">
        <ele>1958</ele>
        <time>2019-04-18T12:43:16Z</time>
      </trkpt>
      <trkpt lat="45.89896" lon="7.19017">
        <ele>1961</ele>
        <time>2019-04-18T12:44:16Z</time>
      </trkpt>
      <trkpt lat="45.89897" lon="7.18988">
        <ele>1964</ele>
        <time>2019-04-18T12:45:16Z</time>
      </trkpt>
      <trkpt lat="45.89865" lon="7.18871">
        <ele>1986</ele>
        <time>2019-04-18T12:46:16Z</time>
      </trkpt>
      <trkpt lat="45.8984" lon="7.18817">
        <ele>1991</ele>
        <time>2019-04-18T12:47:16Z</time>
      </trkpt>
      <trkpt lat="45.89823" lon="7.18774">
        <ele>1990</ele>
        <time>2019-04-18T12:48:16Z</time>
      </trkpt>
      <trkpt lat="45.89811" lon="7.18758">
        <ele>1989</ele>
        <time>2019-04-18T12:49:16Z</time>
      </trkpt>
      <trkpt lat="45.89783" lon="7.18751">
        <ele>1991</ele>
        <time>2019-04-18T12:50:16Z</time>
      </trkpt>
      <trkpt lat="45.89752" lon="7.18732">
        <ele>1994</ele>
        <time>2019-04-18T12:51:16Z</time>
      </trkpt>
      <trkpt lat="45.89727" lon="7.18724">
        <ele>1998</ele>
        <time>2019-04-18T12:52:16Z</time>
      </trkpt>
      <trkpt lat="45.89699" lon="7.18722">
        <ele>2002</ele>
        <time>2019-04-18T12:53:16Z</time>
      </trkpt>
      <trkpt lat="45.89628" lon="7.18692">
        <ele>2004</ele>
        <time>2019-04-18T12:54:16Z</time>
      </trkpt>
      <trkpt lat="45.89538" lon="7.18677">
        <ele>2010</ele>
        <time>2019-04-18T12:55:16Z</time>
      </trkpt>
      <trkpt lat="45.89462" lon="7.18647">
        <ele>2014</ele>
        <time>2019-04-18T12:56:16Z</time>
      </trkpt>
      <trkpt lat="45.89331" lon="7.18648">
        <ele>2029</ele>
        <time>2019-04-18T12:57:16Z</time>
      </trkpt>
      <trkpt lat="45.89305" lon="7.18646">
        <ele>2031</ele>
        <time>2019-04-18T12:58:16Z</time>
      </trkpt>
      <trkpt lat="45.89218" lon="7.18669">
        <ele>2042</ele>
        <time>2019-04-18T12:59:16Z</time>
      </trkpt>
      <trkpt lat="45.89192" lon="7.18681">
        <ele>2047</ele>
        <time>2019-04-18T13:00:16Z</time>
      </trkpt>
      <trkpt lat="45.89164" lon="7.1869">
        <ele>2050</ele>
        <time>2019-04-18T13:01:16Z</time>
      </trkpt>
      <trkpt lat="45.89098" lon="7.18752">
        <ele>2061</ele>
        <time>2019-04-18T13:02:16Z</time>
      </trkpt>
      <trkpt lat="45.89015" lon="7.18802">
        <ele>2067</ele>
        <time>2019-04-18T13:03:16Z</time>
      </trkpt>
      <trkpt lat="45.88963" lon="7.18861">
        <ele>2081</ele>
        <time>2019-04-18T13:04:16Z</time>
      </trkpt>
      <trkpt lat="45.88944" lon="7.18871">
        <ele>2084</ele>
        <time>2019-04-18T13:05:16Z</time>
      </trkpt>
      <trkpt lat="45.8886" lon="7.18875">
        <ele>2089</ele>
        <time>2019-04-18T13:06:16Z</time>
      </trkpt>
      <trkpt lat="45.88807" lon="7.18884">
        <ele>2098</ele>
        <time>2019-04-18T13:07:16Z</time>
      </trkpt>
      <trkpt lat="45.8877" lon="7.18881">
        <ele>2103</ele>
        <time>2019-04-18T13:08:16Z</time>
      </trkpt>
      <trkpt lat="45.88743" lon="7.18873">
        <ele>2105</ele>
        <time>2019-04-18T13:09:16Z</time>
      </trkpt>
      <trkpt lat="45.88731" lon="7.18863">
        <ele>2105</ele>
        <time>2019-04-18T13:10:16Z</time>
      </trkpt>
      <trkpt lat="45.88695" lon="7.18808">
        <ele>2104</ele>
        <time>2019-04-18T13:11:16Z</time>
      </trkpt>
      <trkpt lat="45.88679" lon="7.18793">
        <ele>2106</ele>
        <time>2019-04-18T13:12:16Z</time>
      </trkpt>
      <trkpt lat="45.88661" lon="7.1878">
        <ele>2109</ele>
        <time>2019-04-18T13:13:16Z</time>
      </trkpt>
      <trkpt lat="45.88651" lon="7.18762">
        <ele>2109</ele>
        <time>2019-04-18T13:14:16Z</time>
      </trkpt>
      <trkpt lat="45.88639" lon="7.18729">
        <ele>2111</ele>
        <time>2019-04-18T13:15:16Z</time>
      </trkpt>
      <trkpt lat="45.88629" lon="7.18712">
        <ele>2114</ele>
        <time>2019-04-18T13:16:16Z</time>
      </trkpt>
      <trkpt lat="45.88622" lon="7.18709">
        <ele>2116</ele>
        <time>2019-04-18T13:17:16Z</time>
      </trkpt>
      <trkpt lat="45.88618" lon="7.18711">
        <ele>2116</ele>
        <time>2019-04-18T13:18:16Z</time>
      </trkpt>
      <trkpt lat="45.88618" lon="7.18719">
        <ele>2116</ele>
        <time>2019-04-18T13:19:16Z</time>
      </trkpt>
      <trkpt lat="45.88622" lon="7.18737">
        <ele>2114</ele>
        <time>2019-04-18T13:20:16Z</time>
      </trkpt>
      <trkpt lat="45.88623" lon="7.18774">
        <ele>2117</ele>
        <time>2019-04-18T13:21:16Z</time>
      </trkpt>
      <trkpt lat="45.88629" lon="7.18803">
        <ele>2120</ele>
        <time>2019-04-18T13:22:16Z</time>
      </trkpt>
      <trkpt lat="45.8863" lon="7.18814">
        <ele>2121</ele>
        <time>2019-04-18T13:23:16Z</time>
      </trkpt>
      <trkpt lat="45.88626" lon="7.1882">
        <ele>2123</ele>
        <time>2019-04-18T13:24:16Z</time>
      </trkpt>
      <trkpt lat="45.8862" lon="7.18819">
        <ele>2125</ele>
        <time>2019-04-18T13:25:16Z</time>
      </trkpt>
      <trkpt lat="45.88588" lon="7.18741">
        <ele>2120</ele>
        <time>2019-04-18T13:26:16Z</time>
      </trkpt>
      <trkpt lat="45.88568" lon="7.18709">
        <ele>2131</ele>
        <time>2019-04-18T13:27:16Z</time>
      </trkpt>
      <trkpt lat="45.88508" lon="7.18579">
        <ele>2146</ele>
        <time>2019-04-18T13:28:16Z</time>
      </trkpt>
      <trkpt lat="45.88493" lon="7.18555">
        <ele>2149</ele>
        <time>2019-04-18T13:29:16Z</time>
      </trkpt>
      <trkpt lat="45.88474" lon="7.18538">
        <ele>2152</ele>
        <time>2019-04-18T13:30:16Z</time>
      </trkpt>
      <trkpt lat="45.88433" lon="7.1853">
        <ele>2156</ele>
        <time>2019-04-18T13:31:16Z</time>
      </trkpt>
      <trkpt lat="45.8841" lon="7.1853">
        <ele>2159</ele>
        <time>2019-04-18T13:32:16Z</time>
      </trkpt>
      <trkpt lat="45.88378" lon="7.18536">
        <ele>2166</ele>
        <time>2019-04-18T13:33:16Z</time>
      </trkpt>
      <trkpt lat="45.88341" lon="7.18535">
        <ele>2172</ele>
        <time>2019-04-18T13:34:16Z</time>
      </trkpt>
      <trkpt lat="45.88304" lon="7.18546">
        <ele>2179</ele>
        <time>2019-04-18T13:35:16Z</time>
      </trkpt>
      <trkpt lat="45.88278" lon="7.18545">
        <ele>2181</ele>
        <time>2019-04-18T13:36:16Z</time>
      </trkpt>
      <trkpt lat="45.88248" lon="7.18527">
        <ele>2182</ele>
        <time>2019-04-18T13:37:16Z</time>
      </trkpt>
      <trkpt lat="45.88192" lon="7.18459">
        <ele>2185</ele>
        <time>2019-04-18T13:38:16Z</time>
      </trkpt>
      <trkpt lat="45.88162" lon="7.18436">
        <ele>2185</ele>
        <time>2019-04-18T13:39:16Z</time>
      </trkpt>
      <trkpt lat="45.88124" lon="7.18418">
        <ele>2189</ele>
        <time>2019-04-18T13:40:16Z</time>
      </trkpt>
      <trkpt lat="45.88074" lon="7.18404">
        <ele>2197</ele>
        <time>2019-04-18T13:41:16Z</time>
      </trkpt>
      <trkpt lat="45.8807" lon="7.18401">
        <ele>2197</ele>
        <time>2019-04-18T13:42:16Z</time>
      </trkpt>
      <trkpt lat="45.88066" lon="7.18387">
        <ele>2197</ele>
        <time>2019-04-18T13:43:16Z</time>
      </trkpt>
      <trkpt lat="45.88052" lon="7.18271">
        <ele>2201</ele>
        <time>2019-04-18T13:44:16Z</time>
      </trkpt>
      <trkpt lat="45.8805" lon="7.18263">
        <ele>2202</ele>
        <time>2019-04-18T13:45:16Z</time>
      </trkpt>
      <trkpt lat="45.88047" lon="7.18258">
        <ele>2203</ele>
        <time>2019-04-18T13:46:16Z</time>
      </trkpt>
      <trkpt lat="45.88041" lon="7.18259">
        <ele>2203</ele>
        <time>2019-04-18T13:47:16Z</time>
      </trkpt>
      <trkpt lat="45.88036" lon="7.18263">
        <ele>2203</ele>
        <time>2019-04-18T13:48:16Z</time>
      </trkpt>
      <trkpt lat="45.88007" lon="7.18314">
        <ele>2202</ele>
        <time>2019-04-18T13:49:16Z</time>
      </trkpt>
      <trkpt lat="45.87999" lon="7.18318">
        <ele>2202</ele>
        <time>2019-04-18T13:50:16Z</time>
      </trkpt>
      <trkpt lat="45.87991" lon="7.1831">
        <ele>2204</ele>
        <time>2019-04-18T13:51:16Z</time>
      </trkpt>
      <trkpt lat="45.87972" lon="7.18259">
        <ele>2210</ele>
        <time>2019-04-18T13:52:16Z</time>
      </trkpt>
      <trkpt lat="45.87963" lon="7.18246">
        <ele>2212</ele>
        <time>2019-04-18T13:53:16Z</time>
      </trkpt>
      <trkpt lat="45.87947" lon="7.18246">
        <ele>2214</ele>
        <time>2019-04-18T13:54:16Z</time>
      </trkpt>
      <trkpt lat="45.87885" lon="7.18275">
        <ele>2222</ele>
        <time>2019-04-18T13:55:16Z</time>
      </trkpt>
      <trkpt lat="45.87846" lon="7.18291">
        <ele>2226</ele>
        <time>2019-04-18T13:56:16Z</time>
      </trkpt>
      <trkpt lat="45.87818" lon="7.18295">
        <ele>2230</ele>
        <time>2019-04-18T13:57:16Z</time>
      </trkpt>
      <trkpt lat="45.87783" lon="7.18304">
        <ele>2234</ele>
        <time>2019-04-18T13:58:16Z</time>
      </trkpt>
      <trkpt lat="45.87762" lon="7.18304">
        <ele>2237</ele>
        <time>2019-04-18T13:59:16Z</time>
      </trkpt>
      <trkpt lat="45.87738" lon="7.18288">
        <ele>2241</ele>
        <time>2019-04-18T14:00:16Z</time>
      </trkpt>
      <trkpt lat="45.87708" lon="7.18259">
        <ele>2244</ele>
        <time>2019-04-18T14:01:16Z</time>
      </trkpt>
      <trkpt lat="45.87658" lon="7.18224">
        <ele>2248</ele>
        <time>2019-04-18T14:02:16Z</time>
      </trkpt>
      <trkpt lat="45.87623" lon="7.18193">
        <ele>2252</ele>
        <time>2019-04-18T14:03:16Z</time>
      </trkpt>
      <trkpt lat="45.8759" lon="7.18158">
        <ele>2256</ele>
        <time>2019-04-18T14:04:16Z</time>
      </trkpt>
      <trkpt lat="45.87517" lon="7.18124">
        <ele>2264</ele>
        <time>2019-04-18T14:05:16Z</time>
      </trkpt>
      <trkpt lat="45.87496" lon="7.18123">
        <ele>2265</ele>
        <time>2019-04-18T14:06:16Z</time>
      </trkpt>
      <trkpt lat="45.87478" lon="7.1812">
        <ele>2268</ele>
        <time>2019-04-18T14:07:16Z</time>
      </trkpt>
      <trkpt lat="45.8744" lon="7.18092">
        <ele>2275</ele>
        <time>2019-04-18T14:08:16Z</time>
      </trkpt>
      <trkpt lat="45.87401" lon="7.18089">
        <ele>2281</ele>
        <time>2019-04-18T14:09:16Z</time>
      </trkpt>
      <trkpt lat="45.87392" lon="7.18087">
        <ele>2282</ele>
        <time>2019-04-18T14:10:16Z</time>
      </trkpt>
      <trkpt lat="45.87388" lon="7.18079">
        <ele>2284</ele>
        <time>2019-04-18T14:11:16Z</time>
      </trkpt>
      <trkpt lat="45.87389" lon="7.18069">
        <ele>2287</ele>
        <time>2019-04-18T14:12:16Z</time>
      </trkpt>
      <trkpt lat="45.87396" lon="7.18057">
        <ele>2290</ele>
        <time>2019-04-18T14:13:16Z</time>
      </trkpt>
      <trkpt lat="45.87443" lon="7.18012">
        <ele>2296</ele>
        <time>2019-04-18T14:14:16Z</time>
      </trkpt>
      <trkpt lat="45.87457" lon="7.18005">
        <ele>2296</ele>
        <time>2019-04-18T14:15:16Z</time>
      </trkpt>
      <trkpt lat="45.87507" lon="7.18007">
        <ele>2291</ele>
        <time>2019-04-18T14:16:16Z</time>
      </trkpt>
      <trkpt lat="45.87521" lon="7.18005">
        <ele>2293</ele>
        <time>2019-04-18T14:17:16Z</time>
      </trkpt>
      <trkpt lat="45.87552" lon="7.17987">
        <ele>2304</ele>
        <time>2019-04-18T14:18:16Z</time>
      </trkpt>
      <trkpt lat="45.87564" lon="7.17987">
        <ele>2305</ele>
        <time>2019-04-18T14:19:16Z</time>
      </trkpt>
      <trkpt lat="45.87614" lon="7.18013">
        <ele>2300</ele>
        <time>2019-04-18T14:20:16Z</time>
      </trkpt>
      <trkpt lat="45.87634" lon="7.1802">
        <ele>2300</ele>
        <time>2019-04-18T14:21:16Z</time>
      </trkpt>
      <trkpt lat="45.87666" lon="7.18022">
        <ele>2303</ele>
        <time>2019-04-18T14:22:16Z</time>
      </trkpt>
      <trkpt lat="45.87674" lon="7.18021">
        <ele>2303</ele>
        <time>2019-04-18T14:23:16Z</time>
      </trkpt>
      <trkpt lat="45.87677" lon="7.18013">
        <ele>2307</ele>
        <time>2019-04-18T14:24:16Z</time>
      </trkpt>
      <trkpt lat="45.87675" lon="7.18007">
        <ele>2310</ele>
        <time>2019-04-18T14:25:16Z</time>
      </trkpt>
      <trkpt lat="45.87669" lon="7.18003">
        <ele>2312</ele>
        <time>2019-04-18T14:26:16Z</time>
      </trkpt>
      <trkpt lat="45.87646" lon="7.18006">
        <ele>2307</ele>
        <time>2019-04-18T14:27:16Z</time>
      </trkpt>
      <trkpt lat="45.87626" lon="7.18">
        <ele>2307</ele>
        <time>2019-04-18T14:28:16Z</time>
      </trkpt>
      <trkpt lat="45.87608" lon="7.17985">
        <ele>2313</ele>
        <time>2019-04-18T14:29:16Z</time>
      </trkpt>
      <trkpt lat="45.87575" lon="7.17944">
        <ele>2329</ele>
        <time>2019-04-18T14:30:16Z</time>
      </trkpt>
      <trkpt lat="45.8756" lon="7.1793">
        <ele>2333</ele>
        <time>2019-04-18T14:31:16Z</time>
      </trkpt>
      <trkpt lat="45.87544" lon="7.17924">
        <ele>2333</ele>
        <time>2019-04-18T14:32:16Z</time>
      </trkpt>
      <trkpt lat="45.87532" lon="7.17924">
        <ele>2331</ele>
        <time>2019-04-18T14:33:16Z</time>
      </trkpt>
      <trkpt lat="45.87515" lon="7.17931">
        <ele>2325</ele>
        <time>2019-04-18T14:34:16Z</time>
      </trkpt>
      <trkpt lat="45.87502" lon="7.17929">
        <ele>2324</ele>
        <time>2019-04-18T14:35:16Z</time>
      </trkpt>
      <trkpt lat="45.87474" lon="7.17912">
        <ele>2335</ele>
        <time>2019-04-18T14:36:16Z</time>
      </trkpt>
      <trkpt lat="45.87463" lon="7.1791">
        <ele>2338</ele>
        <time>2019-04-18T14:37:16Z</time>
      </trkpt>
      <trkpt lat="45.87453" lon="7.17914">
        <ele>2337</ele>
        <time>2019-04-18T14:38:16Z</time>
      </trkpt>
      <trkpt lat="45.87434" lon="7.17927">
        <ele>2333</ele>
        <time>2019-04-18T14:39:16Z</time>
      </trkpt>
      <trkpt lat="45.87423" lon="7.17929">
        <ele>2334</ele>
        <time>2019-04-18T14:40:16Z</time>
      </trkpt>
      <trkpt lat="45.87376" lon="7.17908">
        <ele>2350</ele>
        <time>2019-04-18T14:41:16Z</time>
      </trkpt>
      <trkpt lat="45.8736" lon="7.17907">
        <ele>2353</ele>
        <time>2019-04-18T14:42:16Z</time>
      </trkpt>
      <trkpt lat="45.87333" lon="7.17915">
        <ele>2353</ele>
        <time>2019-04-18T14:43:16Z</time>
      </trkpt>
      <trkpt lat="45.87307" lon="7.17917">
        <ele>2355</ele>
        <time>2019-04-18T14:44:16Z</time>
      </trkpt>
      <trkpt lat="45.87291" lon="7.17912">
        <ele>2358</ele>
        <time>2019-04-18T14:45:16Z</time>
      </trkpt>
      <trkpt lat="45.87277" lon="7.17904">
        <ele>2362</ele>
        <time>2019-04-18T14:46:16Z</time>
      </trkpt>
      <trkpt lat="45.87266" lon="7.17903">
        <ele>2363</ele>
        <time>2019-04-18T14:47:16Z</time>
      </trkpt>
      <trkpt lat="45.87252" lon="7.1791">
        <ele>2362</ele>
        <time>2019-04-18T14:48:16Z</time>
      </trkpt>
      <trkpt lat="45.87214" lon="7.17949">
        <ele>2350</ele>
        <time>2019-04-18T14:49:16Z</time>
      </trkpt>
      <trkpt lat="45.87205" lon="7.17953">
        <ele>2349</ele>
        <time>2019-04-18T14:50:16Z</time>
      </trkpt>
      <trkpt lat="45.87194" lon="7.1795">
        <ele>2350</ele>
        <time>2019-04-18T14:51:16Z</time>
      </trkpt>
      <trkpt lat="45.87171" lon="7.17927">
        <ele>2359</ele>
        <time>2019-04-18T14:52:16Z</time>
      </trkpt>
      <trkpt lat="45.87049" lon="7.17752">
        <ele>2386</ele>
        <time>2019-04-18T14:53:16Z</time>
      </trkpt>
      <trkpt lat="45.8703" lon="7.17713">
        <ele>2390</ele>
        <time>2019-04-18T14:54:16Z</time>
      </trkpt>
      <trkpt lat="45.87029" lon="7.17706">
        <ele>2391</ele>
        <time>2019-04-18T14:55:16Z</time>
      </trkpt>
      <trkpt lat="45.87031" lon="7.17701">
        <ele>2393</ele>
        <time>2019-04-18T14:56:16Z</time>
      </trkpt>
      <trkpt lat="45.87036" lon="7.17699">
        <ele>2396</ele>
        <time>2019-04-18T14:57:16Z</time>
      </trkpt>
      <trkpt lat="45.87042" lon="7.17706">
        <ele>2396</ele>
        <time>2019-04-18T14:58:16Z</time>
      </trkpt>
      <trkpt lat="45.87054" lon="7.17733">
        <ele>2393</ele>
        <time>2019-04-18T14:59:16Z</time>
      </trkpt>
      <trkpt lat="45.87087" lon="7.17767">
        <ele>2393</ele>
        <time>2019-04-18T15:00:16Z</time>
      </trkpt>
      <trkpt lat="45.87118" lon="7.17792">
        <ele>2392</ele>
        <time>2019-04-18T15:01:16Z</time>
      </trkpt>
      <trkpt lat="45.8716" lon="7.17839">
        <ele>2388</ele>
        <time>2019-04-18T15:02:16Z</time>
      </trkpt>
      <trkpt lat="45.87168" lon="7.1784">
        <ele>2389</ele>
        <time>2019-04-18T15:03:16Z</time>
      </trkpt>
      <trkpt lat="45.87175" lon="7.17834">
        <ele>2391</ele>
        <time>2019-04-18T15:04:16Z</time>
      </trkpt>
      <trkpt lat="45.87177" lon="7.17824">
        <ele>2393</ele>
        <time>2019-04-18T15:05:16Z</time>
      </trkpt>
      <trkpt lat="45.87175" lon="7.17813">
        <ele>2396</ele>
        <time>2019-04-18T15:06:16Z</time>
      </trkpt>
      <trkpt lat="45.87168" lon="7.17802">
        <ele>2399</ele>
        <time>2019-04-18T15:07:16Z</time>
      </trkpt>
      <trkpt lat="45.87107" lon="7.17748">
        <ele>2402</ele>
        <time>2019-04-18T15:08:16Z</time>
      </trkpt>
      <trkpt lat="45.87077" lon="7.177">
        <ele>2411</ele>
        <time>2019-04-18T15:09:16Z</time>
      </trkpt>
      <trkpt lat="45.87069" lon="7.17657">
        <ele>2421</ele>
        <time>2019-04-18T15:10:16Z</time>
      </trkpt>
      <trkpt lat="45.87058" lon="7.17627">
        <ele>2425</ele>
        <time>2019-04-18T15:11:16Z</time>
      </trkpt>
      <trkpt lat="45.87021" lon="7.17574">
        <ele>2423</ele>
        <time>2019-04-18T15:12:16Z</time>
      </trkpt>
      <trkpt lat="45.87012" lon="7.17553">
        <ele>2424</ele>
        <time>2019-04-18T15:13:16Z</time>
      </trkpt>
      <trkpt lat="45.8701" lon="7.17507">
        <ele>2434</ele>
        <time>2019-04-18T15:14:16Z</time>
      </trkpt>
      <trkpt lat="45.86996" lon="7.17463">
        <ele>2440</ele>
        <time>2019-04-18T15:15:16Z</time>
      </trkpt>
      <trkpt lat="45.86984" lon="7.17401">
        <ele>2454</ele>
        <time>2019-04-18T15:16:16Z</time>
      </trkpt>
      <trkpt lat="45.86937" lon="7.17312">
        <ele>2455</ele>
        <time>2019-04-18T15:17:16Z</time>
      </trkpt>
      <trkpt lat="45.86934" lon="7.17301">
        <ele>2456</ele>
        <time>2019-04-18T15:18:16Z</time>
      </trkpt>
      <trkpt lat="45.86939" lon="7.17241">
        <ele>2473</ele>
        <time>2019-04-18T15:19:16Z</time>
      </trkpt>
      <trkpt lat="45.86935" lon="7.17217">
        <ele>2474</ele>
        <time>2019-04-18T15:20:16Z</time>
      </trkpt>
      <trkpt lat="45.86908" lon="7.17166">
        <ele>2474</ele>
        <time>2019-04-18T15:21:16Z</time>
      </trkpt>
      <trkpt lat="45.86899" lon="7.17138">
        <ele>2476</ele>
        <time>2019-04-18T15:22:16Z</time>
      </trkpt>
      <trkpt lat="45.86891" lon="7.17103">
        <ele>2478</ele>
        <time>2019-04-18T15:23:16Z</time>
      </trkpt>
      <trkpt lat="45.8689" lon="7.17088">
        <ele>2479</ele>
        <time>2019-04-18T15:24:16Z</time>
      </trkpt>
      <trkpt lat="45.869" lon="7.17047">
        <ele>2475</ele>
        <time>2019-04-18T15:25:16Z</time>
      </trkpt>
      <trkpt lat="45.86904" lon="7.1704">
        <ele>2475</ele>
        <time>2019-04-18T15:26:16Z</time>
      </trkpt>
      <trkpt lat="45.8692" lon="7.17019">
        <ele>2474</ele>
        <time>2019-04-18T15:27:16Z</time>
      </trkpt>
      <trkpt lat="45.86933" lon="7.16998">
        <ele>2478</ele>
        <time>2019-04-18T15:28:16Z</time>
      </trkpt>
      <trkpt lat="45.8694" lon="7.16978">
        <ele>2478</ele>
        <time>2019-04-18T15:29:16Z</time>
      </trkpt>
      <trkpt lat="45.8696" lon="7.16864">
        <ele>2476</ele>
        <time>2019-04-18T15:30:16Z</time>
      </trkpt>
      <trkpt lat="45.8696" lon="7.1685">
        <ele>2475</ele>
        <time>2019-04-18T15:31:16Z</time>
      </trkpt>
      <trkpt lat="45.86956" lon="7.1682">
        <ele>2473</ele>
        <time>2019-04-18T15:32:16Z</time>
      </trkpt>
      <trkpt lat="45.86929" lon="7.16709">
        <ele>2463</ele>
        <time>2019-04-18T15:33:16Z</time>
      </trkpt>
      <trkpt lat="45.86926" lon="7.16642">
        <ele>2462</ele>
        <time>2019-04-18T15:34:16Z</time>
      </trkpt>
      <trkpt lat="45.86923" lon="7.16618">
        <ele>2461</ele>
        <time>2019-04-18T15:35:16Z</time>
      </trkpt>
      <trkpt lat="45.86919" lon="7.16599">
        <ele>2460</ele>
        <time>2019-04-18T15:36:16Z</time>
      </trkpt>
      <trkpt lat="45.86912" lon="7.1658">
        <ele>2459</ele>
        <time>2019-04-18T15:37:16Z</time>
      </trkpt>
      <trkpt lat="45.86905" lon="7.16568">
        <ele>2459</ele>
        <time>2019-04-18T15:38:16Z</time>
      </trkpt>
      <trkpt lat="45.86887" lon="7.16546">
        <ele>2459</ele>
        <time>2019-04-18T15:39:16Z</time>
      </trkpt>
      <trkpt lat="45.86871" lon="7.16531">
        <ele>2458</ele>
        <time>2019-04-18T15:40:16Z</time>
      </trkpt>
      <trkpt lat="45.86853" lon="7.16523">
        <ele>2456</ele>
        <time>2019-04-18T15:41:16Z</time>
      </trkpt>
      <trkpt lat="45.8682" lon="7.1653">
        <ele>2454</ele>
        <time>2019-04-18T15:42:16Z</time>
      </trkpt>
      <trkpt lat="45.86806" lon="7.16528">
        <ele>2454</ele>
        <time>2019-04-18T15:43:16Z</time>
      </trkpt>
      <trkpt lat="45.86769" lon="7.16513">
        <ele>2454</ele>
        <time>2019-04-18T15:44:16Z</time>
      </trkpt>
      <trkpt lat="45.86732" lon="7.16485">
        <ele>2451</ele>
        <time>2019-04-18T15:45:16Z</time>
      </trkpt>
      <trkpt lat="45.86722" lon="7.16469">
        <ele>2448</ele>
        <time>2019-04-18T15:46:16Z</time>
      </trkpt>
      <trkpt lat="45.86718" lon="7.16457">
        <ele>2447</ele>
        <time>2019-04-18T15:47:16Z</time>
      </trkpt>
      <trkpt lat="45.8671" lon="7.16425">
        <ele>2441</ele>
        <time>2019-04-18T15:48:16Z</time>
      </trkpt>
      <trkpt lat="45.86709" lon="7.16408">
        <ele>2439</ele>
        <time>2019-04-18T15:49:16Z</time>
      </trkpt>
      <trkpt lat="45.86709" lon="7.1639">
        <ele>2435</ele>
        <time>2019-04-18T15:50:16Z</time>
      </trkpt>
      <trkpt lat="45.86712" lon="7.16379">
        <ele>2434</ele>
        <time>2019-04-18T15:51:16Z</time>
      </trkpt>
      <trkpt lat="45.86736" lon="7.16329">
        <ele>2435</ele>
        <time>2019-04-18T15:52:16Z</time>
      </trkpt>
      <trkpt lat="45.8674" lon="7.1631">
        <ele>2433</ele>
        <time>2019-04-18T15:53:16Z</time>
      </trkpt>
      <trkpt lat="45.86746" lon="7.16271">
        <ele>2427</ele>
        <time>2019-04-18T15:54:16Z</time>
      </trkpt>
      <trkpt lat="45.8675" lon="7.16256">
        <ele>2426</ele>
        <time>2019-04-18T15:55:16Z</time>
      </trkpt>
      <trkpt lat="45.86772" lon="7.16203">
        <ele>2412</ele>
        <time>2019-04-18T15:56:16Z</time>
      </trkpt>
      <trkpt lat="45.86792" lon="7.16168">
        <ele>2403</ele>
        <time>2019-04-18T15:57:16Z</time>
      </trkpt>
      <trkpt lat="45.86802" lon="7.16158">
        <ele>2401</ele>
        <time>2019-04-18T15:58:16Z</time>
      </trkpt>
      <trkpt lat="45.86816" lon="7.16153">
        <ele>2404</ele>
        <time>2019-04-18T15:59:16Z</time>
      </trkpt>
      <trkpt lat="45.86872" lon="7.1615">
        <ele>2425</ele>
        <time>2019-04-18T16:00:16Z</time>
      </trkpt>
      <trkpt lat="45.86882" lon="7.16147">
        <ele>2428</ele>
        <time>2019-04-18T16:01:16Z</time>
      </trkpt>
      <trkpt lat="45.86894" lon="7.16135">
        <ele>2428</ele>
        <time>2019-04-18T16:02:16Z</time>
      </trkpt>
      <trkpt lat="45.87044" lon="7.15849">
        <ele>2401</ele>
        <time>2019-04-18T16:03:16Z</time>
      </trkpt>
      <trkpt lat="45.87053" lon="7.15827">
        <ele>2399</ele>
        <time>2019-04-18T16:04:16Z</time>
      </trkpt>
      <trkpt lat="45.87057" lon="7.15801">
        <ele>2397</ele>
        <time>2019-04-18T16:05:16Z</time>
      </trkpt>
      <trkpt lat="45.87056" lon="7.15776">
        <ele>2393</ele>
        <time>2019-04-18T16:06:16Z</time>
      </trkpt>
      <trkpt lat="45.87049" lon="7.15744">
        <ele>2388</ele>
        <time>2019-04-18T16:07:16Z</time>
      </trkpt>
      <trkpt lat="45.87035" lon="7.15704">
        <ele>2391</ele>
        <time>2019-04-18T16:08:16Z</time>
      </trkpt>
      <trkpt lat="45.8703" lon="7.15694">
        <ele>2392</ele>
        <time>2019-04-18T16:09:16Z</time>
      </trkpt>
      <trkpt lat="45.87023" lon="7.15687">
        <ele>2392</ele>
        <time>2019-04-18T16:10:16Z</time>
      </trkpt>
      <trkpt lat="45.87015" lon="7.15686">
        <ele>2392</ele>
        <time>2019-04-18T16:11:16Z</time>
      </trkpt>
      <trkpt lat="45.86944" lon="7.15702">
        <ele>2371</ele>
        <time>2019-04-18T16:12:16Z</time>
      </trkpt>
      <trkpt lat="45.8693" lon="7.157">
        <ele>2368</ele>
        <time>2019-04-18T16:13:16Z</time>
      </trkpt>
      <trkpt lat="45.86919" lon="7.15691">
        <ele>2366</ele>
        <time>2019-04-18T16:14:16Z</time>
      </trkpt>
      <trkpt lat="45.8691" lon="7.15678">
        <ele>2365</ele>
        <time>2019-04-18T16:15:16Z</time>
      </trkpt>
      <trkpt lat="45.86904" lon="7.15659">
        <ele>2365</ele>
        <time>2019-04-18T16:16:16Z</time>
      </trkpt>
      <trkpt lat="45.86904" lon="7.15636">
        <ele>2365</ele>
        <time>2019-04-18T16:17:16Z</time>
      </trkpt>
      <trkpt lat="45.86908" lon="7.15613">
        <ele>2367</ele>
        <time>2019-04-18T16:18:16Z</time>
      </trkpt>
      <trkpt lat="45.8692" lon="7.15575">
        <ele>2372</ele>
        <time>2019-04-18T16:19:16Z</time>
      </trkpt>
      <trkpt lat="45.86921" lon="7.15558">
        <ele>2371</ele>
        <time>2019-04-18T16:20:16Z</time>
      </trkpt>
      <trkpt lat="45.86915" lon="7.15526">
        <ele>2367</ele>
        <time>2019-04-18T16:21:16Z</time>
      </trkpt>
      <trkpt lat="45.86916" lon="7.15496">
        <ele>2365</ele>
        <time>2019-04-18T16:22:16Z</time>
      </trkpt>
      <trkpt lat="45.86927" lon="7.15392">
        <ele>2364</ele>
        <time>2019-04-18T16:23:16Z</time>
      </trkpt>
      <trkpt lat="45.86923" lon="7.15382">
        <ele>2364</ele>
        <time>2019-04-18T16:24:16Z</time>
      </trkpt>
      <trkpt lat="45.86916" lon="7.15375">
        <ele>2362</ele>
        <time>2019-04-18T16:25:16Z</time>
      </trkpt>
      <trkpt lat="45.8691" lon="7.15375">
        <ele>2362</ele>
        <time>2019-04-18T16:26:16Z</time>
      </trkpt>
      <trkpt lat="45.8683" lon="7.1541">
        <ele>2346</ele>
        <time>2019-04-18T16:27:16Z</time>
      </trkpt>
      <trkpt lat="45.86815" lon="7.1541">
        <ele>2343</ele>
        <time>2019-04-18T16:28:16Z</time>
      </trkpt>
      <trkpt lat="45.86798" lon="7.15401">
        <ele>2339</ele>
        <time>2019-04-18T16:29:16Z</time>
      </trkpt>
      <trkpt lat="45.86785" lon="7.15385">
        <ele>2337</ele>
        <time>2019-04-18T16:30:16Z</time>
      </trkpt>
      <trkpt lat="45.86769" lon="7.15303">
        <ele>2335</ele>
        <time>2019-04-18T16:31:16Z</time>
      </trkpt>
      <trkpt lat="45.86776" lon="7.1526">
        <ele>2335</ele>
        <time>2019-04-18T16:32:16Z</time>
      </trkpt>
      <trkpt lat="45.86784" lon="7.15219">
        <ele>2339</ele>
        <time>2019-04-18T16:33:16Z</time>
      </trkpt>
      <trkpt lat="45.86782" lon="7.15201">
        <ele>2340</ele>
        <time>2019-04-18T16:34:16Z</time>
      </trkpt>
      <trkpt lat="45.86756" lon="7.15173">
        <ele>2335</ele>
        <time>2019-04-18T16:35:16Z</time>
      </trkpt>
      <trkpt lat="45.86733" lon="7.15154">
        <ele>2334</ele>
        <time>2019-04-18T16:36:16Z</time>
      </trkpt>
      <trkpt lat="45.86715" lon="7.15154">
        <ele>2331</ele>
        <time>2019-04-18T16:37:16Z</time>
      </trkpt>
      <trkpt lat="45.86692" lon="7.15169">
        <ele>2324</ele>
        <time>2019-04-18T16:38:16Z</time>
      </trkpt>
      <trkpt lat="45.86678" lon="7.1516">
        <ele>2323</ele>
        <time>2019-04-18T16:39:16Z</time>
      </trkpt>
      <trkpt lat="45.8667" lon="7.15145">
        <ele>2324</ele>
        <time>2019-04-18T16:40:16Z</time>
      </trkpt>
      <trkpt lat="45.86661" lon="7.15143">
        <ele>2324</ele>
        <time>2019-04-18T16:41:16Z</time>
      </trkpt>
      <trkpt lat="45.8665" lon="7.15149">
        <ele>2325</ele>
        <time>2019-04-18T16:42:16Z</time>
      </trkpt>
      <trkpt lat="45.86539" lon="7.15363">
        <ele>2307</ele>
        <time>2019-04-18T16:43:16Z</time>
      </trkpt>
      <trkpt lat="45.86489" lon="7.15407">
        <ele>2303</ele>
        <time>2019-04-18T16:44:16Z</time>
      </trkpt>
      <trkpt lat="45.86426" lon="7.1543">
        <ele>2300</ele>
        <time>2019-04-18T16:45:16Z</time>
      </trkpt>
      <trkpt lat="45.86423" lon="7.15443">
        <ele>2298</ele>
        <time>2019-04-18T16:46:16Z</time>
      </trkpt>
      <trkpt lat="45.86424" lon="7.15458">
        <ele>2296</ele>
        <time>2019-04-18T16:47:16Z</time>
      </trkpt>
      <trkpt lat="45.86439" lon="7.1551">
        <ele>2288</ele>
        <time>2019-04-18T16:48:16Z</time>
      </trkpt>
      <trkpt lat="45.86441" lon="7.15529">
        <ele>2286</ele>
        <time>2019-04-18T16:49:16Z</time>
      </trkpt>
      <trkpt lat="45.86431" lon="7.15564">
        <ele>2281</ele>
        <time>2019-04-18T16:50:16Z</time>
      </trkpt>
      <trkpt lat="45.86425" lon="7.15574">
        <ele>2280</ele>
        <time>2019-04-18T16:51:16Z</time>
      </trkpt>
      <trkpt lat="45.86417" lon="7.15576">
        <ele>2279</ele>
        <time>2019-04-18T16:52:16Z</time>
      </trkpt>
      <trkpt lat="45.86399" lon="7.15557">
        <ele>2279</ele>
        <time>2019-04-18T16:53:16Z</time>
      </trkpt>
      <trkpt lat="45.8639" lon="7.15553">
        <ele>2278</ele>
        <time>2019-04-18T16:54:16Z</time>
      </trkpt>
      <trkpt lat="45.86357" lon="7.15544">
        <ele>2273</ele>
        <time>2019-04-18T16:55:16Z</time>
      </trkpt>
      <trkpt lat="45.86346" lon="7.15545">
        <ele>2270</ele>
        <time>2019-04-18T16:56:16Z</time>
      </trkpt>
      <trkpt lat="45.8634" lon="7.15555">
        <ele>2268</ele>
        <time>2019-04-18T16:57:16Z</time>
      </trkpt>
      <trkpt lat="45.8634" lon="7.15565">
        <ele>2267</ele>
        <time>2019-04-18T16:58:16Z</time>
      </trkpt>
      <trkpt lat="45.86344" lon="7.15577">
        <ele>2267</ele>
        <time>2019-04-18T16:59:16Z</time>
      </trkpt>
      <trkpt lat="45.86353" lon="7.15582">
        <ele>2267</ele>
        <time>2019-04-18T17:00:16Z</time>
      </trkpt>
      <trkpt lat="45.86361" lon="7.15583">
        <ele>2269</ele>
        <time>2019-04-18T17:01:16Z</time>
      </trkpt>
      <trkpt lat="45.86374" lon="7.15587">
        <ele>2270</ele>
        <time>2019-04-18T17:02:16Z</time>
      </trkpt>
      <trkpt lat="45.86386" lon="7.156">
        <ele>2271</ele>
        <time>2019-04-18T17:03:16Z</time>
      </trkpt>
      <trkpt lat="45.864" lon="7.15629">
        <ele>2271</ele>
        <time>2019-04-18T17:04:16Z</time>
      </trkpt>
      <trkpt lat="45.86408" lon="7.1565">
        <ele>2270</ele>
        <time>2019-04-18T17:05:16Z</time>
      </trkpt>
      <trkpt lat="45.86425" lon="7.15721">
        <ele>2265</ele>
        <time>2019-04-18T17:06:16Z</time>
      </trkpt>
      <trkpt lat="45.86434" lon="7.15737">
        <ele>2264</ele>
        <time>2019-04-18T17:07:16Z</time>
      </trkpt>
      <trkpt lat="45.86477" lon="7.15777">
        <ele>2263</ele>
        <time>2019-04-18T17:08:16Z</time>
      </trkpt>
      <trkpt lat="45.86505" lon="7.15798">
        <ele>2263</ele>
        <time>2019-04-18T17:09:16Z</time>
      </trkpt>
      <trkpt lat="45.86537" lon="7.15814">
        <ele>2264</ele>
        <time>2019-04-18T17:10:16Z</time>
      </trkpt>
      <trkpt lat="45.86546" lon="7.15822">
        <ele>2263</ele>
        <time>2019-04-18T17:11:16Z</time>
      </trkpt>
      <trkpt lat="45.8655" lon="7.1583">
        <ele>2263</ele>
        <time>2019-04-18T17:12:16Z</time>
      </trkpt>
      <trkpt lat="45.86552" lon="7.15843">
        <ele>2261</ele>
        <time>2019-04-18T17:13:16Z</time>
      </trkpt>
      <trkpt lat="45.86537" lon="7.15913">
        <ele>2253</ele>
        <time>2019-04-18T17:14:16Z</time>
      </trkpt>
      <trkpt lat="45.86526" lon="7.15923">
        <ele>2251</ele>
        <time>2019-04-18T17:15:16Z</time>
      </trkpt>
      <trkpt lat="45.86514" lon="7.15925">
        <ele>2249</ele>
        <time>2019-04-18T17:16:16Z</time>
      </trkpt>
      <trkpt lat="45.86477" lon="7.15925">
        <ele>2246</ele>
        <time>2019-04-18T17:17:16Z</time>
      </trkpt>
      <trkpt lat="45.86455" lon="7.15922">
        <ele>2245</ele>
        <time>2019-04-18T17:18:16Z</time>
      </trkpt>
      <trkpt lat="45.86422" lon="7.15914">
        <ele>2243</ele>
        <time>2019-04-18T17:19:16Z</time>
      </trkpt>
      <trkpt lat="45.86414" lon="7.15916">
        <ele>2242</ele>
        <time>2019-04-18T17:20:16Z</time>
      </trkpt>
      <trkpt lat="45.86398" lon="7.15933">
        <ele>2239</ele>
        <time>2019-04-18T17:21:16Z</time>
      </trkpt>
      <trkpt lat="45.86387" lon="7.15938">
        <ele>2238</ele>
        <time>2019-04-18T17:22:16Z</time>
      </trkpt>
      <trkpt lat="45.86342" lon="7.15942">
        <ele>2232</ele>
        <time>2019-04-18T17:23:16Z</time>
      </trkpt>
      <trkpt lat="45.86313" lon="7.15948">
        <ele>2228</ele>
        <time>2019-04-18T17:24:16Z</time>
      </trkpt>
      <trkpt lat="45.86309" lon="7.15952">
        <ele>2227</ele>
        <time>2019-04-18T17:25:16Z</time>
      </trkpt>
      <trkpt lat="45.86309" lon="7.1601">
        <ele>2229</ele>
        <time>2019-04-18T17:26:16Z</time>
      </trkpt>
      <trkpt lat="45.86307" lon="7.16022">
        <ele>2229</ele>
        <time>2019-04-18T17:27:16Z</time>
      </trkpt>
      <trkpt lat="45.86298" lon="7.16033">
        <ele>2229</ele>
        <time>2019-04-18T17:28:16Z</time>
      </trkpt>
      <trkpt lat="45.86285" lon="7.16045">
        <ele>2228</ele>
        <time>2019-04-18T17:29:16Z</time>
      </trkpt>
      <trkpt lat="45.86259" lon="7.16075">
        <ele>2227</ele>
        <time>2019-04-18T17:30:16Z</time>
      </trkpt>
      <trkpt lat="45.8625" lon="7.16082">
        <ele>2227</ele>
        <time>2019-04-18T17:31:16Z</time>
      </trkpt>
      <trkpt lat="45.86206" lon="7.16088">
        <ele>2222</ele>
        <time>2019-04-18T17:32:16Z</time>
      </trkpt>
      <trkpt lat="45.86194" lon="7.16085">
        <ele>2220</ele>
        <time>2019-04-18T17:33:16Z</time>
      </trkpt>
      <trkpt lat="45.86163" lon="7.16059">
        <ele>2214</ele>
        <time>2019-04-18T17:34:16Z</time>
      </trkpt>
      <trkpt lat="45.86146" lon="7.16051">
        <ele>2210</ele>
        <time>2019-04-18T17:35:16Z</time>
      </trkpt>
      <trkpt lat="45.86129" lon="7.16045">
        <ele>2206</ele>
        <time>2019-04-18T17:36:16Z</time>
      </trkpt>
      <trkpt lat="45.86121" lon="7.16036">
        <ele>2204</ele>
        <time>2019-04-18T17:37:16Z</time>
      </trkpt>
      <trkpt lat="45.86118" lon="7.16028">
        <ele>2203</ele>
        <time>2019-04-18T17:38:16Z</time>
      </trkpt>
      <trkpt lat="45.86119" lon="7.16009">
        <ele>2202</ele>
        <time>2019-04-18T17:39:16Z</time>
      </trkpt>
      <trkpt lat="45.86123" lon="7.15998">
        <ele>2202</ele>
        <time>2019-04-18T17:40:16Z</time>
      </trkpt>
      <trkpt lat="45.86172" lon="7.15932">
        <ele>2207</ele>
        <time>2019-04-18T17:41:16Z</time>
      </trkpt>
      <trkpt lat="45.86173" lon="7.15921">
        <ele>2206</ele>
        <time>2019-04-18T17:42:16Z</time>
      </trkpt>
      <trkpt lat="45.86165" lon="7.15895">
        <ele>2206</ele>
        <time>2019-04-18T17:43:16Z</time>
      </trkpt>
      <trkpt lat="45.86161" lon="7.15891">
        <ele>2205</ele>
        <time>2019-04-18T17:44:16Z</time>
      </trkpt>
      <trkpt lat="45.86135" lon="7.15889">
        <ele>2201</ele>
        <time>2019-04-18T17:45:16Z</time>
      </trkpt>
      <trkpt lat="45.86115" lon="7.15874">
        <ele>2199</ele>
        <time>2019-04-18T17:46:16Z</time>
      </trkpt>
      <trkpt lat="45.86083" lon="7.15874">
        <ele>2194</ele>
        <time>2019-04-18T17:47:16Z</time>
      </trkpt>
      <trkpt lat="45.86075" lon="7.15867">
        <ele>2192</ele>
        <time>2019-04-18T17:48:16Z</time>
      </trkpt>
      <trkpt lat="45.86051" lon="7.15835">
        <ele>2187</ele>
        <time>2019-04-18T17:49:16Z</time>
      </trkpt>
      <trkpt lat="45.86045" lon="7.15824">
        <ele>2183</ele>
        <time>2019-04-18T17:50:16Z</time>
      </trkpt>
      <trkpt lat="45.86043" lon="7.15811">
        <ele>2179</ele>
        <time>2019-04-18T17:51:16Z</time>
      </trkpt>
      <trkpt lat="45.86047" lon="7.15797">
        <ele>2177</ele>
        <time>2019-04-18T17:52:16Z</time>
      </trkpt>
      <trkpt lat="45.86055" lon="7.15784">
        <ele>2176</ele>
        <time>2019-04-18T17:53:16Z</time>
      </trkpt>
      <trkpt lat="45.86079" lon="7.15761">
        <ele>2180</ele>
        <time>2019-04-18T17:54:16Z</time>
      </trkpt>
      <trkpt lat="45.86116" lon="7.1573">
        <ele>2185</ele>
        <time>2019-04-18T17:55:16Z</time>
      </trkpt>
      <trkpt lat="45.86122" lon="7.15718">
        <ele>2184</ele>
        <time>2019-04-18T17:56:16Z</time>
      </trkpt>
      <trkpt lat="45.86137" lon="7.15653">
        <ele>2179</ele>
        <time>2019-04-18T17:57:16Z</time>
      </trkpt>
      <trkpt lat="45.86142" lon="7.15626">
        <ele>2182</ele>
        <time>2019-04-18T17:58:16Z</time>
      </trkpt>
      <trkpt lat="45.86141" lon="7.15607">
        <ele>2182</ele>
        <time>2019-04-18T17:59:16Z</time>
      </trkpt>
      <trkpt lat="45.86135" lon="7.15591">
        <ele>2180</ele>
        <time>2019-04-18T18:00:16Z</time>
      </trkpt>
      <trkpt lat="45.86129" lon="7.15581">
        <ele>2178</ele>
        <time>2019-04-18T18:01:16Z</time>
      </trkpt>
      <trkpt lat="45.86115" lon="7.15571">
        <ele>2175</ele>
        <time>2019-04-18T18:02:16Z</time>
      </trkpt>
      <trkpt lat="45.86106" lon="7.15562">
        <ele>2173</ele>
        <time>2019-04-18T18:03:16Z</time>
      </trkpt>
      <trkpt lat="45.86095" lon="7.15545">
        <ele>2174</ele>
        <time>2019-04-18T18:04:16Z</time>
      </trkpt>
      <trkpt lat="45.86062" lon="7.15521">
        <ele>2169</ele>
        <time>2019-04-18T18:05:16Z</time>
      </trkpt>
      <trkpt lat="45.86037" lon="7.15508">
        <ele>2164</ele>
        <time>2019-04-18T18:06:16Z</time>
      </trkpt>
      <trkpt lat="45.86012" lon="7.15499">
        <ele>2158</ele>
        <time>2019-04-18T18:07:16Z</time>
      </trkpt>
      <trkpt lat="45.85994" lon="7.15487">
        <ele>2156</ele>
        <time>2019-04-18T18:08:16Z</time>
      </trkpt>
      <trkpt lat="45.85971" lon="7.15456">
        <ele>2156</ele>
        <time>2019-04-18T18:09:16Z</time>
      </trkpt>
      <trkpt lat="45.85919" lon="7.15424">
        <ele>2138</ele>
        <time>2019-04-18T18:10:16Z</time>
      </trkpt>
      <trkpt lat="45.85906" lon="7.1541">
        <ele>2136</ele>
        <time>2019-04-18T18:11:16Z</time>
      </trkpt>
      <trkpt lat="45.85895" lon="7.15388">
        <ele>2140</ele>
        <time>2019-04-18T18:12:16Z</time>
      </trkpt>
      <trkpt lat="45.85885" lon="7.15359">
        <ele>2146</ele>
        <time>2019-04-18T18:13:16Z</time>
      </trkpt>
      <trkpt lat="45.85874" lon="7.15343">
        <ele>2143</ele>
        <time>2019-04-18T18:14:16Z</time>
      </trkpt>
      <trkpt lat="45.8586" lon="7.15328">
        <ele>2135</ele>
        <time>2019-04-18T18:15:16Z</time>
      </trkpt>
      <trkpt lat="45.85853" lon="7.15318">
        <ele>2130</ele>
        <time>2019-04-18T18:16:16Z</time>
      </trkpt>
      <trkpt lat="45.85849" lon="7.15304">
        <ele>2130</ele>
        <time>2019-04-18T18:17:16Z</time>
      </trkpt>
      <trkpt lat="45.85846" lon="7.15277">
        <ele>2133</ele>
        <time>2019-04-18T18:18:16Z</time>
      </trkpt>
      <trkpt lat="45.85852" lon="7.1521">
        <ele>2148</ele>
        <time>2019-04-18T18:19:16Z</time>
      </trkpt>
      <trkpt lat="45.85851" lon="7.15195">
        <ele>2148</ele>
        <time>2019-04-18T18:20:16Z</time>
      </trkpt>
      <trkpt lat="45.85837" lon="7.15145">
        <ele>2135</ele>
        <time>2019-04-18T18:21:16Z</time>
      </trkpt>
      <trkpt lat="45.85814" lon="7.14946">
        <ele>2115</ele>
        <time>2019-04-18T18:22:16Z</time>
      </trkpt>
      <trkpt lat="45.85813" lon="7.14904">
        <ele>2117</ele>
        <time>2019-04-18T18:23:16Z</time>
      </trkpt>
      <trkpt lat="45.85776" lon="7.14686">
        <ele>2108</ele>
        <time>2019-04-18T18:24:16Z</time>
      </trkpt>
      <trkpt lat="45.85771" lon="7.14667">
        <ele>2107</ele>
        <time>2019-04-18T18:25:16Z</time>
      </trkpt>
      <trkpt lat="45.85765" lon="7.14653">
        <ele>2106</ele>
        <time>2019-04-18T18:26:16Z</time>
      </trkpt>
      <trkpt lat="45.85756" lon="7.14639">
        <ele>2103</ele>
        <time>2019-04-18T18:27:16Z</time>
      </trkpt>
      <trkpt lat="45.85719" lon="7.14584">
        <ele>2094</ele>
        <time>2019-04-18T18:28:16Z</time>
      </trkpt>
      <trkpt lat="45.85701" lon="7.14534">
        <ele>2101</ele>
        <time>2019-04-18T18:29:16Z</time>
      </trkpt>
      <trkpt lat="45.85691" lon="7.1452">
        <ele>2101</ele>
        <time>2019-04-18T18:30:16Z</time>
      </trkpt>
      <trkpt lat="45.85613" lon="7.1449">
        <ele>2084</ele>
        <time>2019-04-18T18:31:16Z</time>
      </trkpt>
      <trkpt lat="45.85588" lon="7.1447">
        <ele>2083</ele>
        <time>2019-04-18T18:32:16Z</time>
      </trkpt>
      <trkpt lat="45.85581" lon="7.14466">
        <ele>2082</ele>
        <time>2019-04-18T18:33:16Z</time>
      </trkpt>
      <trkpt lat="45.85564" lon="7.14462">
        <ele>2081</ele>
        <time>2019-04-18T18:34:16Z</time>
      </trkpt>
      <trkpt lat="45.85555" lon="7.14455">
        <ele>2081</ele>
        <time>2019-04-18T18:35:16Z</time>
      </trkpt>
      <trkpt lat="45.85543" lon="7.1444">
        <ele>2084</ele>
        <time>2019-04-18T18:36:16Z</time>
      </trkpt>
      <trkpt lat="45.85537" lon="7.14438">
        <ele>2083</ele>
        <time>2019-04-18T18:37:16Z</time>
      </trkpt>
      <trkpt lat="45.85533" lon="7.1444">
        <ele>2082</ele>
        <time>2019-04-18T18:38:16Z</time>
      </trkpt>
      <trkpt lat="45.85528" lon="7.14446">
        <ele>2079</ele>
        <time>2019-04-18T18:39:16Z</time>
      </trkpt>
      <trkpt lat="45.85527" lon="7.14452">
        <ele>2078</ele>
        <time>2019-04-18T18:40:16Z</time>
      </trkpt>
      <trkpt lat="45.85529" lon="7.14459">
        <ele>2076</ele>
        <time>2019-04-18T18:41:16Z</time>
      </trkpt>
      <trkpt lat="45.85535" lon="7.14465">
        <ele>2075</ele>
        <time>2019-04-18T18:42:16Z</time>
      </trkpt>
      <trkpt lat="45.85554" lon="7.14474">
        <ele>2075</ele>
        <time>2019-04-18T18:43:16Z</time>
      </trkpt>
      <trkpt lat="45.85575" lon="7.14488">
        <ele>2074</ele>
        <time>2019-04-18T18:44:16Z</time>
      </trkpt>
      <trkpt lat="45.85596" lon="7.14512">
        <ele>2072</ele>
        <time>2019-04-18T18:45:16Z</time>
      </trkpt>
      <trkpt lat="45.85615" lon="7.1453">
        <ele>2072</ele>
        <time>2019-04-18T18:46:16Z</time>
      </trkpt>
      <trkpt lat="45.85637" lon="7.14545">
        <ele>2075</ele>
        <time>2019-04-18T18:47:16Z</time>
      </trkpt>
      <trkpt lat="45.85647" lon="7.14557">
        <ele>2074</ele>
        <time>2019-04-18T18:48:16Z</time>
      </trkpt>
      <trkpt lat="45.85654" lon="7.14569">
        <ele>2073</ele>
        <time>2019-04-18T18:49:16Z</time>
      </trkpt>
      <trkpt lat="45.85666" lon="7.14596">
        <ele>2069</ele>
        <time>2019-04-18T18:50:16Z</time>
      </trkpt>
      <trkpt lat="45.85669" lon="7.14609">
        <ele>2068</ele>
        <time>2019-04-18T18:51:16Z</time>
      </trkpt>
      <trkpt lat="45.85673" lon="7.14655">
        <ele>2060</ele>
        <time>2019-04-18T18:52:16Z</time>
      </trkpt>
      <trkpt lat="45.85701" lon="7.1478">
        <ele>2055</ele>
        <time>2019-04-18T18:53:16Z</time>
      </trkpt>
      <trkpt lat="45.85702" lon="7.14795">
        <ele>2053</ele>
        <time>2019-04-18T18:54:16Z</time>
      </trkpt>
      <trkpt lat="45.85698" lon="7.14864">
        <ele>2042</ele>
        <time>2019-04-18T18:55:16Z</time>
      </trkpt>
      <trkpt lat="45.85698" lon="7.14884">
        <ele>2040</ele>
        <time>2019-04-18T18:56:16Z</time>
      </trkpt>
      <trkpt lat="45.85713" lon="7.15009">
        <ele>2037</ele>
        <time>2019-04-18T18:57:16Z</time>
      </trkpt>
      <trkpt lat="45.85707" lon="7.15059">
        <ele>2031</ele>
        <time>2019-04-18T18:58:16Z</time>
      </trkpt>
      <trkpt lat="45.85706" lon="7.15079">
        <ele>2029</ele>
        <time>2019-04-18T18:59:16Z</time>
      </trkpt>
      <trkpt lat="45.8571" lon="7.15117">
        <ele>2031</ele>
        <time>2019-04-18T19:00:16Z</time>
      </trkpt>
      <trkpt lat="45.85707" lon="7.15166">
        <ele>2028</ele>
        <time>2019-04-18T19:01:16Z</time>
      </trkpt>
      <trkpt lat="45.85689" lon="7.15265">
        <ele>2015</ele>
        <time>2019-04-18T19:02:16Z</time>
      </trkpt>
      <trkpt lat="45.85688" lon="7.15292">
        <ele>2011</ele>
        <time>2019-04-18T19:03:16Z</time>
      </trkpt>
      <trkpt lat="45.85691" lon="7.15307">
        <ele>2011</ele>
        <time>2019-04-18T19:04:16Z</time>
      </trkpt>
      <trkpt lat="45.85696" lon="7.15321">
        <ele>2012</ele>
        <time>2019-04-18T19:05:16Z</time>
      </trkpt>
      <trkpt lat="45.85706" lon="7.15337">
        <ele>2015</ele>
        <time>2019-04-18T19:06:16Z</time>
      </trkpt>
      <trkpt lat="45.85717" lon="7.15366">
        <ele>2018</ele>
        <time>2019-04-18T19:07:16Z</time>
      </trkpt>
      <trkpt lat="45.8572" lon="7.15384">
        <ele>2018</ele>
        <time>2019-04-18T19:08:16Z</time>
      </trkpt>
      <trkpt lat="45.85722" lon="7.15432">
        <ele>2013</ele>
        <time>2019-04-18T19:09:16Z</time>
      </trkpt>
      <trkpt lat="45.8572" lon="7.15471">
        <ele>2004</ele>
        <time>2019-04-18T19:10:16Z</time>
      </trkpt>
      <trkpt lat="45.85719" lon="7.15478">
        <ele>2002</ele>
        <time>2019-04-18T19:11:16Z</time>
      </trkpt>
      <trkpt lat="45.85714" lon="7.15482">
        <ele>1998</ele>
        <time>2019-04-18T19:12:16Z</time>
      </trkpt>
      <trkpt lat="45.85709" lon="7.15482">
        <ele>1995</ele>
        <time>2019-04-18T19:13:16Z</time>
      </trkpt>
      <trkpt lat="45.85705" lon="7.15477">
        <ele>1993</ele>
        <time>2019-04-18T19:14:16Z</time>
      </trkpt>
      <trkpt lat="45.85704" lon="7.15466">
        <ele>1995</ele>
        <time>2019-04-18T19:15:16Z</time>
      </trkpt>
      <trkpt lat="45.85708" lon="7.15421">
        <ele>2006</ele>
        <time>2019-04-18T19:16:16Z</time>
      </trkpt>
      <trkpt lat="45.85703" lon="7.15402">
        <ele>2005</ele>
        <time>2019-04-18T19:17:16Z</time>
      </trkpt>
      <trkpt lat="45.85684" lon="7.15356">
        <ele>2000</ele>
        <time>2019-04-18T19:18:16Z</time>
      </trkpt>
      <trkpt lat="45.85668" lon="7.15333">
        <ele>1995</ele>
        <time>2019-04-18T19:19:16Z</time>
      </trkpt>
      <trkpt lat="45.85658" lon="7.15314">
        <ele>1991</ele>
        <time>2019-04-18T19:20:16Z</time>
      </trkpt>
      <trkpt lat="45.85654" lon="7.15298">
        <ele>1991</ele>
        <time>2019-04-18T19:21:16Z</time>
      </trkpt>
      <trkpt lat="45.85653" lon="7.15262">
        <ele>1994</ele>
        <time>2019-04-18T19:22:16Z</time>
      </trkpt>
      <trkpt lat="45.85655" lon="7.15147">
        <ele>1994</ele>
        <time>2019-04-18T19:23:16Z</time>
      </trkpt>
      <trkpt lat="45.8565" lon="7.15119">
        <ele>1994</ele>
        <time>2019-04-18T19:24:16Z</time>
      </trkpt>
      <trkpt lat="45.8563" lon="7.15051">
        <ele>1992</ele>
        <time>2019-04-18T19:25:16Z</time>
      </trkpt>
      <trkpt lat="45.85624" lon="7.15047">
        <ele>1991</ele>
        <time>2019-04-18T19:26:16Z</time>
      </trkpt>
      <trkpt lat="45.85613" lon="7.15051">
        <ele>1986</ele>
        <time>2019-04-18T19:27:16Z</time>
      </trkpt>
      <trkpt lat="45.85589" lon="7.15116">
        <ele>1971</ele>
        <time>2019-04-18T19:28:16Z</time>
      </trkpt>
      <trkpt lat="45.8558" lon="7.15131">
        <ele>1967</ele>
        <time>2019-04-18T19:29:16Z</time>
      </trkpt>
      <trkpt lat="45.85571" lon="7.15134">
        <ele>1965</ele>
        <time>2019-04-18T19:30:16Z</time>
      </trkpt>
      <trkpt lat="45.85561" lon="7.15128">
        <ele>1964</ele>
        <time>2019-04-18T19:31:16Z</time>
      </trkpt>
      <trkpt lat="45.85526" lon="7.15091">
        <ele>1962</ele>
        <time>2019-04-18T19:32:16Z</time>
      </trkpt>
      <trkpt lat="45.85504" lon="7.15071">
        <ele>1962</ele>
        <time>2019-04-18T19:33:16Z</time>
      </trkpt>
      <trkpt lat="45.85483" lon="7.15061">
        <ele>1965</ele>
        <time>2019-04-18T19:34:16Z</time>
      </trkpt>
      <trkpt lat="45.85459" lon="7.15045">
        <ele>1971</ele>
        <time>2019-04-18T19:35:16Z</time>
      </trkpt>
      <trkpt lat="45.85452" lon="7.15043">
        <ele>1972</ele>
        <time>2019-04-18T19:36:16Z</time>
      </trkpt>
      <trkpt lat="45.85447" lon="7.15044">
        <ele>1972</ele>
        <time>2019-04-18T19:37:16Z</time>
      </trkpt>
      <trkpt lat="45.85439" lon="7.15049">
        <ele>1972</ele>
        <time>2019-04-18T19:38:16Z</time>
      </trkpt>
      <trkpt lat="45.85434" lon="7.1506">
        <ele>1969</ele>
        <time>2019-04-18T19:39:16Z</time>
      </trkpt>
      <trkpt lat="45.85429" lon="7.15083">
        <ele>1964</ele>
        <time>2019-04-18T19:40:16Z</time>
      </trkpt>
      <trkpt lat="45.85404" lon="7.15137">
        <ele>1955</ele>
        <time>2019-04-18T19:41:16Z</time>
      </trkpt>
      <trkpt lat="45.85376" lon="7.15183">
        <ele>1951</ele>
        <time>2019-04-18T19:42:16Z</time>
      </trkpt>
      <trkpt lat="45.85354" lon="7.15216">
        <ele>1945</ele>
        <time>2019-04-18T19:43:16Z</time>
      </trkpt>
      <trkpt lat="45.85343" lon="7.15227">
        <ele>1944</ele>
        <time>2019-04-18T19:44:16Z</time>
      </trkpt>
      <trkpt lat="45.85331" lon="7.15236">
        <ele>1943</ele>
        <time>2019-04-18T19:45:16Z</time>
      </trkpt>
      <trkpt lat="45.8532" lon="7.1524">
        <ele>1943</ele>
        <time>2019-04-18T19:46:16Z</time>
      </trkpt>
      <trkpt lat="45.85272" lon="7.15237">
        <ele>1952</ele>
        <time>2019-04-18T19:47:16Z</time>
      </trkpt>
      <trkpt lat="45.85257" lon="7.15247">
        <ele>1951</ele>
        <time>2019-04-18T19:48:16Z</time>
      </trkpt>
      <trkpt lat="45.85248" lon="7.15262">
        <ele>1949</ele>
        <time>2019-04-18T19:49:16Z</time>
      </trkpt>
      <trkpt lat="45.85245" lon="7.1528">
        <ele>1947</ele>
        <time>2019-04-18T19:50:16Z</time>
      </trkpt>
      <trkpt lat="45.85256" lon="7.15315">
        <ele>1936</ele>
        <time>2019-04-18T19:51:16Z</time>
      </trkpt>
      <trkpt lat="45.85255" lon="7.15333">
        <ele>1932</ele>
        <time>2019-04-18T19:52:16Z</time>
      </trkpt>
      <trkpt lat="45.85252" lon="7.15344">
        <ele>1930</ele>
        <time>2019-04-18T19:53:16Z</time>
      </trkpt>
      <trkpt lat="45.85243" lon="7.15358">
        <ele>1931</ele>
        <time>2019-04-18T19:54:16Z</time>
      </trkpt>
      <trkpt lat="45.85222" lon="7.15372">
        <ele>1938</ele>
        <time>2019-04-18T19:55:16Z</time>
      </trkpt>
      <trkpt lat="45.85214" lon="7.15383">
        <ele>1939</ele>
        <time>2019-04-18T19:56:16Z</time>
      </trkpt>
      <trkpt lat="45.85208" lon="7.15399">
        <ele>1938</ele>
        <time>2019-04-18T19:57:16Z</time>
      </trkpt>
      <trkpt lat="45.85198" lon="7.15445">
        <ele>1932</ele>
        <time>2019-04-18T19:58:16Z</time>
      </trkpt>
      <trkpt lat="45.85192" lon="7.1546">
        <ele>1931</ele>
        <time>2019-04-18T19:59:16Z</time>
      </trkpt>
      <trkpt lat="45.85161" lon="7.15531">
        <ele>1927</ele>
        <time>2019-04-18T20:00:16Z</time>
      </trkpt>
      <trkpt lat="45.85139" lon="7.15564">
        <ele>1927</ele>
        <time>2019-04-18T20:01:16Z</time>
      </trkpt>
      <trkpt lat="45.85125" lon="7.15591">
        <ele>1926</ele>
        <time>2019-04-18T20:02:16Z</time>
      </trkpt>
      <trkpt lat="45.8511" lon="7.15623">
        <ele>1923</ele>
        <time>2019-04-18T20:03:16Z</time>
      </trkpt>
      <trkpt lat="45.85085" lon="7.15657">
        <ele>1924</ele>
        <time>2019-04-18T20:04:16Z</time>
      </trkpt>
      <trkpt lat="45.85073" lon="7.15676">
        <ele>1926</ele>
        <time>2019-04-18T20:05:16Z</time>
      </trkpt>
      <trkpt lat="45.85054" lon="7.15732">
        <ele>1923</ele>
        <time>2019-04-18T20:06:16Z</time>
      </trkpt>
      <trkpt lat="45.8505" lon="7.15746">
        <ele>1921</ele>
        <time>2019-04-18T20:07:16Z</time>
      </trkpt>
      <trkpt lat="45.85044" lon="7.15807">
        <ele>1911</ele>
        <time>2019-04-18T20:08:16Z</time>
      </trkpt>
      <trkpt lat="45.85035" lon="7.15846">
        <ele>1909</ele>
        <time>2019-04-18T20:09:16Z</time>
      </trkpt>
      <trkpt lat="45.85033" lon="7.1586">
        <ele>1907</ele>
        <time>2019-04-18T20:10:16Z</time>
      </trkpt>
      <trkpt lat="45.85032" lon="7.15879">
        <ele>1905</ele>
        <time>2019-04-18T20:11:16Z</time>
      </trkpt>
      <trkpt lat="45.85029" lon="7.15896">
        <ele>1904</ele>
        <time>2019-04-18T20:12:16Z</time>
      </trkpt>
      <trkpt lat="45.84999" lon="7.15966">
        <ele>1907</ele>
        <time>2019-04-18T20:13:16Z</time>
      </trkpt>
      <trkpt lat="45.84993" lon="7.15995">
        <ele>1904</ele>
        <time>2019-04-18T20:14:16Z</time>
      </trkpt>
      <trkpt lat="45.84989" lon="7.16021">
        <ele>1899</ele>
        <time>2019-04-18T20:15:16Z</time>
      </trkpt>
      <trkpt lat="45.84974" lon="7.16058">
        <ele>1895</ele>
        <time>2019-04-18T20:16:16Z</time>
      </trkpt>
      <trkpt lat="45.84965" lon="7.16071">
        <ele>1894</ele>
        <time>2019-04-18T20:17:16Z</time>
      </trkpt>
      <trkpt lat="45.84947" lon="7.16086">
        <ele>1897</ele>
        <time>2019-04-18T20:18:16Z</time>
      </trkpt>
      <trkpt lat="45.84922" lon="7.16115">
        <ele>1898</ele>
        <time>2019-04-18T20:19:16Z</time>
      </trkpt>
      <trkpt lat="45.84903" lon="7.16143">
        <ele>1900</ele>
        <time>2019-04-18T20:20:16Z</time>
      </trkpt>
      <trkpt lat="45.84889" lon="7.16197">
        <ele>1895</ele>
        <time>2019-04-18T20:21:16Z</time>
      </trkpt>
      <trkpt lat="45.8486" lon="7.16274">
        <ele>1890</ele>
        <time>2019-04-18T20:22:16Z</time>
      </trkpt>
      <trkpt lat="45.84852" lon="7.16288">
        <ele>1890</ele>
        <time>2019-04-18T20:23:16Z</time>
      </trkpt>
      <trkpt lat="45.84838" lon="7.16306">
        <ele>1892</ele>
        <time>2019-04-18T20:24:16Z</time>
      </trkpt>
      <trkpt lat="45.84834" lon="7.16315">
        <ele>1892</ele>
        <time>2019-04-18T20:25:16Z</time>
      </trkpt>
      <trkpt lat="45.84826" lon="7.16351">
        <ele>1887</ele>
        <time>2019-04-18T20:26:16Z</time>
      </trkpt>
      <trkpt lat="45.84819" lon="7.16373">
        <ele>1886</ele>
        <time>2019-04-18T20:27:16Z</time>
      </trkpt>
      <trkpt lat="45.84792" lon="7.16436">
        <ele>1884</ele>
        <time>2019-04-18T20:28:16Z</time>
      </trkpt>
      <trkpt lat="45.84786" lon="7.16459">
        <ele>1879</ele>
        <time>2019-04-18T20:29:16Z</time>
      </trkpt>
      <trkpt lat="45.84777" lon="7.1648">
        <ele>1877</ele>
        <time>2019-04-18T20:30:16Z</time>
      </trkpt>
      <trkpt lat="45.84742" lon="7.1653">
        <ele>1881</ele>
        <time>2019-04-18T20:31:16Z</time>
      </trkpt>
      <trkpt lat="45.84739" lon="7.16542">
        <ele>1880</ele>
        <time>2019-04-18T20:32:16Z</time>
      </trkpt>
      <trkpt lat="45.84739" lon="7.16556">
        <ele>1877</ele>
        <time>2019-04-18T20:33:16Z</time>
      </trkpt>
      <trkpt lat="45.84744" lon="7.16579">
        <ele>1870</ele>
        <time>2019-04-18T20:34:16Z</time>
      </trkpt>
      <trkpt lat="45.84742" lon="7.16601">
        <ele>1867</ele>
        <time>2019-04-18T20:35:16Z</time>
      </trkpt>
      <trkpt lat="45.84736" lon="7.16637">
        <ele>1866</ele>
        <time>2019-04-18T20:36:16Z</time>
      </trkpt>
      <trkpt lat="45.84734" lon="7.16698">
        <ele>1859</ele>
        <time>2019-04-18T20:37:16Z</time>
      </trkpt>
      <trkpt lat="45.8473" lon="7.1672">
        <ele>1858</ele>
        <time>2019-04-18T20:38:16Z</time>
      </trkpt>
      <trkpt lat="45.84723" lon="7.16743">
        <ele>1858</ele>
        <time>2019-04-18T20:39:16Z</time>
      </trkpt>
      <trkpt lat="45.84713" lon="7.16766">
        <ele>1857</ele>
        <time>2019-04-18T20:40:16Z</time>
      </trkpt>
      <trkpt lat="45.84685" lon="7.16806">
        <ele>1860</ele>
        <time>2019-04-18T20:41:16Z</time>
      </trkpt>
      <trkpt lat="45.84675" lon="7.16836">
        <ele>1857</ele>
        <time>2019-04-18T20:42:16Z</time>
      </trkpt>
      <trkpt lat="45.84654" lon="7.16877">
        <ele>1857</ele>
        <time>2019-04-18T20:43:16Z</time>
      </trkpt>
      <trkpt lat="45.8463" lon="7.16949">
        <ele>1853</ele>
        <time>2019-04-18T20:44:16Z</time>
      </trkpt>
      <trkpt lat="45.84624" lon="7.16974">
        <ele>1851</ele>
        <time>2019-04-18T20:45:16Z</time>
      </trkpt>
      <trkpt lat="45.8462" lon="7.16994">
        <ele>1848</ele>
        <time>2019-04-18T20:46:16Z</time>
      </trkpt>
      <trkpt lat="45.84619" lon="7.17018">
        <ele>1843</ele>
        <time>2019-04-18T20:47:16Z</time>
      </trkpt>
      <trkpt lat="45.84616" lon="7.17031">
        <ele>1841</ele>
        <time>2019-04-18T20:48:16Z</time>
      </trkpt>
      <trkpt lat="45.84612" lon="7.17043">
        <ele>1840</ele>
        <time>2019-04-18T20:49:16Z</time>
      </trkpt>
      <trkpt lat="45.8459" lon="7.17074">
        <ele>1844</ele>
        <time>2019-04-18T20:50:16Z</time>
      </trkpt>
      <trkpt lat="45.84577" lon="7.17112">
        <ele>1838</ele>
        <time>2019-04-18T20:51:16Z</time>
      </trkpt>
      <trkpt lat="45.84554" lon="7.17161">
        <ele>1832</ele>
        <time>2019-04-18T20:52:16Z</time>
      </trkpt>
      <trkpt lat="45.84544" lon="7.17179">
        <ele>1832</ele>
        <time>2019-04-18T20:53:16Z</time>
      </trkpt>
      <trkpt lat="45.84522" lon="7.17208">
        <ele>1833</ele>
        <time>2019-04-18T20:54:16Z</time>
      </trkpt>
      <trkpt lat="45.84508" lon="7.17231">
        <ele>1833</ele>
        <time>2019-04-18T20:55:16Z</time>
      </trkpt>
      <trkpt lat="45.84496" lon="7.17262">
        <ele>1830</ele>
        <time>2019-04-18T20:56:16Z</time>
      </trkpt>
      <trkpt lat="45.8446" lon="7.17337">
        <ele>1826</ele>
        <time>2019-04-18T20:57:16Z</time>
      </trkpt>
      <trkpt lat="45.84432" lon="7.17413">
        <ele>1818</ele>
        <time>2019-04-18T20:58:16Z</time>
      </trkpt>
      <trkpt lat="45.84421" lon="7.17431">
        <ele>1817</ele>
        <time>2019-04-18T20:59:16Z</time>
      </trkpt>
      <trkpt lat="45.84409" lon="7.17444">
        <ele>1818</ele>
        <time>2019-04-18T21:00:16Z</time>
      </trkpt>
      <trkpt lat="45.84387" lon="7.17476">
        <ele>1815</ele>
        <time>2019-04-18T21:01:16Z</time>
      </trkpt>
      <trkpt lat="45.84373" lon="7.17512">
        <ele>1810</ele>
        <time>2019-04-18T21:02:16Z</time>
      </trkpt>
      <trkpt lat="45.84346" lon="7.17545">
        <ele>1810</ele>
        <time>2019-04-18T21:03:16Z</time>
      </trkpt>
      <trkpt lat="45.84336" lon="7.17568">
        <ele>1808</ele>
        <time>2019-04-18T21:04:16Z</time>
      </trkpt>
      <trkpt lat="45.84317" lon="7.17594">
        <ele>1806</ele>
        <time>2019-04-18T21:05:16Z</time>
      </trkpt>
      <trkpt lat="45.84296" lon="7.17619">
        <ele>1803</ele>
        <time>2019-04-18T21:06:16Z</time>
      </trkpt>
      <trkpt lat="45.84258" lon="7.17655">
        <ele>1801</ele>
        <time>2019-04-18T21:07:16Z</time>
      </trkpt>
      <trkpt lat="45.84195" lon="7.17722">
        <ele>1792</ele>
        <time>2019-04-18T21:08:16Z</time>
      </trkpt>
      <trkpt lat="45.84178" lon="7.17737">
        <ele>1790</ele>
        <time>2019-04-18T21:09:16Z</time>
      </trkpt>
      <trkpt lat="45.84157" lon="7.17761">
        <ele>1786</ele>
        <time>2019-04-18T21:10:16Z</time>
      </trkpt>
      <trkpt lat="45.84133" lon="7.17782">
        <ele>1783</ele>
        <time>2019-04-18T21:11:16Z</time>
      </trkpt>
      <trkpt lat="45.84116" lon="7.17787">
        <ele>1784</ele>
        <time>2019-04-18T21:12:16Z</time>
      </trkpt>
      <trkpt lat="45.84092" lon="7.17783">
        <ele>1789</ele>
        <time>2019-04-18T21:13:16Z</time>
      </trkpt>
      <trkpt lat="45.84084" lon="7.17791">
        <ele>1788</ele>
        <time>2019-04-18T21:14:16Z</time>
      </trkpt>
      <trkpt lat="45.84082" lon="7.17804">
        <ele>1784</ele>
        <time>2019-04-18T21:15:16Z</time>
      </trkpt>
      <trkpt lat="45.84086" lon="7.17812">
        <ele>1780</ele>
        <time>2019-04-18T21:16:16Z</time>
      </trkpt>
      <trkpt lat="45.84092" lon="7.17816">
        <ele>1778</ele>
        <time>2019-04-18T21:17:16Z</time>
      </trkpt>
      <trkpt lat="45.84106" lon="7.17813">
        <ele>1777</ele>
        <time>2019-04-18T21:18:16Z</time>
      </trkpt>
      <trkpt lat="45.84119" lon="7.17802">
        <ele>1779</ele>
        <time>2019-04-18T21:19:16Z</time>
      </trkpt>
      <trkpt lat="45.84136" lon="7.17796">
        <ele>1778</ele>
        <time>2019-04-18T21:20:16Z</time>
      </trkpt>
      <trkpt lat="45.84191" lon="7.17765">
        <ele>1777</ele>
        <time>2019-04-18T21:21:16Z</time>
      </trkpt>
      <trkpt lat="45.84246" lon="7.17743">
        <ele>1773</ele>
        <time>2019-04-18T21:22:16Z</time>
      </trkpt>
      <trkpt lat="45.84279" lon="7.17717">
        <ele>1772</ele>
        <time>2019-04-18T21:23:16Z</time>
      </trkpt>
      <trkpt lat="45.843" lon="7.17703">
        <ele>1770</ele>
        <time>2019-04-18T21:24:16Z</time>
      </trkpt>
      <trkpt lat="45.8435" lon="7.17695">
        <ele>1759</ele>
        <time>2019-04-18T21:25:16Z</time>
      </trkpt>
      <trkpt lat="45.84369" lon="7.17688">
        <ele>1756</ele>
        <time>2019-04-18T21:26:16Z</time>
      </trkpt>
      <trkpt lat="45.84386" lon="7.17675">
        <ele>1755</ele>
        <time>2019-04-18T21:27:16Z</time>
      </trkpt>
      <trkpt lat="45.84399" lon="7.17658">
        <ele>1755</ele>
        <time>2019-04-18T21:28:16Z</time>
      </trkpt>
      <trkpt lat="45.84426" lon="7.17631">
        <ele>1756</ele>
        <time>2019-04-18T21:29:16Z</time>
      </trkpt>
      <trkpt lat="45.84434" lon="7.17622">
        <ele>1756</ele>
        <time>2019-04-18T21:30:16Z</time>
      </trkpt>
      <trkpt lat="45.84444" lon="7.176">
        <ele>1758</ele>
        <time>2019-04-18T21:31:16Z</time>
      </trkpt>
      <trkpt lat="45.84457" lon="7.17586">
        <ele>1756</ele>
        <time>2019-04-18T21:32:16Z</time>
      </trkpt>
      <trkpt lat="45.84521" lon="7.17528">
        <ele>1749</ele>
        <time>2019-04-18T21:33:16Z</time>
      </trkpt>
      <trkpt lat="45.84534" lon="7.17526">
        <ele>1747</ele>
        <time>2019-04-18T21:34:16Z</time>
      </trkpt>
      <trkpt lat="45.84539" lon="7.1753">
        <ele>1745</ele>
        <time>2019-04-18T21:35:16Z</time>
      </trkpt>
      <trkpt lat="45.84566" lon="7.17563">
        <ele>1740</ele>
        <time>2019-04-18T21:36:16Z</time>
      </trkpt>
      <trkpt lat="45.84569" lon="7.17576">
        <ele>1741</ele>
        <time>2019-04-18T21:37:16Z</time>
      </trkpt>
      <trkpt lat="45.84569" lon="7.17585">
        <ele>1741</ele>
        <time>2019-04-18T21:38:16Z</time>
      </trkpt>
      <trkpt lat="45.84565" lon="7.17592">
        <ele>1743</ele>
        <time>2019-04-18T21:39:16Z</time>
      </trkpt>
      <trkpt lat="45.84559" lon="7.17598">
        <ele>1744</ele>
        <time>2019-04-18T21:40:16Z</time>
      </trkpt>
      <trkpt lat="45.8451" lon="7.17631">
        <ele>1743</ele>
        <time>2019-04-18T21:41:16Z</time>
      </trkpt>
      <trkpt lat="45.84494" lon="7.1765">
        <ele>1742</ele>
        <time>2019-04-18T21:42:16Z</time>
      </trkpt>
      <trkpt lat="45.84421" lon="7.17712">
        <ele>1740</ele>
        <time>2019-04-18T21:43:16Z</time>
      </trkpt>
      <trkpt lat="45.84378" lon="7.17762">
        <ele>1737</ele>
        <time>2019-04-18T21:44:16Z</time>
      </trkpt>
      <trkpt lat="45.84371" lon="7.17772">
        <ele>1738</ele>
        <time>2019-04-18T21:45:16Z</time>
      </trkpt>
      <trkpt lat="45.84351" lon="7.17819">
        <ele>1734</ele>
        <time>2019-04-18T21:46:16Z</time>
      </trkpt>
      <trkpt lat="45.84316" lon="7.17861">
        <ele>1730</ele>
        <time>2019-04-18T21:47:16Z</time>
      </trkpt>
      <trkpt lat="45.84308" lon="7.17873">
        <ele>1730</ele>
        <time>2019-04-18T21:48:16Z</time>
      </trkpt>
      <trkpt lat="45.84302" lon="7.17893">
        <ele>1729</ele>
        <time>2019-04-18T21:49:16Z</time>
      </trkpt>
      <trkpt lat="45.8429" lon="7.17947">
        <ele>1728</ele>
        <time>2019-04-18T21:50:16Z</time>
      </trkpt>
      <trkpt lat="45.84286" lon="7.17959">
        <ele>1727</ele>
        <time>2019-04-18T21:51:16Z</time>
      </trkpt>
      <trkpt lat="45.84278" lon="7.17972">
        <ele>1725</ele>
        <time>2019-04-18T21:52:16Z</time>
      </trkpt>
      <trkpt lat="45.8427" lon="7.17981">
        <ele>1723</ele>
        <time>2019-04-18T21:53:16Z</time>
      </trkpt>
      <trkpt lat="45.84258" lon="7.1799">
        <ele>1718</ele>
        <time>2019-04-18T21:54:16Z</time>
      </trkpt>
      <trkpt lat="45.84244" lon="7.17998">
        <ele>1714</ele>
        <time>2019-04-18T21:55:16Z</time>
      </trkpt>
      <trkpt lat="45.84205" lon="7.18007">
        <ele>1713</ele>
        <time>2019-04-18T21:56:16Z</time>
      </trkpt>
      <trkpt lat="45.84156" lon="7.18014">
        <ele>1711</ele>
        <time>2019-04-18T21:57:16Z</time>
      </trkpt>
      <trkpt lat="45.84123" lon="7.18025">
        <ele>1712</ele>
        <time>2019-04-18T21:58:16Z</time>
      </trkpt>
      <trkpt lat="45.84087" lon="7.18041">
        <ele>1711</ele>
        <time>2019-04-18T21:59:16Z</time>
      </trkpt>
      <trkpt lat="45.84072" lon="7.18052">
        <ele>1711</ele>
        <time>2019-04-18T22:00:16Z</time>
      </trkpt>
      <trkpt lat="45.84035" lon="7.18089">
        <ele>1707</ele>
        <time>2019-04-18T22:01:16Z</time>
      </trkpt>
      <trkpt lat="45.83995" lon="7.18116">
        <ele>1706</ele>
        <time>2019-04-18T22:02:16Z</time>
      </trkpt>
      <trkpt lat="45.83967" lon="7.18147">
        <ele>1704</ele>
        <time>2019-04-18T22:03:16Z</time>
      </trkpt>
      <trkpt lat="45.83936" lon="7.18174">
        <ele>1696</ele>
        <time>2019-04-18T22:04:16Z</time>
      </trkpt>
      <trkpt lat="45.8392" lon="7.18192">
        <ele>1695</ele>
        <time>2019-04-18T22:05:16Z</time>
      </trkpt>
      <trkpt lat="45.83891" lon="7.18235">
        <ele>1698</ele>
        <time>2019-04-18T22:06:16Z</time>
      </trkpt>
      <trkpt lat="45.8388" lon="7.18246">
        <ele>1695</ele>
        <time>2019-04-18T22:07:16Z</time>
      </trkpt>
      <trkpt lat="45.83864" lon="7.18251">
        <ele>1690</ele>
        <time>2019-04-18T22:08:16Z</time>
      </trkpt>
      <trkpt lat="45.83839" lon="7.18264">
        <ele>1685</ele>
        <time>2019-04-18T22:09:16Z</time>
      </trkpt>
      <trkpt lat="45.83781" lon="7.1831">
        <ele>1682</ele>
        <time>2019-04-18T22:10:16Z</time>
      </trkpt>
      <trkpt lat="45.83766" lon="7.18327">
        <ele>1678</ele>
        <time>2019-04-18T22:11:16Z</time>
      </trkpt>
      <trkpt lat="45.83754" lon="7.18346">
        <ele>1678</ele>
        <time>2019-04-18T22:12:16Z</time>
      </trkpt>
      <trkpt lat="45.83738" lon="7.18362">
        <ele>1679</ele>
        <time>2019-04-18T22:13:16Z</time>
      </trkpt>
      <trkpt lat="45.83714" lon="7.18377">
        <ele>1676</ele>
        <time>2019-04-18T22:14:16Z</time>
      </trkpt>
      <trkpt lat="45.83686" lon="7.18403">
        <ele>1672</ele>
        <time>2019-04-18T22:15:16Z</time>
      </trkpt>
      <trkpt lat="45.83667" lon="7.18414">
        <ele>1667</ele>
        <time>2019-04-18T22:16:16Z</time>
      </trkpt>
      <trkpt lat="45.83631" lon="7.18428">
        <ele>1660</ele>
        <time>2019-04-18T22:17:16Z</time>
      </trkpt>
      <trkpt lat="45.83547" lon="7.18493">
        <ele>1650</ele>
        <time>2019-04-18T22:18:16Z</time>
      </trkpt>
      <trkpt lat="45.83493" lon="7.18532">
        <ele>1647</ele>
        <time>2019-04-18T22:19:16Z</time>
      </trkpt>
      <trkpt lat="45.83464" lon="7.18545">
        <ele>1641</ele>
        <time>2019-04-18T22:20:16Z</time>
      </trkpt>
      <trkpt lat="45.83382" lon="7.18602">
        <ele>1626</ele>
        <time>2019-04-18T22:21:16Z</time>
      </trkpt>
      <trkpt lat="45.83368" lon="7.18615">
        <ele>1624</ele>
        <time>2019-04-18T22:22:16Z</time>
      </trkpt>
      <trkpt lat="45.83358" lon="7.18629">
        <ele>1623</ele>
        <time>2019-04-18T22:23:16Z</time>
      </trkpt>
      <trkpt lat="45.83335" lon="7.18674">
        <ele>1624</ele>
        <time>2019-04-18T22:24:16Z</time>
      </trkpt>
      <trkpt lat="45.8333" lon="7.18693">
        <ele>1625</ele>
        <time>2019-04-18T22:25:16Z</time>
      </trkpt>
      <trkpt lat="45.83321" lon="7.18744">
        <ele>1633</ele>
        <time>2019-04-18T22:26:16Z</time>
      </trkpt>
      <trkpt lat="45.83318" lon="7.18748">
        <ele>1633</ele>
        <time>2019-04-18T22:27:16Z</time>
      </trkpt>
      <trkpt lat="45.8331" lon="7.18748">
        <ele>1630</ele>
        <time>2019-04-18T22:28:16Z</time>
      </trkpt>
      <trkpt lat="45.83307" lon="7.18742">
        <ele>1627</ele>
        <time>2019-04-18T22:29:16Z</time>
      </trkpt>
      <trkpt lat="45.83305" lon="7.18735">
        <ele>1625</ele>
        <time>2019-04-18T22:30:16Z</time>
      </trkpt>
      <trkpt lat="45.83307" lon="7.18728">
        <ele>1624</ele>
        <time>2019-04-18T22:31:16Z</time>
      </trkpt>
      <trkpt lat="45.83317" lon="7.1871">
        <ele>1624</ele>
        <time>2019-04-18T22:32:16Z</time>
      </trkpt>
      <trkpt lat="45.8332" lon="7.187">
        <ele>1623</ele>
        <time>2019-04-18T22:33:16Z</time>
      </trkpt>
      <trkpt lat="45.83328" lon="7.18655">
        <ele>1615</ele>
        <time>2019-04-18T22:34:16Z</time>
      </trkpt>
      <trkpt lat="45.8335" lon="7.18596">
        <ele>1608</ele>
        <time>2019-04-18T22:35:16Z</time>
      </trkpt>
      <trkpt lat="45.83362" lon="7.18578">
        <ele>1609</ele>
        <time>2019-04-18T22:36:16Z</time>
      </trkpt>
      <trkpt lat="45.83392" lon="7.1855">
        <ele>1614</ele>
        <time>2019-04-18T22:37:16Z</time>
      </trkpt>
      <trkpt lat="45.83453" lon="7.18497">
        <ele>1614</ele>
        <time>2019-04-18T22:38:16Z</time>
      </trkpt>
      <trkpt lat="45.83456" lon="7.18492">
        <ele>1615</ele>
        <time>2019-04-18T22:39:16Z</time>
      </trkpt>
      <trkpt lat="45.83455" lon="7.18482">
        <ele>1615</ele>
        <time>2019-04-18T22:40:16Z</time>
      </trkpt>
      <trkpt lat="45.83451" lon="7.18479">
        <ele>1614</ele>
        <time>2019-04-18T22:41:16Z</time>
      </trkpt>
      <trkpt lat="45.83444" lon="7.1848">
        <ele>1612</ele>
        <time>2019-04-18T22:42:16Z</time>
      </trkpt>
      <trkpt lat="45.83412" lon="7.18512">
        <ele>1605</ele>
        <time>2019-04-18T22:43:16Z</time>
      </trkpt>
      <trkpt lat="45.83364" lon="7.18553">
        <ele>1604</ele>
        <time>2019-04-18T22:44:16Z</time>
      </trkpt>
      <trkpt lat="45.83346" lon="7.18571">
        <ele>1600</ele>
        <time>2019-04-18T22:45:16Z</time>
      </trkpt>
      <trkpt lat="45.83332" lon="7.18591">
        <ele>1598</ele>
        <time>2019-04-18T22:46:16Z</time>
      </trkpt>
      <trkpt lat="45.83298" lon="7.18653">
        <ele>1604</ele>
        <time>2019-04-18T22:47:16Z</time>
      </trkpt>
      <trkpt lat="45.83235" lon="7.18718">
        <ele>1595</ele>
        <time>2019-04-18T22:48:16Z</time>
      </trkpt>
      <trkpt lat="45.83214" lon="7.18761">
        <ele>1601</ele>
        <time>2019-04-18T22:49:16Z</time>
      </trkpt>
      <trkpt lat="45.83204" lon="7.18772">
        <ele>1604</ele>
        <time>2019-04-18T22:50:16Z</time>
      </trkpt>
      <trkpt lat="45.83193" lon="7.18778">
        <ele>1604</ele>
        <time>2019-04-18T22:51:16Z</time>
      </trkpt>
      <trkpt lat="45.83144" lon="7.18783">
        <ele>1597</ele>
        <time>2019-04-18T22:52:16Z</time>
      </trkpt>
      <trkpt lat="45.83019" lon="7.18787">
        <ele>1583</ele>
        <time>2019-04-18T22:53:16Z</time>
      </trkpt>
      <trkpt lat="45.82988" lon="7.18789">
        <ele>1580</ele>
        <time>2019-04-18T22:54:16Z</time>
      </trkpt>
      <trkpt lat="45.82954" lon="7.18798">
        <ele>1579</ele>
        <time>2019-04-18T22:55:16Z</time>
      </trkpt>
      <trkpt lat="45.82811" lon="7.18818">
        <ele>1566</ele>
        <time>2019-04-18T22:56:16Z</time>
      </trkpt>
      <trkpt lat="45.82793" lon="7.18827">
        <ele>1568</ele>
        <time>2019-04-18T22:57:16Z</time>
      </trkpt>
      <trkpt lat="45.82774" lon="7.18831">
        <ele>1568</ele>
        <time>2019-04-18T22:58:16Z</time>
      </trkpt>
      <trkpt lat="45.82741" lon="7.1883">
        <ele>1564</ele>
        <time>2019-04-18T22:59:16Z</time>
      </trkpt>
      <trkpt lat="45.82626" lon="7.18818">
        <ele>1552</ele>
        <time>2019-04-18T23:00:16Z</time>
      </trkpt>
      <trkpt lat="45.82575" lon="7.18815">
        <ele>1549</ele>
        <time>2019-04-18T23:01:16Z</time>
      </trkpt>
      <trkpt lat="45.8254" lon="7.18818">
        <ele>1547</ele>
        <time>2019-04-18T23:02:16Z</time>
      </trkpt>
      <trkpt lat="45.82525" lon="7.18815">
        <ele>1544</ele>
        <time>2019-04-18T23:03:16Z</time>
      </trkpt>
      <trkpt lat="45.82509" lon="7.18809">
        <ele>1539</ele>
        <time>2019-04-18T23:04:16Z</time>
      </trkpt>
      <trkpt lat="45.82491" lon="7.18808">
        <ele>1534</ele>
        <time>2019-04-18T23:05:16Z</time>
      </trkpt>
      <trkpt lat="45.82477" lon="7.18817">
        <ele>1533</ele>
        <time>2019-04-18T23:06:16Z</time>
      </trkpt>
      <trkpt lat="45.82462" lon="7.18836">
        <ele>1535</ele>
        <time>2019-04-18T23:07:16Z</time>
      </trkpt>
      <trkpt lat="45.82456" lon="7.18837">
        <ele>1533</ele>
        <time>2019-04-18T23:08:16Z</time>
      </trkpt>
      <trkpt lat="45.82452" lon="7.18833">
        <ele>1530</ele>
        <time>2019-04-18T23:09:16Z</time>
      </trkpt>
      <trkpt lat="45.82451" lon="7.18822">
        <ele>1525</ele>
        <time>2019-04-18T23:10:16Z</time>
      </trkpt>
      <trkpt lat="45.82456" lon="7.18815">
        <ele>1525</ele>
        <time>2019-04-18T23:11:16Z</time>
      </trkpt>
      <trkpt lat="45.82472" lon="7.18805">
        <ele>1527</ele>
        <time>2019-04-18T23:12:16Z</time>
      </trkpt>
      <trkpt lat="45.82491" lon="7.18797">
        <ele>1529</ele>
        <time>2019-04-18T23:13:16Z</time>
      </trkpt>
      <trkpt lat="45.82534" lon="7.18797">
        <ele>1536</ele>
        <time>2019-04-18T23:14:16Z</time>
      </trkpt>
      <trkpt lat="45.82548" lon="7.18795">
        <ele>1536</ele>
        <time>2019-04-18T23:15:16Z</time>
      </trkpt>
      <trkpt lat="45.82588" lon="7.18777">
        <ele>1530</ele>
        <time>2019-04-18T23:16:16Z</time>
      </trkpt>
      <trkpt lat="45.82625" lon="7.18767">
        <ele>1527</ele>
        <time>2019-04-18T23:17:16Z</time>
      </trkpt>
      <trkpt lat="45.82695" lon="7.18777">
        <ele>1536</ele>
        <time>2019-04-18T23:18:16Z</time>
      </trkpt>
      <trkpt lat="45.82706" lon="7.18774">
        <ele>1536</ele>
        <time>2019-04-18T23:19:16Z</time>
      </trkpt>
      <trkpt lat="45.82709" lon="7.18764">
        <ele>1532</ele>
        <time>2019-04-18T23:20:16Z</time>
      </trkpt>
      <trkpt lat="45.82703" lon="7.18754">
        <ele>1527</ele>
        <time>2019-04-18T23:21:16Z</time>
      </trkpt>
      <trkpt lat="45.82693" lon="7.18752">
        <ele>1525</ele>
        <time>2019-04-18T23:22:16Z</time>
      </trkpt>
      <trkpt lat="45.82625" lon="7.1875">
        <ele>1519</ele>
        <time>2019-04-18T23:23:16Z</time>
      </trkpt>
      <trkpt lat="45.82556" lon="7.18759">
        <ele>1518</ele>
        <time>2019-04-18T23:24:16Z</time>
      </trkpt>
      <trkpt lat="45.82494" lon="7.1875">
        <ele>1508</ele>
        <time>2019-04-18T23:25:16Z</time>
      </trkpt>
      <trkpt lat="45.82471" lon="7.18751">
        <ele>1504</ele>
        <time>2019-04-18T23:26:16Z</time>
      </trkpt>
      <trkpt lat="45.82443" lon="7.18763">
        <ele>1503</ele>
        <time>2019-04-18T23:27:16Z</time>
      </trkpt>
      <trkpt lat="45.82421" lon="7.1878">
        <ele>1503</ele>
        <time>2019-04-18T23:28:16Z</time>
      </trkpt>
      <trkpt lat="45.82414" lon="7.18783">
        <ele>1501</ele>
        <time>2019-04-18T23:29:16Z</time>
      </trkpt>
      <trkpt lat="45.82403" lon="7.18781">
        <ele>1495</ele>
        <time>2019-04-18T23:30:16Z</time>
      </trkpt>
      <trkpt lat="45.82307" lon="7.18967">
        <ele>1490</ele>
        <time>2019-04-18T23:31:16Z</time>
      </trkpt>
      <trkpt lat="45.8228" lon="7.1903">
        <ele>1484</ele>
        <time>2019-04-18T23:32:16Z</time>
      </trkpt>
      <trkpt lat="45.82267" lon="7.19091">
        <ele>1481</ele>
        <time>2019-04-18T23:33:16Z</time>
      </trkpt>
      <trkpt lat="45.8224" lon="7.19315">
        <ele>1472</ele>
        <time>2019-04-18T23:34:16Z</time>
      </trkpt>
      <trkpt lat="45.82229" lon="7.19344">
        <ele>1466</ele>
        <time>2019-04-18T23:35:16Z</time>
      </trkpt>
      <trkpt lat="45.82221" lon="7.19377">
        <ele>1462</ele>
        <time>2019-04-18T23:36:16Z</time>
      </trkpt>
      <trkpt lat="45.82226" lon="7.19439">
        <ele>1468</ele>
        <time>2019-04-18T23:37:16Z</time>
      </trkpt>
      <trkpt lat="45.8221" lon="7.19734">
        <ele>1454</ele>
        <time>2019-04-18T23:38:16Z</time>
      </trkpt>
      <trkpt lat="45.82216" lon="7.19804">
        <ele>1449</ele>
        <time>2019-04-18T23:39:16Z</time>
      </trkpt>
      <trkpt lat="45.82242" lon="7.19929">
        <ele>1441</ele>
        <time>2019-04-18T23:40:16Z</time>
      </trkpt>
      <trkpt lat="45.8226" lon="7.19969">
        <ele>1443</ele>
        <time>2019-04-18T23:41:16Z</time>
      </trkpt>
      <trkpt lat="45.82267" lon="7.19995">
        <ele>1442</ele>
        <time>2019-04-18T23:42:16Z</time>
      </trkpt>
      <trkpt lat="45.82272" lon="7.20043">
        <ele>1437</ele>
        <time>2019-04-18T23:43:16Z</time>
      </trkpt>
      <trkpt lat="45.82276" lon="7.20127">
        <ele>1427</ele>
        <time>2019-04-18T23:44:16Z</time>
      </trkpt>
      <trkpt lat="45.82273" lon="7.20192">
        <ele>1416</ele>
        <time>2019-04-18T23:45:16Z</time>
      </trkpt>
      <trkpt lat="45.82275" lon="7.20218">
        <ele>1414</ele>
        <time>2019-04-18T23:46:16Z</time>
      </trkpt>
      <trkpt lat="45.82299" lon="7.20325">
        <ele>1410</ele>
        <time>2019-04-18T23:47:16Z</time>
      </trkpt>
      <trkpt lat="45.82303" lon="7.20354">
        <ele>1408</ele>
        <time>2019-04-18T23:48:16Z</time>
      </trkpt>
      <trkpt lat="45.823" lon="7.2043">
        <ele>1399</ele>
        <time>2019-04-18T23:49:16Z</time>
      </trkpt>
      <trkpt lat="45.82301" lon="7.20456">
        <ele>1398</ele>
        <time>2019-04-18T23:50:16Z</time>
      </trkpt>
      <trkpt lat="45.82305" lon="7.20474">
        <ele>1399</ele>
        <time>2019-04-18T23:51:16Z</time>
      </trkpt>
      <trkpt lat="45.82335" lon="7.20546">
        <ele>1407</ele>
        <time>2019-04-18T23:52:16Z</time>
      </trkpt>
      <trkpt lat="45.82356" lon="7.20638">
        <ele>1404</ele>
        <time>2019-04-18T23:53:16Z</time>
      </trkpt>
      <trkpt lat="45.8238" lon="7.20764">
        <ele>1398</ele>
        <time>2019-04-18T23:54:16Z</time>
      </trkpt>
      <trkpt lat="45.82395" lon="7.20809">
        <ele>1397</ele>
        <time>2019-04-18T23:55:16Z</time>
      </trkpt>
      <trkpt lat="45.82397" lon="7.20823">
        <ele>1395</ele>
        <time>2019-04-18T23:56:16Z</time>
      </trkpt>
      <trkpt lat="45.82395" lon="7.20856">
        <ele>1391</ele>
        <time>2019-04-18T23:57:16Z</time>
      </trkpt>
      <trkpt lat="45.82389" lon="7.20889">
        <ele>1387</ele>
        <time>2019-04-18T23:58:16Z</time>
      </trkpt>
      <trkpt lat="45.82388" lon="7.2092">
        <ele>1384</ele>
        <time>2019-04-18T23:59:16Z</time>
      </trkpt>
      <trkpt lat="45.82401" lon="7.20975">
        <ele>1384</ele>
        <time>2019-04-19T00:00:16Z</time>
      </trkpt>
      <trkpt lat="45.82422" lon="7.21072">
        <ele>1381</ele>
        <time>2019-04-19T00:01:16Z</time>
      </trkpt>
      <trkpt lat="45.82441" lon="7.21259">
        <ele>1377</ele>
        <time>2019-04-19T00:02:16Z</time>
      </trkpt>
      <trkpt lat="45.82447" lon="7.21304">
        <ele>1375</ele>
        <time>2019-04-19T00:03:16Z</time>
      </trkpt>
      <trkpt lat="45.82456" lon="7.21344">
        <ele>1373</ele>
        <time>2019-04-19T00:04:16Z</time>
      </trkpt>
      <trkpt lat="45.82473" lon="7.2139">
        <ele>1371</ele>
        <time>2019-04-19T00:05:16Z</time>
      </trkpt>
      <trkpt lat="45.82486" lon="7.21416">
        <ele>1370</ele>
        <time>2019-04-19T00:06:16Z</time>
      </trkpt>
      <trkpt lat="45.82499" lon="7.21463">
        <ele>1369</ele>
        <time>2019-04-19T00:07:16Z</time>
      </trkpt>
      <trkpt lat="45.82501" lon="7.21478">
        <ele>1369</ele>
        <time>2019-04-19T00:08:16Z</time>
      </trkpt>
      <trkpt lat="45.82502" lon="7.21492">
        <ele>1368</ele>
        <time>2019-04-19T00:09:16Z</time>
      </trkpt>
      <trkpt lat="45.82499" lon="7.21509">
        <ele>1367</ele>
        <time>2019-04-19T00:10:16Z</time>
      </trkpt>
      <trkpt lat="45.82485" lon="7.21544">
        <ele>1364</ele>
        <time>2019-04-19T00:11:16Z</time>
      </trkpt>
      <trkpt lat="45.82465" lon="7.21615">
        <ele>1357</ele>
        <time>2019-04-19T00:12:16Z</time>
      </trkpt>
      <trkpt lat="45.82463" lon="7.21636">
        <ele>1355</ele>
        <time>2019-04-19T00:13:16Z</time>
      </trkpt>
      <trkpt lat="45.82463" lon="7.21654">
        <ele>1355</ele>
        <time>2019-04-19T00:14:16Z</time>
      </trkpt>
      <trkpt lat="45.82483" lon="7.21851">
        <ele>1353</ele>
        <time>2019-04-19T00:15:16Z</time>
      </trkpt>
      <trkpt lat="45.82483" lon="7.21862">
        <ele>1353</ele>
        <time>2019-04-19T00:16:16Z</time>
      </trkpt>
      <trkpt lat="45.8248" lon="7.21885">
        <ele>1352</ele>
        <time>2019-04-19T00:17:16Z</time>
      </trkpt>
      <trkpt lat="45.82477" lon="7.21896">
        <ele>1351</ele>
        <time>2019-04-19T00:18:16Z</time>
      </trkpt>
      <trkpt lat="45.82469" lon="7.2192">
        <ele>1348</ele>
        <time>2019-04-19T00:19:16Z</time>
      </trkpt>
      <trkpt lat="45.82455" lon="7.21946">
        <ele>1345</ele>
        <time>2019-04-19T00:20:16Z</time>
      </trkpt>
      <trkpt lat="45.82363" lon="7.22104">
        <ele>1332</ele>
        <time>2019-04-19T00:21:16Z</time>
      </trkpt>
      <trkpt lat="45.82269" lon="7.22261">
        <ele>1323</ele>
        <time>2019-04-19T00:22:16Z</time>
      </trkpt>
      <trkpt lat="45.8225" lon="7.22298">
        <ele>1322</ele>
        <time>2019-04-19T00:23:16Z</time>
      </trkpt>
      <trkpt lat="45.82239" lon="7.22338">
        <ele>1322</ele>
        <time>2019-04-19T00:24:16Z</time>
      </trkpt>
      <trkpt lat="45.8217" lon="7.22783">
        <ele>1291</ele>
        <time>2019-04-19T00:25:16Z</time>
      </trkpt>
      <trkpt lat="45.8215" lon="7.22922">
        <ele>1282</ele>
        <time>2019-04-19T00:26:16Z</time>
      </trkpt>
      <trkpt lat="45.82143" lon="7.22962">
        <ele>1282</ele>
        <time>2019-04-19T00:27:16Z</time>
      </trkpt>
      <trkpt lat="45.82134" lon="7.22999">
        <ele>1281</ele>
        <time>2019-04-19T00:28:16Z</time>
      </trkpt>
      <trkpt lat="45.82122" lon="7.23032">
        <ele>1280</ele>
        <time>2019-04-19T00:29:16Z</time>
      </trkpt>
      <trkpt lat="45.82118" lon="7.2304">
        <ele>1279</ele>
        <time>2019-04-19T00:30:16Z</time>
      </trkpt>
      <trkpt lat="45.82112" lon="7.23046">
        <ele>1278</ele>
        <time>2019-04-19T00:31:16Z</time>
      </trkpt>
      <trkpt lat="45.82106" lon="7.23047">
        <ele>1277</ele>
        <time>2019-04-19T00:32:16Z</time>
      </trkpt>
      <trkpt lat="45.821" lon="7.23043">
        <ele>1275</ele>
        <time>2019-04-19T00:33:16Z</time>
      </trkpt>
      <trkpt lat="45.82095" lon="7.23033">
        <ele>1273</ele>
        <time>2019-04-19T00:34:16Z</time>
      </trkpt>
      <trkpt lat="45.82094" lon="7.23026">
        <ele>1273</ele>
        <time>2019-04-19T00:35:16Z</time>
      </trkpt>
      <trkpt lat="45.82096" lon="7.23013">
        <ele>1273</ele>
        <time>2019-04-19T00:36:16Z</time>
      </trkpt>
      <trkpt lat="45.82131" lon="7.2294">
        <ele>1278</ele>
        <time>2019-04-19T00:37:16Z</time>
      </trkpt>
      <trkpt lat="45.82132" lon="7.22934">
        <ele>1279</ele>
        <time>2019-04-19T00:38:16Z</time>
      </trkpt>
      <trkpt lat="45.82131" lon="7.22923">
        <ele>1278</ele>
        <time>2019-04-19T00:39:16Z</time>
      </trkpt>
      <trkpt lat="45.82128" lon="7.22918">
        <ele>1277</ele>
        <time>2019-04-19T00:40:16Z</time>
      </trkpt>
      <trkpt lat="45.82125" lon="7.22915">
        <ele>1277</ele>
        <time>2019-04-19T00:41:16Z</time>
      </trkpt>
      <trkpt lat="45.82117" lon="7.22914">
        <ele>1275</ele>
        <time>2019-04-19T00:42:16Z</time>
      </trkpt>
      <trkpt lat="45.82113" lon="7.22916">
        <ele>1274</ele>
        <time>2019-04-19T00:43:16Z</time>
      </trkpt>
      <trkpt lat="45.82106" lon="7.22925">
        <ele>1273</ele>
        <time>2019-04-19T00:44:16Z</time>
      </trkpt>
      <trkpt lat="45.82092" lon="7.22947">
        <ele>1270</ele>
        <time>2019-04-19T00:45:16Z</time>
      </trkpt>
      <trkpt lat="45.82071" lon="7.22974">
        <ele>1268</ele>
        <time>2019-04-19T00:46:16Z</time>
      </trkpt>
      <trkpt lat="45.82059" lon="7.22984">
        <ele>1267</ele>
        <time>2019-04-19T00:47:16Z</time>
      </trkpt>
      <trkpt lat="45.82037" lon="7.22993">
        <ele>1265</ele>
        <time>2019-04-19T00:48:16Z</time>
      </trkpt>
      <trkpt lat="45.81997" lon="7.22996">
        <ele>1262</ele>
        <time>2019-04-19T00:49:16Z</time>
      </trkpt>
      <trkpt lat="45.81965" lon="7.22995">
        <ele>1264</ele>
        <time>2019-04-19T00:50:16Z</time>
      </trkpt>
      <trkpt lat="45.8195" lon="7.22997">
        <ele>1265</ele>
        <time>2019-04-19T00:51:16Z</time>
      </trkpt>
      <trkpt lat="45.81938" lon="7.22999">
        <ele>1266</ele>
        <time>2019-04-19T00:52:16Z</time>
      </trkpt>
      <trkpt lat="45.81932" lon="7.23004">
        <ele>1266</ele>
        <time>2019-04-19T00:53:16Z</time>
      </trkpt>
      <trkpt lat="45.81926" lon="7.23012">
        <ele>1267</ele>
        <time>2019-04-19T00:54:16Z</time>
      </trkpt>
      <trkpt lat="45.81923" lon="7.23024">
        <ele>1267</ele>
        <time>2019-04-19T00:55:16Z</time>
      </trkpt>
      <trkpt lat="45.81921" lon="7.2308">
        <ele>1268</ele>
        <time>2019-04-19T00:56:16Z</time>
      </trkpt>
      <trkpt lat="45.81915" lon="7.23128">
        <ele>1268</ele>
        <time>2019-04-19T00:57:16Z</time>
      </trkpt>
      <trkpt lat="45.81906" lon="7.23166">
        <ele>1271</ele>
        <time>2019-04-19T00:58:16Z</time>
      </trkpt>
      <trkpt lat="45.81871" lon="7.23261">
        <ele>1276</ele>
        <time>2019-04-19T00:59:16Z</time>
      </trkpt>
      <trkpt lat="45.81813" lon="7.23399">
        <ele>1271</ele>
        <time>2019-04-19T01:00:16Z</time>
      </trkpt>
      <trkpt lat="45.81686" lon="7.23695">
        <ele>1263</ele>
        <time>2019-04-19T01:01:16Z</time>
      </trkpt>
      <trkpt lat="45.81655" lon="7.23744">
        <ele>1262</ele>
        <time>2019-04-19T01:02:16Z</time>
      </trkpt>
      <trkpt lat="45.81627" lon="7.23768">
        <ele>1257</ele>
        <time>2019-04-19T01:03:16Z</time>
      </trkpt>
      <trkpt lat="45.81603" lon="7.2378">
        <ele>1254</ele>
        <time>2019-04-19T01:04:16Z</time>
      </trkpt>
      <trkpt lat="45.81577" lon="7.23785">
        <ele>1254</ele>
        <time>2019-04-19T01:05:16Z</time>
      </trkpt>
      <trkpt lat="45.81322" lon="7.23775">
        <ele>1254</ele>
        <time>2019-04-19T01:06:16Z</time>
      </trkpt>
      <trkpt lat="45.81274" lon="7.2379">
        <ele>1252</ele>
        <time>2019-04-19T01:07:16Z</time>
      </trkpt>
      <trkpt lat="45.81116" lon="7.23881">
        <ele>1245</ele>
        <time>2019-04-19T01:08:16Z</time>
      </trkpt>
      <trkpt lat="45.81094" lon="7.23898">
        <ele>1243</ele>
        <time>2019-04-19T01:09:16Z</time>
      </trkpt>
      <trkpt lat="45.81068" lon="7.23927">
        <ele>1241</ele>
        <time>2019-04-19T01:10:16Z</time>
      </trkpt>
      <trkpt lat="45.81053" lon="7.23945">
        <ele>1241</ele>
        <time>2019-04-19T01:11:16Z</time>
      </trkpt>
      <trkpt lat="45.81029" lon="7.23986">
        <ele>1239</ele>
        <time>2019-04-19T01:12:16Z</time>
      </trkpt>
      <trkpt lat="45.80818" lon="7.24492">
        <ele>1222</ele>
        <time>2019-04-19T01:13:16Z</time>
      </trkpt>
      <trkpt lat="45.80793" lon="7.24565">
        <ele>1222</ele>
        <time>2019-04-19T01:14:16Z</time>
      </trkpt>
      <trkpt lat="45.80779" lon="7.24646">
        <ele>1224</ele>
        <time>2019-04-19T01:15:16Z</time>
      </trkpt>
      <trkpt lat="45.80787" lon="7.24815">
        <ele>1220</ele>
        <time>2019-04-19T01:16:16Z</time>
      </trkpt>
      <trkpt lat="45.80784" lon="7.24899">
        <ele>1218</ele>
        <time>2019-04-19T01:17:16Z</time>
      </trkpt>
      <trkpt lat="45.80767" lon="7.24967">
        <ele>1218</ele>
        <time>2019-04-19T01:18:16Z</time>
      </trkpt>
      <trkpt lat="45.80739" lon="7.25051">
        <ele>1216</ele>
        <time>2019-04-19T01:19:16Z</time>
      </trkpt>
      <trkpt lat="45.80711" lon="7.25123">
        <ele>1212</ele>
        <time>2019-04-19T01:20:16Z</time>
      </trkpt>
      <trkpt lat="45.80649" lon="7.2526">
        <ele>1215</ele>
        <time>2019-04-19T01:21:16Z</time>
      </trkpt>
      <trkpt lat="45.80485" lon="7.25569">
        <ele>1216</ele>
        <time>2019-04-19T01:22:16Z</time>
      </trkpt>
      <trkpt lat="45.8043" lon="7.25718">
        <ele>1218</ele>
        <time>2019-04-19T01:23:16Z</time>
      </trkpt>
      <trkpt lat="45.80334" lon="7.26111">
        <ele>1213</ele>
        <time>2019-04-19T01:24:16Z</time>
      </trkpt>
      <trkpt lat="45.80308" lon="7.26269">
        <ele>1208</ele>
        <time>2019-04-19T01:25:16Z</time>
      </trkpt>
      <trkpt lat="45.80256" lon="7.26505">
        <ele>1197</ele>
        <time>2019-04-19T01:26:16Z</time>
      </trkpt>
      <trkpt lat="45.80245" lon="7.26567">
        <ele>1187</ele>
        <time>2019-04-19T01:27:16Z</time>
      </trkpt>
      <trkpt lat="45.80231" lon="7.26675">
        <ele>1164</ele>
        <time>2019-04-19T01:28:16Z</time>
      </trkpt>
      <trkpt lat="45.80204" lon="7.26775">
        <ele>1177</ele>
        <time>2019-04-19T01:29:16Z</time>
      </trkpt>
      <trkpt lat="45.80179" lon="7.26904">
        <ele>1188</ele>
        <time>2019-04-19T01:30:16Z</time>
      </trkpt>
      <trkpt lat="45.8016" lon="7.26962">
        <ele>1190</ele>
        <time>2019-04-19T01:31:16Z</time>
      </trkpt>
      <trkpt lat="45.80123" lon="7.27042">
        <ele>1193</ele>
        <time>2019-04-19T01:32:16Z</time>
      </trkpt>
      <trkpt lat="45.80092" lon="7.27168">
        <ele>1184</ele>
        <time>2019-04-19T01:33:16Z</time>
      </trkpt>
      <trkpt lat="45.80068" lon="7.27259">
        <ele>1174</ele>
        <time>2019-04-19T01:34:16Z</time>
      </trkpt>
      <trkpt lat="45.80032" lon="7.27332">
        <ele>1175</ele>
        <time>2019-04-19T01:35:16Z</time>
      </trkpt>
      <trkpt lat="45.79992" lon="7.27393">
        <ele>1178</ele>
        <time>2019-04-19T01:36:16Z</time>
      </trkpt>
      <trkpt lat="45.79942" lon="7.27457">
        <ele>1185</ele>
        <time>2019-04-19T01:37:16Z</time>
      </trkpt>
      <trkpt lat="45.79912" lon="7.27501">
        <ele>1184</ele>
        <time>2019-04-19T01:38:16Z</time>
      </trkpt>
      <trkpt lat="45.79831" lon="7.27745">
        <ele>1181</ele>
        <time>2019-04-19T01:39:16Z</time>
      </trkpt>
      <trkpt lat="45.79783" lon="7.27885">
        <ele>1169</ele>
        <time>2019-04-19T01:40:16Z</time>
      </trkpt>
      <trkpt lat="45.79689" lon="7.28037">
        <ele>1164</ele>
        <time>2019-04-19T01:41:16Z</time>
      </trkpt>
      <trkpt lat="45.79666" lon="7.28088">
        <ele>1157</ele>
        <time>2019-04-19T01:42:16Z</time>
      </trkpt>
      <trkpt lat="45.79615" lon="7.28262">
        <ele>1133</ele>
        <time>2019-04-19T01:43:16Z</time>
      </trkpt>
      <trkpt lat="45.7959" lon="7.28329">
        <ele>1130</ele>
        <time>2019-04-19T01:44:16Z</time>
      </trkpt>
      <trkpt lat="45.79463" lon="7.2852">
        <ele>1115</ele>
        <time>2019-04-19T01:45:16Z</time>
      </trkpt>
      <trkpt lat="45.79359" lon="7.28699">
        <ele>1102</ele>
        <time>2019-04-19T01:46:16Z</time>
      </trkpt>
      <trkpt lat="45.79341" lon="7.28731">
        <ele>1098</ele>
        <time>2019-04-19T01:47:16Z</time>
      </trkpt>
      <trkpt lat="45.79316" lon="7.28755">
        <ele>1092</ele>
        <time>2019-04-19T01:48:16Z</time>
      </trkpt>
      <trkpt lat="45.79291" lon="7.28753">
        <ele>1089</ele>
        <time>2019-04-19T01:49:16Z</time>
      </trkpt>
      <trkpt lat="45.79272" lon="7.28736">
        <ele>1088</ele>
        <time>2019-04-19T01:50:16Z</time>
      </trkpt>
      <trkpt lat="45.79257" lon="7.28694">
        <ele>1091</ele>
        <time>2019-04-19T01:51:16Z</time>
      </trkpt>
      <trkpt lat="45.79241" lon="7.28609">
        <ele>1097</ele>
        <time>2019-04-19T01:52:16Z</time>
      </trkpt>
      <trkpt lat="45.79216" lon="7.28551">
        <ele>1099</ele>
        <time>2019-04-19T01:53:16Z</time>
      </trkpt>
      <trkpt lat="45.79174" lon="7.28489">
        <ele>1099</ele>
        <time>2019-04-19T01:54:16Z</time>
      </trkpt>
      <trkpt lat="45.7915" lon="7.28464">
        <ele>1107</ele>
        <time>2019-04-19T01:55:16Z</time>
      </trkpt>
      <trkpt lat="45.79132" lon="7.28465">
        <ele>1108</ele>
        <time>2019-04-19T01:56:16Z</time>
      </trkpt>
      <trkpt lat="45.79116" lon="7.28487">
        <ele>1105</ele>
        <time>2019-04-19T01:57:16Z</time>
      </trkpt>
      <trkpt lat="45.79114" lon="7.28511">
        <ele>1101</ele>
        <time>2019-04-19T01:58:16Z</time>
      </trkpt>
      <trkpt lat="45.79131" lon="7.28561">
        <ele>1092</ele>
        <time>2019-04-19T01:59:16Z</time>
      </trkpt>
      <trkpt lat="45.79136" lon="7.28602">
        <ele>1085</ele>
        <time>2019-04-19T02:00:16Z</time>
      </trkpt>
      <trkpt lat="45.7913" lon="7.28647">
        <ele>1080</ele>
        <time>2019-04-19T02:01:16Z</time>
      </trkpt>
      <trkpt lat="45.79112" lon="7.28703">
        <ele>1077</ele>
        <time>2019-04-19T02:02:16Z</time>
      </trkpt>
      <trkpt lat="45.79089" lon="7.2876">
        <ele>1077</ele>
        <time>2019-04-19T02:03:16Z</time>
      </trkpt>
      <trkpt lat="45.79077" lon="7.28827">
        <ele>1077</ele>
        <time>2019-04-19T02:04:16Z</time>
      </trkpt>
      <trkpt lat="45.79078" lon="7.28915">
        <ele>1072</ele>
        <time>2019-04-19T02:05:16Z</time>
      </trkpt>
      <trkpt lat="45.79111" lon="7.29099">
        <ele>1060</ele>
        <time>2019-04-19T02:06:16Z</time>
      </trkpt>
      <trkpt lat="45.79123" lon="7.29185">
        <ele>1053</ele>
        <time>2019-04-19T02:07:16Z</time>
      </trkpt>
      <trkpt lat="45.79119" lon="7.29241">
        <ele>1048</ele>
        <time>2019-04-19T02:08:16Z</time>
      </trkpt>
      <trkpt lat="45.79098" lon="7.29289">
        <ele>1043</ele>
        <time>2019-04-19T02:09:16Z</time>
      </trkpt>
      <trkpt lat="45.79055" lon="7.29321">
        <ele>1042</ele>
        <time>2019-04-19T02:10:16Z</time>
      </trkpt>
      <trkpt lat="45.7886" lon="7.29457">
        <ele>1028</ele>
        <time>2019-04-19T02:11:16Z</time>
      </trkpt>
      <trkpt lat="45.78793" lon="7.29487">
        <ele>1022</ele>
        <time>2019-04-19T02:12:16Z</time>
      </trkpt>
      <trkpt lat="45.78504" lon="7.29575">
        <ele>998</ele>
        <time>2019-04-19T02:13:16Z</time>
      </trkpt>
      <trkpt lat="45.78389" lon="7.29617">
        <ele>994</ele>
        <time>2019-04-19T02:14:16Z</time>
      </trkpt>
      <trkpt lat="45.78359" lon="7.29645">
        <ele>992</ele>
        <time>2019-04-19T02:15:16Z</time>
      </trkpt>
      <trkpt lat="45.78303" lon="7.29723">
        <ele>980</ele>
        <time>2019-04-19T02:16:16Z</time>
      </trkpt>
      <trkpt lat="45.78282" lon="7.29747">
        <ele>977</ele>
        <time>2019-04-19T02:17:16Z</time>
      </trkpt>
      <trkpt lat="45.78251" lon="7.29765">
        <ele>976</ele>
        <time>2019-04-19T02:18:16Z</time>
      </trkpt>
      <trkpt lat="45.78174" lon="7.29797">
        <ele>967</ele>
        <time>2019-04-19T02:19:16Z</time>
      </trkpt>
      <trkpt lat="45.78157" lon="7.29799">
        <ele>966</ele>
        <time>2019-04-19T02:20:16Z</time>
      </trkpt>
      <trkpt lat="45.78144" lon="7.29795">
        <ele>965</ele>
        <time>2019-04-19T02:21:16Z</time>
      </trkpt>
      <trkpt lat="45.78134" lon="7.29789">
        <ele>964</ele>
        <time>2019-04-19T02:22:16Z</time>
      </trkpt>
      <trkpt lat="45.78121" lon="7.29775">
        <ele>965</ele>
        <time>2019-04-19T02:23:16Z</time>
      </trkpt>
      <trkpt lat="45.78114" lon="7.29761">
        <ele>966</ele>
        <time>2019-04-19T02:24:16Z</time>
      </trkpt>
      <trkpt lat="45.78108" lon="7.2974">
        <ele>966</ele>
        <time>2019-04-19T02:25:16Z</time>
      </trkpt>
      <trkpt lat="45.78107" lon="7.29719">
        <ele>965</ele>
        <time>2019-04-19T02:26:16Z</time>
      </trkpt>
      <trkpt lat="45.78108" lon="7.29701">
        <ele>965</ele>
        <time>2019-04-19T02:27:16Z</time>
      </trkpt>
      <trkpt lat="45.78123" lon="7.2964">
        <ele>966</ele>
        <time>2019-04-19T02:28:16Z</time>
      </trkpt>
      <trkpt lat="45.78125" lon="7.29621">
        <ele>966</ele>
        <time>2019-04-19T02:29:16Z</time>
      </trkpt>
      <trkpt lat="45.78124" lon="7.296">
        <ele>965</ele>
        <time>2019-04-19T02:30:16Z</time>
      </trkpt>
      <trkpt lat="45.7812" lon="7.29582">
        <ele>963</ele>
        <time>2019-04-19T02:31:16Z</time>
      </trkpt>
      <trkpt lat="45.78112" lon="7.29564">
        <ele>964</ele>
        <time>2019-04-19T02:32:16Z</time>
      </trkpt>
      <trkpt lat="45.78097" lon="7.29547">
        <ele>962</ele>
        <time>2019-04-19T02:33:16Z</time>
      </trkpt>
      <trkpt lat="45.78009" lon="7.29504">
        <ele>957</ele>
        <time>2019-04-19T02:34:16Z</time>
      </trkpt>
      <trkpt lat="45.77998" lon="7.29501">
        <ele>957</ele>
        <time>2019-04-19T02:35:16Z</time>
      </trkpt>
      <trkpt lat="45.77988" lon="7.295">
        <ele>956</ele>
        <time>2019-04-19T02:36:16Z</time>
      </trkpt>
      <trkpt lat="45.77975" lon="7.29503">
        <ele>955</ele>
        <time>2019-04-19T02:37:16Z</time>
      </trkpt>
      <trkpt lat="45.77913" lon="7.29536">
        <ele>949</ele>
        <time>2019-04-19T02:38:16Z</time>
      </trkpt>
      <trkpt lat="45.77895" lon="7.29542">
        <ele>947</ele>
        <time>2019-04-19T02:39:16Z</time>
      </trkpt>
      <trkpt lat="45.7781" lon="7.29546">
        <ele>947</ele>
        <time>2019-04-19T02:40:16Z</time>
      </trkpt>
      <trkpt lat="45.77798" lon="7.29548">
        <ele>947</ele>
        <time>2019-04-19T02:41:16Z</time>
      </trkpt>
      <trkpt lat="45.77788" lon="7.29552">
        <ele>947</ele>
        <time>2019-04-19T02:42:16Z</time>
      </trkpt>
      <trkpt lat="45.77773" lon="7.29561">
        <ele>947</ele>
        <time>2019-04-19T02:43:16Z</time>
      </trkpt>
      <trkpt lat="45.77735" lon="7.29604">
        <ele>948</ele>
        <time>2019-04-19T02:44:16Z</time>
      </trkpt>
      <trkpt lat="45.77708" lon="7.29638">
        <ele>948</ele>
        <time>2019-04-19T02:45:16Z</time>
      </trkpt>
      <trkpt lat="45.77656" lon="7.29689">
        <ele>949</ele>
        <time>2019-04-19T02:46:16Z</time>
      </trkpt>
      <trkpt lat="45.77526" lon="7.29808">
        <ele>933</ele>
        <time>2019-04-19T02:47:16Z</time>
      </trkpt>
      <trkpt lat="45.77503" lon="7.29836">
        <ele>927</ele>
        <time>2019-04-19T02:48:16Z</time>
      </trkpt>
      <trkpt lat="45.77479" lon="7.29869">
        <ele>927</ele>
        <time>2019-04-19T02:49:16Z</time>
      </trkpt>
      <trkpt lat="45.77462" lon="7.299">
        <ele>925</ele>
        <time>2019-04-19T02:50:16Z</time>
      </trkpt>
      <trkpt lat="45.77442" lon="7.2994">
        <ele>924</ele>
        <time>2019-04-19T02:51:16Z</time>
      </trkpt>
      <trkpt lat="45.7742" lon="7.29981">
        <ele>923</ele>
        <time>2019-04-19T02:52:16Z</time>
      </trkpt>
      <trkpt lat="45.77396" lon="7.30012">
        <ele>920</ele>
        <time>2019-04-19T02:53:16Z</time>
      </trkpt>
      <trkpt lat="45.77371" lon="7.30037">
        <ele>918</ele>
        <time>2019-04-19T02:54:16Z</time>
      </trkpt>
      <trkpt lat="45.77211" lon="7.30178">
        <ele>914</ele>
        <time>2019-04-19T02:55:16Z</time>
      </trkpt>
      <trkpt lat="45.77128" lon="7.30255">
        <ele>908</ele>
        <time>2019-04-19T02:56:16Z</time>
      </trkpt>
      <trkpt lat="45.76983" lon="7.30401">
        <ele>902</ele>
        <time>2019-04-19T02:57:16Z</time>
      </trkpt>
      <trkpt lat="45.76942" lon="7.30439">
        <ele>901</ele>
        <time>2019-04-19T02:58:16Z</time>
      </trkpt>
      <trkpt lat="45.76899" lon="7.30471">
        <ele>898</ele>
        <time>2019-04-19T02:59:16Z</time>
      </trkpt>
      <trkpt lat="45.76837" lon="7.30505">
        <ele>892</ele>
        <time>2019-04-19T03:00:16Z</time>
      </trkpt>
      <trkpt lat="45.7675" lon="7.30533">
        <ele>898</ele>
        <time>2019-04-19T03:01:16Z</time>
      </trkpt>
      <trkpt lat="45.76737" lon="7.30543">
        <ele>899</ele>
        <time>2019-04-19T03:02:16Z</time>
      </trkpt>
      <trkpt lat="45.76727" lon="7.30559">
        <ele>898</ele>
        <time>2019-04-19T03:03:16Z</time>
      </trkpt>
      <trkpt lat="45.76721" lon="7.30579">
        <ele>895</ele>
        <time>2019-04-19T03:04:16Z</time>
      </trkpt>
      <trkpt lat="45.7672" lon="7.30601">
        <ele>890</ele>
        <time>2019-04-19T03:05:16Z</time>
      </trkpt>
      <trkpt lat="45.76724" lon="7.30622">
        <ele>885</ele>
        <time>2019-04-19T03:06:16Z</time>
      </trkpt>
      <trkpt lat="45.76728" lon="7.30631">
        <ele>883</ele>
        <time>2019-04-19T03:07:16Z</time>
      </trkpt>
      <trkpt lat="45.76733" lon="7.30639">
        <ele>880</ele>
        <time>2019-04-19T03:08:16Z</time>
      </trkpt>
      <trkpt lat="45.76745" lon="7.30651">
        <ele>876</ele>
        <time>2019-04-19T03:09:16Z</time>
      </trkpt>
      <trkpt lat="45.76756" lon="7.30657">
        <ele>874</ele>
        <time>2019-04-19T03:10:16Z</time>
      </trkpt>
      <trkpt lat="45.7677" lon="7.30657">
        <ele>873</ele>
        <time>2019-04-19T03:11:16Z</time>
      </trkpt>
      <trkpt lat="45.76784" lon="7.30652">
        <ele>873</ele>
        <time>2019-04-19T03:12:16Z</time>
      </trkpt>
      <trkpt lat="45.76794" lon="7.30646">
        <ele>873</ele>
        <time>2019-04-19T03:13:16Z</time>
      </trkpt>
      <trkpt lat="45.76984" lon="7.3053">
        <ele>881</ele>
        <time>2019-04-19T03:14:16Z</time>
      </trkpt>
      <trkpt lat="45.7701" lon="7.30517">
        <ele>882</ele>
        <time>2019-04-19T03:15:16Z</time>
      </trkpt>
      <trkpt lat="45.77137" lon="7.30439">
        <ele>878</ele>
        <time>2019-04-19T03:16:16Z</time>
      </trkpt>
      <trkpt lat="45.7716" lon="7.30435">
        <ele>876</ele>
        <time>2019-04-19T03:17:16Z</time>
      </trkpt>
      <trkpt lat="45.77181" lon="7.30449">
        <ele>874</ele>
        <time>2019-04-19T03:18:16Z</time>
      </trkpt>
      <trkpt lat="45.77192" lon="7.30465">
        <ele>873</ele>
        <time>2019-04-19T03:19:16Z</time>
      </trkpt>
      <trkpt lat="45.77196" lon="7.30496">
        <ele>872</ele>
        <time>2019-04-19T03:20:16Z</time>
      </trkpt>
      <trkpt lat="45.77196" lon="7.30561">
        <ele>870</ele>
        <time>2019-04-19T03:21:16Z</time>
      </trkpt>
      <trkpt lat="45.77193" lon="7.30601">
        <ele>867</ele>
        <time>2019-04-19T03:22:16Z</time>
      </trkpt>
      <trkpt lat="45.77185" lon="7.30631">
        <ele>864</ele>
        <time>2019-04-19T03:23:16Z</time>
      </trkpt>
      <trkpt lat="45.77174" lon="7.30657">
        <ele>862</ele>
        <time>2019-04-19T03:24:16Z</time>
      </trkpt>
      <trkpt lat="45.77161" lon="7.30676">
        <ele>860</ele>
        <time>2019-04-19T03:25:16Z</time>
      </trkpt>
      <trkpt lat="45.77148" lon="7.30687">
        <ele>859</ele>
        <time>2019-04-19T03:26:16Z</time>
      </trkpt>
      <trkpt lat="45.77126" lon="7.30698">
        <ele>858</ele>
        <time>2019-04-19T03:27:16Z</time>
      </trkpt>
      <trkpt lat="45.77115" lon="7.30701">
        <ele>859</ele>
        <time>2019-04-19T03:28:16Z</time>
      </trkpt>
      <trkpt lat="45.77103" lon="7.30701">
        <ele>860</ele>
        <time>2019-04-19T03:29:16Z</time>
      </trkpt>
      <trkpt lat="45.77051" lon="7.30687">
        <ele>863</ele>
        <time>2019-04-19T03:30:16Z</time>
      </trkpt>
      <trkpt lat="45.77037" lon="7.30687">
        <ele>863</ele>
        <time>2019-04-19T03:31:16Z</time>
      </trkpt>
      <trkpt lat="45.77025" lon="7.30694">
        <ele>862</ele>
        <time>2019-04-19T03:32:16Z</time>
      </trkpt>
      <trkpt lat="45.77018" lon="7.30703">
        <ele>860</ele>
        <time>2019-04-19T03:33:16Z</time>
      </trkpt>
      <trkpt lat="45.77015" lon="7.30714">
        <ele>859</ele>
        <time>2019-04-19T03:34:16Z</time>
      </trkpt>
      <trkpt lat="45.77014" lon="7.30724">
        <ele>857</ele>
        <time>2019-04-19T03:35:16Z</time>
      </trkpt>
      <trkpt lat="45.77015" lon="7.30734">
        <ele>856</ele>
        <time>2019-04-19T03:36:16Z</time>
      </trkpt>
      <trkpt lat="45.77017" lon="7.30746">
        <ele>854</ele>
        <time>2019-04-19T03:37:16Z</time>
      </trkpt>
      <trkpt lat="45.77022" lon="7.30756">
        <ele>852</ele>
        <time>2019-04-19T03:38:16Z</time>
      </trkpt>
      <trkpt lat="45.77029" lon="7.30762">
        <ele>850</ele>
        <time>2019-04-19T03:39:16Z</time>
      </trkpt>
      <trkpt lat="45.77048" lon="7.30767">
        <ele>848</ele>
        <time>2019-04-19T03:40:16Z</time>
      </trkpt>
      <trkpt lat="45.7713" lon="7.30748">
        <ele>847</ele>
        <time>2019-04-19T03:41:16Z</time>
      </trkpt>
      <trkpt lat="45.77193" lon="7.30727">
        <ele>844</ele>
        <time>2019-04-19T03:42:16Z</time>
      </trkpt>
      <trkpt lat="45.77216" lon="7.30718">
        <ele>843</ele>
        <time>2019-04-19T03:43:16Z</time>
      </trkpt>
      <trkpt lat="45.77301" lon="7.30676">
        <ele>843</ele>
        <time>2019-04-19T03:44:16Z</time>
      </trkpt>
      <trkpt lat="45.77312" lon="7.30673">
        <ele>843</ele>
        <time>2019-04-19T03:45:16Z</time>
      </trkpt>
      <trkpt lat="45.77323" lon="7.30673">
        <ele>842</ele>
        <time>2019-04-19T03:46:16Z</time>
      </trkpt>
      <trkpt lat="45.77333" lon="7.30676">
        <ele>840</ele>
        <time>2019-04-19T03:47:16Z</time>
      </trkpt>
      <trkpt lat="45.77345" lon="7.30684">
        <ele>837</ele>
        <time>2019-04-19T03:48:16Z</time>
      </trkpt>
      <trkpt lat="45.77351" lon="7.30693">
        <ele>834</ele>
        <time>2019-04-19T03:49:16Z</time>
      </trkpt>
      <trkpt lat="45.77355" lon="7.30713">
        <ele>830</ele>
        <time>2019-04-19T03:50:16Z</time>
      </trkpt>
      <trkpt lat="45.77352" lon="7.30734">
        <ele>828</ele>
        <time>2019-04-19T03:51:16Z</time>
      </trkpt>
      <trkpt lat="45.77345" lon="7.30748">
        <ele>827</ele>
        <time>2019-04-19T03:52:16Z</time>
      </trkpt>
      <trkpt lat="45.77339" lon="7.30757">
        <ele>826</ele>
        <time>2019-04-19T03:53:16Z</time>
      </trkpt>
      <trkpt lat="45.77328" lon="7.30766">
        <ele>825</ele>
        <time>2019-04-19T03:54:16Z</time>
      </trkpt>
      <trkpt lat="45.77316" lon="7.30771">
        <ele>824</ele>
        <time>2019-04-19T03:55:16Z</time>
      </trkpt>
      <trkpt lat="45.77255" lon="7.30784">
        <ele>823</ele>
        <time>2019-04-19T03:56:16Z</time>
      </trkpt>
      <trkpt lat="45.77125" lon="7.30834">
        <ele>822</ele>
        <time>2019-04-19T03:57:16Z</time>
      </trkpt>
      <trkpt lat="45.77069" lon="7.30862">
        <ele>818</ele>
        <time>2019-04-19T03:58:16Z</time>
      </trkpt>
      <trkpt lat="45.76795" lon="7.31042">
        <ele>798</ele>
        <time>2019-04-19T03:59:16Z</time>
      </trkpt>
      <trkpt lat="45.76697" lon="7.31109">
        <ele>792</ele>
        <time>2019-04-19T04:00:16Z</time>
      </trkpt>
      <trkpt lat="45.76617" lon="7.31159">
        <ele>788</ele>
        <time>2019-04-19T04:01:16Z</time>
      </trkpt>
      <trkpt lat="45.76583" lon="7.31172">
        <ele>786</ele>
        <time>2019-04-19T04:02:16Z</time>
      </trkpt>
      <trkpt lat="45.76493" lon="7.31191">
        <ele>785</ele>
        <time>2019-04-19T04:03:16Z</time>
      </trkpt>
      <trkpt lat="45.76489" lon="7.31189">
        <ele>786</ele>
        <time>2019-04-19T04:04:16Z</time>
      </trkpt>
      <trkpt lat="45.76484" lon="7.31189">
        <ele>787</ele>
        <time>2019-04-19T04:05:16Z</time>
      </trkpt>
      <trkpt lat="45.76468" lon="7.31194">
        <ele>787</ele>
        <time>2019-04-19T04:06:16Z</time>
      </trkpt>
      <trkpt lat="45.76438" lon="7.3121">
        <ele>786</ele>
        <time>2019-04-19T04:07:16Z</time>
      </trkpt>
      <trkpt lat="45.76364" lon="7.31281">
        <ele>780</ele>
        <time>2019-04-19T04:08:16Z</time>
      </trkpt>
      <trkpt lat="45.76274" lon="7.31356">
        <ele>779</ele>
        <time>2019-04-19T04:09:16Z</time>
      </trkpt>
      <trkpt lat="45.76263" lon="7.3137">
        <ele>777</ele>
        <time>2019-04-19T04:10:16Z</time>
      </trkpt>
      <trkpt lat="45.76243" lon="7.31406">
        <ele>770</ele>
        <time>2019-04-19T04:11:16Z</time>
      </trkpt>
      <trkpt lat="45.76236" lon="7.31416">
        <ele>768</ele>
        <time>2019-04-19T04:12:16Z</time>
      </trkpt>
      <trkpt lat="45.76201" lon="7.31442">
        <ele>765</ele>
        <time>2019-04-19T04:13:16Z</time>
      </trkpt>
      <trkpt lat="45.76172" lon="7.31459">
        <ele>763</ele>
        <time>2019-04-19T04:14:16Z</time>
      </trkpt>
      <trkpt lat="45.76134" lon="7.31475">
        <ele>760</ele>
        <time>2019-04-19T04:15:16Z</time>
      </trkpt>
      <trkpt lat="45.76007" lon="7.3151">
        <ele>749</ele>
        <time>2019-04-19T04:16:16Z</time>
      </trkpt>
      <trkpt lat="45.75975" lon="7.31526">
        <ele>746</ele>
        <time>2019-04-19T04:17:16Z</time>
      </trkpt>
      <trkpt lat="45.75941" lon="7.31534">
        <ele>745</ele>
        <time>2019-04-19T04:18:16Z</time>
      </trkpt>
      <trkpt lat="45.75885" lon="7.31553">
        <ele>743</ele>
        <time>2019-04-19T04:19:16Z</time>
      </trkpt>
      <trkpt lat="45.75862" lon="7.31563">
        <ele>741</ele>
        <time>2019-04-19T04:20:16Z</time>
      </trkpt>
      <trkpt lat="45.75829" lon="7.31581">
        <ele>738</ele>
        <time>2019-04-19T04:21:16Z</time>
      </trkpt>
      <trkpt lat="45.75671" lon="7.31682">
        <ele>727</ele>
        <time>2019-04-19T04:22:16Z</time>
      </trkpt>
      <trkpt lat="45.75643" lon="7.31693">
        <ele>725</ele>
        <time>2019-04-19T04:23:16Z</time>
      </trkpt>
      <trkpt lat="45.75532" lon="7.31717">
        <ele>719</ele>
        <time>2019-04-19T04:24:16Z</time>
      </trkpt>
      <trkpt lat="45.75455" lon="7.31728">
        <ele>719</ele>
        <time>2019-04-19T04:25:16Z</time>
      </trkpt>
      <trkpt lat="45.75437" lon="7.31732">
        <ele>718</ele>
        <time>2019-04-19T04:26:16Z</time>
      </trkpt>
      <trkpt lat="45.75426" lon="7.31738">
        <ele>718</ele>
        <time>2019-04-19T04:27:16Z</time>
      </trkpt>
      <trkpt lat="45.75408" lon="7.31757">
        <ele>715</ele>
        <time>2019-04-19T04:28:16Z</time>
      </trkpt>
      <trkpt lat="45.75389" lon="7.31769">
        <ele>713</ele>
        <time>2019-04-19T04:29:16Z</time>
      </trkpt>
      <trkpt lat="45.75373" lon="7.3177">
        <ele>713</ele>
        <time>2019-04-19T04:30:16Z</time>
      </trkpt>
      <trkpt lat="45.75347" lon="7.31754">
        <ele>717</ele>
        <time>2019-04-19T04:31:16Z</time>
      </trkpt>
      <trkpt lat="45.75333" lon="7.31753">
        <ele>717</ele>
        <time>2019-04-19T04:32:16Z</time>
      </trkpt>
      <trkpt lat="45.7527" lon="7.31778">
        <ele>711</ele>
        <time>2019-04-19T04:33:16Z</time>
      </trkpt>
      <trkpt lat="45.75211" lon="7.3177">
        <ele>711</ele>
        <time>2019-04-19T04:34:16Z</time>
      </trkpt>
      <trkpt lat="45.75191" lon="7.31774">
        <ele>710</ele>
        <time>2019-04-19T04:35:16Z</time>
      </trkpt>
      <trkpt lat="45.75171" lon="7.3178">
        <ele>709</ele>
        <time>2019-04-19T04:36:16Z</time>
      </trkpt>
      <trkpt lat="45.75104" lon="7.31841">
        <ele>696</ele>
        <time>2019-04-19T04:37:16Z</time>
      </trkpt>
      <trkpt lat="45.75095" lon="7.31845">
        <ele>696</ele>
        <time>2019-04-19T04:38:16Z</time>
      </trkpt>
      <trkpt lat="45.75073" lon="7.3185">
        <ele>695</ele>
        <time>2019-04-19T04:39:16Z</time>
      </trkpt>
      <trkpt lat="45.75069" lon="7.31849">
        <ele>695</ele>
        <time>2019-04-19T04:40:16Z</time>
      </trkpt>
      <trkpt lat="45.75068" lon="7.31844">
        <ele>695</ele>
        <time>2019-04-19T04:41:16Z</time>
      </trkpt>
      <trkpt lat="45.75062" lon="7.31837">
        <ele>696</ele>
        <time>2019-04-19T04:42:16Z</time>
      </trkpt>
      <trkpt lat="45.75054" lon="7.31835">
        <ele>696</ele>
        <time>2019-04-19T04:43:16Z</time>
      </trkpt>
      <trkpt lat="45.75047" lon="7.31838">
        <ele>696</ele>
        <time>2019-04-19T04:44:16Z</time>
      </trkpt>
      <trkpt lat="45.75041" lon="7.31847">
        <ele>695</ele>
        <time>2019-04-19T04:45:16Z</time>
      </trkpt>
      <trkpt lat="45.75016" lon="7.31854">
        <ele>695</ele>
        <time>2019-04-19T04:46:16Z</time>
      </trkpt>
      <trkpt lat="45.75012" lon="7.31857">
        <ele>695</ele>
        <time>2019-04-19T04:47:16Z</time>
      </trkpt>
      <trkpt lat="45.74989" lon="7.31892">
        <ele>693</ele>
        <time>2019-04-19T04:48:16Z</time>
      </trkpt>
      <trkpt lat="45.74981" lon="7.31898">
        <ele>692</ele>
        <time>2019-04-19T04:49:16Z</time>
      </trkpt>
      <trkpt lat="45.74972" lon="7.31903">
        <ele>692</ele>
        <time>2019-04-19T04:50:16Z</time>
      </trkpt>
      <trkpt lat="45.74932" lon="7.31917">
        <ele>692</ele>
        <time>2019-04-19T04:51:16Z</time>
      </trkpt>
      <trkpt lat="45.74911" lon="7.3193">
        <ele>690</ele>
        <time>2019-04-19T04:52:16Z</time>
      </trkpt>
      <trkpt lat="45.74892" lon="7.31935">
        <ele>687</ele>
        <time>2019-04-19T04:53:16Z</time>
      </trkpt>
      <trkpt lat="45.74879" lon="7.31933">
        <ele>685</ele>
        <time>2019-04-19T04:54:16Z</time>
      </trkpt>
      <trkpt lat="45.74862" lon="7.31924">
        <ele>683</ele>
        <time>2019-04-19T04:55:16Z</time>
      </trkpt>
      <trkpt lat="45.74854" lon="7.31916">
        <ele>683</ele>
        <time>2019-04-19T04:56:16Z</time>
      </trkpt>
      <trkpt lat="45.7484" lon="7.31895">
        <ele>682</ele>
        <time>2019-04-19T04:57:16Z</time>
      </trkpt>
      <trkpt lat="45.74784" lon="7.31794">
        <ele>679</ele>
        <time>2019-04-19T04:58:16Z</time>
      </trkpt>
      <trkpt lat="45.74736" lon="7.31699">
        <ele>674</ele>
        <time>2019-04-19T04:59:16Z</time>
      </trkpt>
      <trkpt lat="45.74723" lon="7.31681">
        <ele>673</ele>
        <time>2019-04-19T05:00:16Z</time>
      </trkpt>
      <trkpt lat="45.74713" lon="7.31678">
        <ele>671</ele>
        <time>2019-04-19T05:01:16Z</time>
      </trkpt>
      <trkpt lat="45.74704" lon="7.31682">
        <ele>669</ele>
        <time>2019-04-19T05:02:16Z</time>
      </trkpt>
      <trkpt lat="45.74699" lon="7.31688">
        <ele>668</ele>
        <time>2019-04-19T05:03:16Z</time>
      </trkpt>
      <trkpt lat="45.74695" lon="7.31702">
        <ele>667</ele>
        <time>2019-04-19T05:04:16Z</time>
      </trkpt>
      <trkpt lat="45.74696" lon="7.31713">
        <ele>667</ele>
        <time>2019-04-19T05:05:16Z</time>
      </trkpt>
      <trkpt lat="45.74714" lon="7.31788">
        <ele>668</ele>
        <time>2019-04-19T05:06:16Z</time>
      </trkpt>
      <trkpt lat="45.74716" lon="7.318">
        <ele>668</ele>
        <time>2019-04-19T05:07:16Z</time>
      </trkpt>
      <trkpt lat="45.74715" lon="7.31817">
        <ele>667</ele>
        <time>2019-04-19T05:08:16Z</time>
      </trkpt>
      <trkpt lat="45.74698" lon="7.31868">
        <ele>662</ele>
        <time>2019-04-19T05:09:16Z</time>
      </trkpt>
      <trkpt lat="45.74696" lon="7.31879">
        <ele>661</ele>
        <time>2019-04-19T05:10:16Z</time>
      </trkpt>
      <trkpt lat="45.74695" lon="7.31899">
        <ele>660</ele>
        <time>2019-04-19T05:11:16Z</time>
      </trkpt>
      <trkpt lat="45.74714" lon="7.3197">
        <ele>658</ele>
        <time>2019-04-19T05:12:16Z</time>
      </trkpt>
      <trkpt lat="45.74718" lon="7.32">
        <ele>657</ele>
        <time>2019-04-19T05:13:16Z</time>
      </trkpt>
      <trkpt lat="45.74708" lon="7.32111">
        <ele>652</ele>
        <time>2019-04-19T05:14:16Z</time>
      </trkpt>
      <trkpt lat="45.74701" lon="7.32128">
        <ele>648</ele>
        <time>2019-04-19T05:15:16Z</time>
      </trkpt>
      <trkpt lat="45.74687" lon="7.32137">
        <ele>646</ele>
        <time>2019-04-19T05:16:16Z</time>
      </trkpt>
      <trkpt lat="45.74634" lon="7.3216">
        <ele>642</ele>
        <time>2019-04-19T05:17:16Z</time>
      </trkpt>
      <trkpt lat="45.7461" lon="7.32185">
        <ele>637</ele>
        <time>2019-04-19T05:18:16Z</time>
      </trkpt>
      <trkpt lat="45.74582" lon="7.32205">
        <ele>632</ele>
        <time>2019-04-19T05:19:16Z</time>
      </trkpt>
      <trkpt lat="45.74534" lon="7.3223">
        <ele>625</ele>
        <time>2019-04-19T05:20:16Z</time>
      </trkpt>
      <trkpt lat="45.74504" lon="7.3223">
        <ele>625</ele>
        <time>2019-04-19T05:21:16Z</time>
      </trkpt>
      <trkpt lat="45.7448" lon="7.32218">
        <ele>621</ele>
        <time>2019-04-19T05:22:16Z</time>
      </trkpt>
      <trkpt lat="45.74474" lon="7.32197">
        <ele>623</ele>
        <time>2019-04-19T05:23:16Z</time>
      </trkpt>
      <trkpt lat="45.74473" lon="7.32181">
        <ele>625</ele>
        <time>2019-04-19T05:24:16Z</time>
      </trkpt>
      <trkpt lat="45.74471" lon="7.31982">
        <ele>627</ele>
        <time>2019-04-19T05:25:16Z</time>
      </trkpt>
      <trkpt lat="45.74469" lon="7.31946">
        <ele>626</ele>
        <time>2019-04-19T05:26:16Z</time>
      </trkpt>
      <trkpt lat="45.7444" lon="7.31811">
        <ele>620</ele>
        <time>2019-04-19T05:27:16Z</time>
      </trkpt>
      <trkpt lat="45.7443" lon="7.31774">
        <ele>619</ele>
        <time>2019-04-19T05:28:16Z</time>
      </trkpt>
      <trkpt lat="45.74384" lon="7.31703">
        <ele>613</ele>
        <time>2019-04-19T05:29:16Z</time>
      </trkpt>
      <trkpt lat="45.7435" lon="7.3164">
        <ele>609</ele>
        <time>2019-04-19T05:30:16Z</time>
      </trkpt>
      <trkpt lat="45.74345" lon="7.31632">
        <ele>609</ele>
        <time>2019-04-19T05:31:16Z</time>
      </trkpt>
      <trkpt lat="45.74338" lon="7.31626">
        <ele>608</ele>
        <time>2019-04-19T05:32:16Z</time>
      </trkpt>
      <trkpt lat="45.74283" lon="7.31601">
        <ele>604</ele>
        <time>2019-04-19T05:33:16Z</time>
      </trkpt>
      <trkpt lat="45.74275" lon="7.3159">
        <ele>604</ele>
        <time>2019-04-19T05:34:16Z</time>
      </trkpt>
      <trkpt lat="45.74269" lon="7.31577">
        <ele>604</ele>
        <time>2019-04-19T05:35:16Z</time>
      </trkpt>
      <trkpt lat="45.74252" lon="7.31524">
        <ele>603</ele>
        <time>2019-04-19T05:36:16Z</time>
      </trkpt>
      <trkpt lat="45.74238" lon="7.31499">
        <ele>602</ele>
        <time>2019-04-19T05:37:16Z</time>
      </trkpt>
      <trkpt lat="45.74174" lon="7.31435">
        <ele>596</ele>
        <time>2019-04-19T05:38:16Z</time>
      </trkpt>
      <trkpt lat="45.7416" lon="7.3143">
        <ele>594</ele>
        <time>2019-04-19T05:39:16Z</time>
      </trkpt>
      <trkpt lat="45.74158" lon="7.31423">
        <ele>594</ele>
        <time>2019-04-19T05:40:16Z</time>
      </trkpt>
      <trkpt lat="45.74151" lon="7.31419">
        <ele>594</ele>
        <time>2019-04-19T05:41:16Z</time>
      </trkpt>
      <trkpt lat="45.74154" lon="7.31365">
        <ele>596</ele>
        <time>2019-04-19T05:42:16Z</time>
      </trkpt>
      <trkpt lat="45.74154" lon="7.31316">
        <ele>597</ele>
        <time>2019-04-19T05:43:16Z</time>
      </trkpt>
      <trkpt lat="45.7415" lon="7.31294">
        <ele>596</ele>
        <time>2019-04-19T05:44:16Z</time>
      </trkpt>
      <trkpt lat="45.74142" lon="7.31271">
        <ele>596</ele>
        <time>2019-04-19T05:45:16Z</time>
      </trkpt>
      <trkpt lat="45.74122" lon="7.31234">
        <ele>595</ele>
        <time>2019-04-19T05:46:16Z</time>
      </trkpt>
      <trkpt lat="45.74028" lon="7.31088">
        <ele>590</ele>
        <time>2019-04-19T05:47:16Z</time>
      </trkpt>
      <trkpt lat="45.74001" lon="7.3105">
        <ele>590</ele>
        <time>2019-04-19T05:48:16Z</time>
      </trkpt>
      <trkpt lat="45.74002" lon="7.31046">
        <ele>590</ele>
        <time>2019-04-19T05:49:16Z</time>
      </trkpt>
      <trkpt lat="45.74001" lon="7.31041">
        <ele>590</ele>
        <time>2019-04-19T05:50:16Z</time>
      </trkpt>
      <trkpt lat="45.73996" lon="7.31038">
        <ele>590</ele>
        <time>2019-04-19T05:51:16Z</time>
      </trkpt>
      <trkpt lat="45.73993" lon="7.3104">
        <ele>590</ele>
        <time>2019-04-19T05:52:16Z</time>
      </trkpt>
      <trkpt lat="45.73952" lon="7.30978">
        <ele>590</ele>
        <time>2019-04-19T05:53:16Z</time>
      </trkpt>
      <trkpt lat="45.73935" lon="7.30948">
        <ele>589</ele>
        <time>2019-04-19T05:54:16Z</time>
      </trkpt>
      <trkpt lat="45.73924" lon="7.30922">
        <ele>588</ele>
        <time>2019-04-19T05:55:16Z</time>
      </trkpt>
      <trkpt lat="45.73919" lon="7.30902">
        <ele>587</ele>
        <time>2019-04-19T05:56:16Z</time>
      </trkpt>
      <trkpt lat="45.73916" lon="7.30879">
        <ele>587</ele>
        <time>2019-04-19T05:57:16Z</time>
      </trkpt>
      <trkpt lat="45.73916" lon="7.30847">
        <ele>587</ele>
        <time>2019-04-19T05:58:16Z</time>
      </trkpt>
      <trkpt lat="45.73919" lon="7.30779">
        <ele>587</ele>
        <time>2019-04-19T05:59:16Z</time>
      </trkpt>
      <trkpt lat="45.73918" lon="7.3072">
        <ele>587</ele>
        <time>2019-04-19T06:00:16Z</time>
      </trkpt>
      <trkpt lat="45.73911" lon="7.30673">
        <ele>588</ele>
        <time>2019-04-19T06:01:16Z</time>
      </trkpt>
      <trkpt lat="45.73904" lon="7.30645">
        <ele>589</ele>
        <time>2019-04-19T06:02:16Z</time>
      </trkpt>
      <trkpt lat="45.73888" lon="7.30605">
        <ele>590</ele>
        <time>2019-04-19T06:03:16Z</time>
      </trkpt>
      <trkpt lat="45.73871" lon="7.30575">
        <ele>590</ele>
        <time>2019-04-19T06:04:16Z</time>
      </trkpt>
      <trkpt lat="45.73828" lon="7.30511">
        <ele>588</ele>
        <time>2019-04-19T06:05:16Z</time>
      </trkpt>
      <trkpt lat="45.73788" lon="7.30429">
        <ele>586</ele>
        <time>2019-04-19T06:06:16Z</time>
      </trkpt>
      <trkpt lat="45.73691" lon="7.30197">
        <ele>587</ele>
        <time>2019-04-19T06:07:16Z</time>
      </trkpt>
      <trkpt lat="45.73684" lon="7.30169">
        <ele>587</ele>
        <time>2019-04-19T06:08:16Z</time>
      </trkpt>
      <trkpt lat="45.73681" lon="7.30149">
        <ele>587</ele>
        <time>2019-04-19T06:09:16Z</time>
      </trkpt>
      <trkpt lat="45.73686" lon="7.30143">
        <ele>587</ele>
        <time>2019-04-19T06:10:16Z</time>
      </trkpt>
      <trkpt lat="45.73687" lon="7.30137">
        <ele>588</ele>
        <time>2019-04-19T06:11:16Z</time>
      </trkpt>
      <trkpt lat="45.73686" lon="7.3013">
        <ele>588</ele>
        <time>2019-04-19T06:12:16Z</time>
      </trkpt>
      <trkpt lat="45.73677" lon="7.30107">
        <ele>588</ele>
        <time>2019-04-19T06:13:16Z</time>
      </trkpt>
      <trkpt lat="45.73671" lon="7.30098">
        <ele>587</ele>
        <time>2019-04-19T06:14:16Z</time>
      </trkpt>
      <trkpt lat="45.73666" lon="7.30094">
        <ele>587</ele>
        <time>2019-04-19T06:15:16Z</time>
      </trkpt>
      <trkpt lat="45.7366" lon="7.30094">
        <ele>587</ele>
        <time>2019-04-19T06:16:16Z</time>
      </trkpt>
      <trkpt lat="45.73655" lon="7.30098">
        <ele>586</ele>
        <time>2019-04-19T06:17:16Z</time>
      </trkpt>
      <trkpt lat="45.73648" lon="7.30093">
        <ele>586</ele>
        <time>2019-04-19T06:18:16Z</time>
      </trkpt>
      <trkpt lat="45.7364" lon="7.30072">
        <ele>586</ele>
        <time>2019-04-19T06:19:16Z</time>
      </trkpt>
      <trkpt lat="45.73633" lon="7.3005">
        <ele>586</ele>
        <time>2019-04-19T06:20:16Z</time>
      </trkpt>
      <trkpt lat="45.73611" lon="7.29904">
        <ele>584</ele>
        <time>2019-04-19T06:21:16Z</time>
      </trkpt>
      <trkpt lat="45.73553" lon="7.29537">
        <ele>589</ele>
        <time>2019-04-19T06:22:16Z</time>
      </trkpt>
      <trkpt lat="45.73544" lon="7.29499">
        <ele>590</ele>
        <time>2019-04-19T06:23:16Z</time>
      </trkpt>
      <trkpt lat="45.73536" lon="7.29478">
        <ele>591</ele>
        <time>2019-04-19T06:24:16Z</time>
      </trkpt>
      <trkpt lat="45.73526" lon="7.29458">
        <ele>592</ele>
        <time>2019-04-19T06:25:16Z</time>
      </trkpt>
      <trkpt lat="45.73466" lon="7.29368">
        <ele>592</ele>
        <time>2019-04-19T06:26:16Z</time>
      </trkpt>
      <trkpt lat="45.73352" lon="7.292">
        <ele>592</ele>
        <time>2019-04-19T06:27:16Z</time>
      </trkpt>
      <trkpt lat="45.73329" lon="7.29173">
        <ele>592</ele>
        <time>2019-04-19T06:28:16Z</time>
      </trkpt>
      <trkpt lat="45.73027" lon="7.2889">
        <ele>592</ele>
        <time>2019-04-19T06:29:16Z</time>
      </trkpt>
      <trkpt lat="45.73017" lon="7.28879">
        <ele>592</ele>
        <time>2019-04-19T06:30:16Z</time>
      </trkpt>
      <trkpt lat="45.72999" lon="7.28855">
        <ele>592</ele>
        <time>2019-04-19T06:31:16Z</time>
      </trkpt>
      <trkpt lat="45.72985" lon="7.28825">
        <ele>592</ele>
        <time>2019-04-19T06:32:16Z</time>
      </trkpt>
      <trkpt lat="45.72973" lon="7.28781">
        <ele>591</ele>
        <time>2019-04-19T06:33:16Z</time>
      </trkpt>
      <trkpt lat="45.72969" lon="7.28747">
        <ele>590</ele>
        <time>2019-04-19T06:34:16Z</time>
      </trkpt>
      <trkpt lat="45.7297" lon="7.28685">
        <ele>588</ele>
        <time>2019-04-19T06:35:16Z</time>
      </trkpt>
      <trkpt lat="45.72977" lon="7.28561">
        <ele>588</ele>
        <time>2019-04-19T06:36:16Z</time>
      </trkpt>
      <trkpt lat="45.72975" lon="7.28509">
        <ele>589</ele>
        <time>2019-04-19T06:37:16Z</time>
      </trkpt>
      <trkpt lat="45.72974" lon="7.28487">
        <ele>589</ele>
        <time>2019-04-19T06:38:16Z</time>
      </trkpt>
      <trkpt lat="45.72967" lon="7.28448">
        <ele>589</ele>
        <time>2019-04-19T06:39:16Z</time>
      </trkpt>
      <trkpt lat="45.72955" lon="7.28397">
        <ele>588</ele>
        <time>2019-04-19T06:40:16Z</time>
      </trkpt>
      <trkpt lat="45.72944" lon="7.28361">
        <ele>588</ele>
        <time>2019-04-19T06:41:16Z</time>
      </trkpt>
      <trkpt lat="45.72923" lon="7.28312">
        <ele>587</ele>
        <time>2019-04-19T06:42:16Z</time>
      </trkpt>
      <trkpt lat="45.72901" lon="7.2827">
        <ele>588</ele>
        <time>2019-04-19T06:43:16Z</time>
      </trkpt>
      <trkpt lat="45.7274" lon="7.28006">
        <ele>588</ele>
        <time>2019-04-19T06:44:16Z</time>
      </trkpt>
      <trkpt lat="45.72449" lon="7.27521">
        <ele>599</ele>
        <time>2019-04-19T06:45:16Z</time>
      </trkpt>
      <trkpt lat="45.72434" lon="7.27484">
        <ele>600</ele>
        <time>2019-04-19T06:46:16Z</time>
      </trkpt>
      <trkpt lat="45.72423" lon="7.27444">
        <ele>601</ele>
        <time>2019-04-19T06:47:16Z</time>
      </trkpt>
      <trkpt lat="45.72414" lon="7.274">
        <ele>602</ele>
        <time>2019-04-19T06:48:16Z</time>
      </trkpt>
      <trkpt lat="45.724" lon="7.27225">
        <ele>602</ele>
        <time>2019-04-19T06:49:16Z</time>
      </trkpt>
      <trkpt lat="45.72397" lon="7.27192">
        <ele>601</ele>
        <time>2019-04-19T06:50:16Z</time>
      </trkpt>
      <trkpt lat="45.72391" lon="7.2715">
        <ele>601</ele>
        <time>2019-04-19T06:51:16Z</time>
      </trkpt>
      <trkpt lat="45.72382" lon="7.27112">
        <ele>599</ele>
        <time>2019-04-19T06:52:16Z</time>
      </trkpt>
      <trkpt lat="45.72365" lon="7.27059">
        <ele>598</ele>
        <time>2019-04-19T06:53:16Z</time>
      </trkpt>
      <trkpt lat="45.72348" lon="7.27022">
        <ele>598</ele>
        <time>2019-04-19T06:54:16Z</time>
      </trkpt>
      <trkpt lat="45.72335" lon="7.26998">
        <ele>597</ele>
        <time>2019-04-19T06:55:16Z</time>
      </trkpt>
      <trkpt lat="45.72248" lon="7.26869">
        <ele>600</ele>
        <time>2019-04-19T06:56:16Z</time>
      </trkpt>
      <trkpt lat="45.72186" lon="7.2677">
        <ele>600</ele>
        <time>2019-04-19T06:57:16Z</time>
      </trkpt>
      <trkpt lat="45.72171" lon="7.26738">
        <ele>600</ele>
        <time>2019-04-19T06:58:16Z</time>
      </trkpt>
      <trkpt lat="45.72132" lon="7.2662">
        <ele>601</ele>
        <time>2019-04-19T06:59:16Z</time>
      </trkpt>
      <trkpt lat="45.7212" lon="7.26593">
        <ele>601</ele>
        <time>2019-04-19T07:00:16Z</time>
      </trkpt>
      <trkpt lat="45.72107" lon="7.26567">
        <ele>601</ele>
        <time>2019-04-19T07:01:16Z</time>
      </trkpt>
      <trkpt lat="45.7209" lon="7.26541">
        <ele>601</ele>
        <time>2019-04-19T07:02:16Z</time>
      </trkpt>
      <trkpt lat="45.71755" lon="7.26148">
        <ele>611</ele>
        <time>2019-04-19T07:03:16Z</time>
      </trkpt>
      <trkpt lat="45.71407" lon="7.25715">
        <ele>613</ele>
        <time>2019-04-19T07:04:16Z</time>
      </trkpt>
      <trkpt lat="45.71315" lon="7.25598">
        <ele>616</ele>
        <time>2019-04-19T07:05:16Z</time>
      </trkpt>
      <trkpt lat="45.713" lon="7.25571">
        <ele>617</ele>
        <time>2019-04-19T07:06:16Z</time>
      </trkpt>
      <trkpt lat="45.7127" lon="7.25543">
        <ele>617</ele>
        <time>2019-04-19T07:07:16Z</time>
      </trkpt>
      <trkpt lat="45.71244" lon="7.25512">
        <ele>619</ele>
        <time>2019-04-19T07:08:16Z</time>
      </trkpt>
      <trkpt lat="45.71216" lon="7.25475">
        <ele>617</ele>
        <time>2019-04-19T07:09:16Z</time>
      </trkpt>
      <trkpt lat="45.712" lon="7.25442">
        <ele>617</ele>
        <time>2019-04-19T07:10:16Z</time>
      </trkpt>
      <trkpt lat="45.71189" lon="7.25401">
        <ele>616</ele>
        <time>2019-04-19T07:11:16Z</time>
      </trkpt>
      <trkpt lat="45.71187" lon="7.25382">
        <ele>615</ele>
        <time>2019-04-19T07:12:16Z</time>
      </trkpt>
      <trkpt lat="45.71186" lon="7.25344">
        <ele>615</ele>
        <time>2019-04-19T07:13:16Z</time>
      </trkpt>
      <trkpt lat="45.71191" lon="7.25282">
        <ele>617</ele>
        <time>2019-04-19T07:14:16Z</time>
      </trkpt>
      <trkpt lat="45.71194" lon="7.25261">
        <ele>618</ele>
        <time>2019-04-19T07:15:16Z</time>
      </trkpt>
      <trkpt lat="45.71198" lon="7.25244">
        <ele>619</ele>
        <time>2019-04-19T07:16:16Z</time>
      </trkpt>
      <trkpt lat="45.71204" lon="7.25224">
        <ele>621</ele>
        <time>2019-04-19T07:17:16Z</time>
      </trkpt>
      <trkpt lat="45.7122" lon="7.25186">
        <ele>626</ele>
        <time>2019-04-19T07:18:16Z</time>
      </trkpt>
      <trkpt lat="45.71257" lon="7.2511">
        <ele>631</ele>
        <time>2019-04-19T07:19:16Z</time>
      </trkpt>
      <trkpt lat="45.71264" lon="7.25089">
        <ele>632</ele>
        <time>2019-04-19T07:20:16Z</time>
      </trkpt>
      <trkpt lat="45.71268" lon="7.2507">
        <ele>632</ele>
        <time>2019-04-19T07:21:16Z</time>
      </trkpt>
      <trkpt lat="45.71272" lon="7.25028">
        <ele>634</ele>
        <time>2019-04-19T07:22:16Z</time>
      </trkpt>
      <trkpt lat="45.71272" lon="7.25012">
        <ele>634</ele>
        <time>2019-04-19T07:23:16Z</time>
      </trkpt>
      <trkpt lat="45.71265" lon="7.24932">
        <ele>634</ele>
        <time>2019-04-19T07:24:16Z</time>
      </trkpt>
      <trkpt lat="45.71249" lon="7.24783">
        <ele>635</ele>
        <time>2019-04-19T07:25:16Z</time>
      </trkpt>
      <trkpt lat="45.71244" lon="7.24752">
        <ele>636</ele>
        <time>2019-04-19T07:26:16Z</time>
      </trkpt>
      <trkpt lat="45.71216" lon="7.24651">
        <ele>642</ele>
        <time>2019-04-19T07:27:16Z</time>
      </trkpt>
      <trkpt lat="45.71207" lon="7.24611">
        <ele>645</ele>
        <time>2019-04-19T07:28:16Z</time>
      </trkpt>
      <trkpt lat="45.71181" lon="7.24469">
        <ele>662</ele>
        <time>2019-04-19T07:29:16Z</time>
      </trkpt>
      <trkpt lat="45.7117" lon="7.24422">
        <ele>668</ele>
        <time>2019-04-19T07:30:16Z</time>
      </trkpt>
      <trkpt lat="45.71161" lon="7.24395">
        <ele>669</ele>
        <time>2019-04-19T07:31:16Z</time>
      </trkpt>
      <trkpt lat="45.71151" lon="7.2437">
        <ele>669</ele>
        <time>2019-04-19T07:32:16Z</time>
      </trkpt>
      <trkpt lat="45.71122" lon="7.24323">
        <ele>663</ele>
        <time>2019-04-19T07:33:16Z</time>
      </trkpt>
      <trkpt lat="45.71059" lon="7.24248">
        <ele>656</ele>
        <time>2019-04-19T07:34:16Z</time>
      </trkpt>
      <trkpt lat="45.71043" lon="7.24234">
        <ele>654</ele>
        <time>2019-04-19T07:35:16Z</time>
      </trkpt>
      <trkpt lat="45.71028" lon="7.24224">
        <ele>653</ele>
        <time>2019-04-19T07:36:16Z</time>
      </trkpt>
      <trkpt lat="45.70997" lon="7.24214">
        <ele>649</ele>
        <time>2019-04-19T07:37:16Z</time>
      </trkpt>
      <trkpt lat="45.70919" lon="7.24215">
        <ele>654</ele>
        <time>2019-04-19T07:38:16Z</time>
      </trkpt>
      <trkpt lat="45.70903" lon="7.24211">
        <ele>654</ele>
        <time>2019-04-19T07:39:16Z</time>
      </trkpt>
      <trkpt lat="45.7088" lon="7.24201">
        <ele>656</ele>
        <time>2019-04-19T07:40:16Z</time>
      </trkpt>
      <trkpt lat="45.70854" lon="7.24182">
        <ele>658</ele>
        <time>2019-04-19T07:41:16Z</time>
      </trkpt>
      <trkpt lat="45.70842" lon="7.24167">
        <ele>660</ele>
        <time>2019-04-19T07:42:16Z</time>
      </trkpt>
      <trkpt lat="45.70828" lon="7.24148">
        <ele>658</ele>
        <time>2019-04-19T07:43:16Z</time>
      </trkpt>
      <trkpt lat="45.70819" lon="7.24129">
        <ele>657</ele>
        <time>2019-04-19T07:44:16Z</time>
      </trkpt>
      <trkpt lat="45.70811" lon="7.24109">
        <ele>657</ele>
        <time>2019-04-19T07:45:16Z</time>
      </trkpt>
      <trkpt lat="45.70804" lon="7.24087">
        <ele>657</ele>
        <time>2019-04-19T07:46:16Z</time>
      </trkpt>
      <trkpt lat="45.70798" lon="7.24058">
        <ele>657</ele>
        <time>2019-04-19T07:47:16Z</time>
      </trkpt>
      <trkpt lat="45.70796" lon="7.24018">
        <ele>659</ele>
        <time>2019-04-19T07:48:16Z</time>
      </trkpt>
      <trkpt lat="45.70802" lon="7.23832">
        <ele>666</ele>
        <time>2019-04-19T07:49:16Z</time>
      </trkpt>
      <trkpt lat="45.70809" lon="7.23756">
        <ele>669</ele>
        <time>2019-04-19T07:50:16Z</time>
      </trkpt>
      <trkpt lat="45.70813" lon="7.23733">
        <ele>669</ele>
        <time>2019-04-19T07:51:16Z</time>
      </trkpt>
      <trkpt lat="45.70827" lon="7.23681">
        <ele>669</ele>
        <time>2019-04-19T07:52:16Z</time>
      </trkpt>
      <trkpt lat="45.70836" lon="7.23653">
        <ele>669</ele>
        <time>2019-04-19T07:53:16Z</time>
      </trkpt>
      <trkpt lat="45.70986" lon="7.23286">
        <ele>674</ele>
        <time>2019-04-19T07:54:16Z</time>
      </trkpt>
      <trkpt lat="45.70998" lon="7.23248">
        <ele>674</ele>
        <time>2019-04-19T07:55:16Z</time>
      </trkpt>
      <trkpt lat="45.71006" lon="7.23208">
        <ele>675</ele>
        <time>2019-04-19T07:56:16Z</time>
      </trkpt>
      <trkpt lat="45.7101" lon="7.23145">
        <ele>677</ele>
        <time>2019-04-19T07:57:16Z</time>
      </trkpt>
      <trkpt lat="45.71008" lon="7.23098">
        <ele>679</ele>
        <time>2019-04-19T07:58:16Z</time>
      </trkpt>
      <trkpt lat="45.70966" lon="7.22825">
        <ele>683</ele>
        <time>2019-04-19T07:59:16Z</time>
      </trkpt>
      <trkpt lat="45.70964" lon="7.22779">
        <ele>685</ele>
        <time>2019-04-19T08:00:16Z</time>
      </trkpt>
      <trkpt lat="45.70939" lon="7.22667">
        <ele>683</ele>
        <time>2019-04-19T08:01:16Z</time>
      </trkpt>
      <trkpt lat="45.70931" lon="7.22648">
        <ele>682</ele>
        <time>2019-04-19T08:02:16Z</time>
      </trkpt>
      <trkpt lat="45.70882" lon="7.22608">
        <ele>678</ele>
        <time>2019-04-19T08:03:16Z</time>
      </trkpt>
      <trkpt lat="45.70868" lon="7.22594">
        <ele>678</ele>
        <time>2019-04-19T08:04:16Z</time>
      </trkpt>
      <trkpt lat="45.70862" lon="7.22587">
        <ele>678</ele>
        <time>2019-04-19T08:05:16Z</time>
      </trkpt>
      <trkpt lat="45.70859" lon="7.22578">
        <ele>678</ele>
        <time>2019-04-19T08:06:16Z</time>
      </trkpt>
      <trkpt lat="45.70847" lon="7.22583">
        <ele>677</ele>
        <time>2019-04-19T08:07:16Z</time>
      </trkpt>
      <trkpt lat="45.70836" lon="7.22581">
        <ele>676</ele>
        <time>2019-04-19T08:08:16Z</time>
      </trkpt>
      <trkpt lat="45.70798" lon="7.22549">
        <ele>678</ele>
        <time>2019-04-19T08:09:16Z</time>
      </trkpt>
      <trkpt lat="45.70663" lon="7.22427">
        <ele>677</ele>
        <time>2019-04-19T08:10:16Z</time>
      </trkpt>
      <trkpt lat="45.70655" lon="7.22418">
        <ele>676</ele>
        <time>2019-04-19T08:11:16Z</time>
      </trkpt>
      <trkpt lat="45.70633" lon="7.22384">
        <ele>675</ele>
        <time>2019-04-19T08:12:16Z</time>
      </trkpt>
      <trkpt lat="45.70615" lon="7.22348">
        <ele>675</ele>
        <time>2019-04-19T08:13:16Z</time>
      </trkpt>
      <trkpt lat="45.70608" lon="7.22329">
        <ele>675</ele>
        <time>2019-04-19T08:14:16Z</time>
      </trkpt>
      <trkpt lat="45.70597" lon="7.22281">
        <ele>675</ele>
        <time>2019-04-19T08:15:16Z</time>
      </trkpt>
      <trkpt lat="45.70593" lon="7.22244">
        <ele>676</ele>
        <time>2019-04-19T08:16:16Z</time>
      </trkpt>
      <trkpt lat="45.70594" lon="7.21964">
        <ele>670</ele>
        <time>2019-04-19T08:17:16Z</time>
      </trkpt>
      <trkpt lat="45.70596" lon="7.21853">
        <ele>669</ele>
        <time>2019-04-19T08:18:16Z</time>
      </trkpt>
      <trkpt lat="45.70596" lon="7.21652">
        <ele>666</ele>
        <time>2019-04-19T08:19:16Z</time>
      </trkpt>
      <trkpt lat="45.70598" lon="7.21592">
        <ele>662</ele>
        <time>2019-04-19T08:20:16Z</time>
      </trkpt>
      <trkpt lat="45.70602" lon="7.2156">
        <ele>660</ele>
        <time>2019-04-19T08:21:16Z</time>
      </trkpt>
      <trkpt lat="45.70619" lon="7.21476">
        <ele>656</ele>
        <time>2019-04-19T08:22:16Z</time>
      </trkpt>
      <trkpt lat="45.70624" lon="7.21434">
        <ele>656</ele>
        <time>2019-04-19T08:23:16Z</time>
      </trkpt>
      <trkpt lat="45.70622" lon="7.214">
        <ele>655</ele>
        <time>2019-04-19T08:24:16Z</time>
      </trkpt>
      <trkpt lat="45.70602" lon="7.21274">
        <ele>657</ele>
        <time>2019-04-19T08:25:16Z</time>
      </trkpt>
      <trkpt lat="45.70595" lon="7.21252">
        <ele>657</ele>
        <time>2019-04-19T08:26:16Z</time>
      </trkpt>
      <trkpt lat="45.70586" lon="7.21229">
        <ele>657</ele>
        <time>2019-04-19T08:27:16Z</time>
      </trkpt>
      <trkpt lat="45.70563" lon="7.2119">
        <ele>658</ele>
        <time>2019-04-19T08:28:16Z</time>
      </trkpt>
      <trkpt lat="45.70443" lon="7.21009">
        <ele>659</ele>
        <time>2019-04-19T08:29:16Z</time>
      </trkpt>
      <trkpt lat="45.70432" lon="7.20988">
        <ele>659</ele>
        <time>2019-04-19T08:30:16Z</time>
      </trkpt>
      <trkpt lat="45.70421" lon="7.20955">
        <ele>659</ele>
        <time>2019-04-19T08:31:16Z</time>
      </trkpt>
      <trkpt lat="45.70417" lon="7.2094">
        <ele>659</ele>
        <time>2019-04-19T08:32:16Z</time>
      </trkpt>
      <trkpt lat="45.70413" lon="7.20907">
        <ele>660</ele>
        <time>2019-04-19T08:33:16Z</time>
      </trkpt>
      <trkpt lat="45.70395" lon="7.2067">
        <ele>679</ele>
        <time>2019-04-19T08:34:16Z</time>
      </trkpt>
      <trkpt lat="45.70391" lon="7.2058">
        <ele>682</ele>
        <time>2019-04-19T08:35:16Z</time>
      </trkpt>
      <trkpt lat="45.70384" lon="7.20545">
        <ele>683</ele>
        <time>2019-04-19T08:36:16Z</time>
      </trkpt>
      <trkpt lat="45.70375" lon="7.20522">
        <ele>681</ele>
        <time>2019-04-19T08:37:16Z</time>
      </trkpt>
      <trkpt lat="45.70363" lon="7.20499">
        <ele>678</ele>
        <time>2019-04-19T08:38:16Z</time>
      </trkpt>
      <trkpt lat="45.70297" lon="7.20424">
        <ele>669</ele>
        <time>2019-04-19T08:39:16Z</time>
      </trkpt>
      <trkpt lat="45.70284" lon="7.20407">
        <ele>669</ele>
        <time>2019-04-19T08:40:16Z</time>
      </trkpt>
      <trkpt lat="45.70275" lon="7.2039">
        <ele>669</ele>
        <time>2019-04-19T08:41:16Z</time>
      </trkpt>
      <trkpt lat="45.70261" lon="7.20356">
        <ele>669</ele>
        <time>2019-04-19T08:42:16Z</time>
      </trkpt>
      <trkpt lat="45.69978" lon="7.19271">
        <ele>676</ele>
        <time>2019-04-19T08:43:16Z</time>
      </trkpt>
      <trkpt lat="45.6997" lon="7.19234">
        <ele>676</ele>
        <time>2019-04-19T08:44:16Z</time>
      </trkpt>
      <trkpt lat="45.69966" lon="7.19184">
        <ele>675</ele>
        <time>2019-04-19T08:45:16Z</time>
      </trkpt>
      <trkpt lat="45.69968" lon="7.19138">
        <ele>675</ele>
        <time>2019-04-19T08:46:16Z</time>
      </trkpt>
      <trkpt lat="45.69974" lon="7.19109">
        <ele>676</ele>
        <time>2019-04-19T08:47:16Z</time>
      </trkpt>
      <trkpt lat="45.69989" lon="7.19063">
        <ele>676</ele>
        <time>2019-04-19T08:48:16Z</time>
      </trkpt>
      <trkpt lat="45.70002" lon="7.19037">
        <ele>676</ele>
        <time>2019-04-19T08:49:16Z</time>
      </trkpt>
      <trkpt lat="45.70284" lon="7.18538">
        <ele>714</ele>
        <time>2019-04-19T08:50:16Z</time>
      </trkpt>
      <trkpt lat="45.70295" lon="7.18513">
        <ele>715</ele>
        <time>2019-04-19T08:51:16Z</time>
      </trkpt>
      <trkpt lat="45.70304" lon="7.18487">
        <ele>714</ele>
        <time>2019-04-19T08:52:16Z</time>
      </trkpt>
      <trkpt lat="45.7031" lon="7.1846">
        <ele>715</ele>
        <time>2019-04-19T08:53:16Z</time>
      </trkpt>
      <trkpt lat="45.70313" lon="7.18434">
        <ele>716</ele>
        <time>2019-04-19T08:54:16Z</time>
      </trkpt>
      <trkpt lat="45.70313" lon="7.18402">
        <ele>719</ele>
        <time>2019-04-19T08:55:16Z</time>
      </trkpt>
      <trkpt lat="45.70307" lon="7.18304">
        <ele>730</ele>
        <time>2019-04-19T08:56:16Z</time>
      </trkpt>
      <trkpt lat="45.70306" lon="7.18266">
        <ele>732</ele>
        <time>2019-04-19T08:57:16Z</time>
      </trkpt>
      <trkpt lat="45.70311" lon="7.18221">
        <ele>734</ele>
        <time>2019-04-19T08:58:16Z</time>
      </trkpt>
      <trkpt lat="45.70318" lon="7.18193">
        <ele>733</ele>
        <time>2019-04-19T08:59:16Z</time>
      </trkpt>
      <trkpt lat="45.7033" lon="7.1816">
        <ele>731</ele>
        <time>2019-04-19T09:00:16Z</time>
      </trkpt>
      <trkpt lat="45.70343" lon="7.18139">
        <ele>731</ele>
        <time>2019-04-19T09:01:16Z</time>
      </trkpt>
      <trkpt lat="45.70357" lon="7.18122">
        <ele>732</ele>
        <time>2019-04-19T09:02:16Z</time>
      </trkpt>
      <trkpt lat="45.70417" lon="7.18072">
        <ele>726</ele>
        <time>2019-04-19T09:03:16Z</time>
      </trkpt>
      <trkpt lat="45.70446" lon="7.18044">
        <ele>728</ele>
        <time>2019-04-19T09:04:16Z</time>
      </trkpt>
      <trkpt lat="45.70469" lon="7.18017">
        <ele>729</ele>
        <time>2019-04-19T09:05:16Z</time>
      </trkpt>
      <trkpt lat="45.7052" lon="7.17945">
        <ele>728</ele>
        <time>2019-04-19T09:06:16Z</time>
      </trkpt>
      <trkpt lat="45.70554" lon="7.17893">
        <ele>729</ele>
        <time>2019-04-19T09:07:16Z</time>
      </trkpt>
      <trkpt lat="45.70567" lon="7.17867">
        <ele>731</ele>
        <time>2019-04-19T09:08:16Z</time>
      </trkpt>
      <trkpt lat="45.70575" lon="7.17843">
        <ele>734</ele>
        <time>2019-04-19T09:09:16Z</time>
      </trkpt>
      <trkpt lat="45.70581" lon="7.17817">
        <ele>737</ele>
        <time>2019-04-19T09:10:16Z</time>
      </trkpt>
      <trkpt lat="45.70586" lon="7.17782">
        <ele>743</ele>
        <time>2019-04-19T09:11:16Z</time>
      </trkpt>
      <trkpt lat="45.70584" lon="7.1773">
        <ele>751</ele>
        <time>2019-04-19T09:12:16Z</time>
      </trkpt>
      <trkpt lat="45.7058" lon="7.17685">
        <ele>755</ele>
        <time>2019-04-19T09:13:16Z</time>
      </trkpt>
      <trkpt lat="45.70571" lon="7.17624">
        <ele>757</ele>
        <time>2019-04-19T09:14:16Z</time>
      </trkpt>
      <trkpt lat="45.70553" lon="7.17524">
        <ele>750</ele>
        <time>2019-04-19T09:15:16Z</time>
      </trkpt>
      <trkpt lat="45.70541" lon="7.17473">
        <ele>747</ele>
        <time>2019-04-19T09:16:16Z</time>
      </trkpt>
      <trkpt lat="45.70469" lon="7.17217">
        <ele>755</ele>
        <time>2019-04-19T09:17:16Z</time>
      </trkpt>
      <trkpt lat="45.70459" lon="7.17189">
        <ele>757</ele>
        <time>2019-04-19T09:18:16Z</time>
      </trkpt>
      <trkpt lat="45.70447" lon="7.17163">
        <ele>759</ele>
        <time>2019-04-19T09:19:16Z</time>
      </trkpt>
      <trkpt lat="45.70419" lon="7.17123">
        <ele>762</ele>
        <time>2019-04-19T09:20:16Z</time>
      </trkpt>
      <trkpt lat="45.70374" lon="7.17067">
        <ele>772</ele>
        <time>2019-04-19T09:21:16Z</time>
      </trkpt>
      <trkpt lat="45.70361" lon="7.17046">
        <ele>772</ele>
        <time>2019-04-19T09:22:16Z</time>
      </trkpt>
      <trkpt lat="45.70346" lon="7.17008">
        <ele>765</ele>
        <time>2019-04-19T09:23:16Z</time>
      </trkpt>
      <trkpt lat="45.70333" lon="7.16948">
        <ele>759</ele>
        <time>2019-04-19T09:24:16Z</time>
      </trkpt>
      <trkpt lat="45.7033" lon="7.16928">
        <ele>757</ele>
        <time>2019-04-19T09:25:16Z</time>
      </trkpt>
      <trkpt lat="45.70329" lon="7.16895">
        <ele>756</ele>
        <time>2019-04-19T09:26:16Z</time>
      </trkpt>
      <trkpt lat="45.70333" lon="7.16839">
        <ele>754</ele>
        <time>2019-04-19T09:27:16Z</time>
      </trkpt>
      <trkpt lat="45.70386" lon="7.16548">
        <ele>752</ele>
        <time>2019-04-19T09:28:16Z</time>
      </trkpt>
      <trkpt lat="45.70389" lon="7.1651">
        <ele>752</ele>
        <time>2019-04-19T09:29:16Z</time>
      </trkpt>
      <trkpt lat="45.70387" lon="7.16472">
        <ele>752</ele>
        <time>2019-04-19T09:30:16Z</time>
      </trkpt>
      <trkpt lat="45.70384" lon="7.16454">
        <ele>752</ele>
        <time>2019-04-19T09:31:16Z</time>
      </trkpt>
      <trkpt lat="45.70379" lon="7.16436">
        <ele>752</ele>
        <time>2019-04-19T09:32:16Z</time>
      </trkpt>
      <trkpt lat="45.70366" lon="7.16405">
        <ele>750</ele>
        <time>2019-04-19T09:33:16Z</time>
      </trkpt>
      <trkpt lat="45.70357" lon="7.16389">
        <ele>749</ele>
        <time>2019-04-19T09:34:16Z</time>
      </trkpt>
      <trkpt lat="45.70315" lon="7.16339">
        <ele>746</ele>
        <time>2019-04-19T09:35:16Z</time>
      </trkpt>
      <trkpt lat="45.70275" lon="7.16294">
        <ele>744</ele>
        <time>2019-04-19T09:36:16Z</time>
      </trkpt>
      <trkpt lat="45.70252" lon="7.16272">
        <ele>747</ele>
        <time>2019-04-19T09:37:16Z</time>
      </trkpt>
      <trkpt lat="45.70254" lon="7.16265">
        <ele>746</ele>
        <time>2019-04-19T09:38:16Z</time>
      </trkpt>
      <trkpt lat="45.70255" lon="7.16257">
        <ele>744</ele>
        <time>2019-04-19T09:39:16Z</time>
      </trkpt>
      <trkpt lat="45.70253" lon="7.16249">
        <ele>744</ele>
        <time>2019-04-19T09:40:16Z</time>
      </trkpt>
      <trkpt lat="45.7025" lon="7.16243">
        <ele>744</ele>
        <time>2019-04-19T09:41:16Z</time>
      </trkpt>
      <trkpt lat="45.70246" lon="7.16238">
        <ele>744</ele>
        <time>2019-04-19T09:42:16Z</time>
      </trkpt>
      <trkpt lat="45.70241" lon="7.16236">
        <ele>744</ele>
        <time>2019-04-19T09:43:16Z</time>
      </trkpt>
      <trkpt lat="45.70235" lon="7.16236">
        <ele>745</ele>
        <time>2019-04-19T09:44:16Z</time>
      </trkpt>
      <trkpt lat="45.7023" lon="7.16239">
        <ele>745</ele>
        <time>2019-04-19T09:45:16Z</time>
      </trkpt>
      <trkpt lat="45.70208" lon="7.16182">
        <ele>742</ele>
        <time>2019-04-19T09:46:16Z</time>
      </trkpt>
      <trkpt lat="45.70197" lon="7.1614">
        <ele>739</ele>
        <time>2019-04-19T09:47:16Z</time>
      </trkpt>
      <trkpt lat="45.70194" lon="7.16124">
        <ele>738</ele>
        <time>2019-04-19T09:48:16Z</time>
      </trkpt>
      <trkpt lat="45.70191" lon="7.1609">
        <ele>736</ele>
        <time>2019-04-19T09:49:16Z</time>
      </trkpt>
      <trkpt lat="45.70192" lon="7.16042">
        <ele>729</ele>
        <time>2019-04-19T09:50:16Z</time>
      </trkpt>
      <trkpt lat="45.70238" lon="7.15651">
        <ele>739</ele>
        <time>2019-04-19T09:51:16Z</time>
      </trkpt>
      <trkpt lat="45.70246" lon="7.15616">
        <ele>741</ele>
        <time>2019-04-19T09:52:16Z</time>
      </trkpt>
      <trkpt lat="45.70262" lon="7.1557">
        <ele>740</ele>
        <time>2019-04-19T09:53:16Z</time>
      </trkpt>
      <trkpt lat="45.70315" lon="7.15442">
        <ele>741</ele>
        <time>2019-04-19T09:54:16Z</time>
      </trkpt>
      <trkpt lat="45.70331" lon="7.15401">
        <ele>748</ele>
        <time>2019-04-19T09:55:16Z</time>
      </trkpt>
      <trkpt lat="45.7034" lon="7.15371">
        <ele>753</ele>
        <time>2019-04-19T09:56:16Z</time>
      </trkpt>
      <trkpt lat="45.70435" lon="7.14843">
        <ele>772</ele>
        <time>2019-04-19T09:57:16Z</time>
      </trkpt>
      <trkpt lat="45.70538" lon="7.1448">
        <ele>765</ele>
        <time>2019-04-19T09:58:16Z</time>
      </trkpt>
      <trkpt lat="45.70548" lon="7.14435">
        <ele>767</ele>
        <time>2019-04-19T09:59:16Z</time>
      </trkpt>
      <trkpt lat="45.70563" lon="7.14338">
        <ele>765</ele>
        <time>2019-04-19T10:00:16Z</time>
      </trkpt>
      <trkpt lat="45.7059" lon="7.14222">
        <ele>758</ele>
        <time>2019-04-19T10:01:16Z</time>
      </trkpt>
      <trkpt lat="45.70629" lon="7.13998">
        <ele>771</ele>
        <time>2019-04-19T10:02:16Z</time>
      </trkpt>
      <trkpt lat="45.70658" lon="7.13886">
        <ele>774</ele>
        <time>2019-04-19T10:03:16Z</time>
      </trkpt>
      <trkpt lat="45.7066" lon="7.13871">
        <ele>777</ele>
        <time>2019-04-19T10:04:16Z</time>
      </trkpt>
      <trkpt lat="45.70663" lon="7.13837">
        <ele>782</ele>
        <time>2019-04-19T10:05:16Z</time>
      </trkpt>
      <trkpt lat="45.70663" lon="7.13747">
        <ele>797</ele>
        <time>2019-04-19T10:06:16Z</time>
      </trkpt>
      <trkpt lat="45.7066" lon="7.13707">
        <ele>795</ele>
        <time>2019-04-19T10:07:16Z</time>
      </trkpt>
      <trkpt lat="45.70646" lon="7.13643">
        <ele>796</ele>
        <time>2019-04-19T10:08:16Z</time>
      </trkpt>
      <trkpt lat="45.70642" lon="7.13601">
        <ele>792</ele>
        <time>2019-04-19T10:09:16Z</time>
      </trkpt>
      <trkpt lat="45.70646" lon="7.13592">
        <ele>789</ele>
        <time>2019-04-19T10:10:16Z</time>
      </trkpt>
      <trkpt lat="45.70645" lon="7.13581">
        <ele>788</ele>
        <time>2019-04-19T10:11:16Z</time>
      </trkpt>
      <trkpt lat="45.70639" lon="7.13573">
        <ele>791</ele>
        <time>2019-04-19T10:12:16Z</time>
      </trkpt>
      <trkpt lat="45.70633" lon="7.13573">
        <ele>793</ele>
        <time>2019-04-19T10:13:16Z</time>
      </trkpt>
      <trkpt lat="45.70627" lon="7.13578">
        <ele>796</ele>
        <time>2019-04-19T10:14:16Z</time>
      </trkpt>
      <trkpt lat="45.7061" lon="7.13571">
        <ele>802</ele>
        <time>2019-04-19T10:15:16Z</time>
      </trkpt>
      <trkpt lat="45.70608" lon="7.13569">
        <ele>803</ele>
        <time>2019-04-19T10:16:16Z</time>
      </trkpt>
      <trkpt lat="45.70588" lon="7.13519">
        <ele>801</ele>
        <time>2019-04-19T10:17:16Z</time>
      </trkpt>
      <trkpt lat="45.70575" lon="7.1347">
        <ele>801</ele>
        <time>2019-04-19T10:18:16Z</time>
      </trkpt>
      <trkpt lat="45.70571" lon="7.13433">
        <ele>799</ele>
        <time>2019-04-19T10:19:16Z</time>
      </trkpt>
      <trkpt lat="45.70548" lon="7.13157">
        <ele>814</ele>
        <time>2019-04-19T10:20:16Z</time>
      </trkpt>
      <trkpt lat="45.70547" lon="7.1309">
        <ele>809</ele>
        <time>2019-04-19T10:21:16Z</time>
      </trkpt>
      <trkpt lat="45.70552" lon="7.13035">
        <ele>807</ele>
        <time>2019-04-19T10:22:16Z</time>
      </trkpt>
      <trkpt lat="45.70563" lon="7.12979">
        <ele>804</ele>
        <time>2019-04-19T10:23:16Z</time>
      </trkpt>
      <trkpt lat="45.70668" lon="7.12594">
        <ele>799</ele>
        <time>2019-04-19T10:24:16Z</time>
      </trkpt>
      <trkpt lat="45.70689" lon="7.12531">
        <ele>797</ele>
        <time>2019-04-19T10:25:16Z</time>
      </trkpt>
      <trkpt lat="45.70707" lon="7.12489">
        <ele>797</ele>
        <time>2019-04-19T10:26:16Z</time>
      </trkpt>
      <trkpt lat="45.70728" lon="7.1245">
        <ele>798</ele>
        <time>2019-04-19T10:27:16Z</time>
      </trkpt>
      <trkpt lat="45.7076" lon="7.124">
        <ele>802</ele>
        <time>2019-04-19T10:28:16Z</time>
      </trkpt>
      <trkpt lat="45.71003" lon="7.12077">
        <ele>832</ele>
        <time>2019-04-19T10:29:16Z</time>
      </trkpt>
      <trkpt lat="45.71033" lon="7.12032">
        <ele>824</ele>
        <time>2019-04-19T10:30:16Z</time>
      </trkpt>
      <trkpt lat="45.71054" lon="7.11988">
        <ele>816</ele>
        <time>2019-04-19T10:31:16Z</time>
      </trkpt>
      <trkpt lat="45.71128" lon="7.11788">
        <ele>814</ele>
        <time>2019-04-19T10:32:16Z</time>
      </trkpt>
      <trkpt lat="45.71145" lon="7.11747">
        <ele>808</ele>
        <time>2019-04-19T10:33:16Z</time>
      </trkpt>
      <trkpt lat="45.71162" lon="7.11709">
        <ele>803</ele>
        <time>2019-04-19T10:34:16Z</time>
      </trkpt>
      <trkpt lat="45.71232" lon="7.11585">
        <ele>800</ele>
        <time>2019-04-19T10:35:16Z</time>
      </trkpt>
      <trkpt lat="45.71243" lon="7.11562">
        <ele>798</ele>
        <time>2019-04-19T10:36:16Z</time>
      </trkpt>
      <trkpt lat="45.71278" lon="7.11478">
        <ele>799</ele>
        <time>2019-04-19T10:37:16Z</time>
      </trkpt>
      <trkpt lat="45.71305" lon="7.11419">
        <ele>799</ele>
        <time>2019-04-19T10:38:16Z</time>
      </trkpt>
      <trkpt lat="45.71346" lon="7.11349">
        <ele>800</ele>
        <time>2019-04-19T10:39:16Z</time>
      </trkpt>
      <trkpt lat="45.71486" lon="7.11161">
        <ele>800</ele>
        <time>2019-04-19T10:40:16Z</time>
      </trkpt>
      <trkpt lat="45.71505" lon="7.11138">
        <ele>799</ele>
        <time>2019-04-19T10:41:16Z</time>
      </trkpt>
      <trkpt lat="45.71524" lon="7.11124">
        <ele>798</ele>
        <time>2019-04-19T10:42:16Z</time>
      </trkpt>
      <trkpt lat="45.71545" lon="7.11114">
        <ele>795</ele>
        <time>2019-04-19T10:43:16Z</time>
      </trkpt>
      <trkpt lat="45.716" lon="7.11111">
        <ele>788</ele>
        <time>2019-04-19T10:44:16Z</time>
      </trkpt>
      <trkpt lat="45.71608" lon="7.1111">
        <ele>789</ele>
        <time>2019-04-19T10:45:16Z</time>
      </trkpt>
      <trkpt lat="45.71626" lon="7.11101">
        <ele>791</ele>
        <time>2019-04-19T10:46:16Z</time>
      </trkpt>
      <trkpt lat="45.7164" lon="7.11091">
        <ele>791</ele>
        <time>2019-04-19T10:47:16Z</time>
      </trkpt>
      <trkpt lat="45.71654" lon="7.11078">
        <ele>790</ele>
        <time>2019-04-19T10:48:16Z</time>
      </trkpt>
      <trkpt lat="45.71665" lon="7.11064">
        <ele>790</ele>
        <time>2019-04-19T10:49:16Z</time>
      </trkpt>
      <trkpt lat="45.71705" lon="7.11008">
        <ele>794</ele>
        <time>2019-04-19T10:50:16Z</time>
      </trkpt>
      <trkpt lat="45.7173" lon="7.10964">
        <ele>793</ele>
        <time>2019-04-19T10:51:16Z</time>
      </trkpt>
      <trkpt lat="45.71739" lon="7.10942">
        <ele>791</ele>
        <time>2019-04-19T10:52:16Z</time>
      </trkpt>
      <trkpt lat="45.71747" lon="7.10919">
        <ele>788</ele>
        <time>2019-04-19T10:53:16Z</time>
      </trkpt>
      <trkpt lat="45.71772" lon="7.10821">
        <ele>800</ele>
        <time>2019-04-19T10:54:16Z</time>
      </trkpt>
      <trkpt lat="45.71781" lon="7.10791">
        <ele>800</ele>
        <time>2019-04-19T10:55:16Z</time>
      </trkpt>
      <trkpt lat="45.71801" lon="7.10741">
        <ele>797</ele>
        <time>2019-04-19T10:56:16Z</time>
      </trkpt>
      <trkpt lat="45.72033" lon="7.1031">
        <ele>798</ele>
        <time>2019-04-19T10:57:16Z</time>
      </trkpt>
      <trkpt lat="45.72047" lon="7.10289">
        <ele>800</ele>
        <time>2019-04-19T10:58:16Z</time>
      </trkpt>
      <trkpt lat="45.72109" lon="7.1021">
        <ele>802</ele>
        <time>2019-04-19T10:59:16Z</time>
      </trkpt>
      <trkpt lat="45.72141" lon="7.10161">
        <ele>800</ele>
        <time>2019-04-19T11:00:16Z</time>
      </trkpt>
      <trkpt lat="45.7231" lon="7.09877">
        <ele>798</ele>
        <time>2019-04-19T11:01:16Z</time>
      </trkpt>
      <trkpt lat="45.72318" lon="7.09879">
        <ele>798</ele>
        <time>2019-04-19T11:02:16Z</time>
      </trkpt>
      <trkpt lat="45.72381" lon="7.09798">
        <ele>800</ele>
        <time>2019-04-19T11:03:16Z</time>
      </trkpt>
      <trkpt lat="45.72428" lon="7.09728">
        <ele>802</ele>
        <time>2019-04-19T11:04:16Z</time>
      </trkpt>
      <trkpt lat="45.72439" lon="7.09708">
        <ele>804</ele>
        <time>2019-04-19T11:05:16Z</time>
      </trkpt>
      <trkpt lat="45.72492" lon="7.09598">
        <ele>806</ele>
        <time>2019-04-19T11:06:16Z</time>
      </trkpt>
      <trkpt lat="45.72489" lon="7.0959">
        <ele>806</ele>
        <time>2019-04-19T11:07:16Z</time>
      </trkpt>
      <trkpt lat="45.72484" lon="7.09584">
        <ele>805</ele>
        <time>2019-04-19T11:08:16Z</time>
      </trkpt>
      <trkpt lat="45.72601" lon="7.09389">
        <ele>819</ele>
        <time>2019-04-19T11:09:16Z</time>
      </trkpt>
      <trkpt lat="45.72788" lon="7.09042">
        <ele>823</ele>
        <time>2019-04-19T11:10:16Z</time>
      </trkpt>
      <trkpt lat="45.72805" lon="7.0902">
        <ele>823</ele>
        <time>2019-04-19T11:11:16Z</time>
      </trkpt>
      <trkpt lat="45.72844" lon="7.08985">
        <ele>825</ele>
        <time>2019-04-19T11:12:16Z</time>
      </trkpt>
      <trkpt lat="45.72863" lon="7.08962">
        <ele>825</ele>
        <time>2019-04-19T11:13:16Z</time>
      </trkpt>
      <trkpt lat="45.72884" lon="7.08926">
        <ele>822</ele>
        <time>2019-04-19T11:14:16Z</time>
      </trkpt>
      <trkpt lat="45.72894" lon="7.08895">
        <ele>821</ele>
        <time>2019-04-19T11:15:16Z</time>
      </trkpt>
      <trkpt lat="45.72916" lon="7.08783">
        <ele>819</ele>
        <time>2019-04-19T11:16:16Z</time>
      </trkpt>
      <trkpt lat="45.72929" lon="7.08722">
        <ele>819</ele>
        <time>2019-04-19T11:17:16Z</time>
      </trkpt>
      <trkpt lat="45.72944" lon="7.08686">
        <ele>821</ele>
        <time>2019-04-19T11:18:16Z</time>
      </trkpt>
      <trkpt lat="45.73011" lon="7.08553">
        <ele>825</ele>
        <time>2019-04-19T11:19:16Z</time>
      </trkpt>
      <trkpt lat="45.73034" lon="7.08503">
        <ele>826</ele>
        <time>2019-04-19T11:20:16Z</time>
      </trkpt>
      <trkpt lat="45.73053" lon="7.08449">
        <ele>830</ele>
        <time>2019-04-19T11:21:16Z</time>
      </trkpt>
      <trkpt lat="45.73056" lon="7.08434">
        <ele>830</ele>
        <time>2019-04-19T11:22:16Z</time>
      </trkpt>
      <trkpt lat="45.73061" lon="7.08407">
        <ele>831</ele>
        <time>2019-04-19T11:23:16Z</time>
      </trkpt>
      <trkpt lat="45.73088" lon="7.0816">
        <ele>835</ele>
        <time>2019-04-19T11:24:16Z</time>
      </trkpt>
      <trkpt lat="45.73095" lon="7.08116">
        <ele>836</ele>
        <time>2019-04-19T11:25:16Z</time>
      </trkpt>
      <trkpt lat="45.73117" lon="7.08028">
        <ele>843</ele>
        <time>2019-04-19T11:26:16Z</time>
      </trkpt>
      <trkpt lat="45.7313" lon="7.07968">
        <ele>847</ele>
        <time>2019-04-19T11:27:16Z</time>
      </trkpt>
      <trkpt lat="45.73133" lon="7.07944">
        <ele>848</ele>
        <time>2019-04-19T11:28:16Z</time>
      </trkpt>
      <trkpt lat="45.73139" lon="7.07894">
        <ele>848</ele>
        <time>2019-04-19T11:29:16Z</time>
      </trkpt>
      <trkpt lat="45.7314" lon="7.07756">
        <ele>847</ele>
        <time>2019-04-19T11:30:16Z</time>
      </trkpt>
      <trkpt lat="45.73143" lon="7.07728">
        <ele>847</ele>
        <time>2019-04-19T11:31:16Z</time>
      </trkpt>
      <trkpt lat="45.73148" lon="7.07701">
        <ele>847</ele>
        <time>2019-04-19T11:32:16Z</time>
      </trkpt>
      <trkpt lat="45.73155" lon="7.07682">
        <ele>845</ele>
        <time>2019-04-19T11:33:16Z</time>
      </trkpt>
      <trkpt lat="45.7317" lon="7.07652">
        <ele>844</ele>
        <time>2019-04-19T11:34:16Z</time>
      </trkpt>
      <trkpt lat="45.73341" lon="7.07447">
        <ele>851</ele>
        <time>2019-04-19T11:35:16Z</time>
      </trkpt>
      <trkpt lat="45.73451" lon="7.07294">
        <ele>857</ele>
        <time>2019-04-19T11:36:16Z</time>
      </trkpt>
      <trkpt lat="45.7347" lon="7.07272">
        <ele>858</ele>
        <time>2019-04-19T11:37:16Z</time>
      </trkpt>
      <trkpt lat="45.73486" lon="7.07257">
        <ele>858</ele>
        <time>2019-04-19T11:38:16Z</time>
      </trkpt>
      <trkpt lat="45.73674" lon="7.07095">
        <ele>861</ele>
        <time>2019-04-19T11:39:16Z</time>
      </trkpt>
      <trkpt lat="45.7382" lon="7.06942">
        <ele>872</ele>
        <time>2019-04-19T11:40:16Z</time>
      </trkpt>
      <trkpt lat="45.73853" lon="7.0691">
        <ele>872</ele>
        <time>2019-04-19T11:41:16Z</time>
      </trkpt>
      <trkpt lat="45.7387" lon="7.06896">
        <ele>874</ele>
        <time>2019-04-19T11:42:16Z</time>
      </trkpt>
      <trkpt lat="45.73907" lon="7.06878">
        <ele>876</ele>
        <time>2019-04-19T11:43:16Z</time>
      </trkpt>
      <trkpt lat="45.74009" lon="7.06846">
        <ele>877</ele>
        <time>2019-04-19T11:44:16Z</time>
      </trkpt>
      <trkpt lat="45.74033" lon="7.06833">
        <ele>877</ele>
        <time>2019-04-19T11:45:16Z</time>
      </trkpt>
      <trkpt lat="45.74043" lon="7.06825">
        <ele>879</ele>
        <time>2019-04-19T11:46:16Z</time>
      </trkpt>
      <trkpt lat="45.74056" lon="7.06812">
        <ele>881</ele>
        <time>2019-04-19T11:47:16Z</time>
      </trkpt>
      <trkpt lat="45.74066" lon="7.06798">
        <ele>881</ele>
        <time>2019-04-19T11:48:16Z</time>
      </trkpt>
      <trkpt lat="45.74075" lon="7.06781">
        <ele>880</ele>
        <time>2019-04-19T11:49:16Z</time>
      </trkpt>
      <trkpt lat="45.74083" lon="7.06764">
        <ele>879</ele>
        <time>2019-04-19T11:50:16Z</time>
      </trkpt>
      <trkpt lat="45.74089" lon="7.06746">
        <ele>880</ele>
        <time>2019-04-19T11:51:16Z</time>
      </trkpt>
      <trkpt lat="45.74093" lon="7.06724">
        <ele>881</ele>
        <time>2019-04-19T11:52:16Z</time>
      </trkpt>
      <trkpt lat="45.74108" lon="7.06633">
        <ele>884</ele>
        <time>2019-04-19T11:53:16Z</time>
      </trkpt>
      <trkpt lat="45.74118" lon="7.06591">
        <ele>884</ele>
        <time>2019-04-19T11:54:16Z</time>
      </trkpt>
      <trkpt lat="45.74133" lon="7.06557">
        <ele>886</ele>
        <time>2019-04-19T11:55:16Z</time>
      </trkpt>
      <trkpt lat="45.74176" lon="7.06479">
        <ele>887</ele>
        <time>2019-04-19T11:56:16Z</time>
      </trkpt>
      <trkpt lat="45.74195" lon="7.06438">
        <ele>887</ele>
        <time>2019-04-19T11:57:16Z</time>
      </trkpt>
      <trkpt lat="45.74205" lon="7.06403">
        <ele>887</ele>
        <time>2019-04-19T11:58:16Z</time>
      </trkpt>
      <trkpt lat="45.7422" lon="7.06323">
        <ele>890</ele>
        <time>2019-04-19T11:59:16Z</time>
      </trkpt>
      <trkpt lat="45.74226" lon="7.06301">
        <ele>890</ele>
        <time>2019-04-19T12:00:16Z</time>
      </trkpt>
      <trkpt lat="45.74241" lon="7.06265">
        <ele>891</ele>
        <time>2019-04-19T12:01:16Z</time>
      </trkpt>
      <trkpt lat="45.74261" lon="7.06234">
        <ele>891</ele>
        <time>2019-04-19T12:02:16Z</time>
      </trkpt>
      <trkpt lat="45.74283" lon="7.0621">
        <ele>892</ele>
        <time>2019-04-19T12:03:16Z</time>
      </trkpt>
      <trkpt lat="45.74302" lon="7.06197">
        <ele>892</ele>
        <time>2019-04-19T12:04:16Z</time>
      </trkpt>
      <trkpt lat="45.74316" lon="7.06191">
        <ele>892</ele>
        <time>2019-04-19T12:05:16Z</time>
      </trkpt>
      <trkpt lat="45.74377" lon="7.0617">
        <ele>893</ele>
        <time>2019-04-19T12:06:16Z</time>
      </trkpt>
      <trkpt lat="45.74416" lon="7.06159">
        <ele>893</ele>
        <time>2019-04-19T12:07:16Z</time>
      </trkpt>
      <trkpt lat="45.74448" lon="7.06153">
        <ele>893</ele>
        <time>2019-04-19T12:08:16Z</time>
      </trkpt>
      <trkpt lat="45.74453" lon="7.06159">
        <ele>894</ele>
        <time>2019-04-19T12:09:16Z</time>
      </trkpt>
      <trkpt lat="45.74459" lon="7.0616">
        <ele>894</ele>
        <time>2019-04-19T12:10:16Z</time>
      </trkpt>
      <trkpt lat="45.74464" lon="7.06156">
        <ele>893</ele>
        <time>2019-04-19T12:11:16Z</time>
      </trkpt>
      <trkpt lat="45.74467" lon="7.0615">
        <ele>893</ele>
        <time>2019-04-19T12:12:16Z</time>
      </trkpt>
      <trkpt lat="45.74484" lon="7.06143">
        <ele>893</ele>
        <time>2019-04-19T12:13:16Z</time>
      </trkpt>
      <trkpt lat="45.745" lon="7.06132">
        <ele>892</ele>
        <time>2019-04-19T12:14:16Z</time>
      </trkpt>
      <trkpt lat="45.74527" lon="7.0612">
        <ele>894</ele>
        <time>2019-04-19T12:15:16Z</time>
      </trkpt>
      <trkpt lat="45.74547" lon="7.06105">
        <ele>894</ele>
        <time>2019-04-19T12:16:16Z</time>
      </trkpt>
      <trkpt lat="45.74555" lon="7.06099">
        <ele>894</ele>
        <time>2019-04-19T12:17:16Z</time>
      </trkpt>
      <trkpt lat="45.74569" lon="7.06082">
        <ele>894</ele>
        <time>2019-04-19T12:18:16Z</time>
      </trkpt>
      <trkpt lat="45.74693" lon="7.05906">
        <ele>895</ele>
        <time>2019-04-19T12:19:16Z</time>
      </trkpt>
      <trkpt lat="45.74709" lon="7.0588">
        <ele>895</ele>
        <time>2019-04-19T12:20:16Z</time>
      </trkpt>
      <trkpt lat="45.74727" lon="7.05846">
        <ele>895</ele>
        <time>2019-04-19T12:21:16Z</time>
      </trkpt>
      <trkpt lat="45.74863" lon="7.05543">
        <ele>895</ele>
        <time>2019-04-19T12:22:16Z</time>
      </trkpt>
      <trkpt lat="45.74967" lon="7.05303">
        <ele>898</ele>
        <time>2019-04-19T12:23:16Z</time>
      </trkpt>
      <trkpt lat="45.75059" lon="7.05099">
        <ele>902</ele>
        <time>2019-04-19T12:24:16Z</time>
      </trkpt>
      <trkpt lat="45.75345" lon="7.04445">
        <ele>916</ele>
        <time>2019-04-19T12:25:16Z</time>
      </trkpt>
      <trkpt lat="45.75357" lon="7.04408">
        <ele>916</ele>
        <time>2019-04-19T12:26:16Z</time>
      </trkpt>
      <trkpt lat="45.75359" lon="7.0441">
        <ele>916</ele>
        <time>2019-04-19T12:27:16Z</time>
      </trkpt>
      <trkpt lat="45.75365" lon="7.04411">
        <ele>917</ele>
        <time>2019-04-19T12:28:16Z</time>
      </trkpt>
      <trkpt lat="45.75371" lon="7.04404">
        <ele>917</ele>
        <time>2019-04-19T12:29:16Z</time>
      </trkpt>
      <trkpt lat="45.75371" lon="7.04395">
        <ele>917</ele>
        <time>2019-04-19T12:30:16Z</time>
      </trkpt>
      <trkpt lat="45.75366" lon="7.04387">
        <ele>916</ele>
        <time>2019-04-19T12:31:16Z</time>
      </trkpt>
      <trkpt lat="45.75377" lon="7.0437">
        <ele>917</ele>
        <time>2019-04-19T12:32:16Z</time>
      </trkpt>
      <trkpt lat="45.75463" lon="7.04173">
        <ele>917</ele>
        <time>2019-04-19T12:33:16Z</time>
      </trkpt>
      <trkpt lat="45.75508" lon="7.04077">
        <ele>921</ele>
        <time>2019-04-19T12:34:16Z</time>
      </trkpt>
      <trkpt lat="45.75602" lon="7.03861">
        <ele>923</ele>
        <time>2019-04-19T12:35:16Z</time>
      </trkpt>
      <trkpt lat="45.75627" lon="7.03822">
        <ele>924</ele>
        <time>2019-04-19T12:36:16Z</time>
      </trkpt>
      <trkpt lat="45.75778" lon="7.03648">
        <ele>926</ele>
        <time>2019-04-19T12:37:16Z</time>
      </trkpt>
      <trkpt lat="45.75804" lon="7.03613">
        <ele>925</ele>
        <time>2019-04-19T12:38:16Z</time>
      </trkpt>
      <trkpt lat="45.75828" lon="7.03569">
        <ele>924</ele>
        <time>2019-04-19T12:39:16Z</time>
      </trkpt>
      <trkpt lat="45.7585" lon="7.03513">
        <ele>926</ele>
        <time>2019-04-19T12:40:16Z</time>
      </trkpt>
      <trkpt lat="45.75862" lon="7.03468">
        <ele>928</ele>
        <time>2019-04-19T12:41:16Z</time>
      </trkpt>
      <trkpt lat="45.75951" lon="7.03087">
        <ele>930</ele>
        <time>2019-04-19T12:42:16Z</time>
      </trkpt>
      <trkpt lat="45.75961" lon="7.03088">
        <ele>931</ele>
        <time>2019-04-19T12:43:16Z</time>
      </trkpt>
      <trkpt lat="45.75968" lon="7.03082">
        <ele>931</ele>
        <time>2019-04-19T12:44:16Z</time>
      </trkpt>
      <trkpt lat="45.75971" lon="7.03072">
        <ele>931</ele>
        <time>2019-04-19T12:45:16Z</time>
      </trkpt>
      <trkpt lat="45.7597" lon="7.03059">
        <ele>931</ele>
        <time>2019-04-19T12:46:16Z</time>
      </trkpt>
      <trkpt lat="45.75966" lon="7.03051">
        <ele>931</ele>
        <time>2019-04-19T12:47:16Z</time>
      </trkpt>
      <trkpt lat="45.75973" lon="7.0304">
        <ele>931</ele>
        <time>2019-04-19T12:48:16Z</time>
      </trkpt>
      <trkpt lat="45.76019" lon="7.02928">
        <ele>933</ele>
        <time>2019-04-19T12:49:16Z</time>
      </trkpt>
      <trkpt lat="45.76025" lon="7.02908">
        <ele>934</ele>
        <time>2019-04-19T12:50:16Z</time>
      </trkpt>
      <trkpt lat="45.76033" lon="7.02865">
        <ele>936</ele>
        <time>2019-04-19T12:51:16Z</time>
      </trkpt>
      <trkpt lat="45.76036" lon="7.02817">
        <ele>937</ele>
        <time>2019-04-19T12:52:16Z</time>
      </trkpt>
      <trkpt lat="45.76036" lon="7.02797">
        <ele>937</ele>
        <time>2019-04-19T12:53:16Z</time>
      </trkpt>
      <trkpt lat="45.76019" lon="7.02633">
        <ele>939</ele>
        <time>2019-04-19T12:54:16Z</time>
      </trkpt>
      <trkpt lat="45.76018" lon="7.02614">
        <ele>939</ele>
        <time>2019-04-19T12:55:16Z</time>
      </trkpt>
      <trkpt lat="45.76028" lon="7.02315">
        <ele>947</ele>
        <time>2019-04-19T12:56:16Z</time>
      </trkpt>
      <trkpt lat="45.76032" lon="7.02273">
        <ele>947</ele>
        <time>2019-04-19T12:57:16Z</time>
      </trkpt>
      <trkpt lat="45.76037" lon="7.02241">
        <ele>948</ele>
        <time>2019-04-19T12:58:16Z</time>
      </trkpt>
      <trkpt lat="45.76063" lon="7.02111">
        <ele>951</ele>
        <time>2019-04-19T12:59:16Z</time>
      </trkpt>
      <trkpt lat="45.76067" lon="7.02088">
        <ele>951</ele>
        <time>2019-04-19T13:00:16Z</time>
      </trkpt>
      <trkpt lat="45.76068" lon="7.02063">
        <ele>952</ele>
        <time>2019-04-19T13:01:16Z</time>
      </trkpt>
      <trkpt lat="45.76067" lon="7.02021">
        <ele>954</ele>
        <time>2019-04-19T13:02:16Z</time>
      </trkpt>
      <trkpt lat="45.76063" lon="7.01979">
        <ele>956</ele>
        <time>2019-04-19T13:03:16Z</time>
      </trkpt>
      <trkpt lat="45.76041" lon="7.0183">
        <ele>961</ele>
        <time>2019-04-19T13:04:16Z</time>
      </trkpt>
      <trkpt lat="45.76037" lon="7.01793">
        <ele>961</ele>
        <time>2019-04-19T13:05:16Z</time>
      </trkpt>
      <trkpt lat="45.76037" lon="7.01753">
        <ele>963</ele>
        <time>2019-04-19T13:06:16Z</time>
      </trkpt>
      <trkpt lat="45.76038" lon="7.01719">
        <ele>963</ele>
        <time>2019-04-19T13:07:16Z</time>
      </trkpt>
      <trkpt lat="45.76069" lon="7.01486">
        <ele>970</ele>
        <time>2019-04-19T13:08:16Z</time>
      </trkpt>
      <trkpt lat="45.76075" lon="7.01454">
        <ele>970</ele>
        <time>2019-04-19T13:09:16Z</time>
      </trkpt>
      <trkpt lat="45.76123" lon="7.01262">
        <ele>975</ele>
        <time>2019-04-19T13:10:16Z</time>
      </trkpt>
      <trkpt lat="45.76133" lon="7.01205">
        <ele>975</ele>
        <time>2019-04-19T13:11:16Z</time>
      </trkpt>
      <trkpt lat="45.76154" lon="7.01028">
        <ele>973</ele>
        <time>2019-04-19T13:12:16Z</time>
      </trkpt>
      <trkpt lat="45.76155" lon="7.00986">
        <ele>970</ele>
        <time>2019-04-19T13:13:16Z</time>
      </trkpt>
      <trkpt lat="45.76154" lon="7.00962">
        <ele>968</ele>
        <time>2019-04-19T13:14:16Z</time>
      </trkpt>
      <trkpt lat="45.76138" lon="7.00863">
        <ele>967</ele>
        <time>2019-04-19T13:15:16Z</time>
      </trkpt>
      <trkpt lat="45.76137" lon="7.00839">
        <ele>968</ele>
        <time>2019-04-19T13:16:16Z</time>
      </trkpt>
      <trkpt lat="45.76137" lon="7.00806">
        <ele>971</ele>
        <time>2019-04-19T13:17:16Z</time>
      </trkpt>
      <trkpt lat="45.76145" lon="7.00762">
        <ele>974</ele>
        <time>2019-04-19T13:18:16Z</time>
      </trkpt>
      <trkpt lat="45.76183" lon="7.00615">
        <ele>975</ele>
        <time>2019-04-19T13:19:16Z</time>
      </trkpt>
      <trkpt lat="45.76221" lon="7.00514">
        <ele>979</ele>
        <time>2019-04-19T13:20:16Z</time>
      </trkpt>
      <trkpt lat="45.76229" lon="7.00487">
        <ele>979</ele>
        <time>2019-04-19T13:21:16Z</time>
      </trkpt>
      <trkpt lat="45.7625" lon="7.00334">
        <ele>988</ele>
        <time>2019-04-19T13:22:16Z</time>
      </trkpt>
      <trkpt lat="45.76251" lon="7.00296">
        <ele>989</ele>
        <time>2019-04-19T13:23:16Z</time>
      </trkpt>
      <trkpt lat="45.76243" lon="7.00214">
        <ele>997</ele>
        <time>2019-04-19T13:24:16Z</time>
      </trkpt>
      <trkpt lat="45.76243" lon="7.00192">
        <ele>999</ele>
        <time>2019-04-19T13:25:16Z</time>
      </trkpt>
      <trkpt lat="45.76248" lon="7.0015">
        <ele>1002</ele>
        <time>2019-04-19T13:26:16Z</time>
      </trkpt>
      <trkpt lat="45.76252" lon="7.00134">
        <ele>1005</ele>
        <time>2019-04-19T13:27:16Z</time>
      </trkpt>
      <trkpt lat="45.76266" lon="7.00097">
        <ele>1008</ele>
        <time>2019-04-19T13:28:16Z</time>
      </trkpt>
      <trkpt lat="45.76307" lon="7.00009">
        <ele>1012</ele>
        <time>2019-04-19T13:29:16Z</time>
      </trkpt>
      <trkpt lat="45.76319" lon="6.99979">
        <ele>1013</ele>
        <time>2019-04-19T13:30:16Z</time>
      </trkpt>
      <trkpt lat="45.76353" lon="6.99862">
        <ele>1017</ele>
        <time>2019-04-19T13:31:16Z</time>
      </trkpt>
      <trkpt lat="45.76359" lon="6.99833">
        <ele>1016</ele>
        <time>2019-04-19T13:32:16Z</time>
      </trkpt>
      <trkpt lat="45.76359" lon="6.998">
        <ele>1016</ele>
        <time>2019-04-19T13:33:16Z</time>
      </trkpt>
      <trkpt lat="45.76359" lon="6.99784">
        <ele>1016</ele>
        <time>2019-04-19T13:34:16Z</time>
      </trkpt>
      <trkpt lat="45.76354" lon="6.99751">
        <ele>1016</ele>
        <time>2019-04-19T13:35:16Z</time>
      </trkpt>
      <trkpt lat="45.76342" lon="6.99709">
        <ele>1013</ele>
        <time>2019-04-19T13:36:16Z</time>
      </trkpt>
      <trkpt lat="45.76314" lon="6.99618">
        <ele>1008</ele>
        <time>2019-04-19T13:37:16Z</time>
      </trkpt>
      <trkpt lat="45.76285" lon="6.99554">
        <ele>1013</ele>
        <time>2019-04-19T13:38:16Z</time>
      </trkpt>
      <trkpt lat="45.76274" lon="6.99526">
        <ele>1015</ele>
        <time>2019-04-19T13:39:16Z</time>
      </trkpt>
      <trkpt lat="45.76267" lon="6.99495">
        <ele>1015</ele>
        <time>2019-04-19T13:40:16Z</time>
      </trkpt>
      <trkpt lat="45.76263" lon="6.99457">
        <ele>1018</ele>
        <time>2019-04-19T13:41:16Z</time>
      </trkpt>
      <trkpt lat="45.76264" lon="6.99437">
        <ele>1018</ele>
        <time>2019-04-19T13:42:16Z</time>
      </trkpt>
      <trkpt lat="45.76267" lon="6.99404">
        <ele>1019</ele>
        <time>2019-04-19T13:43:16Z</time>
      </trkpt>
      <trkpt lat="45.76279" lon="6.99308">
        <ele>1018</ele>
        <time>2019-04-19T13:44:16Z</time>
      </trkpt>
      <trkpt lat="45.7628" lon="6.99269">
        <ele>1018</ele>
        <time>2019-04-19T13:45:16Z</time>
      </trkpt>
      <trkpt lat="45.76276" lon="6.99234">
        <ele>1018</ele>
        <time>2019-04-19T13:46:16Z</time>
      </trkpt>
      <trkpt lat="45.7627" lon="6.99211">
        <ele>1018</ele>
        <time>2019-04-19T13:47:16Z</time>
      </trkpt>
      <trkpt lat="45.76243" lon="6.99145">
        <ele>1021</ele>
        <time>2019-04-19T13:48:16Z</time>
      </trkpt>
      <trkpt lat="45.76236" lon="6.99112">
        <ele>1021</ele>
        <time>2019-04-19T13:49:16Z</time>
      </trkpt>
      <trkpt lat="45.76234" lon="6.99086">
        <ele>1019</ele>
        <time>2019-04-19T13:50:16Z</time>
      </trkpt>
      <trkpt lat="45.76237" lon="6.99059">
        <ele>1016</ele>
        <time>2019-04-19T13:51:16Z</time>
      </trkpt>
      <trkpt lat="45.76244" lon="6.99031">
        <ele>1012</ele>
        <time>2019-04-19T13:52:16Z</time>
      </trkpt>
      <trkpt lat="45.7626" lon="6.99">
        <ele>1008</ele>
        <time>2019-04-19T13:53:16Z</time>
      </trkpt>
      <trkpt lat="45.7633" lon="6.98921">
        <ele>1007</ele>
        <time>2019-04-19T13:54:16Z</time>
      </trkpt>
      <trkpt lat="45.76341" lon="6.98907">
        <ele>1008</ele>
        <time>2019-04-19T13:55:16Z</time>
      </trkpt>
      <trkpt lat="45.76342" lon="6.98878">
        <ele>1009</ele>
        <time>2019-04-19T13:56:16Z</time>
      </trkpt>
      <trkpt lat="45.76392" lon="6.98651">
        <ele>1018</ele>
        <time>2019-04-19T13:57:16Z</time>
      </trkpt>
      <trkpt lat="45.76399" lon="6.98636">
        <ele>1019</ele>
        <time>2019-04-19T13:58:16Z</time>
      </trkpt>
      <trkpt lat="45.76422" lon="6.98597">
        <ele>1020</ele>
        <time>2019-04-19T13:59:16Z</time>
      </trkpt>
      <trkpt lat="45.76431" lon="6.98578">
        <ele>1021</ele>
        <time>2019-04-19T14:00:16Z</time>
      </trkpt>
      <trkpt lat="45.76459" lon="6.98509">
        <ele>1025</ele>
        <time>2019-04-19T14:01:16Z</time>
      </trkpt>
      <trkpt lat="45.76481" lon="6.98466">
        <ele>1028</ele>
        <time>2019-04-19T14:02:16Z</time>
      </trkpt>
      <trkpt lat="45.76626" lon="6.98314">
        <ele>1041</ele>
        <time>2019-04-19T14:03:16Z</time>
      </trkpt>
      <trkpt lat="45.76628" lon="6.98307">
        <ele>1042</ele>
        <time>2019-04-19T14:04:16Z</time>
      </trkpt>
      <trkpt lat="45.76626" lon="6.98301">
        <ele>1045</ele>
        <time>2019-04-19T14:05:16Z</time>
      </trkpt>
      <trkpt lat="45.76622" lon="6.983">
        <ele>1046</ele>
        <time>2019-04-19T14:06:16Z</time>
      </trkpt>
      <trkpt lat="45.76603" lon="6.98313">
        <ele>1044</ele>
        <time>2019-04-19T14:07:16Z</time>
      </trkpt>
      <trkpt lat="45.76587" lon="6.9832">
        <ele>1044</ele>
        <time>2019-04-19T14:08:16Z</time>
      </trkpt>
      <trkpt lat="45.76562" lon="6.98325">
        <ele>1045</ele>
        <time>2019-04-19T14:09:16Z</time>
      </trkpt>
      <trkpt lat="45.76393" lon="6.98335">
        <ele>1055</ele>
        <time>2019-04-19T14:10:16Z</time>
      </trkpt>
      <trkpt lat="45.76373" lon="6.98334">
        <ele>1056</ele>
        <time>2019-04-19T14:11:16Z</time>
      </trkpt>
      <trkpt lat="45.76308" lon="6.98314">
        <ele>1067</ele>
        <time>2019-04-19T14:12:16Z</time>
      </trkpt>
      <trkpt lat="45.76298" lon="6.98312">
        <ele>1069</ele>
        <time>2019-04-19T14:13:16Z</time>
      </trkpt>
      <trkpt lat="45.76284" lon="6.98314">
        <ele>1070</ele>
        <time>2019-04-19T14:14:16Z</time>
      </trkpt>
      <trkpt lat="45.76232" lon="6.98329">
        <ele>1074</ele>
        <time>2019-04-19T14:15:16Z</time>
      </trkpt>
      <trkpt lat="45.7622" lon="6.98336">
        <ele>1076</ele>
        <time>2019-04-19T14:16:16Z</time>
      </trkpt>
      <trkpt lat="45.76137" lon="6.98394">
        <ele>1087</ele>
        <time>2019-04-19T14:17:16Z</time>
      </trkpt>
      <trkpt lat="45.7613" lon="6.98401">
        <ele>1088</ele>
        <time>2019-04-19T14:18:16Z</time>
      </trkpt>
      <trkpt lat="45.76112" lon="6.98425">
        <ele>1086</ele>
        <time>2019-04-19T14:19:16Z</time>
      </trkpt>
      <trkpt lat="45.76076" lon="6.98452">
        <ele>1088</ele>
        <time>2019-04-19T14:20:16Z</time>
      </trkpt>
      <trkpt lat="45.76071" lon="6.98451">
        <ele>1090</ele>
        <time>2019-04-19T14:21:16Z</time>
      </trkpt>
      <trkpt lat="45.76068" lon="6.98448">
        <ele>1093</ele>
        <time>2019-04-19T14:22:16Z</time>
      </trkpt>
      <trkpt lat="45.76067" lon="6.98443">
        <ele>1095</ele>
        <time>2019-04-19T14:23:16Z</time>
      </trkpt>
      <trkpt lat="45.76068" lon="6.98438">
        <ele>1096</ele>
        <time>2019-04-19T14:24:16Z</time>
      </trkpt>
      <trkpt lat="45.7607" lon="6.98433">
        <ele>1097</ele>
        <time>2019-04-19T14:25:16Z</time>
      </trkpt>
      <trkpt lat="45.76101" lon="6.98421">
        <ele>1091</ele>
        <time>2019-04-19T14:26:16Z</time>
      </trkpt>
      <trkpt lat="45.7611" lon="6.9841">
        <ele>1091</ele>
        <time>2019-04-19T14:27:16Z</time>
      </trkpt>
      <trkpt lat="45.76122" lon="6.98369">
        <ele>1099</ele>
        <time>2019-04-19T14:28:16Z</time>
      </trkpt>
      <trkpt lat="45.7613" lon="6.98353">
        <ele>1101</ele>
        <time>2019-04-19T14:29:16Z</time>
      </trkpt>
      <trkpt lat="45.7616" lon="6.98329">
        <ele>1097</ele>
        <time>2019-04-19T14:30:16Z</time>
      </trkpt>
      <trkpt lat="45.76188" lon="6.98302">
        <ele>1095</ele>
        <time>2019-04-19T14:31:16Z</time>
      </trkpt>
      <trkpt lat="45.76194" lon="6.98292">
        <ele>1096</ele>
        <time>2019-04-19T14:32:16Z</time>
      </trkpt>
      <trkpt lat="45.76196" lon="6.98283">
        <ele>1098</ele>
        <time>2019-04-19T14:33:16Z</time>
      </trkpt>
      <trkpt lat="45.76194" lon="6.98279">
        <ele>1099</ele>
        <time>2019-04-19T14:34:16Z</time>
      </trkpt>
      <trkpt lat="45.76188" lon="6.98277">
        <ele>1101</ele>
        <time>2019-04-19T14:35:16Z</time>
      </trkpt>
      <trkpt lat="45.76154" lon="6.98313">
        <ele>1103</ele>
        <time>2019-04-19T14:36:16Z</time>
      </trkpt>
      <trkpt lat="45.76126" lon="6.98327">
        <ele>1109</ele>
        <time>2019-04-19T14:37:16Z</time>
      </trkpt>
      <trkpt lat="45.76117" lon="6.98337">
        <ele>1109</ele>
        <time>2019-04-19T14:38:16Z</time>
      </trkpt>
      <trkpt lat="45.76102" lon="6.98372">
        <ele>1104</ele>
        <time>2019-04-19T14:39:16Z</time>
      </trkpt>
      <trkpt lat="45.7609" lon="6.98388">
        <ele>1104</ele>
        <time>2019-04-19T14:40:16Z</time>
      </trkpt>
      <trkpt lat="45.76065" lon="6.98401">
        <ele>1109</ele>
        <time>2019-04-19T14:41:16Z</time>
      </trkpt>
      <trkpt lat="45.76061" lon="6.98402">
        <ele>1110</ele>
        <time>2019-04-19T14:42:16Z</time>
      </trkpt>
      <trkpt lat="45.76057" lon="6.984">
        <ele>1112</ele>
        <time>2019-04-19T14:43:16Z</time>
      </trkpt>
      <trkpt lat="45.76053" lon="6.98392">
        <ele>1115</ele>
        <time>2019-04-19T14:44:16Z</time>
      </trkpt>
      <trkpt lat="45.76054" lon="6.98383">
        <ele>1117</ele>
        <time>2019-04-19T14:45:16Z</time>
      </trkpt>
      <trkpt lat="45.76057" lon="6.98379">
        <ele>1117</ele>
        <time>2019-04-19T14:46:16Z</time>
      </trkpt>
      <trkpt lat="45.76085" lon="6.9837">
        <ele>1110</ele>
        <time>2019-04-19T14:47:16Z</time>
      </trkpt>
      <trkpt lat="45.76093" lon="6.98362">
        <ele>1110</ele>
        <time>2019-04-19T14:48:16Z</time>
      </trkpt>
      <trkpt lat="45.76107" lon="6.98313">
        <ele>1118</ele>
        <time>2019-04-19T14:49:16Z</time>
      </trkpt>
      <trkpt lat="45.7611" lon="6.98308">
        <ele>1118</ele>
        <time>2019-04-19T14:50:16Z</time>
      </trkpt>
      <trkpt lat="45.76146" lon="6.98275">
        <ele>1114</ele>
        <time>2019-04-19T14:51:16Z</time>
      </trkpt>
      <trkpt lat="45.76176" lon="6.98236">
        <ele>1117</ele>
        <time>2019-04-19T14:52:16Z</time>
      </trkpt>
      <trkpt lat="45.76177" lon="6.98227">
        <ele>1120</ele>
        <time>2019-04-19T14:53:16Z</time>
      </trkpt>
      <trkpt lat="45.76176" lon="6.98223">
        <ele>1122</ele>
        <time>2019-04-19T14:54:16Z</time>
      </trkpt>
      <trkpt lat="45.7617" lon="6.9822">
        <ele>1125</ele>
        <time>2019-04-19T14:55:16Z</time>
      </trkpt>
      <trkpt lat="45.7616" lon="6.98228">
        <ele>1125</ele>
        <time>2019-04-19T14:56:16Z</time>
      </trkpt>
      <trkpt lat="45.76153" lon="6.98239">
        <ele>1122</ele>
        <time>2019-04-19T14:57:16Z</time>
      </trkpt>
      <trkpt lat="45.76137" lon="6.98267">
        <ele>1119</ele>
        <time>2019-04-19T14:58:16Z</time>
      </trkpt>
      <trkpt lat="45.76133" lon="6.98271">
        <ele>1119</ele>
        <time>2019-04-19T14:59:16Z</time>
      </trkpt>
      <trkpt lat="45.76104" lon="6.98286">
        <ele>1126</ele>
        <time>2019-04-19T15:00:16Z</time>
      </trkpt>
      <trkpt lat="45.76096" lon="6.98294">
        <ele>1126</ele>
        <time>2019-04-19T15:01:16Z</time>
      </trkpt>
      <trkpt lat="45.76079" lon="6.98327">
        <ele>1124</ele>
        <time>2019-04-19T15:02:16Z</time>
      </trkpt>
      <trkpt lat="45.76071" lon="6.98332">
        <ele>1125</ele>
        <time>2019-04-19T15:03:16Z</time>
      </trkpt>
      <trkpt lat="45.76045" lon="6.98332">
        <ele>1131</ele>
        <time>2019-04-19T15:04:16Z</time>
      </trkpt>
      <trkpt lat="45.76" lon="6.98369">
        <ele>1137</ele>
        <time>2019-04-19T15:05:16Z</time>
      </trkpt>
      <trkpt lat="45.75993" lon="6.98388">
        <ele>1139</ele>
        <time>2019-04-19T15:06:16Z</time>
      </trkpt>
      <trkpt lat="45.75987" lon="6.98415">
        <ele>1138</ele>
        <time>2019-04-19T15:07:16Z</time>
      </trkpt>
      <trkpt lat="45.75982" lon="6.98459">
        <ele>1136</ele>
        <time>2019-04-19T15:08:16Z</time>
      </trkpt>
      <trkpt lat="45.75978" lon="6.98467">
        <ele>1138</ele>
        <time>2019-04-19T15:09:16Z</time>
      </trkpt>
      <trkpt lat="45.75975" lon="6.98468">
        <ele>1140</ele>
        <time>2019-04-19T15:10:16Z</time>
      </trkpt>
      <trkpt lat="45.75972" lon="6.98467">
        <ele>1142</ele>
        <time>2019-04-19T15:11:16Z</time>
      </trkpt>
      <trkpt lat="45.75968" lon="6.98458">
        <ele>1146</ele>
        <time>2019-04-19T15:12:16Z</time>
      </trkpt>
      <trkpt lat="45.75969" lon="6.98444">
        <ele>1147</ele>
        <time>2019-04-19T15:13:16Z</time>
      </trkpt>
      <trkpt lat="45.75973" lon="6.98424">
        <ele>1146</ele>
        <time>2019-04-19T15:14:16Z</time>
      </trkpt>
      <trkpt lat="45.76011" lon="6.98308">
        <ele>1146</ele>
        <time>2019-04-19T15:15:16Z</time>
      </trkpt>
      <trkpt lat="45.76014" lon="6.98301">
        <ele>1146</ele>
        <time>2019-04-19T15:16:16Z</time>
      </trkpt>
      <trkpt lat="45.76022" lon="6.98294">
        <ele>1146</ele>
        <time>2019-04-19T15:17:16Z</time>
      </trkpt>
      <trkpt lat="45.76065" lon="6.98273">
        <ele>1140</ele>
        <time>2019-04-19T15:18:16Z</time>
      </trkpt>
      <trkpt lat="45.76074" lon="6.98264">
        <ele>1140</ele>
        <time>2019-04-19T15:19:16Z</time>
      </trkpt>
      <trkpt lat="45.76095" lon="6.98231">
        <ele>1146</ele>
        <time>2019-04-19T15:20:16Z</time>
      </trkpt>
      <trkpt lat="45.76118" lon="6.98203">
        <ele>1150</ele>
        <time>2019-04-19T15:21:16Z</time>
      </trkpt>
      <trkpt lat="45.76145" lon="6.9819">
        <ele>1147</ele>
        <time>2019-04-19T15:22:16Z</time>
      </trkpt>
      <trkpt lat="45.7615" lon="6.98182">
        <ele>1148</ele>
        <time>2019-04-19T15:23:16Z</time>
      </trkpt>
      <trkpt lat="45.7615" lon="6.98176">
        <ele>1151</ele>
        <time>2019-04-19T15:24:16Z</time>
      </trkpt>
      <trkpt lat="45.76147" lon="6.98168">
        <ele>1155</ele>
        <time>2019-04-19T15:25:16Z</time>
      </trkpt>
      <trkpt lat="45.7614" lon="6.98167">
        <ele>1158</ele>
        <time>2019-04-19T15:26:16Z</time>
      </trkpt>
      <trkpt lat="45.76133" lon="6.98171">
        <ele>1159</ele>
        <time>2019-04-19T15:27:16Z</time>
      </trkpt>
      <trkpt lat="45.761" lon="6.98208">
        <ele>1154</ele>
        <time>2019-04-19T15:28:16Z</time>
      </trkpt>
      <trkpt lat="45.76065" lon="6.98233">
        <ele>1153</ele>
        <time>2019-04-19T15:29:16Z</time>
      </trkpt>
      <trkpt lat="45.75993" lon="6.9825">
        <ele>1164</ele>
        <time>2019-04-19T15:30:16Z</time>
      </trkpt>
      <trkpt lat="45.75988" lon="6.98253">
        <ele>1165</ele>
        <time>2019-04-19T15:31:16Z</time>
      </trkpt>
      <trkpt lat="45.75983" lon="6.9826">
        <ele>1165</ele>
        <time>2019-04-19T15:32:16Z</time>
      </trkpt>
      <trkpt lat="45.75959" lon="6.98293">
        <ele>1169</ele>
        <time>2019-04-19T15:33:16Z</time>
      </trkpt>
      <trkpt lat="45.75954" lon="6.98307">
        <ele>1169</ele>
        <time>2019-04-19T15:34:16Z</time>
      </trkpt>
      <trkpt lat="45.7594" lon="6.98401">
        <ele>1169</ele>
        <time>2019-04-19T15:35:16Z</time>
      </trkpt>
      <trkpt lat="45.75935" lon="6.98452">
        <ele>1169</ele>
        <time>2019-04-19T15:36:16Z</time>
      </trkpt>
      <trkpt lat="45.75931" lon="6.9846">
        <ele>1171</ele>
        <time>2019-04-19T15:37:16Z</time>
      </trkpt>
      <trkpt lat="45.75927" lon="6.98461">
        <ele>1173</ele>
        <time>2019-04-19T15:38:16Z</time>
      </trkpt>
      <trkpt lat="45.75922" lon="6.98451">
        <ele>1177</ele>
        <time>2019-04-19T15:39:16Z</time>
      </trkpt>
      <trkpt lat="45.75922" lon="6.98443">
        <ele>1178</ele>
        <time>2019-04-19T15:40:16Z</time>
      </trkpt>
      <trkpt lat="45.75937" lon="6.98326">
        <ele>1174</ele>
        <time>2019-04-19T15:41:16Z</time>
      </trkpt>
      <trkpt lat="45.75937" lon="6.98281">
        <ele>1180</ele>
        <time>2019-04-19T15:42:16Z</time>
      </trkpt>
      <trkpt lat="45.7594" lon="6.98267">
        <ele>1181</ele>
        <time>2019-04-19T15:43:16Z</time>
      </trkpt>
      <trkpt lat="45.75943" lon="6.98261">
        <ele>1181</ele>
        <time>2019-04-19T15:44:16Z</time>
      </trkpt>
      <trkpt lat="45.75978" lon="6.9822">
        <ele>1179</ele>
        <time>2019-04-19T15:45:16Z</time>
      </trkpt>
      <trkpt lat="45.76009" lon="6.98204">
        <ele>1176</ele>
        <time>2019-04-19T15:46:16Z</time>
      </trkpt>
      <trkpt lat="45.76038" lon="6.98195">
        <ele>1174</ele>
        <time>2019-04-19T15:47:16Z</time>
      </trkpt>
      <trkpt lat="45.76042" lon="6.98188">
        <ele>1177</ele>
        <time>2019-04-19T15:48:16Z</time>
      </trkpt>
      <trkpt lat="45.76041" lon="6.9818">
        <ele>1180</ele>
        <time>2019-04-19T15:49:16Z</time>
      </trkpt>
      <trkpt lat="45.76039" lon="6.98177">
        <ele>1182</ele>
        <time>2019-04-19T15:50:16Z</time>
      </trkpt>
      <trkpt lat="45.76033" lon="6.98176">
        <ele>1183</ele>
        <time>2019-04-19T15:51:16Z</time>
      </trkpt>
      <trkpt lat="45.76009" lon="6.98192">
        <ele>1181</ele>
        <time>2019-04-19T15:52:16Z</time>
      </trkpt>
      <trkpt lat="45.75977" lon="6.98199">
        <ele>1187</ele>
        <time>2019-04-19T15:53:16Z</time>
      </trkpt>
      <trkpt lat="45.75933" lon="6.9823">
        <ele>1191</ele>
        <time>2019-04-19T15:54:16Z</time>
      </trkpt>
      <trkpt lat="45.75926" lon="6.98236">
        <ele>1192</ele>
        <time>2019-04-19T15:55:16Z</time>
      </trkpt>
      <trkpt lat="45.75921" lon="6.98245">
        <ele>1192</ele>
        <time>2019-04-19T15:56:16Z</time>
      </trkpt>
      <trkpt lat="45.75917" lon="6.98254">
        <ele>1191</ele>
        <time>2019-04-19T15:57:16Z</time>
      </trkpt>
      <trkpt lat="45.75908" lon="6.98297">
        <ele>1191</ele>
        <time>2019-04-19T15:58:16Z</time>
      </trkpt>
      <trkpt lat="45.75905" lon="6.98308">
        <ele>1191</ele>
        <time>2019-04-19T15:59:16Z</time>
      </trkpt>
      <trkpt lat="45.75895" lon="6.98323">
        <ele>1194</ele>
        <time>2019-04-19T16:00:16Z</time>
      </trkpt>
      <trkpt lat="45.7589" lon="6.98329">
        <ele>1195</ele>
        <time>2019-04-19T16:01:16Z</time>
      </trkpt>
      <trkpt lat="45.75748" lon="6.98394">
        <ele>1176</ele>
        <time>2019-04-19T16:02:16Z</time>
      </trkpt>
      <trkpt lat="45.75743" lon="6.98396">
        <ele>1174</ele>
        <time>2019-04-19T16:03:16Z</time>
      </trkpt>
      <trkpt lat="45.75726" lon="6.98395">
        <ele>1174</ele>
        <time>2019-04-19T16:04:16Z</time>
      </trkpt>
      <trkpt lat="45.75711" lon="6.98384">
        <ele>1179</ele>
        <time>2019-04-19T16:05:16Z</time>
      </trkpt>
      <trkpt lat="45.757" lon="6.98368">
        <ele>1187</ele>
        <time>2019-04-19T16:06:16Z</time>
      </trkpt>
      <trkpt lat="45.75665" lon="6.98303">
        <ele>1204</ele>
        <time>2019-04-19T16:07:16Z</time>
      </trkpt>
      <trkpt lat="45.75653" lon="6.98285">
        <ele>1207</ele>
        <time>2019-04-19T16:08:16Z</time>
      </trkpt>
      <trkpt lat="45.7564" lon="6.98275">
        <ele>1206</ele>
        <time>2019-04-19T16:09:16Z</time>
      </trkpt>
      <trkpt lat="45.75607" lon="6.98267">
        <ele>1199</ele>
        <time>2019-04-19T16:10:16Z</time>
      </trkpt>
      <trkpt lat="45.756" lon="6.98261">
        <ele>1198</ele>
        <time>2019-04-19T16:11:16Z</time>
      </trkpt>
      <trkpt lat="45.75594" lon="6.98253">
        <ele>1197</ele>
        <time>2019-04-19T16:12:16Z</time>
      </trkpt>
      <trkpt lat="45.75586" lon="6.98238">
        <ele>1198</ele>
        <time>2019-04-19T16:13:16Z</time>
      </trkpt>
      <trkpt lat="45.75531" lon="6.98101">
        <ele>1207</ele>
        <time>2019-04-19T16:14:16Z</time>
      </trkpt>
      <trkpt lat="45.7549" lon="6.98006">
        <ele>1214</ele>
        <time>2019-04-19T16:15:16Z</time>
      </trkpt>
      <trkpt lat="45.75473" lon="6.97981">
        <ele>1219</ele>
        <time>2019-04-19T16:16:16Z</time>
      </trkpt>
      <trkpt lat="45.75459" lon="6.9797">
        <ele>1219</ele>
        <time>2019-04-19T16:17:16Z</time>
      </trkpt>
      <trkpt lat="45.75437" lon="6.9796">
        <ele>1214</ele>
        <time>2019-04-19T16:18:16Z</time>
      </trkpt>
      <trkpt lat="45.75428" lon="6.97953">
        <ele>1212</ele>
        <time>2019-04-19T16:19:16Z</time>
      </trkpt>
      <trkpt lat="45.7541" lon="6.97929">
        <ele>1213</ele>
        <time>2019-04-19T16:20:16Z</time>
      </trkpt>
      <trkpt lat="45.7539" lon="6.9789">
        <ele>1220</ele>
        <time>2019-04-19T16:21:16Z</time>
      </trkpt>
      <trkpt lat="45.75371" lon="6.97861">
        <ele>1221</ele>
        <time>2019-04-19T16:22:16Z</time>
      </trkpt>
      <trkpt lat="45.75234" lon="6.97701">
        <ele>1224</ele>
        <time>2019-04-19T16:23:16Z</time>
      </trkpt>
      <trkpt lat="45.75157" lon="6.97568">
        <ele>1227</ele>
        <time>2019-04-19T16:24:16Z</time>
      </trkpt>
      <trkpt lat="45.75111" lon="6.97504">
        <ele>1230</ele>
        <time>2019-04-19T16:25:16Z</time>
      </trkpt>
      <trkpt lat="45.75082" lon="6.97439">
        <ele>1232</ele>
        <time>2019-04-19T16:26:16Z</time>
      </trkpt>
      <trkpt lat="45.75045" lon="6.97384">
        <ele>1231</ele>
        <time>2019-04-19T16:27:16Z</time>
      </trkpt>
      <trkpt lat="45.75037" lon="6.97366">
        <ele>1231</ele>
        <time>2019-04-19T16:28:16Z</time>
      </trkpt>
      <trkpt lat="45.75026" lon="6.97323">
        <ele>1234</ele>
        <time>2019-04-19T16:29:16Z</time>
      </trkpt>
      <trkpt lat="45.75012" lon="6.97285">
        <ele>1238</ele>
        <time>2019-04-19T16:30:16Z</time>
      </trkpt>
      <trkpt lat="45.75003" lon="6.9727">
        <ele>1237</ele>
        <time>2019-04-19T16:31:16Z</time>
      </trkpt>
      <trkpt lat="45.74979" lon="6.9724">
        <ele>1241</ele>
        <time>2019-04-19T16:32:16Z</time>
      </trkpt>
      <trkpt lat="45.74964" lon="6.97224">
        <ele>1243</ele>
        <time>2019-04-19T16:33:16Z</time>
      </trkpt>
      <trkpt lat="45.74947" lon="6.97215">
        <ele>1243</ele>
        <time>2019-04-19T16:34:16Z</time>
      </trkpt>
      <trkpt lat="45.74909" lon="6.97206">
        <ele>1240</ele>
        <time>2019-04-19T16:35:16Z</time>
      </trkpt>
      <trkpt lat="45.74892" lon="6.972">
        <ele>1244</ele>
        <time>2019-04-19T16:36:16Z</time>
      </trkpt>
      <trkpt lat="45.74871" lon="6.97186">
        <ele>1248</ele>
        <time>2019-04-19T16:37:16Z</time>
      </trkpt>
      <trkpt lat="45.74845" lon="6.97159">
        <ele>1251</ele>
        <time>2019-04-19T16:38:16Z</time>
      </trkpt>
      <trkpt lat="45.74781" lon="6.9709">
        <ele>1259</ele>
        <time>2019-04-19T16:39:16Z</time>
      </trkpt>
      <trkpt lat="45.74759" lon="6.97058">
        <ele>1260</ele>
        <time>2019-04-19T16:40:16Z</time>
      </trkpt>
      <trkpt lat="45.74694" lon="6.96945">
        <ele>1269</ele>
        <time>2019-04-19T16:41:16Z</time>
      </trkpt>
      <trkpt lat="45.74679" lon="6.96923">
        <ele>1267</ele>
        <time>2019-04-19T16:42:16Z</time>
      </trkpt>
      <trkpt lat="45.74661" lon="6.96902">
        <ele>1268</ele>
        <time>2019-04-19T16:43:16Z</time>
      </trkpt>
      <trkpt lat="45.7464" lon="6.96884">
        <ele>1270</ele>
        <time>2019-04-19T16:44:16Z</time>
      </trkpt>
      <trkpt lat="45.74508" lon="6.96791">
        <ele>1274</ele>
        <time>2019-04-19T16:45:16Z</time>
      </trkpt>
      <trkpt lat="45.74497" lon="6.96785">
        <ele>1274</ele>
        <time>2019-04-19T16:46:16Z</time>
      </trkpt>
      <trkpt lat="45.74413" lon="6.96762">
        <ele>1271</ele>
        <time>2019-04-19T16:47:16Z</time>
      </trkpt>
      <trkpt lat="45.74391" lon="6.96747">
        <ele>1272</ele>
        <time>2019-04-19T16:48:16Z</time>
      </trkpt>
      <trkpt lat="45.74364" lon="6.96717">
        <ele>1274</ele>
        <time>2019-04-19T16:49:16Z</time>
      </trkpt>
      <trkpt lat="45.7434" lon="6.9668">
        <ele>1273</ele>
        <time>2019-04-19T16:50:16Z</time>
      </trkpt>
      <trkpt lat="45.74329" lon="6.96655">
        <ele>1274</ele>
        <time>2019-04-19T16:51:16Z</time>
      </trkpt>
      <trkpt lat="45.7432" lon="6.96622">
        <ele>1278</ele>
        <time>2019-04-19T16:52:16Z</time>
      </trkpt>
      <trkpt lat="45.74312" lon="6.96603">
        <ele>1280</ele>
        <time>2019-04-19T16:53:16Z</time>
      </trkpt>
      <trkpt lat="45.74287" lon="6.96557">
        <ele>1284</ele>
        <time>2019-04-19T16:54:16Z</time>
      </trkpt>
      <trkpt lat="45.74261" lon="6.96524">
        <ele>1287</ele>
        <time>2019-04-19T16:55:16Z</time>
      </trkpt>
      <trkpt lat="45.74204" lon="6.9647">
        <ele>1293</ele>
        <time>2019-04-19T16:56:16Z</time>
      </trkpt>
      <trkpt lat="45.7418" lon="6.96442">
        <ele>1295</ele>
        <time>2019-04-19T16:57:16Z</time>
      </trkpt>
      <trkpt lat="45.74144" lon="6.96408">
        <ele>1295</ele>
        <time>2019-04-19T16:58:16Z</time>
      </trkpt>
      <trkpt lat="45.74113" lon="6.96384">
        <ele>1297</ele>
        <time>2019-04-19T16:59:16Z</time>
      </trkpt>
      <trkpt lat="45.74065" lon="6.9636">
        <ele>1296</ele>
        <time>2019-04-19T17:00:16Z</time>
      </trkpt>
      <trkpt lat="45.73966" lon="6.9632">
        <ele>1303</ele>
        <time>2019-04-19T17:01:16Z</time>
      </trkpt>
      <trkpt lat="45.73953" lon="6.96307">
        <ele>1306</ele>
        <time>2019-04-19T17:02:16Z</time>
      </trkpt>
      <trkpt lat="45.7394" lon="6.96282">
        <ele>1307</ele>
        <time>2019-04-19T17:03:16Z</time>
      </trkpt>
      <trkpt lat="45.73903" lon="6.96186">
        <ele>1311</ele>
        <time>2019-04-19T17:04:16Z</time>
      </trkpt>
      <trkpt lat="45.73894" lon="6.96173">
        <ele>1311</ele>
        <time>2019-04-19T17:05:16Z</time>
      </trkpt>
      <trkpt lat="45.73838" lon="6.96111">
        <ele>1312</ele>
        <time>2019-04-19T17:06:16Z</time>
      </trkpt>
      <trkpt lat="45.73775" lon="6.9603">
        <ele>1326</ele>
        <time>2019-04-19T17:07:16Z</time>
      </trkpt>
      <trkpt lat="45.73758" lon="6.96011">
        <ele>1326</ele>
        <time>2019-04-19T17:08:16Z</time>
      </trkpt>
      <trkpt lat="45.73746" lon="6.96003">
        <ele>1325</ele>
        <time>2019-04-19T17:09:16Z</time>
      </trkpt>
      <trkpt lat="45.73734" lon="6.95997">
        <ele>1325</ele>
        <time>2019-04-19T17:10:16Z</time>
      </trkpt>
      <trkpt lat="45.73724" lon="6.95996">
        <ele>1325</ele>
        <time>2019-04-19T17:11:16Z</time>
      </trkpt>
      <trkpt lat="45.73713" lon="6.95998">
        <ele>1322</ele>
        <time>2019-04-19T17:12:16Z</time>
      </trkpt>
      <trkpt lat="45.73679" lon="6.96017">
        <ele>1316</ele>
        <time>2019-04-19T17:13:16Z</time>
      </trkpt>
      <trkpt lat="45.7367" lon="6.9602">
        <ele>1315</ele>
        <time>2019-04-19T17:14:16Z</time>
      </trkpt>
      <trkpt lat="45.73661" lon="6.9602">
        <ele>1314</ele>
        <time>2019-04-19T17:15:16Z</time>
      </trkpt>
      <trkpt lat="45.73646" lon="6.96015">
        <ele>1314</ele>
        <time>2019-04-19T17:16:16Z</time>
      </trkpt>
      <trkpt lat="45.73599" lon="6.95984">
        <ele>1318</ele>
        <time>2019-04-19T17:17:16Z</time>
      </trkpt>
      <trkpt lat="45.73588" lon="6.9598">
        <ele>1318</ele>
        <time>2019-04-19T17:18:16Z</time>
      </trkpt>
      <trkpt lat="45.73523" lon="6.95967">
        <ele>1316</ele>
        <time>2019-04-19T17:19:16Z</time>
      </trkpt>
      <trkpt lat="45.73513" lon="6.95976">
        <ele>1314</ele>
        <time>2019-04-19T17:20:16Z</time>
      </trkpt>
      <trkpt lat="45.7351" lon="6.95982">
        <ele>1313</ele>
        <time>2019-04-19T17:21:16Z</time>
      </trkpt>
      <trkpt lat="45.73501" lon="6.96028">
        <ele>1313</ele>
        <time>2019-04-19T17:22:16Z</time>
      </trkpt>
      <trkpt lat="45.73498" lon="6.96046">
        <ele>1315</ele>
        <time>2019-04-19T17:23:16Z</time>
      </trkpt>
      <trkpt lat="45.73499" lon="6.96055">
        <ele>1316</ele>
        <time>2019-04-19T17:24:16Z</time>
      </trkpt>
      <trkpt lat="45.73502" lon="6.96064">
        <ele>1317</ele>
        <time>2019-04-19T17:25:16Z</time>
      </trkpt>
      <trkpt lat="45.73507" lon="6.96072">
        <ele>1317</ele>
        <time>2019-04-19T17:26:16Z</time>
      </trkpt>
      <trkpt lat="45.73518" lon="6.96081">
        <ele>1317</ele>
        <time>2019-04-19T17:27:16Z</time>
      </trkpt>
      <trkpt lat="45.73535" lon="6.9609">
        <ele>1319</ele>
        <time>2019-04-19T17:28:16Z</time>
      </trkpt>
      <trkpt lat="45.73564" lon="6.96099">
        <ele>1319</ele>
        <time>2019-04-19T17:29:16Z</time>
      </trkpt>
      <trkpt lat="45.73576" lon="6.96107">
        <ele>1320</ele>
        <time>2019-04-19T17:30:16Z</time>
      </trkpt>
      <trkpt lat="45.73579" lon="6.96115">
        <ele>1322</ele>
        <time>2019-04-19T17:31:16Z</time>
      </trkpt>
      <trkpt lat="45.73579" lon="6.96124">
        <ele>1325</ele>
        <time>2019-04-19T17:32:16Z</time>
      </trkpt>
      <trkpt lat="45.73576" lon="6.96132">
        <ele>1328</ele>
        <time>2019-04-19T17:33:16Z</time>
      </trkpt>
      <trkpt lat="45.73572" lon="6.96136">
        <ele>1330</ele>
        <time>2019-04-19T17:34:16Z</time>
      </trkpt>
      <trkpt lat="45.73566" lon="6.96138">
        <ele>1331</ele>
        <time>2019-04-19T17:35:16Z</time>
      </trkpt>
      <trkpt lat="45.73561" lon="6.96136">
        <ele>1332</ele>
        <time>2019-04-19T17:36:16Z</time>
      </trkpt>
      <trkpt lat="45.73537" lon="6.96115">
        <ele>1328</ele>
        <time>2019-04-19T17:37:16Z</time>
      </trkpt>
      <trkpt lat="45.73519" lon="6.96105">
        <ele>1326</ele>
        <time>2019-04-19T17:38:16Z</time>
      </trkpt>
      <trkpt lat="45.73465" lon="6.96086">
        <ele>1330</ele>
        <time>2019-04-19T17:39:16Z</time>
      </trkpt>
      <trkpt lat="45.73414" lon="6.96052">
        <ele>1334</ele>
        <time>2019-04-19T17:40:16Z</time>
      </trkpt>
      <trkpt lat="45.73312" lon="6.96008">
        <ele>1335</ele>
        <time>2019-04-19T17:41:16Z</time>
      </trkpt>
      <trkpt lat="45.73292" lon="6.96003">
        <ele>1337</ele>
        <time>2019-04-19T17:42:16Z</time>
      </trkpt>
      <trkpt lat="45.73262" lon="6.96002">
        <ele>1341</ele>
        <time>2019-04-19T17:43:16Z</time>
      </trkpt>
      <trkpt lat="45.73254" lon="6.95998">
        <ele>1341</ele>
        <time>2019-04-19T17:44:16Z</time>
      </trkpt>
      <trkpt lat="45.73207" lon="6.95959">
        <ele>1344</ele>
        <time>2019-04-19T17:45:16Z</time>
      </trkpt>
      <trkpt lat="45.73196" lon="6.95953">
        <ele>1345</ele>
        <time>2019-04-19T17:46:16Z</time>
      </trkpt>
      <trkpt lat="45.73185" lon="6.95949">
        <ele>1346</ele>
        <time>2019-04-19T17:47:16Z</time>
      </trkpt>
      <trkpt lat="45.73159" lon="6.95947">
        <ele>1350</ele>
        <time>2019-04-19T17:48:16Z</time>
      </trkpt>
      <trkpt lat="45.73139" lon="6.95939">
        <ele>1353</ele>
        <time>2019-04-19T17:49:16Z</time>
      </trkpt>
      <trkpt lat="45.73062" lon="6.95885">
        <ele>1360</ele>
        <time>2019-04-19T17:50:16Z</time>
      </trkpt>
      <trkpt lat="45.73045" lon="6.95872">
        <ele>1364</ele>
        <time>2019-04-19T17:51:16Z</time>
      </trkpt>
      <trkpt lat="45.73031" lon="6.95858">
        <ele>1366</ele>
        <time>2019-04-19T17:52:16Z</time>
      </trkpt>
      <trkpt lat="45.72973" lon="6.95796">
        <ele>1370</ele>
        <time>2019-04-19T17:53:16Z</time>
      </trkpt>
      <trkpt lat="45.72922" lon="6.95717">
        <ele>1371</ele>
        <time>2019-04-19T17:54:16Z</time>
      </trkpt>
      <trkpt lat="45.72918" lon="6.95705">
        <ele>1371</ele>
        <time>2019-04-19T17:55:16Z</time>
      </trkpt>
      <trkpt lat="45.72912" lon="6.95654">
        <ele>1366</ele>
        <time>2019-04-19T17:56:16Z</time>
      </trkpt>
      <trkpt lat="45.72906" lon="6.95628">
        <ele>1364</ele>
        <time>2019-04-19T17:57:16Z</time>
      </trkpt>
      <trkpt lat="45.72888" lon="6.95588">
        <ele>1366</ele>
        <time>2019-04-19T17:58:16Z</time>
      </trkpt>
      <trkpt lat="45.72885" lon="6.95587">
        <ele>1368</ele>
        <time>2019-04-19T17:59:16Z</time>
      </trkpt>
      <trkpt lat="45.7288" lon="6.95593">
        <ele>1372</ele>
        <time>2019-04-19T18:00:16Z</time>
      </trkpt>
      <trkpt lat="45.72879" lon="6.95606">
        <ele>1375</ele>
        <time>2019-04-19T18:01:16Z</time>
      </trkpt>
      <trkpt lat="45.72884" lon="6.95651">
        <ele>1382</ele>
        <time>2019-04-19T18:02:16Z</time>
      </trkpt>
      <trkpt lat="45.72886" lon="6.9572">
        <ele>1391</ele>
        <time>2019-04-19T18:03:16Z</time>
      </trkpt>
      <trkpt lat="45.72891" lon="6.95743">
        <ele>1392</ele>
        <time>2019-04-19T18:04:16Z</time>
      </trkpt>
      <trkpt lat="45.72895" lon="6.95753">
        <ele>1391</ele>
        <time>2019-04-19T18:05:16Z</time>
      </trkpt>
      <trkpt lat="45.72913" lon="6.95783">
        <ele>1389</ele>
        <time>2019-04-19T18:06:16Z</time>
      </trkpt>
      <trkpt lat="45.72917" lon="6.95794">
        <ele>1391</ele>
        <time>2019-04-19T18:07:16Z</time>
      </trkpt>
      <trkpt lat="45.72915" lon="6.95801">
        <ele>1394</ele>
        <time>2019-04-19T18:08:16Z</time>
      </trkpt>
      <trkpt lat="45.72913" lon="6.95804">
        <ele>1395</ele>
        <time>2019-04-19T18:09:16Z</time>
      </trkpt>
      <trkpt lat="45.72909" lon="6.95806">
        <ele>1398</ele>
        <time>2019-04-19T18:10:16Z</time>
      </trkpt>
      <trkpt lat="45.72903" lon="6.95803">
        <ele>1400</ele>
        <time>2019-04-19T18:11:16Z</time>
      </trkpt>
      <trkpt lat="45.72887" lon="6.95778">
        <ele>1402</ele>
        <time>2019-04-19T18:12:16Z</time>
      </trkpt>
      <trkpt lat="45.7287" lon="6.9574">
        <ele>1403</ele>
        <time>2019-04-19T18:13:16Z</time>
      </trkpt>
      <trkpt lat="45.72853" lon="6.95673">
        <ele>1404</ele>
        <time>2019-04-19T18:14:16Z</time>
      </trkpt>
      <trkpt lat="45.72826" lon="6.95552">
        <ele>1391</ele>
        <time>2019-04-19T18:15:16Z</time>
      </trkpt>
      <trkpt lat="45.72819" lon="6.95525">
        <ele>1389</ele>
        <time>2019-04-19T18:16:16Z</time>
      </trkpt>
      <trkpt lat="45.72811" lon="6.95509">
        <ele>1390</ele>
        <time>2019-04-19T18:17:16Z</time>
      </trkpt>
      <trkpt lat="45.72799" lon="6.95491">
        <ele>1394</ele>
        <time>2019-04-19T18:18:16Z</time>
      </trkpt>
      <trkpt lat="45.72746" lon="6.95423">
        <ele>1406</ele>
        <time>2019-04-19T18:19:16Z</time>
      </trkpt>
      <trkpt lat="45.72712" lon="6.9539">
        <ele>1412</ele>
        <time>2019-04-19T18:20:16Z</time>
      </trkpt>
      <trkpt lat="45.72691" lon="6.95366">
        <ele>1415</ele>
        <time>2019-04-19T18:21:16Z</time>
      </trkpt>
      <trkpt lat="45.72552" lon="6.95163">
        <ele>1424</ele>
        <time>2019-04-19T18:22:16Z</time>
      </trkpt>
      <trkpt lat="45.72233" lon="6.94753">
        <ele>1474</ele>
        <time>2019-04-19T18:23:16Z</time>
      </trkpt>
      <trkpt lat="45.72222" lon="6.94743">
        <ele>1467</ele>
        <time>2019-04-19T18:24:16Z</time>
      </trkpt>
      <trkpt lat="45.72207" lon="6.94733">
        <ele>1463</ele>
        <time>2019-04-19T18:25:16Z</time>
      </trkpt>
      <trkpt lat="45.72194" lon="6.9473">
        <ele>1462</ele>
        <time>2019-04-19T18:26:16Z</time>
      </trkpt>
      <trkpt lat="45.72031" lon="6.94767">
        <ele>1453</ele>
        <time>2019-04-19T18:27:16Z</time>
      </trkpt>
      <trkpt lat="45.72023" lon="6.94766">
        <ele>1451</ele>
        <time>2019-04-19T18:28:16Z</time>
      </trkpt>
      <trkpt lat="45.71876" lon="6.9472">
        <ele>1440</ele>
        <time>2019-04-19T18:29:16Z</time>
      </trkpt>
      <trkpt lat="45.71867" lon="6.9472">
        <ele>1440</ele>
        <time>2019-04-19T18:30:16Z</time>
      </trkpt>
      <trkpt lat="45.71855" lon="6.94722">
        <ele>1441</ele>
        <time>2019-04-19T18:31:16Z</time>
      </trkpt>
      <trkpt lat="45.71788" lon="6.94762">
        <ele>1444</ele>
        <time>2019-04-19T18:32:16Z</time>
      </trkpt>
      <trkpt lat="45.7169" lon="6.94869">
        <ele>1452</ele>
        <time>2019-04-19T18:33:16Z</time>
      </trkpt>
      <trkpt lat="45.71676" lon="6.94882">
        <ele>1453</ele>
        <time>2019-04-19T18:34:16Z</time>
      </trkpt>
      <trkpt lat="45.71669" lon="6.94883">
        <ele>1452</ele>
        <time>2019-04-19T18:35:16Z</time>
      </trkpt>
      <trkpt lat="45.71664" lon="6.9488">
        <ele>1452</ele>
        <time>2019-04-19T18:36:16Z</time>
      </trkpt>
      <trkpt lat="45.7166" lon="6.94871">
        <ele>1452</ele>
        <time>2019-04-19T18:37:16Z</time>
      </trkpt>
      <trkpt lat="45.7165" lon="6.94818">
        <ele>1451</ele>
        <time>2019-04-19T18:38:16Z</time>
      </trkpt>
    </trkseg>
  </trk>
</gpx>